
Distance (Route):
Temperature : 12.9°C
Humidity : 50.5%
Pressure : 0hPa| Receiver | Frames | First received | Last received |
|---|---|---|---|
| IW2NTF | 1320 | 2026-08-31 23:02:12 | 2026-09-01 02:16:58 |
| DO3MHA-11 | 572 | 2026-08-31 23:40:22 | 2026-09-01 01:39:02 |
| DB0UT-7 | 194 | 2026-08-31 23:36:57 | 2026-09-01 01:29:50 |
| OE5DRO-10 | 162 | 2026-09-01 00:08:34 | 2026-09-01 01:12:21 |
| NBG1-10 | 130 | 2026-08-31 23:48:05 | 2026-09-01 01:29:57 |
| BAUMI2-15 | 86 | 2026-09-01 00:20:52 | 2026-09-01 01:04:15 |
| DL1ZP-14 | 44 | 2026-09-01 00:32:10 | 2026-09-01 01:01:40 |
| DF7PN | 40 | 2026-09-01 00:29:32 | 2026-09-01 01:00:36 |
| IN3HCDX | 31 | 2026-09-01 00:50:12 | 2026-09-01 01:06:58 |
| S52SK | 27 | 2026-09-01 00:18:13 | 2026-09-01 01:05:16 |
| RDZBGO | 27 | 2026-09-01 00:48:05 | 2026-09-01 01:07:30 |
| DK5PH-5 | 26 | 2026-09-01 00:37:33 | 2026-09-01 00:57:52 |
| OE5DXL-15 | 13 | 2026-09-01 00:31:01 | 2026-09-01 00:57:24 |
| PG1ADW-2 | 5 | 2026-09-01 00:31:53 | 2026-09-01 00:36:50 |
| OE3JTB-15 | 2 | 2026-09-01 00:21:07 | 2026-09-01 00:21:39 |
| Receiver | Date | Latitude | Longitude | Direction | Speed | Altitude | Climb | Temperature | Humidity | Pressure | Voltage | Killtimer | Uptime | BKT | XDATA |
|---|---|---|---|---|---|---|---|---|---|---|---|---|---|---|---|
| IW2NTF | 2026-09-01 02:16:58 | 45.66042 | 10.60726 | 69° | 16km/h | 2216m | -2.4m/s | 12.9°C | 50.5% | 0hPa | 2.7V | 07:09:35 | 03:43:10 | 00:00:00 | |
| IW2NTF | 2026-09-01 02:16:49 | 45.66036 | 10.60679 | 67° | 16km/h | 2232m | -2.1m/s | 12.9°C | 48.2% | 0hPa | 2.7V | 07:09:43 | 03:43:02 | 00:00:00 | |
| IW2NTF | 2026-09-01 02:16:41 | 45.66032 | 10.60635 | 77° | 11km/h | 2247m | -1.8m/s | 12.9°C | 45% | 0hPa | 2.7V | 07:09:51 | 03:42:54 | 00:00:00 | |
| IW2NTF | 2026-09-01 02:16:33 | 45.66028 | 10.60592 | 76° | 13km/h | 2262m | -1.9m/s | 12.9°C | 43.8% | 0hPa | 2.7V | 07:09:59 | 03:42:46 | 00:00:00 | |
| IW2NTF | 2026-09-01 02:16:27 | 45.66026 | 10.60554 | 74° | 18km/h | 2273m | -1.9m/s | 12.9°C | 41.3% | 0hPa | 2.7V | 07:10:05 | 03:42:40 | 00:00:00 | |
| IW2NTF | 2026-09-01 02:16:21 | 45.66026 | 10.60515 | 81° | 20km/h | 2287m | -2.6m/s | 12.8°C | 40.9% | 0hPa | 2.7V | 07:10:11 | 03:42:34 | 00:00:00 | |
| IW2NTF | 2026-09-01 02:16:15 | 45.66026 | 10.60480 | 97° | 22km/h | 2303m | -2.7m/s | 12.8°C | 38.5% | 0hPa | 2.7V | 07:10:17 | 03:42:28 | 00:00:00 | |
| IW2NTF | 2026-09-01 02:16:09 | 45.66022 | 10.60437 | 96° | 16km/h | 2318m | -2.5m/s | 12.7°C | 38.7% | 0hPa | 2.7V | 07:10:23 | 03:42:22 | 00:00:00 | |
| IW2NTF | 2026-09-01 02:16:03 | 45.66026 | 10.60393 | 80° | 18km/h | 2335m | -2.6m/s | 12.5°C | 39% | 0hPa | 2.7V | 07:10:29 | 03:42:16 | 00:00:00 | |
| IW2NTF | 2026-09-01 02:15:57 | 45.66029 | 10.60356 | 88° | 24km/h | 2350m | -2.5m/s | 12.4°C | 39.1% | 0hPa | 2.7V | 07:10:35 | 03:42:10 | 00:00:00 | |
| IW2NTF | 2026-09-01 02:15:51 | 45.66028 | 10.60316 | 109° | 18km/h | 2365m | -3m/s | 12.2°C | 39.5% | 0hPa | 2.7V | 07:10:41 | 03:42:04 | 00:00:00 | |
| IW2NTF | 2026-09-01 02:15:45 | 45.66031 | 10.60274 | 93° | 15km/h | 2381m | -3m/s | 12.1°C | 39.9% | 0hPa | 2.7V | 07:10:47 | 03:41:58 | 00:00:00 | |
| IW2NTF | 2026-09-01 02:15:39 | 45.66034 | 10.60232 | 79° | 22km/h | 2399m | -3m/s | 11.9°C | 39.9% | 0hPa | 2.7V | 07:10:53 | 03:41:52 | 00:00:00 | |
| IW2NTF | 2026-09-01 02:15:34 | 45.66037 | 10.60193 | 103° | 24km/h | 2417m | -3.5m/s | 11.8°C | 40.3% | 0hPa | 2.7V | 07:10:59 | 03:41:46 | 00:00:00 | |
| IW2NTF | 2026-09-01 02:15:27 | 45.66039 | 10.60153 | 108° | 16km/h | 2435m | -3.1m/s | 11.6°C | 40.8% | 0hPa | 2.7V | 07:11:05 | 03:41:40 | 00:00:00 | |
| IW2NTF | 2026-09-01 02:15:22 | 45.66042 | 10.60106 | 83° | 18km/h | 2453m | -2.8m/s | 11.4°C | 41.1% | 0hPa | 2.7V | 07:11:11 | 03:41:34 | 00:00:00 | |
| IW2NTF | 2026-09-01 02:15:15 | 45.66047 | 10.60061 | 93° | 26km/h | 2470m | -3.5m/s | 11.2°C | 41.5% | 0hPa | 2.7V | 07:11:17 | 03:41:28 | 00:00:00 | |
| IW2NTF | 2026-09-01 02:15:09 | 45.66048 | 10.60012 | 99° | 24km/h | 2490m | -3.4m/s | 11.1°C | 42.3% | 0hPa | 2.7V | 07:11:23 | 03:41:22 | 00:00:00 | |
| IW2NTF | 2026-09-01 02:15:03 | 45.66049 | 10.59961 | 102° | 20km/h | 2510m | -3.2m/s | 10.9°C | 42.7% | 0hPa | 2.7V | 07:11:29 | 03:41:16 | 00:00:00 | |
| IW2NTF | 2026-09-01 02:14:57 | 45.66054 | 10.59904 | 85° | 24km/h | 2530m | -3.1m/s | 10.7°C | 43% | 0hPa | 2.7V | 07:11:35 | 03:41:10 | 00:00:00 | |
| IW2NTF | 2026-09-01 02:14:51 | 45.66060 | 10.59855 | 96° | 29km/h | 2549m | -3.3m/s | 10.5°C | 43.3% | 0hPa | 2.7V | 07:11:41 | 03:41:04 | 00:00:00 | |
| IW2NTF | 2026-09-01 02:14:45 | 45.66061 | 10.59802 | 106° | 22km/h | 2569m | -3.4m/s | 10.3°C | 44.1% | 0hPa | 2.6V | 07:11:47 | 03:40:58 | 00:00:00 | |
| IW2NTF | 2026-09-01 02:14:39 | 45.66067 | 10.59744 | 87° | 22km/h | 2590m | -3.4m/s | 10.1°C | 44.7% | 0hPa | 2.7V | 07:11:53 | 03:40:52 | 00:00:00 | |
| IW2NTF | 2026-09-01 02:14:33 | 45.66072 | 10.59697 | 94° | 27km/h | 2612m | -3.6m/s | 9.9°C | 44.8% | 0hPa | 2.7V | 07:11:59 | 03:40:46 | 00:00:00 | |
| IW2NTF | 2026-09-01 02:14:27 | 45.66076 | 10.59647 | 111° | 26km/h | 2632m | -3.6m/s | 9.7°C | 45.3% | 0hPa | 2.7V | 07:12:05 | 03:40:40 | 00:00:00 | |
| IW2NTF | 2026-09-01 02:14:21 | 45.66080 | 10.59592 | 94° | 18km/h | 2652m | -3.7m/s | 9.5°C | 46.1% | 0hPa | 2.7V | 07:12:11 | 03:40:34 | 00:00:00 | |
| IW2NTF | 2026-09-01 02:14:15 | 45.66087 | 10.59541 | 91° | 26km/h | 2674m | -3.8m/s | 9.3°C | 46.2% | 0hPa | 2.7V | 07:12:17 | 03:40:28 | 00:00:00 | |
| IW2NTF | 2026-09-01 02:14:09 | 45.66095 | 10.59490 | 94° | 27km/h | 2695m | -3.5m/s | 9.1°C | 46.8% | 0hPa | 2.7V | 07:12:23 | 03:40:22 | 00:00:00 | |
| IW2NTF | 2026-09-01 02:14:03 | 45.66100 | 10.59437 | 105° | 29km/h | 2717m | -3.4m/s | 8.9°C | 47.3% | 0hPa | 2.7V | 07:12:29 | 03:40:16 | 00:00:00 | |
| IW2NTF | 2026-09-01 02:13:57 | 45.66105 | 10.59383 | 105° | 24km/h | 2736m | -3.3m/s | 8.7°C | 47.8% | 0hPa | 2.6V | 07:12:35 | 03:40:10 | 00:00:00 | |
| IW2NTF | 2026-09-01 02:13:51 | 45.66110 | 10.59326 | 95° | 22km/h | 2755m | -2.9m/s | 8.5°C | 48.4% | 0hPa | 2.7V | 07:12:41 | 03:40:04 | 00:00:00 | |
| IW2NTF | 2026-09-01 02:13:45 | 45.66118 | 10.59272 | 90° | 27km/h | 2773m | -3.1m/s | 8.3°C | 48.8% | 0hPa | 2.7V | 07:12:47 | 03:39:58 | 00:00:00 | |
| IW2NTF | 2026-09-01 02:13:39 | 45.66123 | 10.59223 | 98° | 27km/h | 2793m | -3.2m/s | 8.2°C | 49.3% | 0hPa | 2.7V | 07:12:53 | 03:39:52 | 00:00:00 | |
| IW2NTF | 2026-09-01 02:13:33 | 45.66127 | 10.59174 | 108° | 24km/h | 2811m | -3m/s | 8°C | 49.9% | 0hPa | 2.7V | 07:12:59 | 03:39:46 | 00:00:00 | |
| IW2NTF | 2026-09-01 02:13:27 | 45.66132 | 10.59123 | 102° | 18km/h | 2829m | -3m/s | 7.8°C | 50.5% | 0hPa | 2.7V | 07:13:05 | 03:39:40 | 00:00:00 | |
| IW2NTF | 2026-09-01 02:13:21 | 45.66138 | 10.59073 | 87° | 22km/h | 2848m | -3.2m/s | 7.6°C | 51.1% | 0hPa | 2.7V | 07:13:11 | 03:39:34 | 00:00:00 | |
| IW2NTF | 2026-09-01 02:13:15 | 45.66145 | 10.59028 | 95° | 27km/h | 2867m | -3m/s | 7.4°C | 51.5% | 0hPa | 2.7V | 07:13:17 | 03:39:28 | 00:00:00 | |
| IW2NTF | 2026-09-01 02:13:09 | 45.66148 | 10.58980 | 103° | 26km/h | 2886m | -3.2m/s | 7.2°C | 52.3% | 0hPa | 2.7V | 07:13:23 | 03:39:22 | 00:00:00 | |
| IW2NTF | 2026-09-01 02:13:03 | 45.66153 | 10.58934 | 109° | 20km/h | 2904m | -3.2m/s | 7.1°C | 52.5% | 0hPa | 2.7V | 07:13:29 | 03:39:16 | 00:00:00 | |
| IW2NTF | 2026-09-01 02:12:57 | 45.66157 | 10.58883 | 93° | 18km/h | 2922m | -3m/s | 6.9°C | 52.9% | 0hPa | 2.7V | 07:13:35 | 03:39:10 | 00:00:00 | |
| IW2NTF | 2026-09-01 02:12:51 | 45.66166 | 10.58834 | 95° | 24km/h | 2940m | -2.9m/s | 6.7°C | 53.6% | 0hPa | 2.7V | 07:13:41 | 03:39:04 | 00:00:00 | |
| IW2NTF | 2026-09-01 02:12:45 | 45.66175 | 10.58786 | 101° | 27km/h | 2958m | -2.8m/s | 6.6°C | 54.1% | 0hPa | 2.6V | 07:13:47 | 03:38:58 | 00:00:00 | |
| IW2NTF | 2026-09-01 02:12:37 | 45.66186 | 10.58719 | 99° | 27km/h | 2982m | -2.9m/s | 6.3°C | 54.9% | 0hPa | 2.7V | 07:13:55 | 03:38:50 | 00:00:00 | |
| IW2NTF | 2026-09-01 02:12:31 | 45.66195 | 10.58669 | 107° | 27km/h | 2999m | -2.7m/s | 6.2°C | 53.8% | 0hPa | 2.7V | 07:14:01 | 03:38:44 | 00:00:00 | |
| IW2NTF | 2026-09-01 02:12:25 | 45.66202 | 10.58618 | 114° | 22km/h | 3015m | -3m/s | 6.1°C | 54.1% | 0hPa | 2.6V | 07:14:07 | 03:38:38 | 00:00:00 | |
| IW2NTF | 2026-09-01 02:12:19 | 45.66211 | 10.58563 | 94° | 22km/h | 3032m | -2.9m/s | 5.9°C | 54% | 0hPa | 2.7V | 07:14:13 | 03:38:32 | 00:00:00 | |
| IW2NTF | 2026-09-01 02:12:13 | 45.66220 | 10.58510 | 96° | 26km/h | 3050m | -2.8m/s | 5.8°C | 54.1% | 0hPa | 2.7V | 07:14:19 | 03:38:26 | 00:00:00 | |
| IW2NTF | 2026-09-01 02:12:07 | 45.66228 | 10.58461 | 103° | 27km/h | 3067m | -2.9m/s | 5.6°C | 54.8% | 0hPa | 2.7V | 07:14:25 | 03:38:20 | 00:00:00 | |
| IW2NTF | 2026-09-01 02:12:01 | 45.66233 | 10.58414 | 107° | 22km/h | 3084m | -2.8m/s | 5.5°C | 53.9% | 0hPa | 2.7V | 07:14:31 | 03:38:14 | 00:00:00 | |
| IW2NTF | 2026-09-01 02:11:55 | 45.66237 | 10.58365 | 96° | 20km/h | 3101m | -2.8m/s | 5.5°C | 53.7% | 0hPa | 2.7V | 07:14:37 | 03:38:08 | 00:00:00 | |
| IW2NTF | 2026-09-01 02:11:49 | 45.66240 | 10.58315 | 85° | 20km/h | 3118m | -3m/s | 5.9°C | 33.4% | 0hPa | 2.7V | 07:14:43 | 03:38:02 | 00:00:00 | |
| IW2NTF | 2026-09-01 02:11:43 | 45.66244 | 10.58271 | 86° | 24km/h | 3135m | -2.8m/s | 5.8°C | 34.1% | 0hPa | 2.7V | 07:14:49 | 03:37:56 | 00:00:00 | |
| IW2NTF | 2026-09-01 02:11:37 | 45.66239 | 10.58229 | 90° | 20km/h | 3154m | -3m/s | 5.6°C | 33.6% | 0hPa | 2.7V | 07:14:55 | 03:37:50 | 00:00:00 | |
| IW2NTF | 2026-09-01 02:11:31 | 45.66233 | 10.58181 | 75° | 18km/h | 3173m | -3.2m/s | 5.5°C | 32.7% | 0hPa | 2.7V | 07:15:01 | 03:37:44 | 00:00:00 | |
| IW2NTF | 2026-09-01 02:11:25 | 45.66228 | 10.58136 | 68° | 22km/h | 3192m | -3.1m/s | 5.5°C | 31.9% | 0hPa | 2.7V | 07:15:07 | 03:37:38 | 00:00:00 | |
| IW2NTF | 2026-09-01 02:11:19 | 45.66220 | 10.58094 | 69° | 24km/h | 3210m | -3m/s | 5.4°C | 32.1% | 0hPa | 2.7V | 07:15:13 | 03:37:32 | 00:00:00 | |
| IW2NTF | 2026-09-01 02:11:13 | 45.66209 | 10.58054 | 77° | 24km/h | 3228m | -3m/s | 5.2°C | 33.6% | 0hPa | 2.7V | 07:15:19 | 03:37:26 | 00:00:00 | |
| IW2NTF | 2026-09-01 02:11:07 | 45.66197 | 10.58013 | 76° | 18km/h | 3245m | -2.8m/s | 5.1°C | 34.7% | 0hPa | 2.7V | 07:15:25 | 03:37:20 | 00:00:00 | |
| IW2NTF | 2026-09-01 02:11:01 | 45.66183 | 10.57970 | 56° | 16km/h | 3263m | -3.1m/s | 5°C | 36.3% | 0hPa | 2.7V | 07:15:31 | 03:37:14 | 00:00:00 | |
| IW2NTF | 2026-09-01 02:10:55 | 45.66173 | 10.57926 | 60° | 26km/h | 3281m | -2.9m/s | 4.8°C | 37% | 0hPa | 2.6V | 07:15:37 | 03:37:08 | 00:00:00 | |
| IW2NTF | 2026-09-01 02:10:49 | 45.66158 | 10.57887 | 68° | 24km/h | 3299m | -3m/s | 4.6°C | 37.8% | 0hPa | 2.7V | 07:15:43 | 03:37:02 | 00:00:00 | |
| IW2NTF | 2026-09-01 02:10:43 | 45.66142 | 10.57847 | 70° | 20km/h | 3317m | -3m/s | 4.5°C | 38.4% | 0hPa | 2.7V | 07:15:49 | 03:36:56 | 00:00:00 | |
| IW2NTF | 2026-09-01 02:10:37 | 45.66125 | 10.57805 | 61° | 18km/h | 3335m | -3m/s | 4.3°C | 39.7% | 0hPa | 2.7V | 07:15:55 | 03:36:50 | 00:00:00 | |
| IW2NTF | 2026-09-01 02:10:31 | 45.66109 | 10.57765 | 49° | 20km/h | 3353m | -2.9m/s | 4.1°C | 40.1% | 0hPa | 2.7V | 07:16:01 | 03:36:44 | 00:00:00 | |
| IW2NTF | 2026-09-01 02:10:25 | 45.66093 | 10.57725 | 52° | 24km/h | 3370m | -2.7m/s | 3.9°C | 40.6% | 0hPa | 2.7V | 07:16:07 | 03:36:38 | 00:00:00 | |
| IW2NTF | 2026-09-01 02:10:20 | 45.66079 | 10.57692 | 63° | 26km/h | 3384m | -2.8m/s | 3.8°C | 40.6% | 0hPa | 2.7V | 07:16:12 | 03:36:33 | 00:00:00 | |
| IW2NTF | 2026-09-01 02:10:14 | 45.66061 | 10.57651 | 69° | 22km/h | 3401m | -2.9m/s | 3.6°C | 41.7% | 0hPa | 2.7V | 07:16:18 | 03:36:27 | 00:00:00 | |
| IW2NTF | 2026-09-01 02:10:08 | 45.66042 | 10.57609 | 58° | 18km/h | 3418m | -3.1m/s | 3.5°C | 42% | 0hPa | 2.7V | 07:16:24 | 03:36:21 | 00:00:00 | |
| IW2NTF | 2026-09-01 02:10:02 | 45.66024 | 10.57563 | 47° | 24km/h | 3436m | -2.8m/s | 3.3°C | 41.2% | 0hPa | 2.7V | 07:16:30 | 03:36:15 | 00:00:00 | |
| IW2NTF | 2026-09-01 02:09:56 | 45.66008 | 10.57519 | 59° | 29km/h | 3453m | -2.9m/s | 3.2°C | 42.1% | 0hPa | 2.6V | 07:16:36 | 03:36:09 | 00:00:00 | |
| IW2NTF | 2026-09-01 02:09:50 | 45.65989 | 10.57473 | 65° | 27km/h | 3469m | -2.7m/s | 3°C | 41.4% | 0hPa | 2.7V | 07:16:42 | 03:36:03 | 00:00:00 | |
| IW2NTF | 2026-09-01 02:09:44 | 45.65967 | 10.57426 | 65° | 24km/h | 3486m | -2.9m/s | 2.9°C | 41.6% | 0hPa | 2.7V | 07:16:48 | 03:35:57 | 00:00:00 | |
| IW2NTF | 2026-09-01 02:09:38 | 45.65947 | 10.57375 | 55° | 24km/h | 3502m | -2.7m/s | 2.8°C | 38.9% | 0hPa | 2.7V | 07:16:54 | 03:35:51 | 00:00:00 | |
| IW2NTF | 2026-09-01 02:09:32 | 45.65928 | 10.57322 | 53° | 29km/h | 3518m | -2.7m/s | 2.6°C | 41.6% | 0hPa | 2.6V | 07:17:00 | 03:35:45 | 00:00:00 | |
| IW2NTF | 2026-09-01 02:09:26 | 45.65910 | 10.57271 | 64° | 31km/h | 3534m | -2.8m/s | 2.6°C | 37.7% | 0hPa | 2.7V | 07:17:06 | 03:35:39 | 00:00:00 | |
| IW2NTF | 2026-09-01 02:09:20 | 45.65891 | 10.57219 | 72° | 27km/h | 3550m | -2.6m/s | 2.4°C | 36.9% | 0hPa | 2.7V | 07:17:12 | 03:35:33 | 00:00:00 | |
| IW2NTF | 2026-09-01 02:09:14 | 45.65871 | 10.57165 | 65° | 24km/h | 3565m | -2.8m/s | 2.3°C | 35.7% | 0hPa | 2.7V | 07:17:18 | 03:35:27 | 00:00:00 | |
| IW2NTF | 2026-09-01 02:09:08 | 45.65852 | 10.57110 | 56° | 26km/h | 3580m | -2.5m/s | 2.2°C | 35.6% | 0hPa | 2.6V | 07:17:24 | 03:35:21 | 00:00:00 | |
| IW2NTF | 2026-09-01 02:09:02 | 45.65837 | 10.57054 | 61° | 31km/h | 3596m | -2.5m/s | 2.1°C | 34.4% | 0hPa | 2.7V | 07:17:30 | 03:35:15 | 00:00:00 | |
| IW2NTF | 2026-09-01 02:08:56 | 45.65820 | 10.57001 | 70° | 31km/h | 3612m | -2.7m/s | 2°C | 34.2% | 0hPa | 2.7V | 07:17:36 | 03:35:09 | 00:00:00 | |
| IW2NTF | 2026-09-01 02:08:50 | 45.65801 | 10.56945 | 73° | 27km/h | 3627m | -2.8m/s | 1.9°C | 34.8% | 0hPa | 2.7V | 07:17:42 | 03:35:03 | 00:00:00 | |
| IW2NTF | 2026-09-01 02:08:44 | 45.65781 | 10.56888 | 61° | 24km/h | 3643m | -2.6m/s | 2°C | 32.8% | 0hPa | 2.6V | 07:17:48 | 03:34:57 | 00:00:00 | |
| IW2NTF | 2026-09-01 02:08:38 | 45.65762 | 10.56830 | 54° | 29km/h | 3659m | -2.5m/s | 2°C | 31.8% | 0hPa | 2.7V | 07:17:54 | 03:34:51 | 00:00:00 | |
| IW2NTF | 2026-09-01 02:08:32 | 45.65742 | 10.56776 | 58° | 33km/h | 3674m | -2.6m/s | 1.9°C | 31.8% | 0hPa | 2.7V | 07:18:00 | 03:34:45 | 00:00:00 | |
| IW2NTF | 2026-09-01 02:08:26 | 45.65718 | 10.56722 | 62° | 31km/h | 3689m | -2.5m/s | 1.8°C | 32.1% | 0hPa | 2.7V | 07:18:06 | 03:34:39 | 00:00:00 | |
| IW2NTF | 2026-09-01 02:08:20 | 45.65693 | 10.56668 | 63° | 27km/h | 3705m | -2.6m/s | 1.7°C | 32.4% | 0hPa | 2.6V | 07:18:12 | 03:34:33 | 00:00:00 | |
| IW2NTF | 2026-09-01 02:08:12 | 45.65660 | 10.56597 | 64° | 27km/h | 3725m | -2.5m/s | 1.6°C | 32.8% | 0hPa | 2.6V | 07:18:20 | 03:34:25 | 00:00:00 | |
| IW2NTF | 2026-09-01 02:08:06 | 45.65634 | 10.56544 | 52° | 26km/h | 3741m | -2.7m/s | 1.5°C | 32.6% | 0hPa | 2.7V | 07:18:26 | 03:34:19 | 00:00:00 | |
| IW2NTF | 2026-09-01 02:08:00 | 45.65609 | 10.56492 | 47° | 29km/h | 3757m | -2.8m/s | 1.5°C | 32.5% | 0hPa | 2.7V | 07:18:32 | 03:34:13 | 00:00:00 | |
| IW2NTF | 2026-09-01 02:07:54 | 45.65586 | 10.56442 | 52° | 31km/h | 3772m | -2.5m/s | 1.4°C | 31.6% | 0hPa | 2.7V | 07:18:38 | 03:34:07 | 00:00:00 | |
| IW2NTF | 2026-09-01 02:07:48 | 45.65561 | 10.56395 | 59° | 31km/h | 3787m | -2.5m/s | 1.3°C | 31.2% | 0hPa | 2.7V | 07:18:44 | 03:34:01 | 00:00:00 | |
| IW2NTF | 2026-09-01 02:07:42 | 45.65536 | 10.56346 | 65° | 27km/h | 3803m | -2.7m/s | 1.2°C | 28.9% | 0hPa | 2.6V | 07:18:50 | 03:33:55 | 00:00:00 | |
| IW2NTF | 2026-09-01 02:07:36 | 45.65512 | 10.56295 | 52° | 24km/h | 3819m | -2.6m/s | 1.1°C | 28.2% | 0hPa | 2.7V | 07:18:56 | 03:33:49 | 00:00:00 | |
| IW2NTF | 2026-09-01 02:07:30 | 45.65487 | 10.56244 | 45° | 27km/h | 3834m | -2.6m/s | 1°C | 27.8% | 0hPa | 2.7V | 07:19:02 | 03:33:43 | 00:00:00 | |
| IW2NTF | 2026-09-01 02:07:24 | 45.65462 | 10.56195 | 49° | 31km/h | 3849m | -2.5m/s | 0.9°C | 27.7% | 0hPa | 2.7V | 07:19:08 | 03:33:37 | 00:00:00 | |
| IW2NTF | 2026-09-01 02:07:18 | 45.65437 | 10.56147 | 54° | 31km/h | 3864m | -2.5m/s | 0.7°C | 27.9% | 0hPa | 2.7V | 07:19:14 | 03:33:31 | 00:00:00 | |
| IW2NTF | 2026-09-01 02:07:12 | 45.65410 | 10.56101 | 58° | 29km/h | 3879m | -2.6m/s | 0.6°C | 28.5% | 0hPa | 2.7V | 07:19:20 | 03:33:25 | 00:00:00 | |
| IW2NTF | 2026-09-01 02:07:06 | 45.65382 | 10.56054 | 55° | 24km/h | 3894m | -2.6m/s | 0.4°C | 29% | 0hPa | 2.7V | 07:19:26 | 03:33:19 | 00:00:00 | |
| IW2NTF | 2026-09-01 02:07:00 | 45.65356 | 10.56007 | 45° | 24km/h | 3910m | -2.6m/s | 0.3°C | 28.5% | 0hPa | 2.6V | 07:19:32 | 03:33:13 | 00:00:00 | |
| IW2NTF | 2026-09-01 02:06:54 | 45.65329 | 10.55958 | 44° | 31km/h | 3926m | -2.7m/s | 0.2°C | 28.6% | 0hPa | 2.6V | 07:19:38 | 03:33:07 | 00:00:00 | |
| IW2NTF | 2026-09-01 02:06:48 | 45.65302 | 10.55907 | 49° | 33km/h | 3942m | -2.6m/s | 0°C | 28.6% | 0hPa | 2.7V | 07:19:44 | 03:33:01 | 00:00:00 | |
| IW2NTF | 2026-09-01 02:06:42 | 45.65275 | 10.55858 | 56° | 33km/h | 3958m | -2.6m/s | -0.1°C | 27.9% | 0hPa | 2.7V | 07:19:50 | 03:32:55 | 00:00:00 | |
| IW2NTF | 2026-09-01 02:06:36 | 45.65245 | 10.55807 | 58° | 29km/h | 3974m | -2.7m/s | -0.1°C | 27.5% | 0hPa | 2.7V | 07:19:56 | 03:32:49 | 00:00:00 | |
| IW2NTF | 2026-09-01 02:06:30 | 45.65216 | 10.55755 | 52° | 26km/h | 3990m | -2.6m/s | -0.3°C | 27.7% | 0hPa | 2.7V | 07:20:02 | 03:32:43 | 00:00:00 | |
| IW2NTF | 2026-09-01 02:06:24 | 45.65189 | 10.55702 | 46° | 29km/h | 4007m | -2.6m/s | -0.4°C | 27.9% | 0hPa | 2.6V | 07:20:08 | 03:32:37 | 00:00:00 | |
| IW2NTF | 2026-09-01 02:06:18 | 45.65163 | 10.55649 | 49° | 31km/h | 4022m | -2.5m/s | -0.6°C | 27.7% | 0hPa | 2.6V | 07:20:14 | 03:32:31 | 00:00:00 | |
| IW2NTF | 2026-09-01 02:06:12 | 45.65139 | 10.55597 | 57° | 33km/h | 4039m | -2.9m/s | -0.7°C | 27.6% | 0hPa | 2.7V | 07:20:20 | 03:32:25 | 00:00:00 | |
| IW2NTF | 2026-09-01 02:06:06 | 45.65113 | 10.55546 | 63° | 29km/h | 4055m | -2.8m/s | -0.9°C | 27.7% | 0hPa | 2.7V | 07:20:26 | 03:32:19 | 00:00:00 | |
| IW2NTF | 2026-09-01 02:06:00 | 45.65088 | 10.55494 | 60° | 26km/h | 4072m | -2.9m/s | -1°C | 27.3% | 0hPa | 2.7V | 07:20:32 | 03:32:13 | 00:00:00 | |
| IW2NTF | 2026-09-01 02:05:54 | 45.65066 | 10.55440 | 54° | 26km/h | 4090m | -3m/s | -1.1°C | 26.8% | 0hPa | 2.7V | 07:20:38 | 03:32:07 | 00:00:00 | |
| IW2NTF | 2026-09-01 02:05:48 | 45.65047 | 10.55386 | 58° | 29km/h | 4107m | -2.8m/s | -1.2°C | 24.8% | 0hPa | 2.7V | 07:20:44 | 03:32:01 | 00:00:00 | |
| IW2NTF | 2026-09-01 02:05:42 | 45.65031 | 10.55330 | 67° | 33km/h | 4124m | -2.9m/s | -1.3°C | 22.1% | 0hPa | 2.6V | 07:20:50 | 03:31:55 | 00:00:00 | |
| IW2NTF | 2026-09-01 02:05:36 | 45.65015 | 10.55274 | 74° | 31km/h | 4142m | -2.9m/s | -1.2°C | 19.6% | 0hPa | 2.6V | 07:20:56 | 03:31:49 | 00:00:00 | |
| IW2NTF | 2026-09-01 02:05:30 | 45.64996 | 10.55218 | 72° | 26km/h | 4159m | -3m/s | -1.2°C | 18.2% | 0hPa | 2.7V | 07:21:02 | 03:31:43 | 00:00:00 | |
| IW2NTF | 2026-09-01 02:05:24 | 45.64983 | 10.55154 | 69° | 29km/h | 4177m | -3m/s | -1.3°C | 18.7% | 0hPa | 2.7V | 07:21:08 | 03:31:37 | 00:00:00 | |
| IW2NTF | 2026-09-01 02:05:18 | 45.64972 | 10.55090 | 71° | 33km/h | 4195m | -3m/s | -1.5°C | 18.9% | 0hPa | 2.7V | 07:21:14 | 03:31:31 | 00:00:00 | |
| IW2NTF | 2026-09-01 02:05:12 | 45.64964 | 10.55031 | 88° | 33km/h | 4214m | -3.4m/s | -1.6°C | 18.9% | 0hPa | 2.7V | 07:21:20 | 03:31:25 | 00:00:00 | |
| IW2NTF | 2026-09-01 02:05:06 | 45.64954 | 10.54965 | 86° | 27km/h | 4235m | -3.1m/s | -1.7°C | 18.5% | 0hPa | 2.7V | 07:21:26 | 03:31:19 | 00:00:00 | |
| IW2NTF | 2026-09-01 02:05:00 | 45.64951 | 10.54896 | 80° | 31km/h | 4256m | -3.4m/s | -1.9°C | 18.8% | 0hPa | 2.6V | 07:21:32 | 03:31:13 | 00:00:00 | |
| IW2NTF | 2026-09-01 02:04:54 | 45.64951 | 10.54826 | 84° | 35km/h | 4276m | -3.5m/s | -2.1°C | 19.1% | 0hPa | 2.6V | 07:21:38 | 03:31:07 | 00:00:00 | |
| IW2NTF | 2026-09-01 02:04:48 | 45.64949 | 10.54760 | 93° | 35km/h | 4296m | -3.1m/s | -2.2°C | 18.7% | 0hPa | 2.6V | 07:21:44 | 03:31:01 | 00:00:00 | |
| IW2NTF | 2026-09-01 02:04:42 | 45.64949 | 10.54689 | 98° | 31km/h | 4316m | -3.2m/s | -2.3°C | 18.4% | 0hPa | 2.7V | 07:21:50 | 03:30:55 | 00:00:00 | |
| IW2NTF | 2026-09-01 02:04:36 | 45.64952 | 10.54617 | 95° | 29km/h | 4336m | -3.2m/s | -2.5°C | 18.6% | 0hPa | 2.7V | 07:21:56 | 03:30:49 | 00:00:00 | |
| IW2NTF | 2026-09-01 02:04:30 | 45.64957 | 10.54541 | 87° | 33km/h | 4355m | -3.2m/s | -2.4°C | 18% | 0hPa | 2.7V | 07:22:02 | 03:30:43 | 00:00:00 | |
| IW2NTF | 2026-09-01 02:04:24 | 45.64959 | 10.54465 | 86° | 38km/h | 4374m | -3.2m/s | -2.5°C | 18.1% | 0hPa | 2.7V | 07:22:08 | 03:30:37 | 00:00:00 | |
| IW2NTF | 2026-09-01 02:04:18 | 45.64960 | 10.54389 | 91° | 40km/h | 4393m | -3.3m/s | -2.6°C | 17.8% | 0hPa | 2.7V | 07:22:14 | 03:30:31 | 00:00:00 | |
| IW2NTF | 2026-09-01 02:04:12 | 45.64957 | 10.54312 | 93° | 37km/h | 4412m | -3.1m/s | -2.7°C | 17.7% | 0hPa | 2.7V | 07:22:20 | 03:30:25 | 00:00:00 | |
| IW2NTF | 2026-09-01 02:04:06 | 45.64954 | 10.54230 | 91° | 35km/h | 4430m | -3.1m/s | -2.7°C | 17.1% | 0hPa | 2.7V | 07:22:26 | 03:30:19 | 00:00:00 | |
| IW2NTF | 2026-09-01 02:04:00 | 45.64952 | 10.54146 | 82° | 35km/h | 4449m | -3.1m/s | -2.8°C | 16.1% | 0hPa | 2.6V | 07:22:32 | 03:30:13 | 00:00:00 | |
| IW2NTF | 2026-09-01 02:03:54 | 45.64950 | 10.54063 | 82° | 40km/h | 4469m | -3.1m/s | -2.9°C | 16.2% | 0hPa | 2.6V | 07:22:38 | 03:30:07 | 00:00:00 | |
| IW2NTF | 2026-09-01 02:03:48 | 45.64949 | 10.53980 | 89° | 42km/h | 4487m | -3.3m/s | -3°C | 16.1% | 0hPa | 2.6V | 07:22:44 | 03:30:01 | 00:00:00 | |
| IW2NTF | 2026-09-01 02:03:42 | 45.64948 | 10.53896 | 95° | 42km/h | 4506m | -3.4m/s | -3°C | 15.7% | 0hPa | 2.6V | 07:22:50 | 03:29:55 | 00:00:00 | |
| IW2NTF | 2026-09-01 02:03:36 | 45.64947 | 10.53809 | 93° | 37km/h | 4525m | -3.3m/s | -3°C | 16% | 0hPa | 2.7V | 07:22:56 | 03:29:49 | 00:00:00 | |
| IW2NTF | 2026-09-01 02:03:30 | 45.64949 | 10.53722 | 89° | 37km/h | 4544m | -3.2m/s | -3.2°C | 16.3% | 0hPa | 2.7V | 07:23:02 | 03:29:43 | 00:00:00 | |
| IW2NTF | 2026-09-01 02:03:24 | 45.64952 | 10.53634 | 85° | 40km/h | 4564m | -3.1m/s | -3.3°C | 16.6% | 0hPa | 2.7V | 07:23:08 | 03:29:37 | 00:00:00 | |
| IW2NTF | 2026-09-01 02:03:18 | 45.64954 | 10.53547 | 89° | 46km/h | 4583m | -3.3m/s | -3.4°C | 16.5% | 0hPa | 2.7V | 07:23:14 | 03:29:31 | 00:00:00 | |
| IW2NTF | 2026-09-01 02:03:12 | 45.64952 | 10.53458 | 93° | 44km/h | 4602m | -3.2m/s | -3.5°C | 16.4% | 0hPa | 2.7V | 07:23:20 | 03:29:25 | 00:00:00 | |
| IW2NTF | 2026-09-01 02:03:06 | 45.64949 | 10.53368 | 91° | 40km/h | 4621m | -3.1m/s | -3.6°C | 16% | 0hPa | 2.7V | 07:23:26 | 03:29:19 | 00:00:00 | |
| IW2NTF | 2026-09-01 02:02:58 | 45.64948 | 10.53247 | 94° | 42km/h | 4646m | -3.3m/s | -3.7°C | 15.4% | 0hPa | 2.7V | 07:23:34 | 03:29:11 | 00:00:00 | |
| IW2NTF | 2026-09-01 02:02:52 | 45.64947 | 10.53156 | 93° | 38km/h | 4666m | -3.2m/s | -3.9°C | 15.7% | 0hPa | 2.7V | 07:23:40 | 03:29:05 | 00:00:00 | |
| IW2NTF | 2026-09-01 02:02:46 | 45.64949 | 10.53066 | 91° | 37km/h | 4685m | -3.2m/s | -4°C | 16% | 0hPa | 2.7V | 07:23:46 | 03:28:59 | 00:00:00 | |
| IW2NTF | 2026-09-01 02:02:40 | 45.64952 | 10.52975 | 85° | 42km/h | 4704m | -3.1m/s | -4.1°C | 16% | 0hPa | 2.7V | 07:23:52 | 03:28:53 | 00:00:00 | |
| IW2NTF | 2026-09-01 02:02:34 | 45.64956 | 10.52886 | 91° | 46km/h | 4723m | -3.2m/s | -4.3°C | 16.2% | 0hPa | 2.7V | 07:23:58 | 03:28:47 | 00:00:00 | |
| IW2NTF | 2026-09-01 02:02:28 | 45.64959 | 10.52798 | 97° | 42km/h | 4743m | -3.3m/s | -4.4°C | 16.5% | 0hPa | 2.7V | 07:24:04 | 03:28:41 | 00:00:00 | |
| IW2NTF | 2026-09-01 02:02:22 | 45.64964 | 10.52711 | 99° | 40km/h | 4762m | -3.1m/s | -4.5°C | 16.6% | 0hPa | 2.7V | 07:24:10 | 03:28:35 | 00:00:00 | |
| IW2NTF | 2026-09-01 02:02:16 | 45.64967 | 10.52622 | 94° | 37km/h | 4781m | -3.3m/s | -4.6°C | 16.8% | 0hPa | 2.7V | 07:24:16 | 03:28:29 | 00:00:00 | |
| IW2NTF | 2026-09-01 02:02:10 | 45.64972 | 10.52531 | 88° | 40km/h | 4800m | -3.3m/s | -4.8°C | 17% | 0hPa | 2.7V | 07:24:22 | 03:28:23 | 00:00:00 | |
| IW2NTF | 2026-09-01 02:02:04 | 45.64977 | 10.52444 | 91° | 42km/h | 4819m | -3.1m/s | -4.9°C | 17.1% | 0hPa | 2.7V | 07:24:28 | 03:28:17 | 00:00:00 | |
| IW2NTF | 2026-09-01 02:01:58 | 45.64982 | 10.52358 | 95° | 44km/h | 4838m | -3.2m/s | -5°C | 17.3% | 0hPa | 2.7V | 07:24:34 | 03:28:11 | 00:00:00 | |
| IW2NTF | 2026-09-01 02:01:52 | 45.64986 | 10.52273 | 102° | 40km/h | 4857m | -3.4m/s | -5.1°C | 17.1% | 0hPa | 2.7V | 07:24:40 | 03:28:05 | 00:00:00 | |
| IW2NTF | 2026-09-01 02:01:47 | 45.64992 | 10.52186 | 99° | 37km/h | 4876m | -3.2m/s | -5.2°C | 16.7% | 0hPa | 2.7V | 07:24:46 | 03:27:59 | 00:00:00 | |
| IW2NTF | 2026-09-01 02:01:40 | 45.65001 | 10.52102 | 95° | 35km/h | 4896m | -3.1m/s | -5.3°C | 16.8% | 0hPa | 2.7V | 07:24:52 | 03:27:53 | 00:00:00 | |
| IW2NTF | 2026-09-01 02:01:34 | 45.65010 | 10.52020 | 92° | 38km/h | 4915m | -3.3m/s | -5.4°C | 16.2% | 0hPa | 2.7V | 07:24:58 | 03:27:47 | 00:00:00 | |
| IW2NTF | 2026-09-01 02:01:28 | 45.65022 | 10.51940 | 101° | 42km/h | 4935m | -3.3m/s | -5.4°C | 15.8% | 0hPa | 2.7V | 07:25:04 | 03:27:41 | 00:00:00 | |
| IW2NTF | 2026-09-01 02:01:22 | 45.65033 | 10.51860 | 105° | 40km/h | 4955m | -3.2m/s | -5.5°C | 15.1% | 0hPa | 2.7V | 07:25:10 | 03:27:35 | 00:00:00 | |
| IW2NTF | 2026-09-01 02:01:16 | 45.65046 | 10.51781 | 110° | 38km/h | 4974m | -3.4m/s | -5.5°C | 14.7% | 0hPa | 2.7V | 07:25:16 | 03:27:29 | 00:00:00 | |
| IW2NTF | 2026-09-01 02:01:10 | 45.65060 | 10.51702 | 107° | 35km/h | 4994m | -3.2m/s | -5.5°C | 14% | 0hPa | 2.7V | 07:25:22 | 03:27:23 | 00:00:00 | |
| IW2NTF | 2026-09-01 02:01:04 | 45.65074 | 10.51620 | 104° | 35km/h | 5013m | -3.2m/s | -5.7°C | 14.2% | 0hPa | 2.7V | 07:25:28 | 03:27:17 | 00:00:00 | |
| IW2NTF | 2026-09-01 02:00:54 | 45.65100 | 10.51489 | 108° | 40km/h | 5045m | -3.1m/s | -5.8°C | 14% | 0hPa | 2.5V | 07:25:38 | 03:27:07 | 00:00:00 | |
| IW2NTF | 2026-09-01 02:00:44 | 45.65122 | 10.51348 | 98° | 42km/h | 5077m | -3.3m/s | -6°C | 13.8% | 0hPa | 2.6V | 07:25:48 | 03:26:57 | 00:00:00 | |
| IW2NTF | 2026-09-01 02:00:34 | 45.65139 | 10.51204 | 100° | 38km/h | 5109m | -3.2m/s | -6.2°C | 13.2% | 0hPa | 2.7V | 07:25:58 | 03:26:47 | 00:00:00 | |
| IW2NTF | 2026-09-01 02:00:24 | 45.65164 | 10.51056 | 105° | 46km/h | 5141m | -3.2m/s | -6.3°C | 12.8% | 0hPa | 2.6V | 07:26:08 | 03:26:37 | 00:00:00 | |
| IW2NTF | 2026-09-01 02:00:15 | 45.65193 | 10.50902 | 102° | 42km/h | 5173m | -3.1m/s | -6.4°C | 13.3% | 0hPa | 2.5V | 07:26:18 | 03:26:27 | 00:00:00 | |
| IW2NTF | 2026-09-01 02:00:04 | 45.65226 | 10.50748 | 112° | 46km/h | 5204m | -3.3m/s | -6.5°C | 13.3% | 0hPa | 2.6V | 07:26:28 | 03:26:17 | 00:00:00 | |
| IW2NTF | 2026-09-01 01:59:54 | 45.65264 | 10.50590 | 103° | 47km/h | 5237m | -3.2m/s | -6.6°C | 12.6% | 0hPa | 2.6V | 07:26:38 | 03:26:07 | 00:00:00 | |
| IW2NTF | 2026-09-01 01:59:44 | 45.65297 | 10.50432 | 109° | 42km/h | 5269m | -3.2m/s | -6.7°C | 12.2% | 0hPa | 2.6V | 07:26:48 | 03:25:57 | 00:00:00 | |
| IW2NTF | 2026-09-01 01:59:34 | 45.65333 | 10.50273 | 109° | 49km/h | 5301m | -3.4m/s | -6.9°C | 12% | 0hPa | 2.5V | 07:26:58 | 03:25:47 | 00:00:00 | |
| IW2NTF | 2026-09-01 01:59:24 | 45.65366 | 10.50107 | 100° | 47km/h | 5333m | -3.4m/s | -7°C | 11.7% | 0hPa | 2.6V | 07:27:08 | 03:25:37 | 00:00:00 | |
| IW2NTF | 2026-09-01 01:59:14 | 45.65394 | 10.49942 | 105° | 46km/h | 5367m | -3.4m/s | -7.3°C | 11.6% | 0hPa | 2.6V | 07:27:18 | 03:25:27 | 00:00:00 | |
| IW2NTF | 2026-09-01 01:59:04 | 45.65421 | 10.49771 | 100° | 53km/h | 5401m | -3.1m/s | -7.4°C | 11.2% | 0hPa | 2.6V | 07:27:28 | 03:25:17 | 00:00:00 | |
| IW2NTF | 2026-09-01 01:58:54 | 45.65438 | 10.49596 | 94° | 49km/h | 5434m | -3.5m/s | -7.5°C | 10.4% | 0hPa | 2.6V | 07:27:38 | 03:25:07 | 00:00:00 | |
| IW2NTF | 2026-09-01 01:58:44 | 45.65458 | 10.49417 | 102° | 49km/h | 5467m | -3.5m/s | -7.7°C | 9.7% | 0hPa | 2.5V | 07:27:48 | 03:24:57 | 00:00:00 | |
| IW2NTF | 2026-09-01 01:58:34 | 45.65480 | 10.49226 | 97° | 57km/h | 5502m | -3.5m/s | -7.7°C | 9% | 0hPa | 2.5V | 07:27:58 | 03:24:47 | 00:00:00 | |
| IW2NTF | 2026-09-01 01:58:24 | 45.65498 | 10.49031 | 98° | 53km/h | 5536m | -3.4m/s | -7.9°C | 8.9% | 0hPa | 2.6V | 07:28:08 | 03:24:37 | 00:00:00 | |
| IW2NTF | 2026-09-01 01:58:14 | 45.65521 | 10.48830 | 100° | 60km/h | 5570m | -3.4m/s | -8.2°C | 8.9% | 0hPa | 2.6V | 07:28:18 | 03:24:27 | 00:00:00 | |
| IW2NTF | 2026-09-01 01:58:04 | 45.65538 | 10.48617 | 91° | 58km/h | 5604m | -3.4m/s | -8.2°C | 8.4% | 0hPa | 2.6V | 07:28:28 | 03:24:17 | 00:00:00 | |
| IW2NTF | 2026-09-01 01:57:54 | 45.65549 | 10.48407 | 96° | 57km/h | 5637m | -3.5m/s | -8.3°C | 8% | 0hPa | 2.6V | 07:28:38 | 03:24:07 | 00:00:00 | |
| IW2NTF | 2026-09-01 01:57:44 | 45.65559 | 10.48196 | 90° | 60km/h | 5670m | -3.5m/s | -8.5°C | 9% | 0hPa | 2.6V | 07:28:48 | 03:23:57 | 00:00:00 | |
| IW2NTF | 2026-09-01 01:57:32 | 45.65567 | 10.47950 | 97° | 57km/h | 5711m | -3.5m/s | -8.9°C | 9.6% | 0hPa | 2.5V | 07:29:00 | 03:23:45 | 00:00:00 | |
| IW2NTF | 2026-09-01 01:57:22 | 45.65574 | 10.47746 | 92° | 60km/h | 5745m | -3.5m/s | -9.2°C | 10.1% | 0hPa | 2.5V | 07:29:10 | 03:23:35 | 00:00:00 | |
| IW2NTF | 2026-09-01 01:57:11 | 45.65577 | 10.47526 | 92° | 51km/h | 5782m | -3.4m/s | -9.6°C | 12.2% | 0hPa | 2.6V | 07:29:21 | 03:23:24 | 00:00:00 | |
| IW2NTF | 2026-09-01 01:57:01 | 45.65585 | 10.47328 | 94° | 58km/h | 5816m | -3.4m/s | -9.9°C | 12.6% | 0hPa | 2.6V | 07:29:31 | 03:23:14 | 00:00:00 | |
| IW2NTF | 2026-09-01 01:56:51 | 45.65590 | 10.47128 | 88° | 55km/h | 5849m | -3.5m/s | -10.2°C | 12.5% | 0hPa | 2.6V | 07:29:41 | 03:23:04 | 00:00:00 | |
| IW2NTF | 2026-09-01 01:56:41 | 45.65596 | 10.46937 | 96° | 51km/h | 5883m | -3.4m/s | -10.4°C | 12% | 0hPa | 2.6V | 07:29:51 | 03:22:54 | 00:00:00 | |
| IW2NTF | 2026-09-01 01:56:31 | 45.65602 | 10.46744 | 91° | 57km/h | 5917m | -3.4m/s | -10.7°C | 11.9% | 0hPa | 2.6V | 07:30:01 | 03:22:44 | 00:00:00 | |
| IW2NTF | 2026-09-01 01:56:21 | 45.65606 | 10.46552 | 89° | 49km/h | 5950m | -3.4m/s | -10.8°C | 12.3% | 0hPa | 2.6V | 07:30:11 | 03:22:34 | 00:00:00 | |
| IW2NTF | 2026-09-01 01:56:11 | 45.65612 | 10.46363 | 95° | 55km/h | 5983m | -3.4m/s | -11.1°C | 11.9% | 0hPa | 2.6V | 07:30:21 | 03:22:24 | 00:00:00 | |
| IW2NTF | 2026-09-01 01:56:01 | 45.65618 | 10.46167 | 88° | 55km/h | 6017m | -3.4m/s | -11.3°C | 12.9% | 0hPa | 2.6V | 07:30:31 | 03:22:14 | 00:00:00 | |
| IW2NTF | 2026-09-01 01:55:51 | 45.65625 | 10.45976 | 97° | 53km/h | 6051m | -3.5m/s | -11.6°C | 13.3% | 0hPa | 2.6V | 07:30:41 | 03:22:04 | 00:00:00 | |
| IW2NTF | 2026-09-01 01:55:41 | 45.65634 | 10.45778 | 92° | 58km/h | 6084m | -3.5m/s | -11.8°C | 13.5% | 0hPa | 2.6V | 07:30:51 | 03:21:54 | 00:00:00 | |
| IW2NTF | 2026-09-01 01:55:31 | 45.65643 | 10.45577 | 94° | 53km/h | 6117m | -3.4m/s | -12.1°C | 13.7% | 0hPa | 2.5V | 07:31:01 | 03:21:44 | 00:00:00 | |
| IW2NTF | 2026-09-01 01:55:21 | 45.65657 | 10.45374 | 97° | 60km/h | 6151m | -3.5m/s | -12.3°C | 13.7% | 0hPa | 2.6V | 07:31:11 | 03:21:34 | 00:00:00 | |
| IW2NTF | 2026-09-01 01:55:11 | 45.65671 | 10.45163 | 91° | 57km/h | 6185m | -3.5m/s | -12.6°C | 13.8% | 0hPa | 2.6V | 07:31:21 | 03:21:24 | 00:00:00 | |
| IW2NTF | 2026-09-01 01:55:01 | 45.65686 | 10.44954 | 99° | 60km/h | 6219m | -3.4m/s | -12.9°C | 13.7% | 0hPa | 2.5V | 07:31:31 | 03:21:14 | 00:00:00 | |
| IW2NTF | 2026-09-01 01:54:51 | 45.65703 | 10.44739 | 92° | 58km/h | 6254m | -3.3m/s | -13.2°C | 13.8% | 0hPa | 2.6V | 07:31:41 | 03:21:04 | 00:00:00 | |
| IW2NTF | 2026-09-01 01:54:41 | 45.65720 | 10.44526 | 99° | 57km/h | 6287m | -3.4m/s | -13.5°C | 14% | 0hPa | 2.6V | 07:31:51 | 03:20:54 | 00:00:00 | |
| IW2NTF | 2026-09-01 01:54:31 | 45.65743 | 10.44312 | 96° | 64km/h | 6321m | -3.5m/s | -13.8°C | 14.3% | 0hPa | 2.5V | 07:32:01 | 03:20:44 | 00:00:00 | |
| IW2NTF | 2026-09-01 01:54:21 | 45.65761 | 10.44094 | 96° | 57km/h | 6356m | -3.1m/s | -14.1°C | 15.2% | 0hPa | 2.6V | 07:32:11 | 03:20:34 | 00:00:00 | |
| IW2NTF | 2026-09-01 01:54:11 | 45.65784 | 10.43879 | 102° | 64km/h | 6389m | -3.6m/s | -14.3°C | 15.6% | 0hPa | 2.5V | 07:32:21 | 03:20:24 | 00:00:00 | |
| IW2NTF | 2026-09-01 01:54:01 | 45.65807 | 10.43656 | 95° | 62km/h | 6423m | -3.3m/s | -14.6°C | 15.4% | 0hPa | 2.6V | 07:32:31 | 03:20:14 | 00:00:00 | |
| IW2NTF | 2026-09-01 01:53:51 | 45.65829 | 10.43437 | 101° | 58km/h | 6456m | -3.4m/s | -14.8°C | 14.4% | 0hPa | 2.5V | 07:32:41 | 03:20:04 | 00:00:00 | |
| IW2NTF | 2026-09-01 01:53:41 | 45.65852 | 10.43211 | 96° | 66km/h | 6489m | -3.5m/s | -15.1°C | 14.3% | 0hPa | 2.6V | 07:32:51 | 03:19:54 | 00:00:00 | |
| IW2NTF | 2026-09-01 01:53:31 | 45.65866 | 10.42982 | 94° | 58km/h | 6523m | -3.4m/s | -15.3°C | 13.5% | 0hPa | 2.6V | 07:33:01 | 03:19:44 | 00:00:00 | |
| IW2NTF | 2026-09-01 01:53:21 | 45.65881 | 10.42753 | 95° | 68km/h | 6556m | -3.6m/s | -15.5°C | 13.1% | 0hPa | 2.5V | 07:33:11 | 03:19:34 | 00:00:00 | |
| IW2NTF | 2026-09-01 01:53:11 | 45.65892 | 10.42520 | 90° | 62km/h | 6590m | -3.6m/s | -15.8°C | 13.1% | 0hPa | 2.5V | 07:33:21 | 03:19:24 | 00:00:00 | |
| IW2NTF | 2026-09-01 01:53:02 | 45.65902 | 10.42291 | 96° | 62km/h | 6624m | -3.5m/s | -16.1°C | 13.2% | 0hPa | 2.6V | 07:33:31 | 03:19:14 | 00:00:00 | |
| IW2NTF | 2026-09-01 01:52:51 | 45.65913 | 10.42053 | 90° | 69km/h | 6659m | -3.5m/s | -16.4°C | 13.3% | 0hPa | 2.5V | 07:33:41 | 03:19:04 | 00:00:00 | |
| IW2NTF | 2026-09-01 01:52:41 | 45.65915 | 10.41815 | 91° | 62km/h | 6692m | -3.6m/s | -16.7°C | 13.1% | 0hPa | 2.5V | 07:33:51 | 03:18:54 | 00:00:00 | |
| IW2NTF | 2026-09-01 01:52:31 | 45.65919 | 10.41577 | 91° | 69km/h | 6728m | -3.8m/s | -16.9°C | 13% | 0hPa | 2.5V | 07:34:01 | 03:18:44 | 00:00:00 | |
| IW2NTF | 2026-09-01 01:52:21 | 45.65915 | 10.41336 | 86° | 64km/h | 6763m | -3.5m/s | -17.2°C | 13.4% | 0hPa | 2.6V | 07:34:11 | 03:18:34 | 00:00:00 | |
| IW2NTF | 2026-09-01 01:52:11 | 45.65911 | 10.41103 | 92° | 64km/h | 6796m | -3.4m/s | -17.5°C | 13.8% | 0hPa | 2.6V | 07:34:21 | 03:18:24 | 00:00:00 | |
| IW2NTF | 2026-09-01 01:52:01 | 45.65908 | 10.40863 | 86° | 69km/h | 6829m | -3.3m/s | -17.8°C | 14.1% | 0hPa | 2.6V | 07:34:31 | 03:18:14 | 00:00:00 | |
| IW2NTF | 2026-09-01 01:51:51 | 45.65900 | 10.40628 | 83° | 60km/h | 6862m | -3.2m/s | -18.1°C | 14.4% | 0hPa | 2.6V | 07:34:41 | 03:18:04 | 00:00:00 | |
| IW2NTF | 2026-09-01 01:51:41 | 45.65891 | 10.40400 | 90° | 62km/h | 6895m | -3.6m/s | -18.5°C | 14.8% | 0hPa | 2.6V | 07:34:51 | 03:17:54 | 00:00:00 | |
| IW2NTF | 2026-09-01 01:51:31 | 45.65881 | 10.40170 | 82° | 66km/h | 6931m | -3.8m/s | -18.7°C | 15.3% | 0hPa | 2.6V | 07:35:01 | 03:17:44 | 00:00:00 | |
| IW2NTF | 2026-09-01 01:51:21 | 45.65868 | 10.39946 | 83° | 58km/h | 6965m | -3.5m/s | -19°C | 15.9% | 0hPa | 2.5V | 07:35:11 | 03:17:34 | 00:00:00 | |
| IW2NTF | 2026-09-01 01:51:11 | 45.65860 | 10.39723 | 89° | 66km/h | 6999m | -3.5m/s | -19.2°C | 16.4% | 0hPa | 2.5V | 07:35:21 | 03:17:24 | 00:00:00 | |
| IW2NTF | 2026-09-01 01:51:01 | 45.65851 | 10.39496 | 83° | 64km/h | 7033m | -3.6m/s | -19.5°C | 16.8% | 0hPa | 2.5V | 07:35:31 | 03:17:14 | 00:00:00 | |
| IW2NTF | 2026-09-01 01:50:51 | 45.65844 | 10.39273 | 89° | 60km/h | 7068m | -3.6m/s | -19.8°C | 16.7% | 0hPa | 2.5V | 07:35:41 | 03:17:04 | 00:00:00 | |
| IW2NTF | 2026-09-01 01:50:41 | 45.65843 | 10.39047 | 87° | 66km/h | 7102m | -3.3m/s | -20.1°C | 16.5% | 0hPa | 2.6V | 07:35:51 | 03:16:54 | 00:00:00 | |
| IW2NTF | 2026-09-01 01:50:31 | 45.65840 | 10.38822 | 86° | 58km/h | 7136m | -3.7m/s | -20.4°C | 17.6% | 0hPa | 2.6V | 07:36:01 | 03:16:44 | 00:00:00 | |
| IW2NTF | 2026-09-01 01:50:21 | 45.65841 | 10.38600 | 94° | 62km/h | 7171m | -3.3m/s | -20.7°C | 17.9% | 0hPa | 2.5V | 07:36:11 | 03:16:34 | 00:00:00 | |
| IW2NTF | 2026-09-01 01:50:11 | 45.65846 | 10.38372 | 89° | 66km/h | 7205m | -3.4m/s | -21°C | 17.9% | 0hPa | 2.6V | 07:36:21 | 03:16:24 | 00:00:00 | |
| IW2NTF | 2026-09-01 01:50:01 | 45.65850 | 10.38145 | 90° | 60km/h | 7239m | -3.3m/s | -21.3°C | 17.7% | 0hPa | 2.6V | 07:36:31 | 03:16:14 | 00:00:00 | |
| IW2NTF | 2026-09-01 01:49:51 | 45.65860 | 10.37918 | 97° | 64km/h | 7273m | -3.5m/s | -21.6°C | 16.8% | 0hPa | 2.5V | 07:36:41 | 03:16:04 | 00:00:00 | |
| IW2NTF | 2026-09-01 01:49:41 | 45.65868 | 10.37685 | 88° | 64km/h | 7307m | -3.5m/s | -21.9°C | 16.8% | 0hPa | 2.6V | 07:36:51 | 03:15:54 | 00:00:00 | |
| IW2NTF | 2026-09-01 01:49:31 | 45.65870 | 10.37461 | 93° | 58km/h | 7341m | -3.6m/s | -22°C | 15.5% | 0hPa | 2.6V | 07:37:01 | 03:15:44 | 00:00:00 | |
| IW2NTF | 2026-09-01 01:49:21 | 45.65874 | 10.37236 | 91° | 66km/h | 7376m | -3.5m/s | -22.4°C | 15.6% | 0hPa | 2.5V | 07:37:11 | 03:15:34 | 00:00:00 | |
| IW2NTF | 2026-09-01 01:49:11 | 45.65869 | 10.37007 | 86° | 60km/h | 7410m | -3.6m/s | -22.7°C | 15% | 0hPa | 2.6V | 07:37:21 | 03:15:24 | 00:00:00 | |
| IW2NTF | 2026-09-01 01:49:01 | 45.65868 | 10.36777 | 92° | 66km/h | 7444m | -3.5m/s | -22.8°C | 11.8% | 0hPa | 2.6V | 07:37:31 | 03:15:14 | 00:00:00 | |
| IW2NTF | 2026-09-01 01:48:51 | 45.65868 | 10.36535 | 86° | 68km/h | 7478m | -3.5m/s | -23.1°C | 11.6% | 0hPa | 2.5V | 07:37:41 | 03:15:04 | 00:00:00 | |
| IW2NTF | 2026-09-01 01:48:41 | 45.65867 | 10.36296 | 91° | 64km/h | 7512m | -3.2m/s | -23.3°C | 11.9% | 0hPa | 2.6V | 07:37:51 | 03:14:54 | 00:00:00 | |
| IW2NTF | 2026-09-01 01:48:31 | 45.65874 | 10.36052 | 92° | 73km/h | 7546m | -3.4m/s | -23.6°C | 12.2% | 0hPa | 2.6V | 07:38:01 | 03:14:44 | 00:00:00 | |
| IW2NTF | 2026-09-01 01:48:21 | 45.65878 | 10.35803 | 88° | 69km/h | 7580m | -3.6m/s | -23.9°C | 12.4% | 0hPa | 2.5V | 07:38:11 | 03:14:34 | 00:00:00 | |
| IW2NTF | 2026-09-01 01:48:11 | 45.65884 | 10.35557 | 95° | 68km/h | 7614m | -3.4m/s | -24.2°C | 12.6% | 0hPa | 2.6V | 07:38:21 | 03:14:24 | 00:00:00 | |
| IW2NTF | 2026-09-01 01:48:01 | 45.65893 | 10.35304 | 91° | 73km/h | 7647m | -3.6m/s | -24.6°C | 12.9% | 0hPa | 2.6V | 07:38:31 | 03:14:14 | 00:00:00 | |
| IW2NTF | 2026-09-01 01:47:51 | 45.65899 | 10.35050 | 91° | 68km/h | 7682m | -3.4m/s | -24.9°C | 13.1% | 0hPa | 2.6V | 07:38:41 | 03:14:04 | 00:00:00 | |
| IW2NTF | 2026-09-01 01:47:39 | 45.65908 | 10.34740 | 87° | 73km/h | 7724m | -3.6m/s | -25.2°C | 12.7% | 0hPa | 2.4V | 07:38:53 | 03:13:52 | 00:00:00 | |
| IW2NTF | 2026-09-01 01:47:29 | 45.65908 | 10.34481 | 92° | 68km/h | 7759m | -3.5m/s | -25.5°C | 11.6% | 0hPa | 2.6V | 07:39:03 | 03:13:42 | 00:00:00 | |
| IW2NTF | 2026-09-01 01:47:19 | 45.65910 | 10.34224 | 92° | 75km/h | 7795m | -3.6m/s | -25.7°C | 10.3% | 0hPa | 2.6V | 07:39:13 | 03:13:32 | 00:00:00 | |
| IW2NTF | 2026-09-01 01:47:09 | 45.65910 | 10.33963 | 86° | 73km/h | 7830m | -3.9m/s | -25.9°C | 9% | 0hPa | 2.6V | 07:39:23 | 03:13:22 | 00:00:00 | |
| IW2NTF | 2026-09-01 01:47:00 | 45.65910 | 10.33709 | 93° | 69km/h | 7865m | -3.8m/s | -26.2°C | 9% | 0hPa | 2.5V | 07:39:33 | 03:13:12 | 00:00:00 | |
| IW2NTF | 2026-09-01 01:46:49 | 45.65915 | 10.33451 | 90° | 75km/h | 7900m | -3.6m/s | -26.5°C | 9.1% | 0hPa | 2.4V | 07:39:43 | 03:13:02 | 00:00:00 | |
| IW2NTF | 2026-09-01 01:46:39 | 45.65917 | 10.33196 | 90° | 68km/h | 7937m | -3.7m/s | -26.8°C | 9% | 0hPa | 2.4V | 07:39:53 | 03:12:52 | 00:00:00 | |
| IW2NTF | 2026-09-01 01:46:27 | 45.65928 | 10.32888 | 90° | 73km/h | 7980m | -4m/s | -27.2°C | 9.1% | 0hPa | 2.6V | 07:40:05 | 03:12:40 | 00:00:00 | |
| IW2NTF | 2026-09-01 01:46:17 | 45.65934 | 10.32637 | 91° | 66km/h | 8016m | -3.9m/s | -27.5°C | 9% | 0hPa | 2.4V | 07:40:15 | 03:12:30 | 00:00:00 | |
| IW2NTF | 2026-09-01 01:46:07 | 45.65945 | 10.32386 | 95° | 71km/h | 8053m | -3.9m/s | -27.8°C | 9.3% | 0hPa | 2.4V | 07:40:25 | 03:12:20 | 00:00:00 | |
| IW2NTF | 2026-09-01 01:45:57 | 45.65955 | 10.32131 | 89° | 69km/h | 8090m | -4m/s | -28.2°C | 9.5% | 0hPa | 2.4V | 07:40:35 | 03:12:10 | 00:00:00 | |
| IW2NTF | 2026-09-01 01:45:47 | 45.65963 | 10.31887 | 95° | 66km/h | 8127m | -3.8m/s | -28.5°C | 9.9% | 0hPa | 2.4V | 07:40:45 | 03:12:00 | 00:00:00 | |
| IW2NTF | 2026-09-01 01:45:37 | 45.65972 | 10.31638 | 91° | 73km/h | 8163m | -3.9m/s | -28.8°C | 10.3% | 0hPa | 2.4V | 07:40:55 | 03:11:50 | 00:00:00 | |
| IW2NTF | 2026-09-01 01:45:27 | 45.65980 | 10.31391 | 94° | 66km/h | 8201m | -3.9m/s | -29.1°C | 10.1% | 0hPa | 2.6V | 07:41:05 | 03:11:40 | 00:00:00 | |
| IW2NTF | 2026-09-01 01:45:17 | 45.65993 | 10.31143 | 94° | 73km/h | 8238m | -3.9m/s | -29.4°C | 10.2% | 0hPa | 2.5V | 07:41:15 | 03:11:30 | 00:00:00 | |
| IW2NTF | 2026-09-01 01:45:07 | 45.66002 | 10.30897 | 90° | 64km/h | 8276m | -4m/s | -29.8°C | 10.3% | 0hPa | 2.4V | 07:41:25 | 03:11:20 | 00:00:00 | |
| IW2NTF | 2026-09-01 01:44:57 | 45.66011 | 10.30662 | 96° | 66km/h | 8314m | -3.7m/s | -30.1°C | 10.2% | 0hPa | 2.4V | 07:41:35 | 03:11:10 | 00:00:00 | |
| IW2NTF | 2026-09-01 01:44:47 | 45.66019 | 10.30423 | 87° | 68km/h | 8352m | -3.8m/s | -30.3°C | 9.7% | 0hPa | 2.6V | 07:41:45 | 03:11:00 | 00:00:00 | |
| IW2NTF | 2026-09-01 01:44:37 | 45.66022 | 10.30189 | 87° | 60km/h | 8390m | -3.8m/s | -30.6°C | 9.6% | 0hPa | 2.4V | 07:41:55 | 03:10:50 | 00:00:00 | |
| IW2NTF | 2026-09-01 01:44:27 | 45.66022 | 10.29956 | 93° | 64km/h | 8427m | -3.8m/s | -30.9°C | 9.5% | 0hPa | 2.5V | 07:42:05 | 03:10:40 | 00:00:00 | |
| IW2NTF | 2026-09-01 01:44:17 | 45.66020 | 10.29717 | 85° | 68km/h | 8463m | -3.9m/s | -31.2°C | 9.4% | 0hPa | 2.5V | 07:42:15 | 03:10:30 | 00:00:00 | |
| IW2NTF | 2026-09-01 01:44:07 | 45.66014 | 10.29484 | 89° | 62km/h | 8501m | -3.8m/s | -31.5°C | 9.4% | 0hPa | 2.4V | 07:42:25 | 03:10:20 | 00:00:00 | |
| IW2NTF | 2026-09-01 01:43:55 | 45.66008 | 10.29198 | 83° | 64km/h | 8545m | -4.2m/s | -31.8°C | 9.3% | 0hPa | 2.4V | 07:42:37 | 03:10:08 | 00:00:00 | |
| IW2NTF | 2026-09-01 01:43:45 | 45.65999 | 10.28962 | 88° | 62km/h | 8583m | -3.5m/s | -32.1°C | 9.1% | 0hPa | 2.5V | 07:42:47 | 03:09:58 | 00:00:00 | |
| IW2NTF | 2026-09-01 01:43:35 | 45.65985 | 10.28716 | 83° | 71km/h | 8620m | -4m/s | -32.4°C | 8.9% | 0hPa | 2.4V | 07:42:57 | 03:09:48 | 00:00:00 | |
| IW2NTF | 2026-09-01 01:43:25 | 45.65965 | 10.28471 | 81° | 66km/h | 8657m | -3.9m/s | -32.7°C | 9% | 0hPa | 2.5V | 07:43:07 | 03:09:38 | 00:00:00 | |
| IW2NTF | 2026-09-01 01:43:15 | 45.65946 | 10.28225 | 86° | 69km/h | 8694m | -3.9m/s | -33°C | 9.2% | 0hPa | 2.4V | 07:43:17 | 03:09:28 | 00:00:00 | |
| IW2NTF | 2026-09-01 01:43:05 | 45.65926 | 10.27972 | 79° | 71km/h | 8732m | -4m/s | -33.4°C | 9.4% | 0hPa | 2.4V | 07:43:27 | 03:09:18 | 00:00:00 | |
| IW2NTF | 2026-09-01 01:42:55 | 45.65906 | 10.27724 | 84° | 64km/h | 8770m | -3.7m/s | -33.8°C | 9.6% | 0hPa | 2.5V | 07:43:37 | 03:09:08 | 00:00:00 | |
| IW2NTF | 2026-09-01 01:42:43 | 45.65886 | 10.27420 | 80° | 71km/h | 8815m | -3.8m/s | -34.2°C | 9.9% | 0hPa | 2.5V | 07:43:49 | 03:08:56 | 00:00:00 | |
| IW2NTF | 2026-09-01 01:42:33 | 45.65868 | 10.27169 | 87° | 68km/h | 8852m | -3.7m/s | -34.5°C | 10.1% | 0hPa | 2.4V | 07:43:59 | 03:08:46 | 00:00:00 | |
| IW2NTF | 2026-09-01 01:42:23 | 45.65854 | 10.26909 | 83° | 75km/h | 8889m | -3.7m/s | -34.9°C | 10.3% | 0hPa | 2.4V | 07:44:09 | 03:08:36 | 00:00:00 | |
| IW2NTF | 2026-09-01 01:42:13 | 45.65836 | 10.26645 | 86° | 69km/h | 8925m | -3.8m/s | -35.2°C | 10.4% | 0hPa | 2.5V | 07:44:19 | 03:08:26 | 00:00:00 | |
| IW2NTF | 2026-09-01 01:42:03 | 45.65826 | 10.26379 | 88° | 78km/h | 8962m | -3.7m/s | -35.5°C | 10.3% | 0hPa | 2.5V | 07:44:29 | 03:08:16 | 00:00:00 | |
| IW2NTF | 2026-09-01 01:41:53 | 45.65812 | 10.26109 | 82° | 73km/h | 8999m | -3.7m/s | -35.8°C | 10.4% | 0hPa | 2.4V | 07:44:39 | 03:08:06 | 00:00:00 | |
| IW2NTF | 2026-09-01 01:41:43 | 45.65801 | 10.25846 | 90° | 73km/h | 9036m | -3.7m/s | -36.1°C | 10.4% | 0hPa | 2.4V | 07:44:49 | 03:07:56 | 00:00:00 | |
| IW2NTF | 2026-09-01 01:41:33 | 45.65792 | 10.25580 | 85° | 78km/h | 9073m | -3.6m/s | -36.4°C | 10.6% | 0hPa | 2.4V | 07:44:59 | 03:07:46 | 00:00:00 | |
| IW2NTF | 2026-09-01 01:41:22 | 45.65776 | 10.25283 | 88° | 75km/h | 9115m | -3.7m/s | -36.7°C | 10.3% | 0hPa | 2.4V | 07:45:10 | 03:07:35 | 00:00:00 | |
| IW2NTF | 2026-09-01 01:41:12 | 45.65764 | 10.25002 | 84° | 82km/h | 9152m | -4m/s | -36.9°C | 10% | 0hPa | 2.4V | 07:45:20 | 03:07:25 | 00:00:00 | |
| IW2NTF | 2026-09-01 01:41:02 | 45.65751 | 10.24715 | 87° | 77km/h | 9189m | -3.9m/s | -37.1°C | 9.7% | 0hPa | 2.4V | 07:45:30 | 03:07:15 | 00:00:00 | |
| IW2NTF | 2026-09-01 01:40:52 | 45.65742 | 10.24420 | 87° | 86km/h | 9225m | -3.9m/s | -37.4°C | 9.8% | 0hPa | 2.4V | 07:45:40 | 03:07:05 | 00:00:00 | |
| IW2NTF | 2026-09-01 01:40:42 | 45.65729 | 10.24125 | 85° | 78km/h | 9263m | -3.7m/s | -37.7°C | 10.1% | 0hPa | 2.4V | 07:45:50 | 03:06:55 | 00:00:00 | |
| IW2NTF | 2026-09-01 01:40:32 | 45.65722 | 10.23834 | 90° | 84km/h | 9299m | -3.7m/s | -38°C | 10.2% | 0hPa | 2.4V | 07:46:00 | 03:06:45 | 00:00:00 | |
| IW2NTF | 2026-09-01 01:40:22 | 45.65713 | 10.23537 | 85° | 80km/h | 9338m | -3.9m/s | -38.3°C | 10.4% | 0hPa | 2.4V | 07:46:10 | 03:06:35 | 00:00:00 | |
| IW2NTF | 2026-09-01 01:40:12 | 45.65706 | 10.23245 | 90° | 80km/h | 9376m | -3.9m/s | -38.6°C | 10.5% | 0hPa | 2.4V | 07:46:20 | 03:06:25 | 00:00:00 | |
| IW2NTF | 2026-09-01 01:39:52 | 45.65691 | 10.22609 | 90° | 86km/h | 9454m | -3.5m/s | -39.1°C | 10.2% | 0hPa | 2.4V | 07:46:41 | 03:06:04 | 00:00:00 | |
| IW2NTF | 2026-09-01 01:39:42 | 45.65685 | 10.22297 | 86° | 86km/h | 9491m | -3.9m/s | -39.4°C | 10.2% | 0hPa | 2.5V | 07:46:51 | 03:05:54 | 00:00:00 | |
| IW2NTF | 2026-09-01 01:39:31 | 45.65680 | 10.21992 | 91° | 86km/h | 9531m | -3.9m/s | -39.8°C | 10.5% | 0hPa | 2.4V | 07:47:01 | 03:05:44 | 00:00:00 | |
| IW2NTF | 2026-09-01 01:39:21 | 45.65676 | 10.21679 | 86° | 88km/h | 9570m | -3.8m/s | -40.1°C | 10.8% | 0hPa | 2.4V | 07:47:11 | 03:05:34 | 00:00:00 | |
| IW2NTF | 2026-09-01 01:39:11 | 45.65673 | 10.21371 | 89° | 80km/h | 9608m | -3.7m/s | -40.4°C | 10.8% | 0hPa | 2.5V | 07:47:21 | 03:05:24 | 00:00:00 | |
| DO3MHA-11 | 2026-09-01 01:39:02 | 45.65675 | 10.21247 | 89° | 86km/h | 9624m | -3.9m/s | -40.5°C | 10.9% | 0hPa | 2.4V | 00:00:00 | 03:05:20 | 00:00:00 | |
| IW2NTF | 2026-09-01 01:39:01 | 45.65673 | 10.21060 | 89° | 91km/h | 9647m | -3.9m/s | -40.7°C | 11% | 0hPa | 2.4V | 07:47:31 | 03:05:14 | 00:00:00 | |
| IW2NTF | 2026-09-01 01:38:49 | 45.65668 | 10.20748 | 87° | 80km/h | 9687m | -4.2m/s | -41.1°C | 11.4% | 0hPa | 2.4V | 07:47:41 | 03:05:04 | 00:00:00 | |
| DO3MHA-11 | 2026-09-01 01:38:43 | 45.65669 | 10.20657 | 93° | 88km/h | 9698m | -4.2m/s | -41.1°C | 11.5% | 0hPa | 2.5V | 00:00:00 | 03:05:01 | 00:00:00 | |
| IW2NTF | 2026-09-01 01:38:37 | 45.65663 | 10.20442 | 92° | 84km/h | 9727m | -4.1m/s | -41.4°C | 11.9% | 0hPa | 2.5V | 07:47:51 | 03:04:54 | 00:00:00 | |
| DO3MHA-11 | 2026-09-01 01:38:32 | 45.65661 | 10.20311 | 84° | 89km/h | 9743m | -4.1m/s | -41.5°C | 12.0% | 0hPa | 2.4V | 00:00:00 | 03:04:50 | 00:00:00 | |
| IW2NTF | 2026-09-01 01:38:31 | 45.65655 | 10.20125 | 88° | 93km/h | 9768m | -4.3m/s | -41.8°C | 12.5% | 0hPa | 2.4V | 07:48:01 | 03:04:44 | 00:00:00 | |
| DO3MHA-11 | 2026-09-01 01:38:20 | 45.65650 | 10.19931 | 92° | 93km/h | 9793m | -4.3m/s | -41.9°C | 13.2% | 0hPa | 2.4V | 07:48:00 | 03:04:38 | 00:00:00 | |
| IW2NTF | 2026-09-01 01:38:19 | 45.65644 | 10.19795 | 83° | 91km/h | 9810m | -4.4m/s | -42.1°C | 13.8% | 0hPa | 2.5V | 07:48:11 | 03:04:34 | 00:00:00 | |
| DO3MHA-11 | 2026-09-01 01:38:10 | 45.65638 | 10.19594 | 86° | 93km/h | 9835m | -4.1m/s | -42.3°C | 14.4% | 0hPa | 2.4V | 00:00:00 | 03:04:28 | 00:00:00 | |
| IW2NTF | 2026-09-01 01:38:07 | 45.65628 | 10.19324 | 84° | 93km/h | 9867m | -4.3m/s | -42.6°C | 15% | 0hPa | 2.4V | 07:48:25 | 03:04:20 | 00:00:00 | |
| DO3MHA-11 | 2026-09-01 01:37:59 | 45.65624 | 10.19225 | 90° | 95km/h | 9879m | -4.0m/s | -42.6°C | 14.9% | 0hPa | 2.4V | 00:00:00 | 03:04:17 | 00:00:00 | |
| IW2NTF | 2026-09-01 01:37:55 | 45.65617 | 10.18989 | 89° | 93km/h | 9908m | -4m/s | -42.9°C | 15% | 0hPa | 2.4V | 07:48:35 | 03:04:10 | 00:00:00 | |
| DO3MHA-11 | 2026-09-01 01:37:49 | 45.65613 | 10.18885 | 85° | 95km/h | 9920m | -4.5m/s | -43.0°C | 15.2% | 0hPa | 2.5V | 00:00:00 | 03:04:07 | 00:00:00 | |
| IW2NTF | 2026-09-01 01:37:43 | 45.65602 | 10.18644 | 83° | 97km/h | 9948m | -3.5m/s | -43.2°C | 15.6% | 0hPa | 2.4V | 07:48:45 | 03:04:00 | 00:00:00 | |
| DO3MHA-11 | 2026-09-01 01:37:39 | 45.65596 | 10.18542 | 88° | 99km/h | 9960m | -3.7m/s | -43.3°C | 16.2% | 0hPa | 2.5V | 00:00:00 | 03:03:57 | 00:00:00 | |
| IW2NTF | 2026-09-01 01:37:37 | 45.65583 | 10.18297 | 87° | 99km/h | 9986m | -4.5m/s | -43.5°C | 18.7% | 0hPa | 2.5V | 07:48:55 | 03:03:50 | 00:00:00 | |
| DO3MHA-11 | 2026-09-01 01:37:29 | 45.65577 | 10.18188 | 84° | 100km/h | 9999m | -4.2m/s | -43.5°C | 20.2% | 0hPa | 2.5V | 00:00:00 | 03:03:47 | 00:00:00 | |
| IW2NTF | 2026-09-01 01:37:25 | 45.65563 | 10.17934 | 83° | 100km/h | 10028m | -4.4m/s | -43.8°C | 24.4% | 0hPa | 2.5V | 07:49:05 | 03:03:40 | 00:00:00 | |
| DO3MHA-11 | 2026-09-01 01:37:19 | 45.65558 | 10.17827 | 89° | 102km/h | 10040m | -4.1m/s | -43.8°C | 25.2% | 0hPa | 2.4V | 00:00:00 | 03:03:37 | 00:00:00 | |
| IW2NTF | 2026-09-01 01:37:13 | 45.65546 | 10.17570 | 88° | 102km/h | 10071m | -4.5m/s | -44.1°C | 26.7% | 0hPa | 2.4V | 07:49:15 | 03:03:30 | 00:00:00 | |
| DO3MHA-11 | 2026-09-01 01:37:09 | 45.65541 | 10.17457 | 85° | 104km/h | 10085m | -4.2m/s | -44.2°C | 26.9% | 0hPa | 2.4V | 00:00:00 | 03:03:27 | 00:00:00 | |
| IW2NTF | 2026-09-01 01:37:07 | 45.65530 | 10.17193 | 84° | 104km/h | 10114m | -3.9m/s | -44.5°C | 27% | 0hPa | 2.4V | 07:49:25 | 03:03:20 | 00:00:00 | |
| DO3MHA-11 | 2026-09-01 01:36:59 | 45.65526 | 10.17080 | 89° | 110km/h | 10126m | -4.5m/s | -44.5°C | 26.5% | 0hPa | 2.4V | 07:49:00 | 03:03:17 | 00:00:00 | |
| IW2NTF | 2026-09-01 01:36:55 | 45.65515 | 10.16807 | 87° | 113km/h | 10156m | -4.4m/s | -44.7°C | 24.5% | 0hPa | 2.4V | 07:49:35 | 03:03:10 | 00:00:00 | |
| DO3MHA-11 | 2026-09-01 01:36:49 | 45.65508 | 10.16684 | 85° | 111km/h | 10168m | -4.4m/s | -44.7°C | 23.9% | 0hPa | 2.5V | 00:00:00 | 03:03:07 | 00:00:00 | |
| IW2NTF | 2026-09-01 01:36:43 | 45.65495 | 10.16400 | 85° | 110km/h | 10198m | -4.5m/s | -44.9°C | 21.5% | 0hPa | 2.5V | 07:49:45 | 03:03:00 | 00:00:00 | |
| DO3MHA-11 | 2026-09-01 01:36:39 | 45.65492 | 10.16279 | 89° | 115km/h | 10211m | -4.6m/s | -45.0°C | 21.2% | 0hPa | 2.5V | 00:00:00 | 03:02:57 | 00:00:00 | |
| IW2NTF | 2026-09-01 01:36:37 | 45.65481 | 10.15989 | 87° | 119km/h | 10242m | -4.7m/s | -45.2°C | 21.3% | 0hPa | 2.5V | 07:49:55 | 03:02:50 | 00:00:00 | |
| DO3MHA-11 | 2026-09-01 01:36:29 | 45.65475 | 10.15864 | 87° | 115km/h | 10256m | -4.4m/s | -45.2°C | 21.4% | 0hPa | 2.4V | 00:00:00 | 03:02:47 | 00:00:00 | |
| IW2NTF | 2026-09-01 01:36:25 | 45.65464 | 10.15575 | 87° | 111km/h | 10285m | -4.5m/s | -45.5°C | 21.6% | 0hPa | 2.4V | 07:50:05 | 03:02:40 | 00:00:00 | |
| DO3MHA-11 | 2026-09-01 01:36:19 | 45.65462 | 10.15450 | 89° | 117km/h | 10299m | -4.0m/s | -45.5°C | 21.7% | 0hPa | 2.4V | 00:00:00 | 03:02:37 | 00:00:00 | |
| IW2NTF | 2026-09-01 01:36:13 | 45.65452 | 10.15114 | 86° | 120km/h | 10333m | -4.3m/s | -45.9°C | 23.2% | 0hPa | 2.4V | 07:50:16 | 03:02:29 | 00:00:00 | |
| DO3MHA-11 | 2026-09-01 01:36:09 | 45.65447 | 10.15030 | 87° | 117km/h | 10342m | -5.0m/s | -45.9°C | 23.6% | 0hPa | 2.4V | 00:00:00 | 03:02:27 | 00:00:00 | |
| IW2NTF | 2026-09-01 01:36:03 | 45.65437 | 10.14692 | 87° | 111km/h | 10379m | -4.7m/s | -46.2°C | 25.4% | 0hPa | 2.4V | 07:50:26 | 03:02:19 | 00:00:00 | |
| DO3MHA-11 | 2026-09-01 01:35:59 | 45.65437 | 10.14608 | 91° | 120km/h | 10388m | -4.7m/s | -46.2°C | 26.0% | 0hPa | 2.4V | 00:00:00 | 03:02:17 | 00:00:00 | |
| IW2NTF | 2026-09-01 01:35:53 | 45.65428 | 10.14265 | 89° | 122km/h | 10425m | -4.4m/s | -46.5°C | 27.1% | 0hPa | 2.4V | 07:50:36 | 03:02:09 | 00:00:00 | |
| DO3MHA-11 | 2026-09-01 01:35:49 | 45.65426 | 10.14176 | 87° | 120km/h | 10434m | -4.5m/s | -46.5°C | 27.6% | 0hPa | 2.4V | 00:00:00 | 03:02:07 | 00:00:00 | |
| IW2NTF | 2026-09-01 01:35:43 | 45.65418 | 10.13830 | 87° | 119km/h | 10471m | -4.8m/s | -46.9°C | 28.8% | 0hPa | 2.5V | 07:50:46 | 03:01:59 | 00:00:00 | |
| DO3MHA-11 | 2026-09-01 01:35:39 | 45.65417 | 10.13745 | 91° | 122km/h | 10481m | -4.6m/s | -46.9°C | 28.6% | 0hPa | 2.4V | 07:50:00 | 03:01:57 | 00:00:00 | |
| IW2NTF | 2026-09-01 01:35:33 | 45.65412 | 10.13395 | 89° | 124km/h | 10517m | -4.4m/s | -47.2°C | 26.7% | 0hPa | 2.4V | 07:50:56 | 03:01:49 | 00:00:00 | |
| DO3MHA-11 | 2026-09-01 01:35:29 | 45.65409 | 10.13305 | 86° | 120km/h | 10526m | -4.4m/s | -47.2°C | 26.2% | 0hPa | 2.4V | 00:00:00 | 03:01:47 | 00:00:00 | |
| IW2NTF | 2026-09-01 01:35:23 | 45.65400 | 10.12956 | 86° | 119km/h | 10563m | -4.3m/s | -47.5°C | 24.8% | 0hPa | 2.4V | 07:51:06 | 03:01:39 | 00:00:00 | |
| DO3MHA-11 | 2026-09-01 01:35:19 | 45.65398 | 10.12869 | 90° | 124km/h | 10572m | -4.4m/s | -47.5°C | 24.7% | 0hPa | 2.4V | 00:00:00 | 03:01:37 | 00:00:00 | |
| IW2NTF | 2026-09-01 01:35:13 | 45.65391 | 10.12515 | 89° | 128km/h | 10609m | -5.3m/s | -47.8°C | 25.4% | 0hPa | 2.4V | 07:51:16 | 03:01:29 | 00:00:00 | |
| DO3MHA-11 | 2026-09-01 01:35:09 | 45.65388 | 10.12424 | 86° | 124km/h | 10619m | -5.1m/s | -47.8°C | 25.8% | 0hPa | 2.4V | 00:00:00 | 03:01:27 | 00:00:00 | |
| DO3MHA-11 | 2026-09-01 01:34:59 | 45.65379 | 10.11981 | 89° | 124km/h | 10667m | -5.5m/s | -48.0°C | 27.2% | 0hPa | 2.4V | 00:00:00 | 03:01:17 | 00:00:00 | |
| IW2NTF | 2026-09-01 01:34:53 | 45.65374 | 10.11623 | 90° | 120km/h | 10706m | -4.9m/s | -48.4°C | 30.1% | 0hPa | 2.4V | 07:51:36 | 03:01:09 | 00:00:00 | |
| DO3MHA-11 | 2026-09-01 01:34:49 | 45.65375 | 10.11533 | 91° | 128km/h | 10715m | -4.9m/s | -48.4°C | 31.0% | 0hPa | 2.5V | 00:00:00 | 03:01:07 | 00:00:00 | |
| IW2NTF | 2026-09-01 01:34:43 | 45.65372 | 10.11168 | 88° | 131km/h | 10753m | -4.2m/s | -48.7°C | 33.8% | 0hPa | 2.4V | 07:51:46 | 03:00:59 | 00:00:00 | |
| DO3MHA-11 | 2026-09-01 01:34:39 | 45.65370 | 10.11075 | 88° | 126km/h | 10763m | -4.9m/s | -48.7°C | 34.6% | 0hPa | 2.5V | 00:00:00 | 03:00:57 | 00:00:00 | |
| IW2NTF | 2026-09-01 01:34:33 | 45.65370 | 10.10707 | 89° | 124km/h | 10801m | -5.3m/s | -49°C | 37.7% | 0hPa | 2.5V | 07:51:56 | 03:00:49 | 00:00:00 | |
| DO3MHA-11 | 2026-09-01 01:34:29 | 45.65372 | 10.10617 | 93° | 133km/h | 10811m | -4.6m/s | -49.0°C | 38.6% | 0hPa | 2.4V | 00:00:00 | 03:00:47 | 00:00:00 | |
| IW2NTF | 2026-09-01 01:34:23 | 45.65373 | 10.10236 | 92° | 135km/h | 10850m | -4.9m/s | -49.4°C | 43.6% | 0hPa | 2.4V | 07:52:06 | 03:00:39 | 00:00:00 | |
| DO3MHA-11 | 2026-09-01 01:34:19 | 45.65375 | 10.10136 | 90° | 135km/h | 10860m | -4.7m/s | -49.4°C | 45.3% | 0hPa | 2.5V | 07:52:00 | 03:00:37 | 00:00:00 | |
| IW2NTF | 2026-09-01 01:34:13 | 45.65373 | 10.09748 | 87° | 137km/h | 10897m | -4.7m/s | -49.7°C | 49.4% | 0hPa | 2.4V | 07:52:16 | 03:00:29 | 00:00:00 | |
| DO3MHA-11 | 2026-09-01 01:34:09 | 45.65371 | 10.09652 | 90° | 135km/h | 10907m | -5.3m/s | -49.7°C | 49.7% | 0hPa | 2.4V | 00:00:00 | 03:00:27 | 00:00:00 | |
| IW2NTF | 2026-09-01 01:34:01 | 45.65367 | 10.09262 | 90° | 133km/h | 10946m | -5.2m/s | -50.1°C | 48.9% | 0hPa | 2.4V | 07:52:26 | 03:00:19 | 00:00:00 | |
| DO3MHA-11 | 2026-09-01 01:33:59 | 45.65366 | 10.09162 | 89° | 137km/h | 10956m | -5.4m/s | -50.1°C | 47.9% | 0hPa | 2.5V | 00:00:00 | 03:00:17 | 00:00:00 | |
| IW2NTF | 2026-09-01 01:33:56 | 45.65358 | 10.08768 | 85° | 137km/h | 10997m | -4.8m/s | -50.3°C | 46.4% | 0hPa | 2.5V | 07:52:36 | 03:00:09 | 00:00:00 | |
| DO3MHA-11 | 2026-09-01 01:33:49 | 45.65354 | 10.08672 | 89° | 135km/h | 11006m | -4.7m/s | -50.3°C | 46.7% | 0hPa | 2.4V | 00:00:00 | 03:00:07 | 00:00:00 | |
| IW2NTF | 2026-09-01 01:33:46 | 45.65348 | 10.08282 | 90° | 131km/h | 11045m | -4.7m/s | -50.7°C | 48.4% | 0hPa | 2.4V | 07:52:46 | 02:59:59 | 00:00:00 | |
| DO3MHA-11 | 2026-09-01 01:33:39 | 45.65349 | 10.08183 | 90° | 137km/h | 11054m | -4.9m/s | -50.7°C | 48.0% | 0hPa | 2.4V | 00:00:00 | 02:59:57 | 00:00:00 | |
| IW2NTF | 2026-09-01 01:33:36 | 45.65343 | 10.07787 | 88° | 141km/h | 11092m | -5m/s | -51°C | 49.4% | 0hPa | 2.4V | 07:52:56 | 02:59:49 | 00:00:00 | |
| DO3MHA-11 | 2026-09-01 01:33:29 | 45.65340 | 10.07688 | 88° | 133km/h | 11101m | -5.2m/s | -51.1°C | 49.4% | 0hPa | 2.5V | 00:00:00 | 02:59:47 | 00:00:00 | |
| IW2NTF | 2026-09-01 01:33:26 | 45.65332 | 10.07299 | 89° | 131km/h | 11140m | -5m/s | -51.5°C | 49.3% | 0hPa | 2.5V | 07:53:06 | 02:59:39 | 00:00:00 | |
| DO3MHA-11 | 2026-09-01 01:33:19 | 45.65332 | 10.07203 | 90° | 137km/h | 11150m | -4.9m/s | -51.4°C | 49.1% | 0hPa | 2.4V | 00:00:00 | 02:59:37 | 00:00:00 | |
| IW2NTF | 2026-09-01 01:33:16 | 45.65322 | 10.06811 | 90° | 139km/h | 11189m | -5.5m/s | -51.8°C | 49.8% | 0hPa | 2.4V | 07:53:16 | 02:59:29 | 00:00:00 | |
| DO3MHA-11 | 2026-09-01 01:33:09 | 45.65320 | 10.06710 | 87° | 135km/h | 11200m | -5.3m/s | -51.8°C | 50.1% | 0hPa | 2.4V | 00:00:00 | 02:59:27 | 00:00:00 | |
| IW2NTF | 2026-09-01 01:33:06 | 45.65308 | 10.06319 | 85° | 139km/h | 11239m | -4.9m/s | -52.2°C | 51.5% | 0hPa | 2.4V | 07:53:26 | 02:59:19 | 00:00:00 | |
| DO3MHA-11 | 2026-09-01 01:32:59 | 45.65303 | 10.06222 | 87° | 135km/h | 11248m | -4.8m/s | -52.3°C | 51.6% | 0hPa | 2.5V | 07:53:00 | 02:59:17 | 00:00:00 | |
| IW2NTF | 2026-09-01 01:32:55 | 45.65280 | 10.05780 | 87° | 128km/h | 11292m | -5.2m/s | -52.6°C | 50.7% | 0hPa | 2.5V | 07:53:37 | 02:59:08 | 00:00:00 | |
| DO3MHA-11 | 2026-09-01 01:32:49 | 45.65279 | 10.05733 | 90° | 137km/h | 11297m | -4.9m/s | -52.5°C | 50.3% | 0hPa | 2.4V | 00:00:00 | 02:59:07 | 00:00:00 | |
| IW2NTF | 2026-09-01 01:32:45 | 45.65257 | 10.05293 | 89° | 141km/h | 11342m | -5.3m/s | -52.6°C | 48.7% | 0hPa | 2.4V | 07:53:47 | 02:58:58 | 00:00:00 | |
| DO3MHA-11 | 2026-09-01 01:32:39 | 45.65255 | 10.05242 | 87° | 139km/h | 11347m | -5.3m/s | -52.6°C | 49.0% | 0hPa | 2.4V | 00:00:00 | 02:58:57 | 00:00:00 | |
| IW2NTF | 2026-09-01 01:32:35 | 45.65229 | 10.04797 | 85° | 148km/h | 11389m | -5.3m/s | -52.9°C | 48.4% | 0hPa | 2.4V | 07:53:57 | 02:58:48 | 00:00:00 | |
| DO3MHA-11 | 2026-09-01 01:32:29 | 45.65226 | 10.04744 | 84° | 139km/h | 11394m | -5.9m/s | -52.9°C | 48.6% | 0hPa | 2.5V | 00:00:00 | 02:58:47 | 00:00:00 | |
| IW2NTF | 2026-09-01 01:32:25 | 45.65199 | 10.04299 | 82° | 142km/h | 11441m | -5m/s | -53.3°C | 49% | 0hPa | 2.5V | 07:54:07 | 02:58:38 | 00:00:00 | |
| DO3MHA-11 | 2026-09-01 01:32:19 | 45.65193 | 10.04249 | 81° | 137km/h | 11446m | -5.2m/s | -53.3°C | 49.2% | 0hPa | 2.4V | 00:00:00 | 02:58:37 | 00:00:00 | |
| IW2NTF | 2026-09-01 01:32:15 | 45.65165 | 10.03807 | 81° | 139km/h | 11493m | -5.3m/s | -53.6°C | 49.3% | 0hPa | 2.4V | 07:54:17 | 02:58:28 | 00:00:00 | |
| DO3MHA-11 | 2026-09-01 01:32:09 | 45.65160 | 10.03758 | 82° | 137km/h | 11498m | -5.4m/s | -53.6°C | 49.1% | 0hPa | 2.4V | 00:00:00 | 02:58:27 | 00:00:00 | |
| IW2NTF | 2026-09-01 01:32:05 | 45.65135 | 10.03313 | 82° | 133km/h | 11544m | -5.1m/s | -54°C | 50.9% | 0hPa | 2.4V | 07:54:27 | 02:58:18 | 00:00:00 | |
| DO3MHA-11 | 2026-09-01 01:31:59 | 45.65131 | 10.03266 | 85° | 139km/h | 11549m | -4.9m/s | -54.0°C | 51.2% | 0hPa | 2.5V | 00:00:00 | 02:58:17 | 00:00:00 | |
| IW2NTF | 2026-09-01 01:31:56 | 45.65104 | 10.02815 | 84° | 130km/h | 11594m | -4.9m/s | -54.3°C | 52.5% | 0hPa | 2.5V | 07:54:37 | 02:58:08 | 00:00:00 | |
| DO3MHA-11 | 2026-09-01 01:31:49 | 45.65101 | 10.02768 | 88° | 139km/h | 11599m | -4.9m/s | -54.3°C | 52.9% | 0hPa | 2.4V | 00:00:00 | 02:58:07 | 00:00:00 | |
| IW2NTF | 2026-09-01 01:31:45 | 45.65073 | 10.02315 | 86° | 130km/h | 11644m | -5m/s | -54.6°C | 55.3% | 0hPa | 2.4V | 07:54:47 | 02:57:58 | 00:00:00 | |
| DO3MHA-11 | 2026-09-01 01:31:39 | 45.65072 | 10.02267 | 89° | 141km/h | 11649m | -4.8m/s | -54.6°C | 55.6% | 0hPa | 2.4V | 07:54:00 | 02:57:57 | 00:00:00 | |
| IW2NTF | 2026-09-01 01:31:35 | 45.65046 | 10.01810 | 87° | 131km/h | 11693m | -4.9m/s | -54.9°C | 53% | 0hPa | 2.4V | 07:54:57 | 02:57:48 | 00:00:00 | |
| DO3MHA-11 | 2026-09-01 01:31:29 | 45.65045 | 10.01761 | 90° | 141km/h | 11698m | -4.8m/s | -54.9°C | 53.2% | 0hPa | 2.5V | 00:00:00 | 02:57:47 | 00:00:00 | |
| IW2NTF | 2026-09-01 01:31:25 | 45.65016 | 10.01306 | 88° | 133km/h | 11742m | -5m/s | -55.1°C | 55.1% | 0hPa | 2.5V | 07:55:07 | 02:57:38 | 00:00:00 | |
| DO3MHA-11 | 2026-09-01 01:31:19 | 45.65016 | 10.01256 | 90° | 142km/h | 11748m | -4.8m/s | -55.1°C | 55.5% | 0hPa | 2.4V | 00:00:00 | 02:57:37 | 00:00:00 | |
| IW2NTF | 2026-09-01 01:31:15 | 45.64983 | 10.00796 | 87° | 135km/h | 11791m | -4.6m/s | -55.6°C | 53.7% | 0hPa | 2.4V | 07:55:17 | 02:57:28 | 00:00:00 | |
| DO3MHA-11 | 2026-09-01 01:31:09 | 45.64982 | 10.00746 | 89° | 142km/h | 11796m | -4.7m/s | -55.6°C | 53.2% | 0hPa | 2.4V | 00:00:00 | 02:57:27 | 00:00:00 | |
| IW2NTF | 2026-09-01 01:31:05 | 45.64943 | 10.00284 | 86° | 137km/h | 11840m | -4.7m/s | -55.6°C | 49.8% | 0hPa | 2.4V | 07:55:27 | 02:57:18 | 00:00:00 | |
| DO3MHA-11 | 2026-09-01 01:30:59 | 45.64941 | 10.00234 | 88° | 144km/h | 11845m | -4.7m/s | -55.6°C | 49.9% | 0hPa | 2.5V | 00:00:00 | 02:57:17 | 00:00:00 | |
| IW2NTF | 2026-09-01 01:30:55 | 45.64896 | 9.99773 | 86° | 135km/h | 11889m | -4.7m/s | -55.8°C | 49.6% | 0hPa | 2.5V | 07:55:37 | 02:57:08 | 00:00:00 | |
| DO3MHA-11 | 2026-09-01 01:30:49 | 45.64894 | 9.99722 | 88° | 144km/h | 11894m | -4.8m/s | -55.8°C | 49.4% | 0hPa | 2.4V | 00:00:00 | 02:57:07 | 00:00:00 | |
| IW2NTF | 2026-09-01 01:30:45 | 45.64846 | 9.99255 | 85° | 131km/h | 11938m | -5m/s | -56.1°C | 49% | 0hPa | 2.4V | 07:55:47 | 02:56:58 | 00:00:00 | |
| DO3MHA-11 | 2026-09-01 01:30:39 | 45.64843 | 9.99206 | 88° | 144km/h | 11943m | -5.0m/s | -56.1°C | 48.9% | 0hPa | 2.4V | 00:00:00 | 02:56:57 | 00:00:00 | |
| IW2NTF | 2026-09-01 01:30:35 | 45.64798 | 9.98737 | 82° | 130km/h | 11987m | -5m/s | -56.5°C | 48% | 0hPa | 2.4V | 07:55:57 | 02:56:48 | 00:00:00 | |
| DO3MHA-11 | 2026-09-01 01:30:29 | 45.64795 | 9.98690 | 86° | 144km/h | 11993m | -5.0m/s | -56.4°C | 48.1% | 0hPa | 2.5V | 00:00:00 | 02:56:47 | 00:00:00 | |
| IW2NTF | 2026-09-01 01:30:25 | 45.64763 | 9.98218 | 82° | 133km/h | 12035m | -4.6m/s | -56.9°C | 49% | 0hPa | 2.5V | 07:56:07 | 02:56:38 | 00:00:00 | |
| DO3MHA-11 | 2026-09-01 01:30:19 | 45.64759 | 9.98170 | 86° | 148km/h | 12040m | -4.7m/s | -56.9°C | 48.3% | 0hPa | 2.4V | 07:56:00 | 02:56:37 | 00:00:00 | |
| IW2NTF | 2026-09-01 01:30:17 | 45.64736 | 9.97690 | 81° | 141km/h | 12083m | -4.7m/s | -57.1°C | 45.1% | 0hPa | 2.4V | 07:56:17 | 02:56:28 | 00:00:00 | |
| DO3MHA-11 | 2026-09-01 01:30:09 | 45.64732 | 9.97640 | 85° | 148km/h | 12087m | -4.6m/s | -57.1°C | 44.7% | 0hPa | 2.4V | 00:00:00 | 02:56:27 | 00:00:00 | |
| IW2NTF | 2026-09-01 01:30:05 | 45.64711 | 9.97160 | 81° | 141km/h | 12130m | -4.8m/s | -56.6°C | 39.7% | 0hPa | 2.4V | 07:56:27 | 02:56:18 | 00:00:00 | |
| DO3MHA-11 | 2026-09-01 01:29:59 | 45.64706 | 9.97110 | 84° | 148km/h | 12134m | -4.7m/s | -56.5°C | 39.7% | 0hPa | 2.5V | 00:00:00 | 02:56:17 | 00:00:00 | |
| NBG1-10 | 2026-09-01 01:29:57 | 45.64702 | 9.97013 | 90° | 141km/h | 12144m | -4.8m/s | -56.6°C | 39.8% | 0hPa | 2.5V | 00:00:00 | 02:56:15 | 00:00:00 | |
| IW2NTF | 2026-09-01 01:29:56 | 45.64686 | 9.96632 | 81° | 142km/h | 12176m | -4.5m/s | -56.8°C | 38.7% | 0hPa | 2.5V | 07:56:37 | 02:56:08 | 00:00:00 | |
| DB0UT-7 | 2026-09-01 01:29:50 | 45.64686 | 9.96632 | 82° | 142km/h | 12176m | -4.5m/s | -56.7°C | 38.7% | 0hPa | 2.5V | 00:00:00 | 00:00:00 | 00:00:00 | |
| DO3MHA-11 | 2026-09-01 01:29:49 | 45.64681 | 9.96582 | 84° | 146km/h | 12180m | -4.4m/s | -56.7°C | 38.4% | 0hPa | 2.4V | 00:00:00 | 02:56:07 | 00:00:00 | |
| IW2NTF | 2026-09-01 01:29:45 | 45.64660 | 9.96105 | 80° | 144km/h | 12222m | -4.7m/s | -56.9°C | 37% | 0hPa | 2.4V | 07:56:47 | 02:55:58 | 00:00:00 | |
| DO3MHA-11 | 2026-09-01 01:29:39 | 45.64655 | 9.96054 | 83° | 150km/h | 12227m | -4.9m/s | -56.9°C | 37.0% | 0hPa | 2.4V | 00:00:00 | 02:55:57 | 00:00:00 | |
| IW2NTF | 2026-09-01 01:29:35 | 45.64629 | 9.95571 | 79° | 150km/h | 12269m | -4.7m/s | -57.1°C | 35.3% | 0hPa | 2.4V | 07:56:57 | 02:55:48 | 00:00:00 | |
| DO3MHA-11 | 2026-09-01 01:29:29 | 45.64623 | 9.95519 | 81° | 150km/h | 12274m | -4.7m/s | -57.1°C | 35.4% | 0hPa | 2.5V | 00:00:00 | 02:55:47 | 00:00:00 | |
| IW2NTF | 2026-09-01 01:29:24 | 45.64595 | 9.95035 | 79° | 153km/h | 12316m | -4.6m/s | -57.2°C | 33.5% | 0hPa | 2.5V | 07:57:07 | 02:55:38 | 00:00:00 | |
| DO3MHA-11 | 2026-09-01 01:29:19 | 45.64588 | 9.94982 | 80° | 150km/h | 12320m | -4.4m/s | -57.2°C | 33.4% | 0hPa | 2.4V | 00:00:00 | 02:55:37 | 00:00:00 | |
| IW2NTF | 2026-09-01 01:29:15 | 45.64563 | 9.94500 | 80° | 157km/h | 12363m | -4.7m/s | -57.2°C | 30.8% | 0hPa | 2.4V | 07:57:17 | 02:55:28 | 00:00:00 | |
| DO3MHA-11 | 2026-09-01 01:29:09 | 45.64556 | 9.94445 | 79° | 148km/h | 12368m | -4.8m/s | -57.2°C | 30.5% | 0hPa | 2.4V | 00:00:00 | 02:55:27 | 00:00:00 | |
| IW2NTF | 2026-09-01 01:29:05 | 45.64524 | 9.93970 | 82° | 162km/h | 12410m | -4.9m/s | -57.1°C | 28.2% | 0hPa | 2.4V | 07:57:27 | 02:55:18 | 00:00:00 | |
| DB0UT-7 | 2026-09-01 01:29:03 | 45.64533 | 9.94142 | 90° | 150km/h | 12397m | -4.5m/s | -57.1°C | 28.8% | 0hPa | 2.5V | 07:57:00 | 02:55:21 | 00:00:00 | |
| DO3MHA-11 | 2026-09-01 01:28:59 | 45.64518 | 9.93913 | 80° | 148km/h | 12415m | -4.9m/s | -57.0°C | 28.1% | 0hPa | 2.5V | 07:57:00 | 02:55:17 | 00:00:00 | |
| IW2NTF | 2026-09-01 01:28:55 | 45.64478 | 9.93443 | 83° | 162km/h | 12457m | -4.6m/s | -56.7°C | 26.5% | 0hPa | 2.5V | 07:57:37 | 02:55:08 | 00:00:00 | |
| DO3MHA-11 | 2026-09-01 01:28:49 | 45.64472 | 9.93385 | 81° | 148km/h | 12462m | -4.7m/s | -56.6°C | 26.1% | 0hPa | 2.4V | 00:00:00 | 02:55:07 | 00:00:00 | |
| IW2NTF | 2026-09-01 01:28:45 | 45.64420 | 9.92914 | 85° | 159km/h | 12505m | -5m/s | -56.3°C | 24.3% | 0hPa | 2.4V | 07:57:47 | 02:54:58 | 00:00:00 | |
| DO3MHA-11 | 2026-09-01 01:28:39 | 45.64416 | 9.92856 | 83° | 151km/h | 12510m | -4.8m/s | -56.2°C | 23.7% | 0hPa | 2.4V | 00:00:00 | 02:54:57 | 00:00:00 | |
| NBG1-10 | 2026-09-01 01:28:36 | 45.64392 | 9.92684 | 77° | 157km/h | 12525m | -4.8m/s | -56.1°C | 23.5% | 0hPa | 2.4V | 00:00:00 | 02:54:54 | 00:00:00 | |
| IW2NTF | 2026-09-01 01:28:35 | 45.64359 | 9.92376 | 85° | 157km/h | 12553m | -4.8m/s | -56.3°C | 23.2% | 0hPa | 2.4V | 07:57:57 | 02:54:48 | 00:00:00 | |
| DB0UT-7 | 2026-09-01 01:28:31 | 45.64361 | 9.92431 | 86° | 159km/h | 12549m | -4.7m/s | -56.3°C | 23.4% | 0hPa | 2.5V | 00:00:00 | 00:00:00 | 00:00:00 | |
| DO3MHA-11 | 2026-09-01 01:28:29 | 45.64355 | 9.92319 | 85° | 155km/h | 12558m | -4.8m/s | -56.3°C | 23.2% | 0hPa | 2.5V | 00:00:00 | 02:54:47 | 00:00:00 | |
| IW2NTF | 2026-09-01 01:28:25 | 45.64293 | 9.91826 | 85° | 157km/h | 12601m | -4.6m/s | -56.5°C | 23.5% | 0hPa | 2.5V | 07:58:07 | 02:54:38 | 00:00:00 | |
| DO3MHA-11 | 2026-09-01 01:28:19 | 45.64289 | 9.91768 | 85° | 159km/h | 12606m | -4.7m/s | -56.5°C | 23.4% | 0hPa | 2.4V | 00:00:00 | 02:54:37 | 00:00:00 | |
| IW2NTF | 2026-09-01 01:28:11 | 45.64217 | 9.91263 | 83° | 151km/h | 12649m | -4.8m/s | -56.8°C | 23.5% | 0hPa | 2.4V | 07:58:17 | 02:54:28 | 00:00:00 | |
| DO3MHA-11 | 2026-09-01 01:28:09 | 45.64213 | 9.91208 | 85° | 161km/h | 12654m | -4.9m/s | -56.7°C | 23.4% | 0hPa | 2.4V | 00:00:00 | 02:54:27 | 00:00:00 | |
| IW2NTF | 2026-09-01 01:28:05 | 45.64137 | 9.90696 | 81° | 148km/h | 12698m | -5m/s | -57.1°C | 23.5% | 0hPa | 2.4V | 07:58:27 | 02:54:18 | 00:00:00 | |
| NBG1-10 | 2026-09-01 01:28:02 | 45.64153 | 9.90800 | 76° | 159km/h | 12689m | -4.9m/s | -56.9°C | 23.4% | 0hPa | 2.5V | 07:58:00 | 02:54:20 | 00:00:00 | |
| DB0UT-7 | 2026-09-01 01:28:01 | 45.64144 | 9.90748 | 79° | 157km/h | 12693m | -4.9m/s | -57.0°C | 23.5% | 0hPa | 2.4V | 00:00:00 | 02:54:19 | 00:00:00 | |
| DO3MHA-11 | 2026-09-01 01:27:59 | 45.64132 | 9.90642 | 84° | 161km/h | 12703m | -4.8m/s | -57.1°C | 23.6% | 0hPa | 2.5V | 00:00:00 | 02:54:17 | 00:00:00 | |
| IW2NTF | 2026-09-01 01:27:55 | 45.64058 | 9.90131 | 80° | 144km/h | 12746m | -4.9m/s | -57.3°C | 23.9% | 0hPa | 2.5V | 07:58:37 | 02:54:08 | 00:00:00 | |
| DO3MHA-11 | 2026-09-01 01:27:49 | 45.64053 | 9.90079 | 83° | 157km/h | 12752m | -5.0m/s | -57.3°C | 24.1% | 0hPa | 2.4V | 00:00:00 | 02:54:07 | 00:00:00 | |
| IW2NTF | 2026-09-01 01:27:45 | 45.63985 | 9.89578 | 79° | 141km/h | 12796m | -5.1m/s | -57.7°C | 23.8% | 0hPa | 2.4V | 07:58:47 | 02:53:58 | 00:00:00 | |
| DO3MHA-11 | 2026-09-01 01:27:39 | 45.63980 | 9.89528 | 83° | 155km/h | 12802m | -5.0m/s | -57.7°C | 23.7% | 0hPa | 2.4V | 07:58:00 | 02:53:57 | 00:00:00 | |
| IW2NTF | 2026-09-01 01:27:35 | 45.63916 | 9.89029 | 76° | 141km/h | 12848m | -5.2m/s | -58°C | 23.7% | 0hPa | 2.4V | 07:58:57 | 02:53:48 | 00:00:00 | |
| DB0UT-7 | 2026-09-01 01:27:31 | 45.63925 | 9.89079 | 75° | 151km/h | 12842m | -5.3m/s | -58.0°C | 23.6% | 0hPa | 2.5V | 00:00:00 | 00:00:00 | 00:00:00 | |
| DO3MHA-11 | 2026-09-01 01:27:29 | 45.63909 | 9.88980 | 80° | 151km/h | 12853m | -5.1m/s | -58.1°C | 23.8% | 0hPa | 2.5V | 00:00:00 | 02:53:47 | 00:00:00 | |
| IW2NTF | 2026-09-01 01:27:25 | 45.63852 | 9.88491 | 77° | 141km/h | 12899m | -5.1m/s | -58.5°C | 24% | 0hPa | 2.5V | 07:59:07 | 02:53:38 | 00:00:00 | |
| DO3MHA-11 | 2026-09-01 01:27:19 | 45.63845 | 9.88442 | 81° | 151km/h | 12904m | -5.1m/s | -58.5°C | 23.7% | 0hPa | 2.4V | 00:00:00 | 02:53:37 | 00:00:00 | |
| IW2NTF | 2026-09-01 01:27:14 | 45.63797 | 9.87898 | 79° | 141km/h | 12955m | -5.3m/s | -58.5°C | 21.7% | 0hPa | 2.5V | 07:59:18 | 02:53:27 | 00:00:00 | |
| DO3MHA-11 | 2026-09-01 01:27:09 | 45.63797 | 9.87898 | 80° | 151km/h | 12955m | -5.3m/s | -58.5°C | 21.7% | 0hPa | 2.4V | 00:00:00 | 02:53:27 | 00:00:00 | |
| IW2NTF | 2026-09-01 01:27:04 | 45.63758 | 9.87355 | 78° | 146km/h | 13007m | -5.3m/s | -58.5°C | 19.2% | 0hPa | 2.4V | 07:59:28 | 02:53:17 | 00:00:00 | |
| DB0UT-7 | 2026-09-01 01:27:01 | 45.63773 | 9.87464 | 81° | 148km/h | 12997m | -4.9m/s | -58.3°C | 19.7% | 0hPa | 2.4V | 00:00:00 | 02:53:19 | 00:00:00 | |
| DO3MHA-11 | 2026-09-01 01:26:59 | 45.63758 | 9.87355 | 79° | 151km/h | 13007m | -5.2m/s | -58.4°C | 19.2% | 0hPa | 2.4V | 00:00:00 | 02:53:17 | 00:00:00 | |
| NBG1-10 | 2026-09-01 01:26:56 | 45.63746 | 9.87206 | 88° | 146km/h | 13023m | -5.1m/s | -58.4°C | 19.0% | 0hPa | 2.4V | 00:00:00 | 02:53:14 | 00:00:00 | |
| IW2NTF | 2026-09-01 01:26:54 | 45.63720 | 9.86812 | 78° | 150km/h | 13060m | -5.3m/s | -58.5°C | 16.7% | 0hPa | 2.4V | 07:59:38 | 02:53:07 | 00:00:00 | |
| DO3MHA-11 | 2026-09-01 01:26:49 | 45.63720 | 9.86812 | 79° | 146km/h | 13060m | -5.2m/s | -58.4°C | 16.7% | 0hPa | 2.4V | 00:00:00 | 02:53:07 | 00:00:00 | |
| IW2NTF | 2026-09-01 01:26:44 | 45.63685 | 9.86286 | 78° | 153km/h | 13114m | -5.4m/s | -58.6°C | 13.4% | 0hPa | 2.5V | 07:59:48 | 02:52:57 | 00:00:00 | |
| DO3MHA-11 | 2026-09-01 01:26:39 | 45.63685 | 9.86286 | 79° | 144km/h | 13114m | -5.3m/s | -58.6°C | 13.4% | 0hPa | 2.4V | 00:00:00 | 02:52:57 | 00:00:00 | |
| IW2NTF | 2026-09-01 01:26:35 | 45.63648 | 9.85772 | 80° | 153km/h | 13169m | -5.3m/s | -58.8°C | 11.6% | 0hPa | 2.4V | 07:59:58 | 02:52:47 | 00:00:00 | |
| DB0UT-7 | 2026-09-01 01:26:31 | 45.63656 | 9.85883 | 87° | 139km/h | 13159m | -5.3m/s | -58.7°C | 11.9% | 0hPa | 2.4V | 00:00:00 | 00:00:00 | 00:00:00 | |
| DO3MHA-11 | 2026-09-01 01:26:29 | 45.63647 | 9.85772 | 81° | 139km/h | 13169m | -5.3m/s | -58.7°C | 11.6% | 0hPa | 2.4V | 00:00:00 | 02:52:47 | 00:00:00 | |
| IW2NTF | 2026-09-01 01:26:24 | 45.63606 | 9.85276 | 81° | 153km/h | 13226m | -5.4m/s | -59°C | 10.5% | 0hPa | 2.4V | 08:00:08 | 02:52:37 | 00:00:00 | |
| NBG1-10 | 2026-09-01 01:26:23 | 45.63615 | 9.85483 | 88° | 135km/h | 13204m | -5.3m/s | -59.0°C | 11.0% | 0hPa | 2.4V | 00:00:00 | 02:52:41 | 00:00:00 | |
| DO3MHA-11 | 2026-09-01 01:26:19 | 45.63606 | 9.85276 | 82° | 137km/h | 13226m | -5.4m/s | -59.0°C | 10.5% | 0hPa | 2.4V | 00:00:00 | 02:52:37 | 00:00:00 | |
| IW2NTF | 2026-09-01 01:26:14 | 45.63559 | 9.84788 | 84° | 150km/h | 13282m | -6.2m/s | -58.5°C | 9.4% | 0hPa | 2.5V | 08:00:18 | 02:52:27 | 00:00:00 | |
| IW2NTF | 2026-09-01 01:26:04 | 45.63511 | 9.84317 | 89° | 139km/h | 13340m | -5.5m/s | -58.2°C | 8.5% | 0hPa | 2.4V | 08:00:28 | 02:52:17 | 00:00:00 | |
| DB0UT-7 | 2026-09-01 01:26:01 | 45.63512 | 9.84410 | 89° | 130km/h | 13329m | -5.4m/s | -58.2°C | 8.5% | 0hPa | 2.4V | 00:00:00 | 02:52:19 | 00:00:00 | |
| DO3MHA-11 | 2026-09-01 01:25:59 | 45.63511 | 9.84317 | 90° | 131km/h | 13340m | -5.5m/s | -58.2°C | 8.5% | 0hPa | 2.4V | 00:00:00 | 02:52:17 | 00:00:00 | |
| IW2NTF | 2026-09-01 01:25:54 | 45.63467 | 9.83853 | 90° | 124km/h | 13397m | -5.6m/s | -58.1°C | 8% | 0hPa | 2.4V | 08:00:38 | 02:52:07 | 00:00:00 | |
| NBG1-10 | 2026-09-01 01:25:50 | 45.63467 | 9.83897 | 89° | 124km/h | 13391m | -5.5m/s | -58.0°C | 8.0% | 0hPa | 2.4V | 00:00:00 | 02:52:08 | 00:00:00 | |
| DO3MHA-11 | 2026-09-01 01:25:49 | 45.63467 | 9.83853 | 91° | 124km/h | 13397m | -5.5m/s | -58.0°C | 8.0% | 0hPa | 2.4V | 08:00:00 | 02:52:07 | 00:00:00 | |
| IW2NTF | 2026-09-01 01:25:44 | 45.63428 | 9.83404 | 89° | 119km/h | 13455m | -5.5m/s | -58.4°C | 7.8% | 0hPa | 2.5V | 08:00:48 | 02:51:57 | 00:00:00 | |
| DO3MHA-11 | 2026-09-01 01:25:39 | 45.63428 | 9.83404 | 90° | 126km/h | 13455m | -5.4m/s | -58.3°C | 7.8% | 0hPa | 2.4V | 00:00:00 | 02:51:57 | 00:00:00 | |
| IW2NTF | 2026-09-01 01:25:34 | 45.63389 | 9.82957 | 87° | 108km/h | 13513m | -6m/s | -58.1°C | 7.1% | 0hPa | 2.4V | 08:00:58 | 02:51:47 | 00:00:00 | |
| DB0UT-7 | 2026-09-01 01:25:31 | 45.63397 | 9.83034 | 79° | 120km/h | 13501m | -5.4m/s | -58.2°C | 7.3% | 0hPa | 2.4V | 00:00:00 | 00:00:00 | 00:00:00 | |
| DO3MHA-11 | 2026-09-01 01:25:29 | 45.63389 | 9.82957 | 88° | 124km/h | 13513m | -6.0m/s | -58.0°C | 7.1% | 0hPa | 2.4V | 00:00:00 | 02:51:47 | 00:00:00 | |
| IW2NTF | 2026-09-01 01:25:24 | 45.63353 | 9.82514 | 81° | 108km/h | 13572m | -6.8m/s | -58°C | 6.8% | 0hPa | 2.4V | 08:01:08 | 02:51:37 | 00:00:00 | |
| DO3MHA-11 | 2026-09-01 01:25:19 | 45.63353 | 9.82514 | 82° | 126km/h | 13572m | -6.7m/s | -57.9°C | 6.8% | 0hPa | 2.4V | 00:00:00 | 02:51:37 | 00:00:00 | |
| NBG1-10 | 2026-09-01 01:25:17 | 45.63349 | 9.82436 | 89° | 120km/h | 13585m | -5.9m/s | -57.9°C | 6.8% | 0hPa | 2.5V | 00:00:00 | 02:51:35 | 00:00:00 | |
| IW2NTF | 2026-09-01 01:25:14 | 45.63317 | 9.82064 | 73° | 117km/h | 13634m | -5m/s | -57.6°C | 6.8% | 0hPa | 2.5V | 08:01:18 | 02:51:27 | 00:00:00 | |
| DO3MHA-11 | 2026-09-01 01:25:09 | 45.63317 | 9.82064 | 74° | 120km/h | 13634m | -5.0m/s | -57.5°C | 6.8% | 0hPa | 2.4V | 00:00:00 | 02:51:27 | 00:00:00 | |
| IW2NTF | 2026-09-01 01:25:04 | 45.63277 | 9.81637 | 74° | 122km/h | 13694m | -5.4m/s | -57.2°C | 6.7% | 0hPa | 2.4V | 08:01:28 | 02:51:17 | 00:00:00 | |
| DB0UT-7 | 2026-09-01 01:25:01 | 45.63291 | 9.81730 | 80° | 117km/h | 13682m | -4.8m/s | -57.1°C | 6.8% | 0hPa | 2.4V | 08:01:00 | 02:51:19 | 00:00:00 | |
| DO3MHA-11 | 2026-09-01 01:24:59 | 45.63277 | 9.81637 | 75° | 117km/h | 13694m | -5.4m/s | -57.1°C | 6.7% | 0hPa | 2.4V | 00:00:00 | 02:51:17 | 00:00:00 | |
| IW2NTF | 2026-09-01 01:24:54 | 45.63242 | 9.81219 | 77° | 131km/h | 13752m | -5.2m/s | -56.9°C | 6.9% | 0hPa | 2.4V | 08:01:38 | 02:51:07 | 00:00:00 | |
| DO3MHA-11 | 2026-09-01 01:24:49 | 45.63242 | 9.81219 | 78° | 115km/h | 13752m | -5.2m/s | -56.8°C | 6.9% | 0hPa | 2.4V | 00:00:00 | 02:51:07 | 00:00:00 | |
| IW2NTF | 2026-09-01 01:24:44 | 45.63214 | 9.80810 | 85° | 135km/h | 13812m | -4m/s | -56.6°C | 6.7% | 0hPa | 2.5V | 08:01:48 | 02:50:57 | 00:00:00 | |
| NBG1-10 | 2026-09-01 01:24:44 | 45.63212 | 9.81023 | 88° | 93km/h | 13783m | -6.1m/s | -56.5°C | 6.7% | 0hPa | 2.5V | 08:01:00 | 02:51:02 | 00:00:00 | |
| DO3MHA-11 | 2026-09-01 01:24:39 | 45.63214 | 9.80810 | 86° | 115km/h | 13812m | -4.0m/s | -56.5°C | 6.7% | 0hPa | 2.4V | 00:00:00 | 02:50:57 | 00:00:00 | |
| IW2NTF | 2026-09-01 01:24:34 | 45.63180 | 9.80399 | 90° | 128km/h | 13870m | -5.7m/s | -56.6°C | 6.8% | 0hPa | 2.4V | 08:01:58 | 02:50:47 | 00:00:00 | |
| DB0UT-7 | 2026-09-01 01:24:31 | 45.63178 | 9.80485 | 92° | 113km/h | 13859m | -5.9m/s | -56.5°C | 6.7% | 0hPa | 2.4V | 00:00:00 | 00:00:00 | 00:00:00 | |
| DO3MHA-11 | 2026-09-01 01:24:29 | 45.63180 | 9.80399 | 91° | 115km/h | 13870m | -5.6m/s | -56.6°C | 6.8% | 0hPa | 2.4V | 00:00:00 | 02:50:47 | 00:00:00 | |
| IW2NTF | 2026-09-01 01:24:24 | 45.63149 | 9.79994 | 91° | 119km/h | 13928m | -5.7m/s | -57°C | 6.9% | 0hPa | 2.4V | 08:02:08 | 02:50:37 | 00:00:00 | |
| DO3MHA-11 | 2026-09-01 01:24:19 | 45.63149 | 9.79994 | 92° | 111km/h | 13929m | -5.7m/s | -57.0°C | 6.9% | 0hPa | 2.4V | 08:02:00 | 02:50:37 | 00:00:00 | |
| IW2NTF | 2026-09-01 01:24:14 | 45.63118 | 9.79598 | 94° | 104km/h | 13987m | -5.1m/s | -57.3°C | 6.9% | 0hPa | 2.5V | 08:02:18 | 02:50:27 | 00:00:00 | |
| DO3MHA-11 | 2026-09-01 01:24:09 | 45.63118 | 9.79598 | 95° | 111km/h | 13987m | -5.1m/s | -57.3°C | 6.9% | 0hPa | 2.4V | 00:00:00 | 02:50:27 | 00:00:00 | |
| IW2NTF | 2026-09-01 01:24:04 | 45.63096 | 9.79202 | 91° | 97km/h | 14044m | -5.1m/s | -57.3°C | 6.8% | 0hPa | 2.4V | 08:02:28 | 02:50:17 | 00:00:00 | |
| DB0UT-7 | 2026-09-01 01:24:01 | 45.63099 | 9.79269 | 82° | 110km/h | 14033m | -5.4m/s | -57.2°C | 6.8% | 0hPa | 2.4V | 00:00:00 | 02:50:19 | 00:00:00 | |
| DO3MHA-11 | 2026-09-01 01:23:59 | 45.63096 | 9.79202 | 92° | 111km/h | 14045m | -5.1m/s | -57.3°C | 6.8% | 0hPa | 2.4V | 00:00:00 | 02:50:17 | 00:00:00 | |
| IW2NTF | 2026-09-01 01:23:54 | 45.63074 | 9.78805 | 83° | 93km/h | 14102m | -5.8m/s | -57.3°C | 6.7% | 0hPa | 2.4V | 08:02:38 | 02:50:07 | 00:00:00 | |
| DO3MHA-11 | 2026-09-01 01:23:49 | 45.63074 | 9.78805 | 84° | 110km/h | 14102m | -5.7m/s | -57.3°C | 6.7% | 0hPa | 2.4V | 00:00:00 | 02:50:07 | 00:00:00 | |
| IW2NTF | 2026-09-01 01:23:44 | 45.63049 | 9.78414 | 83° | 91km/h | 14159m | -5m/s | -57.6°C | 6.9% | 0hPa | 2.5V | 08:02:48 | 02:49:57 | 00:00:00 | |
| DO3MHA-11 | 2026-09-01 01:23:39 | 45.63049 | 9.78414 | 84° | 110km/h | 14159m | -5.0m/s | -57.5°C | 6.9% | 0hPa | 2.4V | 00:00:00 | 02:49:57 | 00:00:00 | |
| IW2NTF | 2026-09-01 01:23:34 | 45.63026 | 9.78022 | 81° | 91km/h | 14217m | -4.9m/s | -57.6°C | 6.9% | 0hPa | 2.4V | 08:02:58 | 02:49:47 | 00:00:00 | |
| DB0UT-7 | 2026-09-01 01:23:31 | 45.63036 | 9.78092 | 77° | 104km/h | 14206m | -5.1m/s | -57.5°C | 6.8% | 0hPa | 2.4V | 00:00:00 | 00:00:00 | 00:00:00 | |
| DO3MHA-11 | 2026-09-01 01:23:29 | 45.63027 | 9.78022 | 82° | 108km/h | 14217m | -4.8m/s | -57.5°C | 6.9% | 0hPa | 2.4V | 00:00:00 | 02:49:47 | 00:00:00 | |
| IW2NTF | 2026-09-01 01:23:24 | 45.63010 | 9.77639 | 78° | 91km/h | 14276m | -4.5m/s | -58°C | 7.2% | 0hPa | 2.4V | 08:03:08 | 02:49:37 | 00:00:00 | |
| DO3MHA-11 | 2026-09-01 01:23:19 | 45.63010 | 9.77639 | 79° | 106km/h | 14276m | -4.5m/s | -58.0°C | 7.2% | 0hPa | 2.4V | 00:00:00 | 02:49:37 | 00:00:00 | |
| IW2NTF | 2026-09-01 01:23:14 | 45.62987 | 9.77261 | 74° | 97km/h | 14334m | -4.2m/s | -58.2°C | 7.1% | 0hPa | 2.5V | 08:03:18 | 02:49:27 | 00:00:00 | |
| DO3MHA-11 | 2026-09-01 01:23:09 | 45.62987 | 9.77261 | 75° | 100km/h | 14334m | -4.2m/s | -58.1°C | 7.1% | 0hPa | 2.4V | 00:00:00 | 02:49:27 | 00:00:00 | |
| IW2NTF | 2026-09-01 01:23:04 | 45.62965 | 9.76902 | 72° | 106km/h | 14390m | -6m/s | -57.9°C | 7.1% | 0hPa | 2.4V | 08:03:28 | 02:49:17 | 00:00:00 | |
| DB0UT-7 | 2026-09-01 01:23:01 | 45.62978 | 9.76981 | 82° | 97km/h | 14379m | -4.7m/s | -57.8°C | 7.1% | 0hPa | 2.4V | 00:00:00 | 02:49:19 | 00:00:00 | |
| DO3MHA-11 | 2026-09-01 01:22:59 | 45.62964 | 9.76902 | 73° | 97km/h | 14391m | -6.0m/s | -57.8°C | 7.1% | 0hPa | 2.4V | 00:00:00 | 02:49:17 | 00:00:00 | |
| IW2NTF | 2026-09-01 01:22:54 | 45.62945 | 9.76552 | 76° | 117km/h | 14448m | -5.4m/s | -58.3°C | 7.2% | 0hPa | 2.4V | 08:03:38 | 02:49:07 | 00:00:00 | |
| DO3MHA-11 | 2026-09-01 01:22:49 | 45.62945 | 9.76552 | 77° | 93km/h | 14448m | -5.4m/s | -58.3°C | 7.2% | 0hPa | 2.4V | 08:03:00 | 02:49:07 | 00:00:00 | |
| IW2NTF | 2026-09-01 01:22:44 | 45.62914 | 9.76222 | 83° | 110km/h | 14507m | -6.1m/s | -58.6°C | 7.4% | 0hPa | 2.6V | 08:03:48 | 02:48:57 | 00:00:00 | |
| DO3MHA-11 | 2026-09-01 01:22:39 | 45.62913 | 9.76222 | 84° | 93km/h | 14507m | -6.0m/s | -58.6°C | 7.4% | 0hPa | 2.4V | 00:00:00 | 02:48:57 | 00:00:00 | |
| IW2NTF | 2026-09-01 01:22:34 | 45.62864 | 9.75899 | 86° | 102km/h | 14565m | -4.8m/s | -58.5°C | 7.2% | 0hPa | 2.4V | 08:03:58 | 02:48:47 | 00:00:00 | |
| DB0UT-7 | 2026-09-01 01:22:31 | 45.62865 | 9.75965 | 90° | 91km/h | 14555m | -5.0m/s | -58.4°C | 7.3% | 0hPa | 2.4V | 00:00:00 | 00:00:00 | 00:00:00 | |
| DO3MHA-11 | 2026-09-01 01:22:29 | 45.62864 | 9.75899 | 87° | 91km/h | 14565m | -4.7m/s | -58.4°C | 7.2% | 0hPa | 2.4V | 00:00:00 | 02:48:47 | 00:00:00 | |
| IW2NTF | 2026-09-01 01:22:24 | 45.62805 | 9.75584 | 86° | 88km/h | 14622m | -6.3m/s | -58.5°C | 7.2% | 0hPa | 2.4V | 08:04:08 | 02:48:37 | 00:00:00 | |
| DO3MHA-11 | 2026-09-01 01:22:19 | 45.62805 | 9.75584 | 87° | 89km/h | 14622m | -6.3m/s | -58.4°C | 7.2% | 0hPa | 2.4V | 00:00:00 | 02:48:37 | 00:00:00 | |
| IW2NTF | 2026-09-01 01:22:14 | 45.62757 | 9.75275 | 90° | 80km/h | 14684m | -5.5m/s | -58.5°C | 7% | 0hPa | 2.5V | 08:04:18 | 02:48:27 | 00:00:00 | |
| DO3MHA-11 | 2026-09-01 01:22:09 | 45.62757 | 9.75275 | 91° | 91km/h | 14684m | -5.5m/s | -58.5°C | 7.0% | 0hPa | 2.4V | 00:00:00 | 02:48:27 | 00:00:00 | |
| IW2NTF | 2026-09-01 01:22:05 | 45.62712 | 9.74959 | 87° | 71km/h | 14741m | -5.2m/s | -58.4°C | 6.8% | 0hPa | 2.4V | 08:04:28 | 02:48:17 | 00:00:00 | |
| DB0UT-7 | 2026-09-01 01:22:01 | 45.62719 | 9.75008 | 71° | 86km/h | 14730m | -4.4m/s | -58.4°C | 6.8% | 0hPa | 2.4V | 00:00:00 | 02:48:19 | 00:00:00 | |
| DO3MHA-11 | 2026-09-01 01:21:59 | 45.62712 | 9.74959 | 88° | 88km/h | 14741m | -5.1m/s | -58.4°C | 6.8% | 0hPa | 2.4V | 00:00:00 | 02:48:17 | 00:00:00 | |
| IW2NTF | 2026-09-01 01:21:55 | 45.62669 | 9.74648 | 78° | 66km/h | 14802m | -6.7m/s | -58.4°C | 6.6% | 0hPa | 2.4V | 08:04:38 | 02:48:07 | 00:00:00 | |
| DO3MHA-11 | 2026-09-01 01:21:49 | 45.62669 | 9.74648 | 79° | 88km/h | 14802m | -6.6m/s | -58.3°C | 6.6% | 0hPa | 2.4V | 00:00:00 | 02:48:07 | 00:00:00 | |
| IW2NTF | 2026-09-01 01:21:43 | 45.62632 | 9.74317 | 81° | 68km/h | 14871m | -5.5m/s | -58.4°C | 6.6% | 0hPa | 2.4V | 08:04:49 | 02:47:56 | 00:00:00 | |
| DO3MHA-11 | 2026-09-01 01:21:39 | 45.62636 | 9.74341 | 73° | 88km/h | 14865m | -5.4m/s | -58.4°C | 6.6% | 0hPa | 2.5V | 00:00:00 | 02:47:57 | 00:00:00 | |
| IW2NTF | 2026-09-01 01:21:33 | 45.62605 | 9.74006 | 73° | 68km/h | 14930m | -5.2m/s | -58.7°C | 6.7% | 0hPa | 2.5V | 08:04:59 | 02:47:46 | 00:00:00 | |
| DB0UT-7 | 2026-09-01 01:21:31 | 45.62625 | 9.74092 | 74° | 89km/h | 14913m | -5.1m/s | -58.7°C | 6.8% | 0hPa | 2.4V | 00:00:00 | 00:00:00 | 00:00:00 | |
| DO3MHA-11 | 2026-09-01 01:21:29 | 45.62610 | 9.74031 | 69° | 88km/h | 14925m | -5.2m/s | -58.7°C | 6.7% | 0hPa | 2.4V | 00:00:00 | 02:47:47 | 00:00:00 | |
| NBG1-10 | 2026-09-01 01:21:26 | 45.62601 | 9.73958 | 94° | 91km/h | 14943m | -5.4m/s | -58.8°C | 6.7% | 0hPa | 2.4V | 00:00:00 | 02:47:44 | 00:00:00 | |
| IW2NTF | 2026-09-01 01:21:23 | 45.62590 | 9.73681 | 71° | 91km/h | 14994m | -5.2m/s | -59°C | 6.8% | 0hPa | 2.4V | 08:05:09 | 02:47:36 | 00:00:00 | |
| DO3MHA-11 | 2026-09-01 01:21:19 | 45.62597 | 9.73714 | 74° | 89km/h | 14988m | -6.0m/s | -58.9°C | 6.8% | 0hPa | 2.4V | 08:05:00 | 02:47:37 | 00:00:00 | |
| IW2NTF | 2026-09-01 01:21:13 | 45.62581 | 9.73362 | 80° | 102km/h | 15059m | -5.1m/s | -58.8°C | 6.7% | 0hPa | 2.4V | 08:05:19 | 02:47:26 | 00:00:00 | |
| DO3MHA-11 | 2026-09-01 01:21:09 | 45.62584 | 9.73400 | 87° | 91km/h | 15053m | -5.9m/s | -58.8°C | 6.6% | 0hPa | 2.4V | 00:00:00 | 02:47:27 | 00:00:00 | |
| IW2NTF | 2026-09-01 01:21:03 | 45.62574 | 9.73038 | 81° | 100km/h | 15121m | -6.2m/s | -58.5°C | 6.4% | 0hPa | 2.4V | 08:05:29 | 02:47:16 | 00:00:00 | |
| DB0UT-7 | 2026-09-01 01:21:01 | 45.62577 | 9.73149 | 97° | 93km/h | 15103m | -5.3m/s | -58.5°C | 6.4% | 0hPa | 2.6V | 00:00:00 | 02:47:19 | 00:00:00 | |
| DO3MHA-11 | 2026-09-01 01:20:59 | 45.62577 | 9.73074 | 86° | 91km/h | 15115m | -5.3m/s | -58.5°C | 6.4% | 0hPa | 2.6V | 00:00:00 | 02:47:17 | 00:00:00 | |
| NBG1-10 | 2026-09-01 01:20:53 | 45.62564 | 9.72892 | 100° | 86km/h | 15153m | -6.2m/s | -58.6°C | 6.4% | 0hPa | 2.6V | 00:00:00 | 02:47:11 | 00:00:00 | |
| IW2NTF | 2026-09-01 01:20:51 | 45.62572 | 9.72706 | 81° | 111km/h | 15186m | -6.6m/s | -58.9°C | 6.5% | 0hPa | 2.6V | 08:05:39 | 02:47:06 | 00:00:00 | |
| DO3MHA-11 | 2026-09-01 01:20:49 | 45.62575 | 9.72746 | 86° | 95km/h | 15179m | -6.5m/s | -58.8°C | 6.5% | 0hPa | 2.4V | 00:00:00 | 02:47:07 | 00:00:00 | |
| IW2NTF | 2026-09-01 01:20:41 | 45.62569 | 9.72381 | 89° | 110km/h | 15250m | -5.3m/s | -59°C | 6.4% | 0hPa | 2.4V | 08:05:49 | 02:46:56 | 00:00:00 | |
| DO3MHA-11 | 2026-09-01 01:20:39 | 45.62568 | 9.72421 | 96° | 91km/h | 15244m | -5.6m/s | -59.0°C | 6.5% | 0hPa | 2.4V | 00:00:00 | 02:46:57 | 00:00:00 | |
| IW2NTF | 2026-09-01 01:20:31 | 45.62553 | 9.72059 | 94° | 102km/h | 15313m | -5.7m/s | -58.6°C | 6.2% | 0hPa | 2.4V | 08:05:59 | 02:46:46 | 00:00:00 | |
| DB0UT-7 | 2026-09-01 01:20:31 | 45.62543 | 9.72158 | 96° | 88km/h | 15294m | -5.4m/s | -58.6°C | 6.2% | 0hPa | 2.6V | 08:05:00 | 00:00:00 | 00:00:00 | |
| DO3MHA-11 | 2026-09-01 01:20:25 | 45.62548 | 9.71951 | 81° | 86km/h | 15333m | -6.5m/s | -58.8°C | 6.2% | 0hPa | 2.5V | 00:00:00 | 02:46:43 | 00:00:00 | |
| IW2NTF | 2026-09-01 01:20:21 | 45.62554 | 9.71750 | 94° | 99km/h | 15376m | -5.3m/s | -59°C | 6.3% | 0hPa | 2.5V | 08:06:09 | 02:46:36 | 00:00:00 | |
| NBG1-10 | 2026-09-01 01:20:20 | 45.62546 | 9.71816 | 102° | 86km/h | 15365m | -5.2m/s | -59.0°C | 6.3% | 0hPa | 2.4V | 00:00:00 | 02:46:38 | 00:00:00 | |
| DO3MHA-11 | 2026-09-01 01:20:15 | 45.62547 | 9.71642 | 79° | 86km/h | 15397m | -5.7m/s | -59.0°C | 6.2% | 0hPa | 2.4V | 00:00:00 | 02:46:33 | 00:00:00 | |
| IW2NTF | 2026-09-01 01:20:11 | 45.62543 | 9.71449 | 100° | 99km/h | 15441m | -6.7m/s | -59.1°C | 6.2% | 0hPa | 2.6V | 08:06:19 | 02:46:26 | 00:00:00 | |
| DO3MHA-11 | 2026-09-01 01:20:05 | 45.62545 | 9.71337 | 83° | 82km/h | 15461m | -6.5m/s | -59.2°C | 6.4% | 0hPa | 2.4V | 00:00:00 | 02:46:23 | 00:00:00 | |
| IW2NTF | 2026-09-01 01:20:01 | 45.62533 | 9.71149 | 106° | 80km/h | 15506m | -5.6m/s | -59.2°C | 6.3% | 0hPa | 2.4V | 08:06:29 | 02:46:16 | 00:00:00 | |
| DB0UT-7 | 2026-09-01 01:20:01 | 45.62527 | 9.71221 | 83° | 86km/h | 15488m | -6.0m/s | -59.1°C | 6.2% | 0hPa | 2.4V | 00:00:00 | 02:46:19 | 00:00:00 | |
| DO3MHA-11 | 2026-09-01 01:19:55 | 45.62545 | 9.71048 | 94° | 88km/h | 15526m | -5.6m/s | -59.1°C | 6.3% | 0hPa | 2.4V | 00:00:00 | 02:46:13 | 00:00:00 | |
| IW2NTF | 2026-09-01 01:19:51 | 45.62538 | 9.70839 | 104° | 78km/h | 15567m | -5.8m/s | -58.9°C | 6.1% | 0hPa | 2.4V | 08:06:39 | 02:46:06 | 00:00:00 | |
| NBG1-10 | 2026-09-01 01:19:47 | 45.62543 | 9.70810 | 107° | 80km/h | 15573m | -5.1m/s | -58.8°C | 6.0% | 0hPa | 2.6V | 00:00:00 | 02:46:05 | 00:00:00 | |
| DO3MHA-11 | 2026-09-01 01:19:45 | 45.62555 | 9.70741 | 99° | 86km/h | 15584m | -6.3m/s | -58.7°C | 6.0% | 0hPa | 2.6V | 08:06:00 | 02:46:03 | 00:00:00 | |
| IW2NTF | 2026-09-01 01:19:41 | 45.62559 | 9.70525 | 106° | 71km/h | 15627m | -6.2m/s | -58.7°C | 6% | 0hPa | 2.6V | 08:06:49 | 02:45:56 | 00:00:00 | |
| DO3MHA-11 | 2026-09-01 01:19:35 | 45.62577 | 9.70436 | 103° | 80km/h | 15646m | -5.6m/s | -58.7°C | 6.1% | 0hPa | 2.6V | 00:00:00 | 02:45:53 | 00:00:00 | |
| IW2NTF | 2026-09-01 01:19:33 | 45.62584 | 9.70231 | 108° | 64km/h | 15691m | -7.1m/s | -58.5°C | 5.8% | 0hPa | 2.6V | 08:06:59 | 02:45:46 | 00:00:00 | |
| DB0UT-7 | 2026-09-01 01:19:31 | 45.62581 | 9.70301 | 86° | 77km/h | 15673m | -6.5m/s | -58.4°C | 5.9% | 0hPa | 2.4V | 00:00:00 | 00:00:00 | 00:00:00 | |
| DO3MHA-11 | 2026-09-01 01:19:25 | 45.62606 | 9.70153 | 109° | 78km/h | 15712m | -6.3m/s | -58.4°C | 5.9% | 0hPa | 2.4V | 00:00:00 | 02:45:43 | 00:00:00 | |
| IW2NTF | 2026-09-01 01:19:23 | 45.62611 | 9.69942 | 91° | 57km/h | 15758m | -6.8m/s | -58.5°C | 5.8% | 0hPa | 2.4V | 08:07:09 | 02:45:36 | 00:00:00 | |
| DO3MHA-11 | 2026-09-01 01:19:15 | 45.62622 | 9.69879 | 111° | 73km/h | 15778m | -6.2m/s | -58.4°C | 5.9% | 0hPa | 2.6V | 00:00:00 | 02:45:33 | 00:00:00 | |
| NBG1-10 | 2026-09-01 01:19:14 | 45.62629 | 9.69853 | 109° | 71km/h | 15784m | -6.3m/s | -58.4°C | 6.0% | 0hPa | 2.4V | 00:00:00 | 02:45:32 | 00:00:00 | |
| IW2NTF | 2026-09-01 01:19:09 | 45.62634 | 9.69686 | 90° | 58km/h | 15823m | -6.4m/s | -58.1°C | 6.1% | 0hPa | 2.4V | 08:07:19 | 02:45:26 | 00:00:00 | |
| DO3MHA-11 | 2026-09-01 01:19:05 | 45.62646 | 9.69622 | 112° | 77km/h | 15842m | -7.5m/s | -58.0°C | 0% | 0hPa | 2.6V | 00:00:00 | 02:45:23 | 00:00:00 | |
| IW2NTF | 2026-09-01 01:19:03 | 45.62654 | 9.69412 | 80° | 62km/h | 15890m | -6.5m/s | -57.1°C | 5.4% | 0hPa | 2.6V | 08:07:29 | 02:45:16 | 00:00:00 | |
| DB0UT-7 | 2026-09-01 01:19:01 | 45.62663 | 9.69497 | 88° | 69km/h | 15869m | -7.1m/s | -57.5°C | 5.6% | 0hPa | 2.4V | 00:00:00 | 02:45:19 | 00:00:00 | |
| DO3MHA-11 | 2026-09-01 01:18:55 | 45.62658 | 9.69354 | 112° | 73km/h | 15910m | -6.4m/s | -57.0°C | 5.5% | 0hPa | 2.6V | 00:00:00 | 02:45:13 | 00:00:00 | |
| IW2NTF | 2026-09-01 01:18:51 | 45.62677 | 9.69157 | 77° | 69km/h | 15956m | -6.8m/s | -56.5°C | 5.2% | 0hPa | 2.6V | 08:07:39 | 02:45:06 | 00:00:00 | |
| DO3MHA-11 | 2026-09-01 01:18:45 | 45.62673 | 9.69099 | 101° | 71km/h | 15978m | -7.0m/s | -56.4°C | 5.1% | 0hPa | 2.4V | 00:00:00 | 02:45:03 | 00:00:00 | |
| IW2NTF | 2026-09-01 01:18:39 | 45.62698 | 9.68892 | 77° | 71km/h | 16030m | -6.8m/s | -56.4°C | 5.2% | 0hPa | 2.5V | 08:07:50 | 02:44:55 | 00:00:00 | |
| DO3MHA-11 | 2026-09-01 01:18:35 | 45.62692 | 9.68849 | 84° | 68km/h | 16044m | -6.5m/s | -56.3°C | 5.1% | 0hPa | 2.6V | 00:00:00 | 02:44:53 | 00:00:00 | |
| NBG1-10 | 2026-09-01 01:18:32 | 45.62700 | 9.68795 | 114° | 60km/h | 16063m | -6.7m/s | -56.4°C | 5.3% | 0hPa | 2.6V | 00:00:00 | 02:44:50 | 00:00:00 | |
| DB0UT-7 | 2026-09-01 01:18:31 | 45.62707 | 9.68772 | 111° | 62km/h | 16070m | -6.1m/s | -56.4°C | 5.3% | 0hPa | 2.6V | 00:00:00 | 00:00:00 | 00:00:00 | |
| IW2NTF | 2026-09-01 01:18:29 | 45.62716 | 9.68615 | 87° | 49km/h | 16108m | -7.2m/s | -56.5°C | 5.4% | 0hPa | 2.6V | 08:08:02 | 02:44:43 | 00:00:00 | |
| DO3MHA-11 | 2026-09-01 01:18:25 | 45.62715 | 9.68615 | 88° | 68km/h | 16109m | -7.1m/s | -56.4°C | 5.4% | 0hPa | 2.5V | 00:00:00 | 02:44:43 | 00:00:00 | |
| IW2NTF | 2026-09-01 01:18:19 | 45.62747 | 9.68382 | 80° | 55km/h | 16177m | -6.8m/s | -55.5°C | 5% | 0hPa | 2.5V | 08:08:12 | 02:44:33 | 00:00:00 | |
| DO3MHA-11 | 2026-09-01 01:18:15 | 45.62747 | 9.68382 | 81° | 58km/h | 16177m | -6.8m/s | -55.4°C | 5.0% | 0hPa | 2.5V | 08:08:00 | 02:44:33 | 00:00:00 | |
| IW2NTF | 2026-09-01 01:18:10 | 45.62779 | 9.68185 | 77° | 58km/h | 16247m | -7.5m/s | -55.1°C | 4.9% | 0hPa | 2.5V | 08:08:22 | 02:44:23 | 00:00:00 | |
| DO3MHA-11 | 2026-09-01 01:18:05 | 45.62779 | 9.68185 | 78° | 47km/h | 16247m | -7.4m/s | -55.1°C | 4.9% | 0hPa | 2.4V | 00:00:00 | 02:44:23 | 00:00:00 | |
| DB0UT-7 | 2026-09-01 01:18:01 | 45.62773 | 9.68133 | 115° | 46km/h | 16275m | -7.0m/s | -54.5°C | 4.8% | 0hPa | 2.4V | 00:00:00 | 02:44:19 | 00:00:00 | |
| IW2NTF | 2026-09-01 01:18:00 | 45.62788 | 9.68023 | 73° | 58km/h | 16317m | -7.1m/s | -54.1°C | 4.5% | 0hPa | 2.4V | 08:08:32 | 02:44:13 | 00:00:00 | |
| NBG1-10 | 2026-09-01 01:17:59 | 45.62782 | 9.68108 | 117° | 44km/h | 16289m | -6.3m/s | -54.2°C | 4.7% | 0hPa | 2.6V | 00:00:00 | 02:44:17 | 00:00:00 | |
| DO3MHA-11 | 2026-09-01 01:17:55 | 45.62787 | 9.68023 | 74° | 40km/h | 16318m | -7.1m/s | -54.0°C | 4.5% | 0hPa | 2.6V | 00:00:00 | 02:44:13 | 00:00:00 | |
| IW2NTF | 2026-09-01 01:17:50 | 45.62777 | 9.67887 | 73° | 60km/h | 16386m | -6.7m/s | -54.1°C | 4.5% | 0hPa | 2.6V | 08:08:42 | 02:44:03 | 00:00:00 | |
| DO3MHA-11 | 2026-09-01 01:17:45 | 45.62777 | 9.67887 | 74° | 40km/h | 16386m | -6.6m/s | -54.1°C | 4.5% | 0hPa | 2.6V | 00:00:00 | 02:44:03 | 00:00:00 | |
| IW2NTF | 2026-09-01 01:17:40 | 45.62752 | 9.67755 | 80° | 60km/h | 16457m | -6.9m/s | -54.7°C | 4.6% | 0hPa | 2.5V | 08:08:52 | 02:43:53 | 00:00:00 | |
| DO3MHA-11 | 2026-09-01 01:17:35 | 45.62752 | 9.67755 | 81° | 42km/h | 16457m | -6.9m/s | -54.6°C | 4.6% | 0hPa | 2.5V | 00:00:00 | 02:43:53 | 00:00:00 | |
| DB0UT-7 | 2026-09-01 01:17:31 | 45.62724 | 9.67684 | 43° | 44km/h | 16487m | -6.8m/s | -54.9°C | 4.6% | 0hPa | 2.5V | 00:00:00 | 00:00:00 | 00:00:00 | |
| IW2NTF | 2026-09-01 01:17:30 | 45.62712 | 9.67621 | 88° | 55km/h | 16530m | -7.4m/s | -55.2°C | 4.7% | 0hPa | 2.5V | 08:09:02 | 02:43:43 | 00:00:00 | |
| NBG1-10 | 2026-09-01 01:17:26 | 45.62712 | 9.67638 | 98° | 46km/h | 16523m | -6.8m/s | -55.1°C | 4.7% | 0hPa | 2.5V | 08:09:00 | 02:43:44 | 00:00:00 | |
| DO3MHA-11 | 2026-09-01 01:17:24 | 45.62710 | 9.67600 | 77° | 42km/h | 16538m | -7.4m/s | -55.2°C | 4.7% | 0hPa | 2.5V | 00:00:00 | 02:43:42 | 00:00:00 | |
| IW2NTF | 2026-09-01 01:17:20 | 45.62663 | 9.67492 | 85° | 47km/h | 16599m | -5.8m/s | -55.9°C | 4.8% | 0hPa | 2.5V | 08:09:12 | 02:43:33 | 00:00:00 | |
| DO3MHA-11 | 2026-09-01 01:17:14 | 45.62661 | 9.67473 | 80° | 46km/h | 16606m | -6.4m/s | -55.9°C | 4.8% | 0hPa | 2.5V | 00:00:00 | 02:43:32 | 00:00:00 | |
| IW2NTF | 2026-09-01 01:17:10 | 45.62610 | 9.67349 | 84° | 46km/h | 16666m | -8m/s | -56.5°C | 5.1% | 0hPa | 2.6V | 08:09:22 | 02:43:23 | 00:00:00 | |
| DO3MHA-11 | 2026-09-01 01:17:04 | 45.62608 | 9.67332 | 79° | 47km/h | 16674m | -7.0m/s | -56.5°C | 5.1% | 0hPa | 2.5V | 00:00:00 | 02:43:22 | 00:00:00 | |
| DB0UT-7 | 2026-09-01 01:17:01 | 45.62587 | 9.67273 | 49° | 49km/h | 16694m | -7.6m/s | -56.6°C | 5.0% | 0hPa | 2.5V | 00:00:00 | 02:43:19 | 00:00:00 | |
| DO3MHA-11 | 2026-09-01 01:16:54 | 45.62555 | 9.67189 | 85° | 47km/h | 16744m | -6.9m/s | -57.1°C | 5.2% | 0hPa | 2.5V | 00:00:00 | 02:43:12 | 00:00:00 | |
| NBG1-10 | 2026-09-01 01:16:49 | 45.62521 | 9.67095 | 39° | 53km/h | 16780m | -7.1m/s | -57.4°C | 5.4% | 0hPa | 2.5V | 00:00:00 | 02:43:07 | 00:00:00 | |
| DO3MHA-11 | 2026-09-01 01:16:44 | 45.62508 | 9.67038 | 92° | 53km/h | 16815m | -7.5m/s | -57.7°C | 5.4% | 0hPa | 2.5V | 08:09:00 | 02:43:02 | 00:00:00 | |
| DO3MHA-11 | 2026-09-01 01:16:34 | 45.62450 | 9.66877 | 91° | 55km/h | 16888m | -6.4m/s | -58.2°C | 5.8% | 0hPa | 2.6V | 00:00:00 | 02:42:52 | 00:00:00 | |
| DB0UT-7 | 2026-09-01 01:16:31 | 45.62445 | 9.66812 | 73° | 53km/h | 16910m | -7.4m/s | -58.1°C | 5.8% | 0hPa | 2.6V | 00:00:00 | 00:00:00 | 00:00:00 | |
| DO3MHA-11 | 2026-09-01 01:16:24 | 45.62394 | 9.66704 | 91° | 55km/h | 16960m | -7.7m/s | -57.4°C | 5.4% | 0hPa | 2.6V | 00:00:00 | 02:42:42 | 00:00:00 | |
| NBG1-10 | 2026-09-01 01:16:16 | 45.62364 | 9.66540 | 55° | 49km/h | 17019m | -7.5m/s | -57.1°C | 5.3% | 0hPa | 2.6V | 00:00:00 | 02:42:34 | 00:00:00 | |
| DO3MHA-11 | 2026-09-01 01:16:14 | 45.62359 | 9.66519 | 95° | 57km/h | 17034m | -7.3m/s | -57.0°C | 5.2% | 0hPa | 2.6V | 00:00:00 | 02:42:32 | 00:00:00 | |
| IW2NTF | 2026-09-01 01:16:10 | 45.62365 | 9.66415 | 78° | 73km/h | 17070m | -6.9m/s | -56.8°C | 5.1% | 0hPa | 2.6V | 08:10:18 | 02:42:27 | 00:00:00 | |
| DO3MHA-11 | 2026-09-01 01:16:04 | 45.62339 | 9.66328 | 82° | 49km/h | 17108m | -7.4m/s | -56.8°C | 5.1% | 0hPa | 2.5V | 00:00:00 | 02:42:22 | 00:00:00 | |
| DB0UT-7 | 2026-09-01 01:16:01 | 45.62345 | 9.66286 | 105° | 49km/h | 17129m | -7.3m/s | -56.9°C | 5.3% | 0hPa | 2.5V | 08:10:00 | 02:42:19 | 00:00:00 | |
| IW2NTF | 2026-09-01 01:16:00 | 45.62349 | 9.66241 | 87° | 66km/h | 17144m | -7.6m/s | -57°C | 5.3% | 0hPa | 2.5V | 08:10:28 | 02:42:17 | 00:00:00 | |
| DO3MHA-11 | 2026-09-01 01:15:54 | 45.62329 | 9.66159 | 82° | 49km/h | 17182m | -7.9m/s | -56.9°C | 5.3% | 0hPa | 2.5V | 00:00:00 | 02:42:12 | 00:00:00 | |
| IW2NTF | 2026-09-01 01:15:50 | 45.62346 | 9.66082 | 96° | 68km/h | 17220m | -6.8m/s | -56.6°C | 5.3% | 0hPa | 2.5V | 08:10:38 | 02:42:07 | 00:00:00 | |
| DO3MHA-11 | 2026-09-01 01:15:44 | 45.62328 | 9.65990 | 60° | 49km/h | 17258m | -7.4m/s | -56.5°C | 5.2% | 0hPa | 2.5V | 00:00:00 | 02:42:02 | 00:00:00 | |
| NBG1-10 | 2026-09-01 01:15:43 | 45.62326 | 9.65982 | 90° | 40km/h | 17266m | -8.1m/s | -56.4°C | 5.2% | 0hPa | 2.5V | 00:00:00 | 02:42:01 | 00:00:00 | |
| IW2NTF | 2026-09-01 01:15:40 | 45.62343 | 9.65930 | 104° | 64km/h | 17296m | -8.8m/s | -56.2°C | 5% | 0hPa | 2.5V | 08:10:48 | 02:41:57 | 00:00:00 | |
| DO3MHA-11 | 2026-09-01 01:15:34 | 45.62324 | 9.65823 | 47° | 38km/h | 17336m | -7.7m/s | -56.1°C | 4.9% | 0hPa | 2.5V | 00:00:00 | 02:41:52 | 00:00:00 | |
| DB0UT-7 | 2026-09-01 01:15:31 | 45.62309 | 9.65799 | 90° | 53km/h | 17358m | -7.5m/s | -56.0°C | 4.8% | 0hPa | 2.5V | 00:00:00 | 00:00:00 | 00:00:00 | |
| IW2NTF | 2026-09-01 01:15:30 | 45.62316 | 9.65760 | 99° | 57km/h | 17381m | -8.1m/s | -55.9°C | 4.7% | 0hPa | 2.5V | 08:10:59 | 02:41:46 | 00:00:00 | |
| DO3MHA-11 | 2026-09-01 01:15:24 | 45.62303 | 9.65668 | 58° | 49km/h | 17414m | -8.1m/s | -55.9°C | 4.8% | 0hPa | 2.6V | 00:00:00 | 02:41:42 | 00:00:00 | |
| IW2NTF | 2026-09-01 01:15:21 | 45.62280 | 9.65596 | 104° | 46km/h | 17460m | -7.8m/s | -56.3°C | 5% | 0hPa | 2.6V | 08:11:09 | 02:41:36 | 00:00:00 | |
| DO3MHA-11 | 2026-09-01 01:15:14 | 45.62277 | 9.65505 | 69° | 53km/h | 17491m | -7.4m/s | -56.5°C | 5.2% | 0hPa | 2.6V | 08:11:00 | 02:41:32 | 00:00:00 | |
| IW2NTF | 2026-09-01 01:15:10 | 45.62244 | 9.65421 | 105° | 38km/h | 17538m | -8m/s | -56.8°C | 5.4% | 0hPa | 2.6V | 08:11:19 | 02:41:26 | 00:00:00 | |
| NBG1-10 | 2026-09-01 01:15:06 | 45.62251 | 9.65385 | 101° | 49km/h | 17554m | -7.9m/s | -56.4°C | 5.3% | 0hPa | 2.5V | 00:00:00 | 02:41:24 | 00:00:00 | |
| DO3MHA-11 | 2026-09-01 01:15:04 | 45.62251 | 9.65331 | 83° | 57km/h | 17571m | -7.8m/s | -56.1°C | 5.2% | 0hPa | 2.5V | 00:00:00 | 02:41:22 | 00:00:00 | |
| DB0UT-7 | 2026-09-01 01:15:01 | 45.62231 | 9.65255 | 56° | 44km/h | 17594m | -8.1m/s | -55.5°C | 5.0% | 0hPa | 2.5V | 00:00:00 | 02:41:19 | 00:00:00 | |
| IW2NTF | 2026-09-01 01:15:00 | 45.62214 | 9.65215 | 84° | 29km/h | 17618m | -8.2m/s | -55.4°C | 4.9% | 0hPa | 2.5V | 08:11:29 | 02:41:16 | 00:00:00 | |
| DO3MHA-11 | 2026-09-01 01:14:54 | 45.62227 | 9.65144 | 100° | 49km/h | 17650m | -8.8m/s | -55.4°C | 5.0% | 0hPa | 2.5V | 00:00:00 | 02:41:12 | 00:00:00 | |
| IW2NTF | 2026-09-01 01:14:50 | 45.62205 | 9.65022 | 61° | 24km/h | 17698m | -7.9m/s | -54.8°C | 4.7% | 0hPa | 2.5V | 08:11:39 | 02:41:06 | 00:00:00 | |
| DO3MHA-11 | 2026-09-01 01:14:44 | 45.62219 | 9.64986 | 125° | 40km/h | 17729m | -7.5m/s | -54.5°C | 4.6% | 0hPa | 2.5V | 00:00:00 | 02:41:02 | 00:00:00 | |
| IW2NTF | 2026-09-01 01:14:40 | 45.62219 | 9.64882 | 48° | 26km/h | 17776m | -8.1m/s | -54.2°C | 4.4% | 0hPa | 2.5V | 08:11:49 | 02:40:56 | 00:00:00 | |
| DO3MHA-11 | 2026-09-01 01:14:34 | 45.62225 | 9.64870 | 154° | 24km/h | 17809m | -7.9m/s | -54.1°C | 4.4% | 0hPa | 2.5V | 00:00:00 | 02:40:52 | 00:00:00 | |
| NBG1-10 | 2026-09-01 01:14:33 | 45.62234 | 9.64862 | 140° | 29km/h | 17817m | -8.1m/s | -54.2°C | 4.5% | 0hPa | 2.5V | 00:00:00 | 02:40:51 | 00:00:00 | |
| DB0UT-7 | 2026-09-01 01:14:31 | 45.62247 | 9.64834 | 109° | 29km/h | 17833m | -7.8m/s | -54.1°C | 4.4% | 0hPa | 2.5V | 00:00:00 | 00:00:00 | 00:00:00 | |
| IW2NTF | 2026-09-01 01:14:30 | 45.62244 | 9.64791 | 53° | 27km/h | 17857m | -7.8m/s | -54.2°C | 4.4% | 0hPa | 2.5V | 08:11:59 | 02:40:46 | 00:00:00 | |
| DO3MHA-11 | 2026-09-01 01:14:22 | 45.62255 | 9.64782 | 145° | 27km/h | 17906m | -8.2m/s | -54.4°C | 4.5% | 0hPa | 2.6V | 00:00:00 | 02:40:40 | 00:00:00 | |
| IW2NTF | 2026-09-01 01:14:20 | 45.62265 | 9.64733 | 60° | 31km/h | 17938m | -8.7m/s | -54.5°C | 4.4% | 0hPa | 2.6V | 08:12:09 | 02:40:36 | 00:00:00 | |
| IW2NTF | 2026-09-01 01:14:10 | 45.62276 | 9.64712 | 73° | 33km/h | 18024m | -8.1m/s | -55°C | 4.5% | 0hPa | 2.6V | 08:12:19 | 02:40:26 | 00:00:00 | |
| DO3MHA-11 | 2026-09-01 01:14:10 | 45.62273 | 9.64734 | 129° | 27km/h | 18008m | -8.7m/s | -54.8°C | 4.5% | 0hPa | 2.5V | 00:00:00 | 02:40:28 | 00:00:00 | |
| DB0UT-7 | 2026-09-01 01:14:01 | 45.62251 | 9.64719 | 205° | 31km/h | 18083m | -8.0m/s | -55.3°C | 4.7% | 0hPa | 2.5V | 00:00:00 | 02:40:19 | 00:00:00 | |
| IW2NTF | 2026-09-01 01:14:00 | 45.62263 | 9.64704 | 92° | 33km/h | 18108m | -8.5m/s | -55.5°C | 4.7% | 0hPa | 2.5V | 08:12:29 | 02:40:16 | 00:00:00 | |
| DO3MHA-11 | 2026-09-01 01:14:00 | 45.62256 | 9.64719 | 160° | 31km/h | 18091m | -8.0m/s | -55.3°C | 4.7% | 0hPa | 2.5V | 00:00:00 | 02:40:18 | 00:00:00 | |
| IW2NTF | 2026-09-01 01:13:50 | 45.62230 | 9.64685 | 112° | 24km/h | 18191m | -8.9m/s | -56°C | 4.9% | 0hPa | 2.5V | 08:12:39 | 02:40:06 | 00:00:00 | |
| DO3MHA-11 | 2026-09-01 01:13:50 | 45.62223 | 9.64690 | 220° | 33km/h | 18175m | -7.8m/s | -55.9°C | 4.9% | 0hPa | 2.5V | 00:00:00 | 02:40:08 | 00:00:00 | |
| IW2NTF | 2026-09-01 01:13:40 | 45.62174 | 9.64666 | 179° | 7km/h | 18275m | -8.1m/s | -56.2°C | 5% | 0hPa | 2.5V | 08:12:49 | 02:39:56 | 00:00:00 | |
| DO3MHA-11 | 2026-09-01 01:13:40 | 45.62175 | 9.64656 | 304° | 33km/h | 18259m | -8.4m/s | -56.0°C | 4.9% | 0hPa | 2.6V | 08:12:00 | 02:39:58 | 00:00:00 | |
| DB0UT-7 | 2026-09-01 01:13:31 | 45.62130 | 9.64618 | 352° | 37km/h | 18335m | -8.5m/s | -56.1°C | 5.1% | 0hPa | 2.5V | 00:00:00 | 00:00:00 | 00:00:00 | |
| DO3MHA-11 | 2026-09-01 01:13:30 | 45.62120 | 9.64622 | 334° | 37km/h | 18343m | -8.7m/s | -56.1°C | 5.1% | 0hPa | 2.5V | 00:00:00 | 02:39:48 | 00:00:00 | |
| IW2NTF | 2026-09-01 01:13:27 | 45.62097 | 9.64565 | 42° | 58km/h | 18413m | -8.6m/s | -56.1°C | 5% | 0hPa | 2.5V | 08:13:05 | 02:39:40 | 00:00:00 | |
| DO3MHA-11 | 2026-09-01 01:13:20 | 45.62074 | 9.64547 | 14° | 38km/h | 18430m | -8.0m/s | -55.8°C | 4.8% | 0hPa | 2.6V | 00:00:00 | 02:39:38 | 00:00:00 | |
| IW2NTF | 2026-09-01 01:13:17 | 45.62052 | 9.64483 | 63° | 60km/h | 18498m | -8.9m/s | -55.7°C | 4.7% | 0hPa | 2.6V | 08:13:15 | 02:39:30 | 00:00:00 | |
| DO3MHA-11 | 2026-09-01 01:13:10 | 45.62032 | 9.64451 | 35° | 38km/h | 18515m | -8.3m/s | -55.8°C | 4.7% | 0hPa | 2.5V | 00:00:00 | 02:39:28 | 00:00:00 | |
| IW2NTF | 2026-09-01 01:13:07 | 45.62008 | 9.64389 | 81° | 58km/h | 18584m | -8.5m/s | -56.3°C | 4.8% | 0hPa | 2.6V | 08:13:25 | 02:39:20 | 00:00:00 | |
| DB0UT-7 | 2026-09-01 01:13:01 | 45.62004 | 9.64368 | 68° | 46km/h | 18593m | -8.9m/s | -56.3°C | 4.8% | 0hPa | 2.6V | 00:00:00 | 02:39:19 | 00:00:00 | |
| DO3MHA-11 | 2026-09-01 01:13:00 | 45.61996 | 9.64348 | 54° | 42km/h | 18602m | -8.6m/s | -56.4°C | 4.9% | 0hPa | 2.5V | 00:00:00 | 02:39:18 | 00:00:00 | |
| IW2NTF | 2026-09-01 01:12:57 | 45.61958 | 9.64277 | 91° | 53km/h | 18671m | -8.2m/s | -56.9°C | 5% | 0hPa | 2.5V | 08:13:35 | 02:39:10 | 00:00:00 | |
| NBG1-10 | 2026-09-01 01:12:53 | 45.61956 | 9.64293 | 102° | 44km/h | 18663m | -8.7m/s | -56.8°C | 5.1% | 0hPa | 2.5V | 00:00:00 | 02:39:11 | 00:00:00 | |
| DO3MHA-11 | 2026-09-01 01:12:50 | 45.61951 | 9.64232 | 67° | 47km/h | 18688m | -9.3m/s | -57.0°C | 5.2% | 0hPa | 2.5V | 00:00:00 | 02:39:08 | 00:00:00 | |
| IW2NTF | 2026-09-01 01:12:47 | 45.61896 | 9.64140 | 107° | 40km/h | 18759m | -8.9m/s | -57.2°C | 5.2% | 0hPa | 2.5V | 08:13:45 | 02:39:00 | 00:00:00 | |
| DO3MHA-11 | 2026-09-01 01:12:40 | 45.61900 | 9.64102 | 92° | 44km/h | 18777m | -9.0m/s | -57.0°C | 5.2% | 0hPa | 2.6V | 00:00:00 | 02:38:58 | 00:00:00 | |
| IW2NTF | 2026-09-01 01:12:37 | 45.61864 | 9.63997 | 134° | 26km/h | 18848m | -9.6m/s | -57°C | 5.3% | 0hPa | 2.5V | 08:13:55 | 02:38:50 | 00:00:00 | |
| DB0UT-7 | 2026-09-01 01:12:31 | 45.61869 | 9.63987 | 129° | 42km/h | 18858m | -8.8m/s | -57.0°C | 5.3% | 0hPa | 2.5V | 00:00:00 | 00:00:00 | 00:00:00 | |
| DO3MHA-11 | 2026-09-01 01:12:30 | 45.61875 | 9.63973 | 117° | 40km/h | 18867m | -8.5m/s | -56.9°C | 5.3% | 0hPa | 2.5V | 00:00:00 | 02:38:48 | 00:00:00 | |
| IW2NTF | 2026-09-01 01:12:27 | 45.61853 | 9.63868 | 150° | 5km/h | 18937m | -9.2m/s | -56.5°C | 5.1% | 0hPa | 2.5V | 08:14:05 | 02:38:40 | 00:00:00 | |
| OE5DRO-10 | 2026-09-01 01:12:21 | 45.61856 | 9.63865 | 147° | 44km/h | 18947m | -9.3m/s | -56.5°C | 5.1% | 0hPa | 2.5V | 00:00:00 | 00:00:00 | 00:00:00 | |
| DO3MHA-11 | 2026-09-01 01:12:20 | 45.61862 | 9.63858 | 132° | 42km/h | 18956m | -8.7m/s | -56.6°C | 5.1% | 0hPa | 2.5V | 00:00:00 | 02:38:38 | 00:00:00 | |
| IW2NTF | 2026-09-01 01:12:16 | 45.61835 | 9.63741 | 124° | 5km/h | 19036m | -8.8m/s | -56.7°C | 5.2% | 0hPa | 2.5V | 08:14:16 | 02:38:29 | 00:00:00 | |
| DO3MHA-11 | 2026-09-01 01:12:10 | 45.61838 | 9.63738 | 140° | 42km/h | 19045m | -9.2m/s | -56.7°C | 5.2% | 0hPa | 2.5V | 08:14:00 | 02:38:28 | 00:00:00 | |
| IW2NTF | 2026-09-01 01:12:06 | 45.61829 | 9.63616 | 7° | 5km/h | 19128m | -9m/s | -56.2°C | 5.1% | 0hPa | 2.6V | 08:14:26 | 02:38:19 | 00:00:00 | |
| OE5DRO-10 | 2026-09-01 01:12:02 | 45.61832 | 9.63618 | 26° | 33km/h | 19119m | -9.3m/s | -56.2°C | 5.1% | 0hPa | 2.6V | 00:00:00 | 00:00:00 | 00:00:00 | |
| DB0UT-7 | 2026-09-01 01:12:01 | 45.61829 | 9.63616 | 8° | 33km/h | 19128m | -9.0m/s | -56.1°C | 5.1% | 0hPa | 2.6V | 00:00:00 | 02:38:19 | 00:00:00 | |
| DO3MHA-11 | 2026-09-01 01:12:00 | 45.61830 | 9.63616 | 182° | 37km/h | 19137m | -9.1m/s | -56.0°C | 5.0% | 0hPa | 2.6V | 00:00:00 | 02:38:18 | 00:00:00 | |
| IW2NTF | 2026-09-01 01:11:56 | 45.61844 | 9.63523 | 343° | 18km/h | 19222m | -9.5m/s | -55.5°C | 4.8% | 0hPa | 2.6V | 08:14:36 | 02:38:09 | 00:00:00 | |
| DO3MHA-11 | 2026-09-01 01:11:50 | 45.61841 | 9.63527 | 284° | 33km/h | 19231m | -9.4m/s | -55.4°C | 4.9% | 0hPa | 2.6V | 00:00:00 | 02:38:08 | 00:00:00 | |
| IW2NTF | 2026-09-01 01:11:46 | 45.61856 | 9.63484 | 4° | 33km/h | 19316m | -9.7m/s | -55.2°C | 4.6% | 0hPa | 2.6V | 08:14:46 | 02:37:59 | 00:00:00 | |
| OE5DRO-10 | 2026-09-01 01:11:43 | 45.61870 | 9.63497 | 64° | 33km/h | 19297m | -9.2m/s | -55.0°C | 4.5% | 0hPa | 2.5V | 08:14:00 | 00:00:00 | 00:00:00 | |
| NBG1-10 | 2026-09-01 01:11:42 | 45.61864 | 9.63488 | 33° | 37km/h | 19307m | -10.1m/s | -55.1°C | 4.5% | 0hPa | 2.5V | 08:14:00 | 02:38:00 | 00:00:00 | |
| DO3MHA-11 | 2026-09-01 01:11:40 | 45.61848 | 9.63486 | 334° | 31km/h | 19326m | -9.4m/s | -55.2°C | 4.7% | 0hPa | 2.6V | 00:00:00 | 02:37:58 | 00:00:00 | |
| DB0UT-7 | 2026-09-01 01:11:31 | 45.61849 | 9.63473 | 23° | 35km/h | 19411m | -9.5m/s | -55.4°C | 4.7% | 0hPa | 2.5V | 08:14:00 | 00:00:00 | 00:00:00 | |
| IW2NTF | 2026-09-01 01:11:30 | 45.61828 | 9.63474 | 337° | 46km/h | 19430m | -9.5m/s | -55.4°C | 4.7% | 0hPa | 2.6V | 08:14:58 | 02:37:47 | 00:00:00 | |
| DO3MHA-11 | 2026-09-01 01:11:30 | 45.61839 | 9.63471 | 360° | 33km/h | 19421m | -9.0m/s | -55.4°C | 4.7% | 0hPa | 2.5V | 00:00:00 | 02:37:48 | 00:00:00 | |
| OE5DRO-10 | 2026-09-01 01:11:24 | 45.61815 | 9.63509 | 134° | 38km/h | 19478m | -9.5m/s | -55.4°C | 4.7% | 0hPa | 2.5V | 00:00:00 | 00:00:00 | 00:00:00 | |
| IW2NTF | 2026-09-01 01:11:20 | 45.61771 | 9.63462 | 350° | 53km/h | 19535m | -9.6m/s | -55.6°C | 4.8% | 0hPa | 2.5V | 08:15:09 | 02:37:36 | 00:00:00 | |
| DO3MHA-11 | 2026-09-01 01:11:20 | 45.61798 | 9.63468 | 27° | 37km/h | 19516m | -9.9m/s | -55.5°C | 4.7% | 0hPa | 2.6V | 00:00:00 | 02:37:38 | 00:00:00 | |
| IW2NTF | 2026-09-01 01:11:10 | 45.61728 | 9.63425 | 22° | 55km/h | 19632m | -9.9m/s | -55.9°C | 4.9% | 0hPa | 2.6V | 08:15:19 | 02:37:26 | 00:00:00 | |
| DO3MHA-11 | 2026-09-01 01:11:10 | 45.61749 | 9.63449 | 59° | 37km/h | 19613m | -9.8m/s | -55.8°C | 4.8% | 0hPa | 2.5V | 00:00:00 | 02:37:28 | 00:00:00 | |
| OE5DRO-10 | 2026-09-01 01:11:05 | 45.61697 | 9.63426 | 322° | 42km/h | 19662m | -9.4m/s | -56.0°C | 4.9% | 0hPa | 2.5V | 00:00:00 | 00:00:00 | 00:00:00 | |
| DB0UT-7 | 2026-09-01 01:11:01 | 45.61703 | 9.63421 | 109° | 38km/h | 19701m | -9.5m/s | -56.1°C | 5.0% | 0hPa | 2.5V | 00:00:00 | 02:37:19 | 00:00:00 | |
| IW2NTF | 2026-09-01 01:11:00 | 45.61673 | 9.63346 | 19° | 49km/h | 19750m | -9.8m/s | -56.4°C | 5.1% | 0hPa | 2.5V | 08:15:31 | 02:37:14 | 00:00:00 | |
| DO3MHA-11 | 2026-09-01 01:11:00 | 45.61704 | 9.63405 | 89° | 38km/h | 19711m | -9.7m/s | -56.1°C | 5.0% | 0hPa | 2.5V | 00:00:00 | 02:37:18 | 00:00:00 | |
| NBG1-10 | 2026-09-01 01:10:52 | 45.61652 | 9.63347 | 158° | 37km/h | 19790m | -9.5m/s | -56.4°C | 5.2% | 0hPa | 2.5V | 00:00:00 | 02:37:10 | 00:00:00 | |
| IW2NTF | 2026-09-01 01:10:50 | 45.61654 | 9.63256 | 49° | 53km/h | 19849m | -9.8m/s | -56.3°C | 5.2% | 0hPa | 2.5V | 08:15:41 | 02:37:04 | 00:00:00 | |
| DO3MHA-11 | 2026-09-01 01:10:50 | 45.61661 | 9.63331 | 116° | 38km/h | 19810m | -9.8m/s | -56.3°C | 5.2% | 0hPa | 2.5V | 00:00:00 | 02:37:08 | 00:00:00 | |
| OE5DRO-10 | 2026-09-01 01:10:43 | 45.61632 | 9.63239 | 338° | 35km/h | 19878m | -9.9m/s | -55.9°C | 5.2% | 0hPa | 2.5V | 00:00:00 | 00:00:00 | 00:00:00 | |
| IW2NTF | 2026-09-01 01:10:40 | 45.61649 | 9.63162 | 45° | 42km/h | 19957m | -9.9m/s | -55.2°C | 4.9% | 0hPa | 2.6V | 08:15:52 | 02:36:53 | 00:00:00 | |
| DO3MHA-11 | 2026-09-01 01:10:40 | 45.61642 | 9.63236 | 149° | 38km/h | 19907m | -9.9m/s | -55.3°C | 5.0% | 0hPa | 2.5V | 08:15:00 | 02:36:58 | 00:00:00 | |
| DB0UT-7 | 2026-09-01 01:10:31 | 45.61630 | 9.63164 | 244° | 35km/h | 19998m | -9.9m/s | -55.1°C | 4.9% | 0hPa | 2.6V | 00:00:00 | 00:00:00 | 00:00:00 | |
| DO3MHA-11 | 2026-09-01 01:10:30 | 45.61634 | 9.63169 | 202° | 38km/h | 20008m | -10.1m/s | -55.0°C | 4.9% | 0hPa | 2.6V | 00:00:00 | 02:36:48 | 00:00:00 | |
| IW2NTF | 2026-09-01 01:10:29 | 45.61654 | 9.63106 | 46° | 44km/h | 20069m | -10.1m/s | -54.4°C | 4.7% | 0hPa | 2.6V | 08:16:03 | 02:36:42 | 00:00:00 | |
| OE5DRO-10 | 2026-09-01 01:10:24 | 45.61653 | 9.63106 | 47° | 35km/h | 20070m | -10.0m/s | -54.4°C | 4.7% | 0hPa | 2.5V | 00:00:00 | 00:00:00 | 00:00:00 | |
| DO3MHA-11 | 2026-09-01 01:10:20 | 45.61627 | 9.63109 | 278° | 37km/h | 20110m | -10.2m/s | -54.2°C | 4.7% | 0hPa | 2.5V | 00:00:00 | 02:36:38 | 00:00:00 | |
| IW2NTF | 2026-09-01 01:10:19 | 45.61643 | 9.63078 | 63° | 47km/h | 20170m | -10.4m/s | -53.8°C | 4.5% | 0hPa | 2.5V | 08:16:13 | 02:36:32 | 00:00:00 | |
| NBG1-10 | 2026-09-01 01:10:19 | 45.61628 | 9.63116 | 230° | 33km/h | 20120m | -10.4m/s | -54.1°C | 4.7% | 0hPa | 2.5V | 00:00:00 | 02:36:37 | 00:00:00 | |
| DO3MHA-11 | 2026-09-01 01:10:10 | 45.61606 | 9.63056 | 332° | 31km/h | 20212m | -9.9m/s | -53.7°C | 4.5% | 0hPa | 2.5V | 00:00:00 | 02:36:28 | 00:00:00 | |
| IW2NTF | 2026-09-01 01:10:09 | 45.61618 | 9.63045 | 89° | 40km/h | 20273m | -10.2m/s | -53.6°C | 4.5% | 0hPa | 2.5V | 08:16:23 | 02:36:22 | 00:00:00 | |
| OE5DRO-10 | 2026-09-01 01:10:05 | 45.61616 | 9.63058 | 115° | 35km/h | 20263m | -10.6m/s | -53.6°C | 4.5% | 0hPa | 2.5V | 00:00:00 | 00:00:00 | 00:00:00 | |
| DB0UT-7 | 2026-09-01 01:10:01 | 45.61601 | 9.63014 | 10° | 35km/h | 20304m | -10.7m/s | -53.3°C | 4.4% | 0hPa | 2.5V | 00:00:00 | 02:36:19 | 00:00:00 | |
| DO3MHA-11 | 2026-09-01 01:10:00 | 45.61592 | 9.63015 | 340° | 33km/h | 20314m | -10.1m/s | -53.2°C | 4.4% | 0hPa | 2.5V | 00:00:00 | 02:36:18 | 00:00:00 | |
| IW2NTF | 2026-09-01 01:09:59 | 45.61613 | 9.63036 | 131° | 38km/h | 20376m | -10.9m/s | -53°C | 4.3% | 0hPa | 2.5V | 08:16:33 | 02:36:12 | 00:00:00 | |
| DO3MHA-11 | 2026-09-01 01:09:50 | 45.61607 | 9.63000 | 359° | 35km/h | 20418m | -10.6m/s | -53.0°C | 4.2% | 0hPa | 2.5V | 00:00:00 | 02:36:08 | 00:00:00 | |
| IW2NTF | 2026-09-01 01:09:48 | 45.61634 | 9.63043 | 147° | 38km/h | 20492m | -10.4m/s | -53.2°C | 4.2% | 0hPa | 2.5V | 08:16:44 | 02:36:01 | 00:00:00 | |
| NBG1-10 | 2026-09-01 01:09:46 | 45.61605 | 9.63038 | 224° | 37km/h | 20461m | -10.4m/s | -53.0°C | 4.2% | 0hPa | 2.6V | 00:00:00 | 02:36:04 | 00:00:00 | |
| DO3MHA-11 | 2026-09-01 01:09:40 | 45.61638 | 9.63016 | 35° | 37km/h | 20524m | -10.8m/s | -53.3°C | 4.3% | 0hPa | 2.5V | 00:00:00 | 02:35:58 | 00:00:00 | |
| IW2NTF | 2026-09-01 01:09:38 | 45.61649 | 9.63068 | 173° | 40km/h | 20598m | -10.6m/s | -53.4°C | 4.3% | 0hPa | 2.5V | 08:16:54 | 02:35:51 | 00:00:00 | |
| DB0UT-7 | 2026-09-01 01:09:31 | 45.61663 | 9.63054 | 113° | 35km/h | 20619m | -10.4m/s | -53.4°C | 4.2% | 0hPa | 2.5V | 00:00:00 | 00:00:00 | 00:00:00 | |
| DO3MHA-11 | 2026-09-01 01:09:30 | 45.61664 | 9.63043 | 73° | 35km/h | 20630m | -11.0m/s | -53.4°C | 4.3% | 0hPa | 2.5V | 00:00:00 | 02:35:48 | 00:00:00 | |
| IW2NTF | 2026-09-01 01:09:27 | 45.61658 | 9.63084 | 175° | 35km/h | 20714m | -10.6m/s | -54°C | 4.4% | 0hPa | 2.5V | 08:17:05 | 02:35:40 | 00:00:00 | |
| OE5DRO-10 | 2026-09-01 01:09:27 | 45.61645 | 9.63037 | 323° | 35km/h | 20661m | -10.7m/s | -53.6°C | 4.3% | 0hPa | 2.6V | 00:00:00 | 00:00:00 | 00:00:00 | |
| DO3MHA-11 | 2026-09-01 01:09:19 | 45.61668 | 9.63059 | 66° | 35km/h | 20746m | -10.4m/s | -54.1°C | 4.4% | 0hPa | 2.6V | 00:00:00 | 02:35:37 | 00:00:00 | |
| IW2NTF | 2026-09-01 01:09:17 | 45.61635 | 9.63087 | 213° | 27km/h | 20818m | -10.3m/s | -54.4°C | 4.5% | 0hPa | 2.6V | 08:17:15 | 02:35:30 | 00:00:00 | |
| NBG1-10 | 2026-09-01 01:09:13 | 45.61631 | 9.63079 | 252° | 37km/h | 20808m | -10.4m/s | -54.2°C | 4.5% | 0hPa | 2.5V | 00:00:00 | 02:35:31 | 00:00:00 | |
| DO3MHA-11 | 2026-09-01 01:09:09 | 45.61649 | 9.63074 | 91° | 35km/h | 20850m | -10.5m/s | -54.4°C | 4.5% | 0hPa | 2.5V | 08:17:00 | 02:35:27 | 00:00:00 | |
| OE5DRO-10 | 2026-09-01 01:09:08 | 45.61646 | 9.63062 | 60° | 38km/h | 20860m | -10.4m/s | -54.5°C | 4.5% | 0hPa | 2.5V | 00:00:00 | 00:00:00 | 00:00:00 | |
| IW2NTF | 2026-09-01 01:09:07 | 45.61599 | 9.63077 | 270° | 27km/h | 20922m | -10.5m/s | -54.9°C | 4.7% | 0hPa | 2.5V | 08:17:25 | 02:35:20 | 00:00:00 | |
| DB0UT-7 | 2026-09-01 01:09:01 | 45.61600 | 9.63084 | 226° | 40km/h | 20933m | -10.8m/s | -54.9°C | 4.7% | 0hPa | 2.5V | 00:00:00 | 02:35:19 | 00:00:00 | |
| DO3MHA-11 | 2026-09-01 01:08:59 | 45.61606 | 9.63080 | 104° | 38km/h | 20955m | -11.5m/s | -55.0°C | 4.7% | 0hPa | 2.5V | 00:00:00 | 02:35:17 | 00:00:00 | |
| IW2NTF | 2026-09-01 01:08:57 | 45.61547 | 9.63066 | 288° | 37km/h | 21029m | -11.7m/s | -55°C | 4.7% | 0hPa | 2.5V | 08:17:35 | 02:35:10 | 00:00:00 | |
| DO3MHA-11 | 2026-09-01 01:08:49 | 45.61555 | 9.63080 | 141° | 27km/h | 21062m | -11.5m/s | -55.0°C | 4.8% | 0hPa | 2.6V | 00:00:00 | 02:35:07 | 00:00:00 | |
| IW2NTF | 2026-09-01 01:08:47 | 45.61510 | 9.63024 | 317° | 35km/h | 21134m | -12.6m/s | -55.2°C | 4.9% | 0hPa | 2.6V | 08:17:45 | 02:35:00 | 00:00:00 | |
| DO3MHA-11 | 2026-09-01 01:08:39 | 45.61512 | 9.63038 | 156° | 38km/h | 21170m | -11.8m/s | -55.1°C | 4.9% | 0hPa | 2.5V | 00:00:00 | 02:34:57 | 00:00:00 | |
| IW2NTF | 2026-09-01 01:08:37 | 45.61488 | 9.62951 | 352° | 31km/h | 21246m | -11.4m/s | -54.9°C | 4.8% | 0hPa | 2.6V | 08:17:55 | 02:34:50 | 00:00:00 | |
| DB0UT-7 | 2026-09-01 01:08:31 | 45.61482 | 9.62954 | 312° | 42km/h | 21257m | -11.8m/s | -54.7°C | 4.8% | 0hPa | 2.6V | 00:00:00 | 00:00:00 | 00:00:00 | |
| OE5DRO-10 | 2026-09-01 01:08:30 | 45.61482 | 9.62959 | 237° | 42km/h | 21269m | -11.8m/s | -54.5°C | 4.7% | 0hPa | 2.5V | 00:00:00 | 00:00:00 | 00:00:00 | |
| DO3MHA-11 | 2026-09-01 01:08:29 | 45.61487 | 9.62962 | 173° | 49km/h | 21280m | -11.7m/s | -54.3°C | 4.6% | 0hPa | 2.5V | 00:00:00 | 02:34:47 | 00:00:00 | |
| IW2NTF | 2026-09-01 01:08:27 | 45.61500 | 9.62860 | 20° | 31km/h | 21356m | -11.6m/s | -54.1°C | 4.5% | 0hPa | 2.5V | 08:18:05 | 02:34:40 | 00:00:00 | |
| DO3MHA-11 | 2026-09-01 01:08:19 | 45.61497 | 9.62868 | 201° | 46km/h | 21390m | -11.9m/s | -54.2°C | 4.5% | 0hPa | 2.5V | 00:00:00 | 02:34:37 | 00:00:00 | |
| IW2NTF | 2026-09-01 01:08:17 | 45.61538 | 9.62792 | 46° | 27km/h | 21468m | -12.6m/s | -54.7°C | 4.7% | 0hPa | 2.5V | 08:18:15 | 02:34:30 | 00:00:00 | |
| OE5DRO-10 | 2026-09-01 01:08:11 | 45.61550 | 9.62788 | 350° | 42km/h | 21480m | -11.8m/s | -54.6°C | 4.7% | 0hPa | 2.5V | 00:00:00 | 00:00:00 | 00:00:00 | |
| IW2NTF | 2026-09-01 01:08:07 | 45.61594 | 9.62768 | 69° | 29km/h | 21583m | -12.9m/s | -54.7°C | 4.7% | 0hPa | 2.5V | 08:18:25 | 02:34:20 | 00:00:00 | |
| NBG1-10 | 2026-09-01 01:08:07 | 45.61553 | 9.62816 | 190° | 47km/h | 21526m | -12.4m/s | -54.4°C | 4.5% | 0hPa | 2.5V | 00:00:00 | 02:34:25 | 00:00:00 | |
| DB0UT-7 | 2026-09-01 01:08:01 | 45.61591 | 9.62762 | 13° | 38km/h | 21595m | -11.5m/s | -54.8°C | 4.7% | 0hPa | 2.6V | 00:00:00 | 02:34:19 | 00:00:00 | |
| IW2NTF | 2026-09-01 01:07:57 | 45.61642 | 9.62779 | 79° | 31km/h | 21701m | -12m/s | -54.8°C | 4.7% | 0hPa | 2.6V | 08:18:35 | 02:34:10 | 00:00:00 | |
| OE5DRO-10 | 2026-09-01 01:07:52 | 45.61642 | 9.62779 | 80° | 38km/h | 21701m | -11.9m/s | -54.8°C | 4.7% | 0hPa | 2.6V | 00:00:00 | 00:00:00 | 00:00:00 | |
| IW2NTF | 2026-09-01 01:07:46 | 45.61655 | 9.62794 | 43° | 29km/h | 21826m | -12.3m/s | -55.1°C | 4.9% | 0hPa | 2.6V | 08:18:46 | 02:33:59 | 00:00:00 | |
| IW2NTF | 2026-09-01 01:07:36 | 45.61670 | 9.62842 | 95° | 27km/h | 21949m | -12.3m/s | -54.4°C | 4.6% | 0hPa | 2.6V | 08:18:56 | 02:33:49 | 00:00:00 | |
| NBG1-10 | 2026-09-01 01:07:34 | 45.61650 | 9.62855 | 195° | 38km/h | 21912m | -13.0m/s | -54.5°C | 4.7% | 0hPa | 2.6V | 00:00:00 | 02:33:52 | 00:00:00 | |
| OE5DRO-10 | 2026-09-01 01:07:33 | 45.61660 | 9.62856 | 166° | 40km/h | 21924m | -12.5m/s | -54.4°C | 4.7% | 0hPa | 2.6V | 00:00:00 | 00:00:00 | 00:00:00 | |
| DB0UT-7 | 2026-09-01 01:07:31 | 45.61670 | 9.62842 | 96° | 40km/h | 21949m | -12.3m/s | -54.3°C | 4.6% | 0hPa | 2.6V | 00:00:00 | 00:00:00 | 00:00:00 | |
| RDZBGO | 2026-09-01 01:07:30 | 45.61668 | 9.62834 | 34° | 29km/h | 21961m | -12.2m/s | -54.4°C | 1.4% | 0hPa | 2.6V | 00:00:00 | 00:00:00 | 00:00:00 | |
| IW2NTF | 2026-09-01 01:07:25 | 45.61671 | 9.62896 | 42° | 31km/h | 22081m | -12.2m/s | -54°C | 4.4% | 0hPa | 2.6V | 08:19:07 | 02:33:38 | 00:00:00 | |
| OE5DRO-10 | 2026-09-01 01:07:14 | 45.61632 | 9.62953 | 247° | 42km/h | 22154m | -13.2m/s | -54.2°C | 4.5% | 0hPa | 2.5V | 00:00:00 | 00:00:00 | 00:00:00 | |
| IW2NTF | 2026-09-01 01:07:09 | 45.61594 | 9.62961 | 276° | 40km/h | 22276m | -13.9m/s | -54.2°C | 4.4% | 0hPa | 2.5V | 08:19:23 | 02:33:22 | 00:00:00 | |
| DB0UT-7 | 2026-09-01 01:07:01 | 45.61605 | 9.62973 | 126° | 44km/h | 22316m | -12.5m/s | -54.4°C | 4.6% | 0hPa | 2.6V | 08:19:00 | 02:33:19 | 00:00:00 | |
| IW2NTF | 2026-09-01 01:07:00 | 45.61540 | 9.62938 | 315° | 44km/h | 22398m | -14.4m/s | -55°C | 4.7% | 0hPa | 2.5V | 08:19:33 | 02:33:12 | 00:00:00 | |
| IN3HCDX | 2026-09-01 01:06:58 | 45.61603 | 9.62949 | 62° | 51km/h | 22341m | -12.7m/s | -54.7°C | 1.5% | 0hPa | 2.6V | 00:00:00 | 00:00:00 | 00:00:00 | |
| OE5DRO-10 | 2026-09-01 01:06:55 | 45.61550 | 9.62928 | 335° | 42km/h | 22386m | -12.1m/s | -54.9°C | 4.7% | 0hPa | 2.6V | 00:00:00 | 00:00:00 | 00:00:00 | |
| IW2NTF | 2026-09-01 01:06:48 | 45.61460 | 9.62902 | 308° | 29km/h | 22535m | -12.8m/s | -55.4°C | 5.1% | 0hPa | 2.5V | 08:19:44 | 02:33:01 | 00:00:00 | |
| NBG1-10 | 2026-09-01 01:06:41 | 45.61460 | 9.62914 | 173° | 40km/h | 22561m | -12.2m/s | -55.0°C | 4.9% | 0hPa | 2.5V | 00:00:00 | 02:32:59 | 00:00:00 | |
| IW2NTF | 2026-09-01 01:06:38 | 45.61424 | 9.62850 | 297° | 37km/h | 22660m | -13.6m/s | -54.9°C | 4.8% | 0hPa | 2.5V | 08:19:54 | 02:32:51 | 00:00:00 | |
| OE5DRO-10 | 2026-09-01 01:06:36 | 45.61454 | 9.62848 | 34° | 42km/h | 22624m | -12.7m/s | -54.9°C | 4.8% | 0hPa | 2.5V | 00:00:00 | 00:00:00 | 00:00:00 | |
| IN3HCDX | 2026-09-01 01:06:35 | 45.61454 | 9.62848 | 35° | 57km/h | 22624m | -12.8m/s | -54.9°C | 1.5% | 0hPa | 2.5V | 00:00:00 | 00:00:00 | 00:00:00 | |
| DB0UT-7 | 2026-09-01 01:06:31 | 45.61427 | 9.62868 | 212° | 42km/h | 22686m | -13.1m/s | -54.8°C | 4.8% | 0hPa | 2.5V | 00:00:00 | 00:00:00 | 00:00:00 | |
| IW2NTF | 2026-09-01 01:06:28 | 45.61411 | 9.62808 | 314° | 35km/h | 22786m | -13.8m/s | -54.4°C | 4.7% | 0hPa | 2.5V | 08:20:04 | 02:32:41 | 00:00:00 | |
| IW2NTF | 2026-09-01 01:06:18 | 45.61412 | 9.62773 | 333° | 37km/h | 22916m | -13.5m/s | -54.2°C | 4.5% | 0hPa | 2.5V | 08:20:14 | 02:32:31 | 00:00:00 | |
| OE5DRO-10 | 2026-09-01 01:06:17 | 45.61440 | 9.62811 | 99° | 42km/h | 22865m | -13.7m/s | -54.3°C | 4.6% | 0hPa | 2.5V | 00:00:00 | 00:00:00 | 00:00:00 | |
| IN3HCDX | 2026-09-01 01:06:14 | 45.61432 | 9.62778 | 44° | 46km/h | 22891m | -12.9m/s | -54.3°C | 1.5% | 0hPa | 2.5V | 00:00:00 | 00:00:00 | 00:00:00 | |
| IW2NTF | 2026-09-01 01:06:08 | 45.61419 | 9.62746 | 354° | 40km/h | 23046m | -13.7m/s | -54.4°C | 4.7% | 0hPa | 2.5V | 08:20:24 | 02:32:21 | 00:00:00 | |
| NBG1-10 | 2026-09-01 01:06:04 | 45.61429 | 9.62749 | 32° | 44km/h | 23033m | -13.6m/s | -54.4°C | 4.8% | 0hPa | 2.5V | 08:20:00 | 02:32:22 | 00:00:00 | |
| DB0UT-7 | 2026-09-01 01:06:01 | 45.61405 | 9.62760 | 285° | 42km/h | 23072m | -13.2m/s | -54.2°C | 4.7% | 0hPa | 2.5V | 00:00:00 | 02:32:19 | 00:00:00 | |
| IW2NTF | 2026-09-01 01:05:58 | 45.61424 | 9.62729 | 10° | 42km/h | 23179m | -13.8m/s | -54°C | 4.6% | 0hPa | 2.5V | 08:20:34 | 02:32:11 | 00:00:00 | |
| OE5DRO-10 | 2026-09-01 01:05:58 | 45.61421 | 9.62785 | 174° | 42km/h | 23111m | -13.9m/s | -54.1°C | 4.6% | 0hPa | 2.5V | 08:20:00 | 00:00:00 | 00:00:00 | |
| IN3HCDX | 2026-09-01 01:05:53 | 45.61432 | 9.62737 | 52° | 44km/h | 23166m | -14.2m/s | -54.0°C | 1.5% | 0hPa | 2.5V | 00:00:00 | 00:00:00 | 00:00:00 | |
| IW2NTF | 2026-09-01 01:05:48 | 45.61450 | 9.62745 | 28° | 29km/h | 23313m | -13.8m/s | -53.8°C | 4.5% | 0hPa | 2.5V | 08:20:44 | 02:32:01 | 00:00:00 | |
| OE5DRO-10 | 2026-09-01 01:05:39 | 45.61438 | 9.62790 | 248° | 46km/h | 23367m | -14.2m/s | -53.9°C | 4.5% | 0hPa | 2.5V | 00:00:00 | 00:00:00 | 00:00:00 | |
| IW2NTF | 2026-09-01 01:05:38 | 45.61488 | 9.62801 | 53° | 24km/h | 23453m | -14.2m/s | -54°C | 4.6% | 0hPa | 2.5V | 08:20:54 | 02:31:51 | 00:00:00 | |
| IN3HCDX | 2026-09-01 01:05:33 | 45.61488 | 9.62801 | 55° | 24km/h | 23453m | -14.2m/s | -54.0°C | 1.5% | 0hPa | 2.5V | 08:21:00 | 00:00:00 | 00:00:00 | |
| DB0UT-7 | 2026-09-01 01:05:31 | 45.61473 | 9.62803 | 325° | 47km/h | 23480m | -14.4m/s | -54.1°C | 4.5% | 0hPa | 2.5V | 00:00:00 | 00:00:00 | 00:00:00 | |
| IW2NTF | 2026-09-01 01:05:28 | 45.61492 | 9.62866 | 57° | 35km/h | 23597m | -14m/s | -54.1°C | 4.6% | 0hPa | 2.6V | 08:21:04 | 02:31:41 | 00:00:00 | |
| OE5DRO-10 | 2026-09-01 01:05:20 | 45.61459 | 9.62866 | 325° | 47km/h | 23639m | -13.7m/s | -54.2°C | 4.6% | 0hPa | 2.6V | 00:00:00 | 00:00:00 | 00:00:00 | |
| IW2NTF | 2026-09-01 01:05:18 | 45.61467 | 9.62918 | 83° | 38km/h | 23741m | -13.8m/s | -54.4°C | 4.7% | 0hPa | 2.6V | 08:21:14 | 02:31:31 | 00:00:00 | |
| S52SK | 2026-09-01 01:05:16 | 45.61445 | 9.62919 | 248° | 49km/h | 23683m | -14.2m/s | -54.3°C | 1.4% | 0hPa | 2.6V | 00:00:00 | 00:00:00 | 00:00:00 | |
| IN3HCDX | 2026-09-01 01:05:12 | 45.61467 | 9.62918 | 85° | 38km/h | 23741m | -13.8m/s | -54.4°C | 1.5% | 0hPa | 2.6V | 08:21:00 | 00:00:00 | 00:00:00 | |
| IW2NTF | 2026-09-01 01:05:08 | 45.61444 | 9.62950 | 67° | 38km/h | 23900m | -14.4m/s | -54.2°C | 4.6% | 0hPa | 2.6V | 08:21:25 | 02:31:20 | 00:00:00 | |
| DB0UT-7 | 2026-09-01 01:05:01 | 45.61437 | 9.62939 | 34° | 47km/h | 23915m | -14.5m/s | -54.2°C | 4.6% | 0hPa | 2.5V | 00:00:00 | 02:31:19 | 00:00:00 | |
| NBG1-10 | 2026-09-01 01:04:58 | 45.61407 | 9.62952 | 296° | 55km/h | 23959m | -14.4m/s | -54.4°C | 4.7% | 0hPa | 2.5V | 00:00:00 | 02:31:16 | 00:00:00 | |
| IN3HCDX | 2026-09-01 01:04:51 | 45.61449 | 9.62987 | 106° | 37km/h | 24047m | -15.0m/s | -54.3°C | 1.4% | 0hPa | 2.5V | 00:00:00 | 00:00:00 | 00:00:00 | |
| IW2NTF | 2026-09-01 01:04:47 | 45.61456 | 9.63052 | 126° | 31km/h | 24191m | -14.7m/s | -54.4°C | 4.8% | 0hPa | 2.5V | 08:21:45 | 02:31:00 | 00:00:00 | |
| OE5DRO-10 | 2026-09-01 01:04:42 | 45.61456 | 9.63052 | 127° | 51km/h | 24192m | -14.7m/s | -54.3°C | 4.8% | 0hPa | 2.5V | 00:00:00 | 00:00:00 | 00:00:00 | |
| DB0UT-7 | 2026-09-01 01:04:31 | 45.61442 | 9.63111 | 84° | 51km/h | 24352m | -13.7m/s | -54.4°C | 4.9% | 0hPa | 2.5V | 00:00:00 | 00:00:00 | 00:00:00 | |
| IW2NTF | 2026-09-01 01:04:30 | 45.61425 | 9.63095 | 6° | 57km/h | 24381m | -13.9m/s | -54.3°C | 4.9% | 0hPa | 2.5V | 08:21:58 | 02:30:47 | 00:00:00 | |
| NBG1-10 | 2026-09-01 01:04:24 | 45.61384 | 9.63175 | 245° | 47km/h | 24455m | -13.9m/s | -53.9°C | 4.8% | 0hPa | 2.5V | 00:00:00 | 02:30:42 | 00:00:00 | |
| OE5DRO-10 | 2026-09-01 01:04:23 | 45.61391 | 9.63187 | 215° | 51km/h | 24469m | -15.4m/s | -53.9°C | 4.8% | 0hPa | 2.5V | 00:00:00 | 00:00:00 | 00:00:00 | |
| IW2NTF | 2026-09-01 01:04:20 | 45.61375 | 9.63166 | 353° | 60km/h | 24543m | -14.3m/s | -53.3°C | 4.7% | 0hPa | 2.5V | 08:22:09 | 02:30:36 | 00:00:00 | |
| BAUMI2-15 | 2026-09-01 01:04:15 | 45.61341 | 9.63211 | 283° | 64km/h | 24588m | -14.5m/s | -53.3°C | 4.7% | 0hPa | 2.6V | 00:00:00 | 02:30:33 | 00:00:00 | |
| DO3MHA-11 | 2026-09-01 01:04:12 | 45.61354 | 9.63249 | 178° | 35km/h | 24633m | -14.1m/s | -53.2°C | 4.7% | 0hPa | 2.5V | 00:00:00 | 02:30:30 | 00:00:00 | |
| IN3HCDX | 2026-09-01 01:04:09 | 45.61358 | 9.63232 | 67° | 40km/h | 24663m | -14.3m/s | -53.1°C | 1.4% | 0hPa | 2.6V | 00:00:00 | 00:00:00 | 00:00:00 | |
| IW2NTF | 2026-09-01 01:04:06 | 45.61308 | 9.63279 | 129° | 42km/h | 24800m | -14.5m/s | -52.3°C | 4.5% | 0hPa | 2.6V | 08:22:26 | 02:30:19 | 00:00:00 | |
| BAUMI2-15 | 2026-09-01 01:04:04 | 45.61290 | 9.63266 | 268° | 42km/h | 24754m | -15.2m/s | -52.5°C | 4.5% | 0hPa | 2.6V | 00:00:00 | 02:30:22 | 00:00:00 | |
| DO3MHA-11 | 2026-09-01 01:04:02 | 45.61301 | 9.63285 | 178° | 38km/h | 24785m | -15.1m/s | -52.4°C | 4.4% | 0hPa | 2.6V | 00:00:00 | 02:30:20 | 00:00:00 | |
| DB0UT-7 | 2026-09-01 01:04:01 | 45.61308 | 9.63279 | 130° | 53km/h | 24800m | -14.4m/s | -52.3°C | 4.5% | 0hPa | 2.6V | 00:00:00 | 02:30:19 | 00:00:00 | |
| BAUMI2-15 | 2026-09-01 01:03:57 | 45.61284 | 9.63222 | 10° | 47km/h | 24860m | -15.5m/s | -52.0°C | 4.4% | 0hPa | 2.6V | 00:00:00 | 02:30:15 | 00:00:00 | |
| IW2NTF | 2026-09-01 01:03:56 | 45.61279 | 9.63258 | 147° | 53km/h | 24954m | -14m/s | -51°C | 4% | 0hPa | 2.6V | 08:22:36 | 02:30:09 | 00:00:00 | |
| DO3MHA-11 | 2026-09-01 01:03:52 | 45.61267 | 9.63263 | 180° | 55km/h | 24940m | -14.2m/s | -51.1°C | 4.1% | 0hPa | 2.5V | 00:00:00 | 02:30:10 | 00:00:00 | |
| NBG1-10 | 2026-09-01 01:03:51 | 45.61279 | 9.63258 | 148° | 53km/h | 24955m | -14.0m/s | -51.0°C | 4.0% | 0hPa | 2.5V | 00:00:00 | 02:30:09 | 00:00:00 | |
| IN3HCDX | 2026-09-01 01:03:48 | 45.61291 | 9.63224 | 88° | 57km/h | 24985m | -17.0m/s | -51.0°C | 1.2% | 0hPa | 2.5V | 08:23:00 | 00:00:00 | 00:00:00 | |
| IW2NTF | 2026-09-01 01:03:45 | 45.61291 | 9.63247 | 146° | 53km/h | 25126m | -14.8m/s | -51°C | 4% | 0hPa | 2.5V | 08:22:47 | 02:29:58 | 00:00:00 | |
| BAUMI2-15 | 2026-09-01 01:03:43 | 45.61253 | 9.63235 | 238° | 57km/h | 25079m | -15.0m/s | -50.8°C | 3.9% | 0hPa | 2.5V | 00:00:00 | 02:30:01 | 00:00:00 | |
| DO3MHA-11 | 2026-09-01 01:03:41 | 45.61278 | 9.63253 | 181° | 55km/h | 25111m | -15.9m/s | -50.9°C | 4.0% | 0hPa | 2.5V | 08:22:00 | 02:29:59 | 00:00:00 | |
| S52SK | 2026-09-01 01:03:40 | 45.61278 | 9.63253 | 181° | 57km/h | 25111m | -15.9m/s | -51.0°C | 1.1% | 0hPa | 2.6V | 00:00:00 | 00:00:00 | 00:00:00 | |
| IW2NTF | 2026-09-01 01:03:35 | 45.61292 | 9.63285 | 159° | 42km/h | 25287m | -17.1m/s | -51°C | 4.1% | 0hPa | 2.6V | 08:22:57 | 02:29:48 | 00:00:00 | |
| BAUMI2-15 | 2026-09-01 01:03:34 | 45.61263 | 9.63234 | 288° | 57km/h | 25221m | -14.4m/s | -51.1°C | 4.1% | 0hPa | 2.5V | 00:00:00 | 02:29:52 | 00:00:00 | |
| DO3MHA-11 | 2026-09-01 01:03:31 | 45.61281 | 9.63285 | 200° | 49km/h | 25271m | -15.6m/s | -51.0°C | 4.1% | 0hPa | 2.5V | 00:00:00 | 02:29:49 | 00:00:00 | |
| IN3HCDX | 2026-09-01 01:03:27 | 45.61300 | 9.63261 | 71° | 42km/h | 25319m | -14.7m/s | -50.9°C | 1.3% | 0hPa | 2.5V | 08:23:00 | 00:00:00 | 00:00:00 | |
| IW2NTF | 2026-09-01 01:03:24 | 45.61261 | 9.63313 | 123° | 38km/h | 25463m | -13.9m/s | -50.8°C | 4.1% | 0hPa | 2.5V | 08:23:08 | 02:29:37 | 00:00:00 | |
| DO3MHA-11 | 2026-09-01 01:03:20 | 45.61254 | 9.63320 | 176° | 46km/h | 25449m | -14.4m/s | -50.8°C | 4.1% | 0hPa | 2.6V | 00:00:00 | 02:29:38 | 00:00:00 | |
| OE5DRO-10 | 2026-09-01 01:03:19 | 45.61262 | 9.63313 | 124° | 53km/h | 25463m | -13.9m/s | -50.8°C | 4.1% | 0hPa | 2.6V | 00:00:00 | 00:00:00 | 00:00:00 | |
| IW2NTF | 2026-09-01 01:03:15 | 45.61237 | 9.63315 | 144° | 53km/h | 25626m | -16.9m/s | -50.5°C | 4% | 0hPa | 2.6V | 08:23:18 | 02:29:27 | 00:00:00 | |
| DO3MHA-11 | 2026-09-01 01:03:10 | 45.61225 | 9.63321 | 181° | 55km/h | 25611m | -15.1m/s | -50.5°C | 4.0% | 0hPa | 2.6V | 00:00:00 | 02:29:28 | 00:00:00 | |
| NBG1-10 | 2026-09-01 01:03:09 | 45.61237 | 9.63315 | 145° | 55km/h | 25627m | -16.9m/s | -50.5°C | 4.0% | 0hPa | 2.5V | 00:00:00 | 02:29:27 | 00:00:00 | |
| IN3HCDX | 2026-09-01 01:03:06 | 45.61246 | 9.63282 | 82° | 53km/h | 25662m | -16.1m/s | -50.4°C | 1.2% | 0hPa | 2.5V | 08:24:00 | 00:00:00 | 00:00:00 | |
| IW2NTF | 2026-09-01 01:03:04 | 45.61235 | 9.63332 | 166° | 49km/h | 25790m | -17.7m/s | -50.4°C | 4% | 0hPa | 2.5V | 08:23:28 | 02:29:17 | 00:00:00 | |
| DB0UT-7 | 2026-09-01 01:03:01 | 45.61212 | 9.63319 | 235° | 55km/h | 25758m | -14.7m/s | -50.4°C | 4.1% | 0hPa | 2.5V | 00:00:00 | 02:29:19 | 00:00:00 | |
| OE5DRO-10 | 2026-09-01 01:03:00 | 45.61223 | 9.63331 | 204° | 55km/h | 25774m | -16.4m/s | -50.3°C | 4.0% | 0hPa | 2.5V | 08:23:00 | 00:00:00 | 00:00:00 | |
| DO3MHA-11 | 2026-09-01 01:02:59 | 45.61236 | 9.63332 | 167° | 49km/h | 25791m | -17.7m/s | -50.3°C | 4.0% | 0hPa | 2.6V | 00:00:00 | 02:29:17 | 00:00:00 | |
| IW2NTF | 2026-09-01 01:02:54 | 45.61217 | 9.63372 | 174° | 40km/h | 25960m | -16.1m/s | -50.3°C | 4.1% | 0hPa | 2.6V | 08:23:38 | 02:29:07 | 00:00:00 | |
| IN3HCDX | 2026-09-01 01:02:46 | 45.61223 | 9.63328 | 55° | 66km/h | 26009m | -17.2m/s | -50.0°C | 1.2% | 0hPa | 2.5V | 08:24:00 | 00:00:00 | 00:00:00 | |
| IW2NTF | 2026-09-01 01:02:43 | 45.61193 | 9.63344 | 131° | 64km/h | 26147m | -17.2m/s | -49.5°C | 4% | 0hPa | 2.5V | 08:23:49 | 02:28:56 | 00:00:00 | |
| OE5DRO-10 | 2026-09-01 01:02:41 | 45.61164 | 9.63342 | 255° | 55km/h | 26098m | -16.4m/s | -49.8°C | 4.0% | 0hPa | 2.6V | 00:00:00 | 00:00:00 | 00:00:00 | |
| DO3MHA-11 | 2026-09-01 01:02:36 | 45.61200 | 9.63299 | 79° | 62km/h | 26182m | -17.5m/s | -49.3°C | 3.9% | 0hPa | 2.6V | 00:00:00 | 02:28:54 | 00:00:00 | |
| IW2NTF | 2026-09-01 01:02:34 | 45.61206 | 9.63288 | 145° | 77km/h | 26323m | -17.6m/s | -48.3°C | 3.6% | 0hPa | 2.6V | 08:23:59 | 02:28:46 | 00:00:00 | |
| DB0UT-7 | 2026-09-01 01:02:31 | 45.61165 | 9.63286 | 238° | 58km/h | 26272m | -16.8m/s | -48.5°C | 3.6% | 0hPa | 2.5V | 08:23:00 | 00:00:00 | 00:00:00 | |
| DO3MHA-11 | 2026-09-01 01:02:26 | 45.61224 | 9.63245 | 93° | 62km/h | 26359m | -18.6m/s | -48.2°C | 3.5% | 0hPa | 2.5V | 00:00:00 | 02:28:44 | 00:00:00 | |
| IW2NTF | 2026-09-01 01:02:24 | 45.61239 | 9.63251 | 159° | 71km/h | 26500m | -18.1m/s | -48.5°C | 3.6% | 0hPa | 2.5V | 08:24:09 | 02:28:36 | 00:00:00 | |
| IN3HCDX | 2026-09-01 01:02:22 | 45.61197 | 9.63216 | 288° | 42km/h | 26430m | -17.4m/s | -48.5°C | 1.1% | 0hPa | 2.6V | 00:00:00 | 00:00:00 | 00:00:00 | |
| DO3MHA-11 | 2026-09-01 01:02:13 | 45.61235 | 9.63184 | 340° | 58km/h | 26592m | -18.8m/s | -48.5°C | 3.6% | 0hPa | 2.6V | 00:00:00 | 02:28:31 | 00:00:00 | |
| IW2NTF | 2026-09-01 01:02:12 | 45.61253 | 9.63245 | 163° | 60km/h | 26684m | -18.8m/s | -48.7°C | 3.7% | 0hPa | 2.6V | 08:24:19 | 02:28:26 | 00:00:00 | |
| OE5DRO-10 | 2026-09-01 01:02:09 | 45.61238 | 9.63245 | 201° | 49km/h | 26666m | -17.8m/s | -48.6°C | 3.6% | 0hPa | 2.5V | 00:00:00 | 00:00:00 | 00:00:00 | |
| DO3MHA-11 | 2026-09-01 01:02:03 | 45.61244 | 9.63178 | 352° | 55km/h | 26776m | -18.5m/s | -48.9°C | 3.8% | 0hPa | 2.5V | 08:24:00 | 02:28:21 | 00:00:00 | |
| IW2NTF | 2026-09-01 01:02:02 | 45.61267 | 9.63229 | 141° | 58km/h | 26885m | -17.6m/s | -49.1°C | 3.9% | 0hPa | 2.5V | 08:24:30 | 02:28:15 | 00:00:00 | |
| DB0UT-7 | 2026-09-01 01:02:01 | 45.61228 | 9.63203 | 275° | 40km/h | 26813m | -18.6m/s | -49.0°C | 3.8% | 0hPa | 2.5V | 00:00:00 | 02:28:19 | 00:00:00 | |
| IN3HCDX | 2026-09-01 01:02:00 | 45.61228 | 9.63203 | 275° | 53km/h | 26813m | -18.7m/s | -49.1°C | 1.1% | 0hPa | 2.5V | 00:00:00 | 00:00:00 | 00:00:00 | |
| DO3MHA-11 | 2026-09-01 01:01:53 | 45.61262 | 9.63168 | 17° | 27km/h | 26954m | -17.6m/s | -49.0°C | 4.0% | 0hPa | 2.5V | 00:00:00 | 02:28:11 | 00:00:00 | |
| IW2NTF | 2026-09-01 01:01:48 | 45.61265 | 9.63198 | 155° | 15km/h | 27114m | -16.7m/s | -47.9°C | 3.7% | 0hPa | 2.5V | 08:24:44 | 02:28:01 | 00:00:00 | |
| OE5DRO-10 | 2026-09-01 01:01:48 | 45.61245 | 9.63203 | 220° | 37km/h | 27037m | -16.1m/s | -48.3°C | 3.8% | 0hPa | 2.5V | 00:00:00 | 00:00:00 | 00:00:00 | |
| DO3MHA-11 | 2026-09-01 01:01:43 | 45.61265 | 9.63198 | 156° | 38km/h | 27114m | -16.6m/s | -47.8°C | 3.7% | 0hPa | 2.6V | 00:00:00 | 02:28:01 | 00:00:00 | |
| RDZBGO | 2026-09-01 01:01:42 | 45.61265 | 9.63198 | 157° | 15km/h | 27114m | -16.7m/s | -47.9°C | 1.1% | 0hPa | 2.6V | 08:24:00 | 00:00:00 | 00:00:00 | |
| DL1ZP-14 | 2026-09-01 01:01:40 | 45.61286 | 9.63192 | 174° | 44km/h | 27165m | -17.5m/s | -47.5°C | 1.0% | -1.0hPa | 2.6V | 00:00:00 | 00:00:00 | 00:00:00 | |
| IN3HCDX | 2026-09-01 01:01:39 | 45.61286 | 9.63192 | 176° | 46km/h | 27165m | -17.5m/s | -47.5°C | 1.1% | 0hPa | 2.6V | 00:00:00 | 00:00:00 | 00:00:00 | |
| IW2NTF | 2026-09-01 01:01:38 | 45.61310 | 9.63253 | 353° | 46km/h | 27302m | -18.8m/s | -46.9°C | 3.4% | 0hPa | 2.6V | 08:24:54 | 02:27:51 | 00:00:00 | |
| DO3MHA-11 | 2026-09-01 01:01:33 | 45.61310 | 9.63253 | 354° | 55km/h | 27302m | -18.8m/s | -46.8°C | 3.4% | 0hPa | 2.6V | 00:00:00 | 02:27:51 | 00:00:00 | |
| DB0UT-7 | 2026-09-01 01:01:31 | 45.61289 | 9.63237 | 55° | 55km/h | 27341m | -20.2m/s | -46.9°C | 3.4% | 0hPa | 2.5V | 00:00:00 | 00:00:00 | 00:00:00 | |
| NBG1-10 | 2026-09-01 01:01:30 | 45.61283 | 9.63218 | 79° | 53km/h | 27361m | -20.5m/s | -46.9°C | 3.4% | 0hPa | 2.5V | 00:00:00 | 02:27:48 | 00:00:00 | |
| OE5DRO-10 | 2026-09-01 01:01:29 | 45.61283 | 9.63197 | 104° | 53km/h | 27382m | -21.2m/s | -47.0°C | 3.5% | 0hPa | 2.5V | 00:00:00 | 00:00:00 | 00:00:00 | |
| IW2NTF | 2026-09-01 01:01:28 | 45.61335 | 9.63200 | 271° | 53km/h | 27496m | -19.4m/s | -47.3°C | 3.6% | 0hPa | 2.5V | 08:25:04 | 02:27:41 | 00:00:00 | |
| DO3MHA-11 | 2026-09-01 01:01:23 | 45.61335 | 9.63200 | 272° | 51km/h | 27497m | -19.3m/s | -47.3°C | 3.6% | 0hPa | 2.5V | 00:00:00 | 02:27:41 | 00:00:00 | |
| RDZBGO | 2026-09-01 01:01:21 | 45.61331 | 9.63218 | 300° | 55km/h | 27516m | -20.2m/s | -47.3°C | 1.1% | 0hPa | 2.5V | 00:00:00 | 00:00:00 | 00:00:00 | |
| IW2NTF | 2026-09-01 01:01:18 | 45.61316 | 9.63175 | 195° | 51km/h | 27692m | -20.6m/s | -47.1°C | 3.6% | 0hPa | 2.5V | 08:25:14 | 02:27:31 | 00:00:00 | |
| DO3MHA-11 | 2026-09-01 01:01:13 | 45.61316 | 9.63175 | 196° | 58km/h | 27692m | -20.5m/s | -47.1°C | 3.6% | 0hPa | 2.5V | 00:00:00 | 02:27:31 | 00:00:00 | |
| OE5DRO-10 | 2026-09-01 01:01:10 | 45.61337 | 9.63217 | 277° | 57km/h | 27749m | -19.4m/s | -46.9°C | 3.7% | 0hPa | 2.5V | 00:00:00 | 00:00:00 | 00:00:00 | |
| DL1ZP-14 | 2026-09-01 01:01:09 | 45.61308 | 9.63258 | 351° | 64km/h | 27808m | -20.3m/s | -46.7°C | 1.0% | -1.0hPa | 2.5V | 00:00:00 | 00:00:00 | 00:00:00 | |
| IW2NTF | 2026-09-01 01:01:08 | 45.61264 | 9.63215 | 84° | 53km/h | 27886m | -19.4m/s | -46.1°C | 3.5% | 0hPa | 2.6V | 08:25:24 | 02:27:21 | 00:00:00 | |
| DO3MHA-11 | 2026-09-01 01:01:03 | 45.61264 | 9.63215 | 85° | 53km/h | 27886m | -19.4m/s | -46.0°C | 3.5% | 0hPa | 2.6V | 00:00:00 | 02:27:21 | 00:00:00 | |
| RDZBGO | 2026-09-01 01:01:01 | 45.61273 | 9.63184 | 148° | 49km/h | 27925m | -19.7m/s | -45.8°C | 1.0% | 0hPa | 2.6V | 00:00:00 | 00:00:00 | 00:00:00 | |
| NBG1-10 | 2026-09-01 01:00:57 | 45.61313 | 9.63204 | 254° | 58km/h | 28004m | -20.3m/s | -45.4°C | 3.3% | 0hPa | 2.6V | 08:25:00 | 02:27:15 | 00:00:00 | |
| IW2NTF | 2026-09-01 01:00:56 | 45.61252 | 9.63247 | 41° | 60km/h | 28122m | -21.4m/s | -45°C | 3.2% | 0hPa | 2.6V | 08:25:36 | 02:27:09 | 00:00:00 | |
| DO3MHA-11 | 2026-09-01 01:00:53 | 45.61282 | 9.63261 | 354° | 55km/h | 28082m | -20.6m/s | -45.1°C | 3.2% | 0hPa | 2.6V | 00:00:00 | 02:27:11 | 00:00:00 | |
| OE5DRO-10 | 2026-09-01 01:00:51 | 45.61252 | 9.63247 | 42° | 55km/h | 28123m | -21.4m/s | -45.0°C | 3.2% | 0hPa | 2.6V | 00:00:00 | 00:00:00 | 00:00:00 | |
| IW2NTF | 2026-09-01 01:00:46 | 45.61273 | 9.63265 | 317° | 64km/h | 28323m | -20.7m/s | -44.5°C | 3.1% | 0hPa | 2.5V | 08:25:46 | 02:26:59 | 00:00:00 | |
| DO3MHA-11 | 2026-09-01 01:00:43 | 45.61285 | 9.63225 | 269° | 55km/h | 28282m | -20.8m/s | -44.5°C | 3.1% | 0hPa | 2.6V | 00:00:00 | 02:27:01 | 00:00:00 | |
| RDZBGO | 2026-09-01 01:00:39 | 45.61260 | 9.63277 | 342° | 57km/h | 28344m | -20.7m/s | -44.4°C | 0.9% | 0hPa | 2.6V | 00:00:00 | 00:00:00 | 00:00:00 | |
| DL1ZP-14 | 2026-09-01 01:00:38 | 45.61226 | 9.63260 | 67° | 49km/h | 28406m | -19.9m/s | -44.2°C | 0.8% | -1.0hPa | 2.6V | 00:00:00 | 00:00:00 | 00:00:00 | |
| DF7PN | 2026-09-01 01:00:36 | 45.61228 | 9.63227 | 124° | 47km/h | 28445m | -21.0m/s | -44.2°C | 0.9% | -1.0hPa | 2.5V | 00:00:00 | 00:00:00 | 00:00:00 | |
| DO3MHA-11 | 2026-09-01 01:00:33 | 45.61250 | 9.63211 | 179° | 66km/h | 28488m | -21.8m/s | -44.1°C | 3.0% | 0hPa | 2.5V | 08:25:00 | 02:26:51 | 00:00:00 | |
| IW2NTF | 2026-09-01 01:00:32 | 45.61277 | 9.63231 | 232° | 64km/h | 28529m | -20m/s | -44.1°C | 3% | 0hPa | 2.6V | 08:25:56 | 02:26:49 | 00:00:00 | |
| OE5DRO-10 | 2026-09-01 01:00:32 | 45.61264 | 9.63216 | 206° | 60km/h | 28509m | -20.8m/s | -44.1°C | 3.0% | 0hPa | 2.6V | 00:00:00 | 00:00:00 | 00:00:00 | |
| DB0UT-7 | 2026-09-01 01:00:31 | 45.61276 | 9.63230 | 233° | 60km/h | 28529m | -20.0m/s | -44.1°C | 3.0% | 0hPa | 2.6V | 00:00:00 | 00:00:00 | 00:00:00 | |
| IW2NTF | 2026-09-01 01:00:26 | 45.61209 | 9.63268 | 128° | 47km/h | 28733m | -19.8m/s | -44.1°C | 3.1% | 0hPa | 2.6V | 08:26:06 | 02:26:39 | 00:00:00 | |
| NBG1-10 | 2026-09-01 01:00:24 | 45.61216 | 9.63317 | 37° | 60km/h | 28671m | -21.9m/s | -44.2°C | 3.1% | 0hPa | 2.6V | 00:00:00 | 02:26:42 | 00:00:00 | |
| DO3MHA-11 | 2026-09-01 01:00:23 | 45.61207 | 9.63302 | 67° | 58km/h | 28693m | -21.5m/s | -44.2°C | 3.1% | 0hPa | 2.6V | 00:00:00 | 02:26:41 | 00:00:00 | |
| IN3HCDX | 2026-09-01 01:00:16 | 45.61259 | 9.63301 | 265° | 68km/h | 28832m | -22.1m/s | -44.0°C | 0.9% | 0hPa | 2.6V | 00:00:00 | 00:00:00 | 00:00:00 | |
| RDZBGO | 2026-09-01 01:00:15 | 45.61259 | 9.63301 | 265° | 68km/h | 28832m | -22.1m/s | -44.0°C | 0.9% | 0hPa | 2.6V | 00:00:00 | 00:00:00 | 00:00:00 | |
| DO3MHA-11 | 2026-09-01 01:00:13 | 45.61236 | 9.63360 | 334° | 58km/h | 28893m | -20.7m/s | -43.7°C | 3.0% | 0hPa | 2.6V | 00:00:00 | 02:26:31 | 00:00:00 | |
| IW2NTF | 2026-09-01 01:00:12 | 45.61196 | 9.63298 | 139° | 53km/h | 29019m | -21.5m/s | -43.4°C | 2.9% | 0hPa | 2.6V | 08:26:20 | 02:26:25 | 00:00:00 | |
| DL1ZP-14 | 2026-09-01 01:00:07 | 45.61209 | 9.63290 | 170° | 55km/h | 29040m | -21.7m/s | -43.4°C | 0.8% | -1.0hPa | 2.6V | 00:00:00 | 00:00:00 | 00:00:00 | |
| DF7PN | 2026-09-01 01:00:05 | 45.61165 | 9.63340 | 148° | 46km/h | 29309m | -20.8m/s | -43.8°C | 0.9% | -1.0hPa | 2.5V | 00:00:00 | 00:00:00 | 00:00:00 | |
| DB0UT-7 | 2026-09-01 01:00:01 | 45.61236 | 9.63370 | 300° | 64km/h | 29143m | -22.2m/s | -43.3°C | 2.9% | 0hPa | 2.5V | 00:00:00 | 02:26:19 | 00:00:00 | |
| IW2NTF | 2026-09-01 01:00:00 | 45.61156 | 9.63369 | 83° | 51km/h | 29270m | -19.6m/s | -43.8°C | 3% | 0hPa | 2.5V | 08:26:32 | 02:26:13 | 00:00:00 | |
| RDZBGO | 2026-09-01 00:59:55 | 45.61160 | 9.63386 | 56° | 58km/h | 29250m | -19.9m/s | -43.7°C | 0.9% | 0hPa | 2.5V | 00:00:00 | 00:00:00 | 00:00:00 | |
| IN3HCDX | 2026-09-01 00:59:54 | 45.61156 | 9.63369 | 85° | 51km/h | 29270m | -19.6m/s | -43.8°C | 0.9% | 0hPa | 2.5V | 00:00:00 | 00:00:00 | 00:00:00 | |
| DO3MHA-11 | 2026-09-01 00:59:53 | 45.61165 | 9.63340 | 149° | 66km/h | 29309m | -20.7m/s | -43.8°C | 3.1% | 0hPa | 2.5V | 00:00:00 | 02:26:11 | 00:00:00 | |
| NBG1-10 | 2026-09-01 00:59:51 | 45.61188 | 9.63340 | 212° | 68km/h | 29349m | -22.2m/s | -43.6°C | 3.0% | 0hPa | 2.5V | 00:00:00 | 02:26:09 | 00:00:00 | |
| IW2NTF | 2026-09-01 00:59:47 | 45.61095 | 9.63384 | 60° | 80km/h | 29538m | -22.3m/s | -43.4°C | 3% | 0hPa | 2.5V | 08:26:45 | 02:26:00 | 00:00:00 | |
| DO3MHA-11 | 2026-09-01 00:59:43 | 45.61108 | 9.63406 | 41° | 58km/h | 29517m | -22.3m/s | -43.4°C | 3.0% | 0hPa | 2.5V | 00:00:00 | 02:26:01 | 00:00:00 | |
| BAUMI2-15 | 2026-09-01 00:59:42 | 45.61095 | 9.63384 | 61° | 62km/h | 29538m | -22.2m/s | -43.4°C | 3.0% | 0hPa | 2.5V | 00:00:00 | 02:26:00 | 00:00:00 | |
| OE5DRO-10 | 2026-09-01 00:59:34 | 45.61104 | 9.63361 | 321° | 71km/h | 29708m | -22.3m/s | -42.9°C | 3.0% | 0hPa | 2.6V | 00:00:00 | 00:00:00 | 00:00:00 | |
| IW2NTF | 2026-09-01 00:59:33 | 45.60997 | 9.63295 | 77° | 89km/h | 29843m | -23.7m/s | -42.4°C | 2.8% | 0hPa | 2.6V | 08:26:59 | 02:25:46 | 00:00:00 | |
| DO3MHA-11 | 2026-09-01 00:59:33 | 45.61087 | 9.63373 | 344° | 82km/h | 29729m | -22.3m/s | -42.9°C | 3.0% | 0hPa | 2.5V | 00:00:00 | 02:25:51 | 00:00:00 | |
| DB0UT-7 | 2026-09-01 00:59:31 | 45.61043 | 9.63370 | 22° | 71km/h | 29773m | -23.7m/s | -42.7°C | 2.9% | 0hPa | 2.5V | 00:00:00 | 00:00:00 | 00:00:00 | |
| DO3MHA-11 | 2026-09-01 00:59:23 | 45.61037 | 9.63224 | 216° | 62km/h | 29952m | -21.1m/s | -42.2°C | 2.8% | 0hPa | 2.6V | 00:00:00 | 02:25:41 | 00:00:00 | |
| IW2NTF | 2026-09-01 00:59:17 | 45.60985 | 9.63252 | 61° | 73km/h | 30103m | -21.9m/s | -42.2°C | 2.8% | 0hPa | 2.6V | 08:27:11 | 02:25:34 | 00:00:00 | |
| OE5DRO-10 | 2026-09-01 00:59:15 | 45.60980 | 9.63226 | 87° | 75km/h | 30124m | -21.8m/s | -42.2°C | 2.8% | 0hPa | 2.5V | 00:00:00 | 00:00:00 | 00:00:00 | |
| DO3MHA-11 | 2026-09-01 00:59:13 | 45.60993 | 9.63170 | 129° | 75km/h | 30167m | -23.3m/s | -42.3°C | 2.8% | 0hPa | 2.5V | 00:00:00 | 02:25:31 | 00:00:00 | |
| NBG1-10 | 2026-09-01 00:59:12 | 45.61009 | 9.63150 | 151° | 71km/h | 30190m | -23.9m/s | -42.5°C | 2.9% | 0hPa | 2.5V | 00:00:00 | 02:25:30 | 00:00:00 | |
| IW2NTF | 2026-09-01 00:59:11 | 45.61070 | 9.63210 | 313° | 62km/h | 30319m | -21.3m/s | -42.1°C | 2.8% | 0hPa | 2.5V | 08:27:21 | 02:25:24 | 00:00:00 | |
| RDZBGO | 2026-09-01 00:59:10 | 45.61029 | 9.63141 | 173° | 82km/h | 30212m | -24.3m/s | -42.6°C | 0.9% | 0hPa | 2.5V | 08:27:00 | 00:00:00 | 00:00:00 | |
| DL1ZP-14 | 2026-09-01 00:59:04 | 45.61041 | 9.63223 | 9° | 69km/h | 30364m | -23.6m/s | -42.1°C | 0.8% | -1.0hPa | 2.5V | 00:00:00 | 00:00:00 | 00:00:00 | |
| DO3MHA-11 | 2026-09-01 00:59:03 | 45.61024 | 9.63213 | 35° | 69km/h | 30387m | -23.4m/s | -42.1°C | 2.8% | 0hPa | 2.5V | 08:27:00 | 02:25:21 | 00:00:00 | |
| IW2NTF | 2026-09-01 00:59:01 | 45.61067 | 9.63112 | 211° | 66km/h | 30540m | -23.9m/s | -42.2°C | 2.8% | 0hPa | 2.6V | 08:27:31 | 02:25:14 | 00:00:00 | |
| DB0UT-7 | 2026-09-01 00:59:01 | 45.61007 | 9.63169 | 85° | 73km/h | 30432m | -22.5m/s | -42.2°C | 2.8% | 0hPa | 2.6V | 00:00:00 | 02:25:19 | 00:00:00 | |
| OE5DRO-10 | 2026-09-01 00:58:56 | 45.61067 | 9.63112 | 212° | 68km/h | 30540m | -23.9m/s | -42.1°C | 2.8% | 0hPa | 2.6V | 00:00:00 | 00:00:00 | 00:00:00 | |
| DO3MHA-11 | 2026-09-01 00:58:53 | 45.61077 | 9.63168 | 304° | 71km/h | 30610m | -23.2m/s | -42.2°C | 2.8% | 0hPa | 2.6V | 00:00:00 | 02:25:11 | 00:00:00 | |
| IN3HCDX | 2026-09-01 00:58:52 | 45.61077 | 9.63168 | 304° | 58km/h | 30610m | -23.3m/s | -42.2°C | 0.8% | 0hPa | 2.6V | 00:00:00 | 00:00:00 | 00:00:00 | |
| IW2NTF | 2026-09-01 00:58:51 | 45.61000 | 9.63084 | 107° | 71km/h | 30758m | -23.1m/s | -42.4°C | 2.9% | 0hPa | 2.6V | 08:27:41 | 02:25:04 | 00:00:00 | |
| RDZBGO | 2026-09-01 00:58:50 | 45.61050 | 9.63186 | 4° | 71km/h | 30653m | -20.6m/s | -42.2°C | 0.8% | 0hPa | 2.5V | 08:28:00 | 00:00:00 | 00:00:00 | |
| DO3MHA-11 | 2026-09-01 00:58:43 | 45.61029 | 9.63053 | 203° | 80km/h | 30822m | -22.6m/s | -42.1°C | 2.8% | 0hPa | 2.5V | 00:00:00 | 02:25:01 | 00:00:00 | |
| OE5DRO-10 | 2026-09-01 00:58:37 | 45.60974 | 9.63125 | 13° | 77km/h | 30956m | -22.5m/s | -41.7°C | 2.7% | 0hPa | 2.5V | 00:00:00 | 00:00:00 | 00:00:00 | |
| NBG1-10 | 2026-09-01 00:58:35 | 45.60933 | 9.63090 | 52° | 89km/h | 31001m | -23.4m/s | -41.6°C | 2.7% | 0hPa | 2.5V | 00:00:00 | 02:24:53 | 00:00:00 | |
| IW2NTF | 2026-09-01 00:58:34 | 45.60917 | 9.63029 | 90° | 86km/h | 31047m | -23.2m/s | -41.8°C | 2.7% | 0hPa | 2.5V | 08:27:54 | 02:24:51 | 00:00:00 | |
| DO3MHA-11 | 2026-09-01 00:58:33 | 45.60917 | 9.63029 | 91° | 82km/h | 31047m | -23.2m/s | -41.7°C | 2.7% | 0hPa | 2.5V | 00:00:00 | 02:24:51 | 00:00:00 | |
| DB0UT-7 | 2026-09-01 00:58:31 | 45.60930 | 9.62981 | 136° | 73km/h | 31091m | -21.3m/s | -42.0°C | 2.8% | 0hPa | 2.6V | 00:00:00 | 00:00:00 | 00:00:00 | |
| RDZBGO | 2026-09-01 00:58:29 | 45.60953 | 9.62972 | 206° | 44km/h | 31132m | -21.1m/s | -42.2°C | 0.8% | 0hPa | 2.6V | 08:28:00 | 00:00:00 | 00:00:00 | |
| IN3HCDX | 2026-09-01 00:58:25 | 45.60954 | 9.63011 | 321° | 57km/h | 31196m | -23.8m/s | -42.2°C | 0.9% | 0hPa | 2.6V | 00:00:00 | 00:00:00 | 00:00:00 | |
| IW2NTF | 2026-09-01 00:58:24 | 45.60904 | 9.63009 | 33° | 88km/h | 31265m | -24.2m/s | -41.9°C | 2.8% | 0hPa | 2.6V | 08:28:04 | 02:24:41 | 00:00:00 | |
| DO3MHA-11 | 2026-09-01 00:58:19 | 45.60884 | 9.62887 | 115° | 86km/h | 31356m | -21.9m/s | -41.9°C | 2.8% | 0hPa | 2.5V | 00:00:00 | 02:24:37 | 00:00:00 | |
| OE5DRO-10 | 2026-09-01 00:58:18 | 45.60897 | 9.62858 | 135° | 73km/h | 31378m | -22.2m/s | -42.0°C | 2.8% | 0hPa | 2.5V | 00:00:00 | 00:00:00 | 00:00:00 | |
| IW2NTF | 2026-09-01 00:58:13 | 45.60917 | 9.62828 | 72° | 86km/h | 31602m | -24.3m/s | -41.8°C | 2.8% | 0hPa | 2.5V | 08:30:00 | 02:24:26 | 00:00:00 | |
| RDZBGO | 2026-09-01 00:58:08 | 45.60926 | 9.62853 | 53° | 77km/h | 31578m | -23.8m/s | -41.8°C | 0.8% | 0hPa | 2.6V | 00:00:00 | 00:00:00 | 00:00:00 | |
| DO3MHA-11 | 2026-09-01 00:58:06 | 45.60919 | 9.62762 | 112° | 88km/h | 31651m | -24.6m/s | -41.7°C | 2.8% | 0hPa | 2.6V | 00:00:00 | 02:24:24 | 00:00:00 | |
| IW2NTF | 2026-09-01 00:58:02 | 45.61002 | 9.62790 | 336° | 62km/h | 31858m | -23.6m/s | -41.3°C | 2.8% | 0hPa | 2.6V | 08:30:00 | 02:24:15 | 00:00:00 | |
| DB0UT-7 | 2026-09-01 00:58:01 | 45.61008 | 9.62714 | 222° | 73km/h | 31765m | -23.3m/s | -41.6°C | 2.8% | 0hPa | 2.5V | 08:28:00 | 02:24:19 | 00:00:00 | |
| OE5DRO-10 | 2026-09-01 00:57:59 | 45.61020 | 9.62756 | 279° | 69km/h | 31810m | -24.8m/s | -41.5°C | 2.8% | 0hPa | 2.5V | 00:00:00 | 00:00:00 | 00:00:00 | |
| IN3HCDX | 2026-09-01 00:57:57 | 45.61014 | 9.62777 | 309° | 62km/h | 31834m | -24.8m/s | -41.4°C | 0% | 0hPa | 2.6V | 00:00:00 | 00:00:00 | 00:00:00 | |
| NBG1-10 | 2026-09-01 00:57:55 | 45.60970 | 9.62785 | 32° | 75km/h | 31903m | -22.1m/s | -41.1°C | 2.8% | 0hPa | 2.6V | 00:00:00 | 02:24:13 | 00:00:00 | |
| DO3MHA-11 | 2026-09-01 00:57:53 | 45.60949 | 9.62740 | 79° | 53km/h | 31948m | -23.5m/s | -41.1°C | 2.8% | 0hPa | 2.6V | 00:00:00 | 02:24:11 | 00:00:00 | |
| DK5PH-5 | 2026-09-01 00:57:52 | 45.60947 | 9.62711 | 98° | 66km/h | 31972m | -24.9m/s | -41.1°C | 2.8% | 0hPa | 2.6V | 00:00:00 | 02:24:10 | 00:00:00 | |
| IW2NTF | 2026-09-01 00:57:51 | 45.61015 | 9.62671 | 250° | 60km/h | 32113m | -24.4m/s | -41.1°C | 2.8% | 0hPa | 2.6V | 08:30:00 | 02:24:04 | 00:00:00 | |
| IW2NTF | 2026-09-01 00:57:41 | 45.60950 | 9.62623 | 142° | 80km/h | 32360m | -25.3m/s | -39.7°C | 2.5% | 0hPa | 2.5V | 08:30:00 | 02:23:54 | 00:00:00 | |
| OE5DRO-10 | 2026-09-01 00:57:40 | 45.60946 | 9.62723 | 45° | 73km/h | 32259m | -25.6m/s | -40.0°C | 2.6% | 0hPa | 2.5V | 00:00:00 | 00:00:00 | 00:00:00 | |
| DB0UT-7 | 2026-09-01 00:57:31 | 45.61025 | 9.62671 | 268° | 71km/h | 32478m | -23.7m/s | -39.8°C | 2.5% | 0hPa | 2.5V | 00:00:00 | 00:00:00 | 00:00:00 | |
| RDZBGO | 2026-09-01 00:57:25 | 45.60958 | 9.62739 | 25° | 68km/h | 32594m | -24.1m/s | -40.0°C | 0.7% | 0hPa | 2.5V | 00:00:00 | 00:00:00 | 00:00:00 | |
| OE5DXL-15 | 2026-09-01 00:57:24 | 45.60939 | 9.62707 | 79° | 66km/h | 32641m | -23.9m/s | -40.0°C | 2.6% | 0hPa | 2.5V | 00:00:00 | 00:00:00 | 00:00:00 | |
| IW2NTF | 2026-09-01 00:57:23 | 45.60947 | 9.62671 | 135° | 55km/h | 32689m | -24.9m/s | -40.1°C | 2.6% | 0hPa | 2.5V | 08:30:00 | 02:23:40 | 00:00:00 | |
| OE5DRO-10 | 2026-09-01 00:57:21 | 45.60958 | 9.62662 | 164° | 73km/h | 32715m | -25.5m/s | -40.0°C | 2.6% | 0hPa | 2.5V | 00:00:00 | 00:00:00 | 00:00:00 | |
| IW2NTF | 2026-09-01 00:57:15 | 45.60875 | 9.62767 | 47° | 75km/h | 32982m | -23.2m/s | -39.9°C | 2.6% | 0hPa | 2.5V | 08:30:00 | 02:23:28 | 00:00:00 | |
| S52SK | 2026-09-01 00:57:10 | 45.60890 | 9.62784 | 28° | 82km/h | 32959m | -24.4m/s | -40.0°C | 0.8% | 0hPa | 2.5V | 00:00:00 | 00:00:00 | 00:00:00 | |
| IN3HCDX | 2026-09-01 00:57:03 | 45.60910 | 9.62662 | 179° | 68km/h | 33120m | -24.3m/s | -39.4°C | 0% | 0hPa | 2.5V | 00:00:00 | 00:00:00 | 00:00:00 | |
| OE5DRO-10 | 2026-09-01 00:57:02 | 45.60942 | 9.62676 | 219° | 69km/h | 33166m | -23.8m/s | -38.9°C | 2.5% | 0hPa | 2.5V | 08:29:00 | 00:00:00 | 00:00:00 | |
| RDZBGO | 2026-09-01 00:57:01 | 45.60942 | 9.62677 | 220° | 69km/h | 33166m | -23.8m/s | -38.9°C | 0.7% | 0hPa | 2.5V | 08:29:00 | 00:00:00 | 00:00:00 | |
| DL1ZP-14 | 2026-09-01 00:57:00 | 45.60959 | 9.62719 | 260° | 69km/h | 33210m | -21.9m/s | -38.4°C | 0.7% | -1.0hPa | 2.5V | 00:00:00 | 00:00:00 | 00:00:00 | |
| DF7PN | 2026-09-01 00:56:59 | 45.60894 | 9.62830 | 353° | 75km/h | 33344m | -23.6m/s | -38.6°C | 0.7% | -1.0hPa | 2.5V | 00:00:00 | 00:00:00 | 00:00:00 | |
| OE5DXL-15 | 2026-09-01 00:56:54 | 45.60894 | 9.62830 | 354° | 46km/h | 33344m | -23.6m/s | -38.5°C | 2.4% | 0hPa | 2.5V | 00:00:00 | 00:00:00 | 00:00:00 | |
| NBG1-10 | 2026-09-01 00:56:44 | 45.60827 | 9.62673 | 127° | 40km/h | 33561m | -20.7m/s | -38.9°C | 2.5% | 0hPa | 2.5V | 00:00:00 | 02:23:02 | 00:00:00 | |
| OE5DRO-10 | 2026-09-01 00:56:43 | 45.60836 | 9.62656 | 135° | 33km/h | 33582m | -22.2m/s | -39.1°C | 2.6% | 0hPa | 2.5V | 00:00:00 | 00:00:00 | 00:00:00 | |
| IN3HCDX | 2026-09-01 00:56:41 | 45.60848 | 9.62642 | 145° | 58km/h | 33605m | -23.7m/s | -39.2°C | 0% | 0hPa | 2.5V | 00:00:00 | 00:00:00 | 00:00:00 | |
| DK5PH-5 | 2026-09-01 00:56:40 | 45.60871 | 9.62620 | 151° | 26km/h | 33657m | -29.2m/s | -39.3°C | 2.6% | 0hPa | 2.5V | 00:00:00 | 02:22:58 | 00:00:00 | |
| IW2NTF | 2026-09-01 00:56:38 | 45.60876 | 9.62596 | 3° | 35km/h | 33857m | -33.2m/s | -38.6°C | 2.5% | 0hPa | 2.5V | 08:30:00 | 02:22:51 | 00:00:00 | |
| DO3MHA-11 | 2026-09-01 00:56:34 | 45.60884 | 9.62597 | 13° | 29km/h | 33828m | -27.5m/s | -38.9°C | 2.6% | 0hPa | 2.6V | 00:00:00 | 02:22:52 | 00:00:00 | |
| DB0UT-7 | 2026-09-01 00:56:31 | 45.60859 | 9.62600 | 343° | 47km/h | 33924m | -38.5m/s | -38.0°C | 2.3% | 0hPa | 2.6V | 00:00:00 | 00:00:00 | 00:00:00 | |
| DL1ZP-14 | 2026-09-01 00:56:29 | 45.60848 | 9.62604 | 2° | 7km/h | 33992m | -31.9m/s | -38.1°C | 0.7% | -1.0hPa | 2.6V | 00:00:00 | 00:00:00 | 00:00:00 | |
| DF7PN | 2026-09-01 00:56:28 | 45.60851 | 9.62604 | 187° | 27km/h | 34054m | -36.2m/s | -38.2°C | 0.7% | -1.0hPa | 2.6V | 00:00:00 | 00:00:00 | 00:00:00 | |
| IW2NTF | 2026-09-01 00:56:25 | 45.60892 | 9.62653 | 250° | 73km/h | 34192m | -37.6m/s | -38.1°C | 2.4% | 0hPa | 2.6V | 08:30:00 | 02:22:41 | 00:00:00 | |
| DO3MHA-11 | 2026-09-01 00:56:24 | 45.60883 | 9.62630 | 234° | 60km/h | 34156m | -35.6m/s | -38.1°C | 2.4% | 0hPa | 2.5V | 00:00:00 | 02:22:42 | 00:00:00 | |
| IN3HCDX | 2026-09-01 00:56:21 | 45.60893 | 9.62677 | 282° | 69km/h | 34231m | -40.6m/s | -38.2°C | 0% | 0hPa | 2.5V | 00:00:00 | 00:00:00 | 00:00:00 | |
| RDZBGO | 2026-09-01 00:56:19 | 45.60881 | 9.62720 | 306° | 62km/h | 34302m | -31.8m/s | -38.3°C | 0.7% | 0hPa | 2.5V | 00:00:00 | 00:00:00 | 00:00:00 | |
| IW2NTF | 2026-09-01 00:56:18 | 45.60804 | 9.62660 | 80° | 49km/h | 34515m | -32.8m/s | -38.2°C | 2.5% | 0hPa | 2.5V | 08:30:00 | 02:22:31 | 00:00:00 | |
| BAUMI2-15 | 2026-09-01 00:56:13 | 45.60804 | 9.62660 | 81° | 46km/h | 34515m | -32.8m/s | -38.1°C | 2.5% | 0hPa | 2.6V | 00:00:00 | 02:22:31 | 00:00:00 | |
| NBG1-10 | 2026-09-01 00:56:11 | 45.60806 | 9.62631 | 129° | 42km/h | 34577m | -28.7m/s | -38.3°C | 2.5% | 0hPa | 2.6V | 00:00:00 | 02:22:29 | 00:00:00 | |
| DO3MHA-11 | 2026-09-01 00:56:10 | 45.60813 | 9.62627 | 182° | 40km/h | 34610m | -36.6m/s | -38.1°C | 2.5% | 0hPa | 2.6V | 00:00:00 | 02:22:28 | 08:30:00 | |
| IW2NTF | 2026-09-01 00:56:08 | 45.60820 | 9.62681 | 319° | 40km/h | 35052m | -57.7m/s | -37.2°C | 2.2% | 0hPa | 2.6V | 08:30:00 | 02:22:21 | 00:00:00 | |
| BAUMI2-15 | 2026-09-01 00:56:08 | 45.60836 | 9.62638 | 208° | 31km/h | 34708m | -60.2m/s | -37.5°C | 2.3% | 0hPa | 2.5V | 00:00:00 | 02:22:26 | 00:00:00 | |
| OE5DRO-10 | 2026-09-01 00:56:06 | 45.60834 | 9.62663 | 319° | 38km/h | 34922m | -72.0m/s | -37.0°C | 2.1% | 0hPa | 2.5V | 00:00:00 | 00:00:00 | 00:00:00 | |
| DL1ZP-14 | 2026-09-01 00:55:58 | 45.60785 | 9.62812 | 247° | 68km/h | 35224m | 4.4m/s | -37.4°C | 0.6% | -1.0hPa | 2.6V | 00:00:00 | 00:00:00 | 00:00:00 | |
| IW2NTF | 2026-09-01 00:55:57 | 45.60800 | 9.62848 | 231° | 40km/h | 35220m | 1.1m/s | -37.5°C | 2.2% | 0hPa | 2.5V | 08:30:00 | 02:22:10 | 00:00:00 | |
| DF7PN | 2026-09-01 00:55:57 | 45.60785 | 9.62812 | 247° | 68km/h | 35224m | 4.4m/s | -37.4°C | 0.6% | -1.0hPa | 2.6V | 00:00:00 | 00:00:00 | 00:00:00 | |
| DO3MHA-11 | 2026-09-01 00:55:47 | 45.60788 | 9.62850 | 356° | 44km/h | 35194m | 0.2m/s | -37.8°C | 2.3% | 0hPa | 2.6V | 00:00:00 | 02:22:05 | 00:00:00 | |
| IW2NTF | 2026-09-01 00:55:46 | 45.60785 | 9.62949 | 233° | 60km/h | 35165m | 0.4m/s | -38.1°C | 2.3% | 0hPa | 2.6V | 08:30:00 | 02:21:59 | 00:00:00 | |
| OE5DRO-10 | 2026-09-01 00:55:46 | 45.60779 | 9.62855 | 324° | 47km/h | 35193m | 1.5m/s | -37.9°C | 2.3% | 0hPa | 2.5V | 00:00:00 | 00:00:00 | 00:00:00 | |
| NBG1-10 | 2026-09-01 00:55:38 | 45.60800 | 9.62972 | 60° | 44km/h | 35153m | 9.1m/s | -38.1°C | 2.3% | 0hPa | 2.5V | 00:00:00 | 02:21:56 | 08:30:00 | |
| DO3MHA-11 | 2026-09-01 00:55:37 | 45.60797 | 9.62969 | 30° | 46km/h | 35144m | 8.1m/s | -38.1°C | 2.3% | 0hPa | 2.5V | 00:00:00 | 02:21:55 | 00:00:00 | |
| IW2NTF | 2026-09-01 00:55:35 | 45.60780 | 9.63038 | 221° | 66km/h | 35110m | 4.4m/s | -38.5°C | 2.3% | 0hPa | 2.5V | 08:30:00 | 02:21:48 | 00:00:00 | |
| DB0UT-7 | 2026-09-01 00:55:31 | 45.60770 | 9.63020 | 239° | 42km/h | 35116m | 7.4m/s | -38.4°C | 2.3% | 0hPa | 2.6V | 00:00:00 | 00:00:00 | 00:00:00 | |
| DL1ZP-14 | 2026-09-01 00:55:27 | 45.60810 | 9.63055 | 158° | 18km/h | 35100m | 5.5m/s | -38.6°C | 0.7% | -1.0hPa | 2.6V | 00:00:00 | 00:00:00 | 00:00:00 | |
| DF7PN | 2026-09-01 00:55:26 | 45.60790 | 9.63053 | 325° | 42km/h | 35077m | 3.3m/s | -38.8°C | 0.7% | -1.0hPa | 2.6V | 00:00:00 | 00:00:00 | 00:00:00 | |
| IW2NTF | 2026-09-01 00:55:24 | 45.60792 | 9.63112 | 218° | 57km/h | 35056m | 5.9m/s | -39°C | 2.4% | 0hPa | 2.6V | 08:30:00 | 02:21:37 | 00:00:00 | |
| DO3MHA-11 | 2026-09-01 00:55:17 | 45.60816 | 9.63122 | 169° | 38km/h | 35049m | 2.9m/s | -39.0°C | 2.4% | 0hPa | 2.5V | 00:00:00 | 02:21:35 | 00:00:00 | |
| IW2NTF | 2026-09-01 00:55:13 | 45.60809 | 9.63134 | 220° | 55km/h | 34997m | 7.2m/s | -39.1°C | 2.4% | 0hPa | 2.5V | 08:30:00 | 02:21:26 | 00:00:00 | |
| OE5DRO-10 | 2026-09-01 00:55:08 | 45.60809 | 9.63133 | 221° | 40km/h | 34998m | 7.1m/s | -39.0°C | 2.4% | 0hPa | 2.5V | 00:00:00 | 00:00:00 | 00:00:00 | |
| DO3MHA-11 | 2026-09-01 00:55:07 | 45.60821 | 9.63143 | 201° | 37km/h | 34992m | 3.6m/s | -39.0°C | 2.5% | 0hPa | 2.6V | 00:00:00 | 02:21:25 | 00:00:00 | |
| NBG1-10 | 2026-09-01 00:55:05 | 45.60844 | 9.63145 | 157° | 35km/h | 34987m | 3.3m/s | -39.0°C | 2.4% | 0hPa | 2.6V | 00:00:00 | 02:21:23 | 00:00:00 | |
| IW2NTF | 2026-09-01 00:55:03 | 45.60814 | 9.63127 | 263° | 24km/h | 34950m | 6.7m/s | -39.1°C | 2.4% | 0hPa | 2.6V | 08:30:00 | 02:21:16 | 00:00:00 | |
| DL1ZP-14 | 2026-09-01 00:54:56 | 45.60827 | 9.63144 | 203° | 53km/h | 34933m | 7.8m/s | -39.1°C | 0.7% | -1.0hPa | 2.5V | 00:00:00 | 00:00:00 | 00:00:00 | |
| IN3HCDX | 2026-09-01 00:54:54 | 45.60840 | 9.63149 | 189° | 57km/h | 34928m | 2.7m/s | -39.1°C | 0% | 0hPa | 2.5V | 00:00:00 | 00:00:00 | 00:00:00 | |
| IW2NTF | 2026-09-01 00:54:52 | 45.60822 | 9.63117 | 332° | 24km/h | 34891m | 1.5m/s | -39.2°C | 2.5% | 0hPa | 2.5V | 08:30:00 | 02:21:05 | 00:00:00 | |
| OE5DRO-10 | 2026-09-01 00:54:49 | 45.60842 | 9.63116 | 12° | 37km/h | 34894m | 4.1m/s | -39.1°C | 2.4% | 0hPa | 2.6V | 00:00:00 | 00:00:00 | 00:00:00 | |
| DO3MHA-11 | 2026-09-01 00:54:47 | 45.60821 | 9.63117 | 333° | 37km/h | 34891m | 1.4m/s | -39.1°C | 2.5% | 0hPa | 2.6V | 00:00:00 | 02:21:05 | 00:00:00 | |
| IW2NTF | 2026-09-01 00:54:42 | 45.60846 | 9.63096 | 14° | 58km/h | 34832m | 4.8m/s | -39.4°C | 2.5% | 0hPa | 2.6V | 08:30:00 | 02:20:55 | 00:00:00 | |
| DO3MHA-11 | 2026-09-01 00:54:37 | 45.60846 | 9.63096 | 15° | 35km/h | 34832m | 4.7m/s | -39.3°C | 2.5% | 0hPa | 2.6V | 00:00:00 | 02:20:55 | 08:30:00 | |
| RDZBGO | 2026-09-01 00:54:36 | 45.60846 | 9.63096 | 16° | 58km/h | 34832m | 4.8m/s | -39.4°C | 0.7% | 0hPa | 2.5V | 00:00:00 | 00:00:00 | 00:00:00 | |
| IW2NTF | 2026-09-01 00:54:32 | 45.60864 | 9.63080 | 52° | 16km/h | 34785m | 8m/s | -39.9°C | 2.6% | 0hPa | 2.5V | 08:30:00 | 02:20:45 | 00:00:00 | |
| DB0UT-7 | 2026-09-01 00:54:31 | 45.60837 | 9.63097 | 176° | 26km/h | 34800m | 6.6m/s | -39.7°C | 2.5% | 0hPa | 2.6V | 00:00:00 | 00:00:00 | 00:00:00 | |
| OE5DRO-10 | 2026-09-01 00:54:30 | 45.60849 | 9.63094 | 167° | 29km/h | 34796m | 1.9m/s | -39.7°C | 2.5% | 0hPa | 2.6V | 00:00:00 | 00:00:00 | 00:00:00 | |
| NBG1-10 | 2026-09-01 00:54:29 | 45.60859 | 9.63090 | 154° | 24km/h | 34794m | 1.2m/s | -39.8°C | 2.5% | 0hPa | 2.6V | 00:00:00 | 02:20:47 | 00:00:00 | |
| DO3MHA-11 | 2026-09-01 00:54:27 | 45.60864 | 9.63080 | 53° | 27km/h | 34785m | 8.0m/s | -39.8°C | 2.6% | 0hPa | 2.6V | 00:00:00 | 02:20:45 | 00:00:00 | |
| DL1ZP-14 | 2026-09-01 00:54:25 | 45.60850 | 9.63073 | 6° | 44km/h | 34768m | 7.0m/s | -39.9°C | 0.7% | -1.0hPa | 2.6V | 00:00:00 | 00:00:00 | 00:00:00 | |
| DF7PN | 2026-09-01 00:54:23 | 45.60829 | 9.63071 | 3° | 27km/h | 34760m | 2.2m/s | -39.9°C | 0.7% | -1.0hPa | 2.6V | 00:00:00 | 00:00:00 | 00:00:00 | |
| IW2NTF | 2026-09-01 00:54:22 | 45.60849 | 9.63055 | 148° | 20km/h | 34729m | 3m/s | -39.7°C | 2.6% | 0hPa | 2.6V | 08:30:00 | 02:20:35 | 00:00:00 | |
| DO3MHA-11 | 2026-09-01 00:54:17 | 45.60848 | 9.63055 | 149° | 22km/h | 34730m | 3.0m/s | -39.7°C | 2.6% | 0hPa | 2.5V | 00:00:00 | 02:20:35 | 00:00:00 | |
| RDZBGO | 2026-09-01 00:54:15 | 45.60851 | 9.63052 | 90° | 7km/h | 34725m | 5.4m/s | -39.7°C | 0.8% | 0hPa | 2.5V | 00:00:00 | 00:00:00 | 00:00:00 | |
| IW2NTF | 2026-09-01 00:54:12 | 45.60823 | 9.63066 | 184° | 24km/h | 34671m | 4.5m/s | -39.4°C | 2.6% | 0hPa | 2.5V | 08:30:00 | 02:20:25 | 00:00:00 | |
| OE5DRO-10 | 2026-09-01 00:54:11 | 45.60817 | 9.63057 | 335° | 18km/h | 34696m | 4.1m/s | -39.5°C | 2.6% | 0hPa | 2.6V | 00:00:00 | 00:00:00 | 08:30:00 | |
| IN3HCDX | 2026-09-01 00:54:10 | 45.60817 | 9.63057 | 336° | 24km/h | 34696m | 4.2m/s | 0°C | 0% | 0hPa | 2.5V | 00:00:00 | 00:00:00 | 00:00:00 | |
| DO3MHA-11 | 2026-09-01 00:54:08 | 45.60823 | 9.63066 | 185° | 18km/h | 34672m | 4.4m/s | -39.3°C | 2.6% | 0hPa | 2.5V | 00:00:00 | 02:20:25 | 00:00:00 | |
| IW2NTF | 2026-09-01 00:54:02 | 45.60808 | 9.63081 | 205° | 26km/h | 34616m | 6.3m/s | -39.1°C | 2.5% | 0hPa | 2.6V | 08:30:00 | 02:20:15 | 00:00:00 | |
| DL1ZP-14 | 2026-09-01 00:53:54 | 45.60823 | 9.63096 | 242° | 15km/h | 34602m | 5.7m/s | -39.0°C | 0.7% | -1.0hPa | 2.5V | 00:00:00 | 00:00:00 | 00:00:00 | |
| IW2NTF | 2026-09-01 00:53:52 | 45.60804 | 9.63120 | 210° | 15km/h | 34561m | 7.1m/s | -38.8°C | 2.4% | 0hPa | 2.5V | 08:30:00 | 02:20:05 | 00:00:00 | |
| OE5DRO-10 | 2026-09-01 00:53:52 | 45.60820 | 9.63105 | 329° | 24km/h | 34589m | 6.5m/s | -38.9°C | 2.5% | 0hPa | 2.5V | 00:00:00 | 00:00:00 | 00:00:00 | |
| IN3HCDX | 2026-09-01 00:53:49 | 45.60808 | 9.63112 | 342° | 24km/h | 34578m | 4.1m/s | 0°C | 0% | 0hPa | 2.5V | 00:00:00 | 00:00:00 | 00:00:00 | |
| DO3MHA-11 | 2026-09-01 00:53:48 | 45.60803 | 9.63120 | 211° | 27km/h | 34562m | 7.1m/s | -38.7°C | 2.4% | 0hPa | 2.5V | 00:00:00 | 02:20:05 | 00:00:00 | |
| IW2NTF | 2026-09-01 00:53:42 | 45.60796 | 9.63184 | 274° | 18km/h | 34506m | 6.4m/s | -38.7°C | 2.4% | 0hPa | 2.5V | 08:30:00 | 02:19:55 | 00:00:00 | |
| DO3MHA-11 | 2026-09-01 00:53:37 | 45.60795 | 9.63184 | 275° | 27km/h | 34507m | 6.4m/s | -38.6°C | 2.4% | 0hPa | 2.5V | 00:00:00 | 02:19:55 | 00:00:00 | |
| RDZBGO | 2026-09-01 00:53:36 | 45.60797 | 9.63191 | 236° | 22km/h | 34500m | 7.3m/s | -38.7°C | 0.7% | 0hPa | 2.6V | 00:00:00 | 00:00:00 | 00:00:00 | |
| IW2NTF | 2026-09-01 00:53:33 | 45.60801 | 9.63264 | 281° | 29km/h | 34451m | 5.1m/s | -39°C | 2.4% | 0hPa | 2.6V | 08:30:00 | 02:19:45 | 00:00:00 | |
| DB0UT-7 | 2026-09-01 00:53:31 | 45.60817 | 9.63227 | 285° | 27km/h | 34473m | 6.9m/s | -38.8°C | 2.4% | 0hPa | 2.5V | 00:00:00 | 00:00:00 | 08:30:00 | |
| DO3MHA-11 | 2026-09-01 00:53:27 | 45.60801 | 9.63264 | 282° | 27km/h | 34451m | 5.1m/s | -39.0°C | 2.4% | 0hPa | 2.5V | 00:00:00 | 02:19:45 | 00:00:00 | |
| IN3HCDX | 2026-09-01 00:53:26 | 45.60801 | 9.63264 | 283° | 29km/h | 34451m | 5.1m/s | 0°C | 0% | 0hPa | 2.5V | 00:00:00 | 00:00:00 | 00:00:00 | |
| IW2NTF | 2026-09-01 00:53:23 | 45.60813 | 9.63337 | 299° | 33km/h | 34395m | 4m/s | -39.1°C | 2.5% | 0hPa | 2.5V | 08:30:00 | 02:19:35 | 00:00:00 | |
| DF7PN | 2026-09-01 00:53:21 | 45.60827 | 9.63310 | 248° | 13km/h | 34418m | 6.1m/s | -39.1°C | 0.7% | -1.0hPa | 2.6V | 00:00:00 | 00:00:00 | 00:00:00 | |
| DO3MHA-11 | 2026-09-01 00:53:17 | 45.60813 | 9.63337 | 300° | 26km/h | 34395m | 4.0m/s | -39.0°C | 2.5% | 0hPa | 2.6V | 00:00:00 | 02:19:35 | 00:00:00 | |
| RDZBGO | 2026-09-01 00:53:16 | 45.60810 | 9.63348 | 282° | 31km/h | 34390m | 5.8m/s | -39.1°C | 0.7% | 0hPa | 2.6V | 00:00:00 | 00:00:00 | 00:00:00 | |
| OE5DRO-10 | 2026-09-01 00:53:14 | 45.60813 | 9.63370 | 238° | 22km/h | 34377m | 6.2m/s | -39.1°C | 2.5% | 0hPa | 2.6V | 00:00:00 | 00:00:00 | 00:00:00 | |
| IW2NTF | 2026-09-01 00:53:13 | 45.60820 | 9.63408 | 312° | 22km/h | 34340m | 4.3m/s | -39.1°C | 2.5% | 0hPa | 2.6V | 08:30:00 | 02:19:25 | 00:00:00 | |
| DO3MHA-11 | 2026-09-01 00:53:07 | 45.60819 | 9.63408 | 313° | 24km/h | 34340m | 4.2m/s | -39.0°C | 2.5% | 0hPa | 2.6V | 00:00:00 | 02:19:25 | 08:30:00 | |
| IN3HCDX | 2026-09-01 00:53:05 | 45.60817 | 9.63414 | 291° | 22km/h | 34335m | 5.8m/s | 0°C | 0% | 0hPa | 2.5V | 00:00:00 | 00:00:00 | 00:00:00 | |
| IW2NTF | 2026-09-01 00:53:02 | 45.60818 | 9.63476 | 349° | 20km/h | 34284m | 3.4m/s | -39°C | 2.4% | 0hPa | 2.5V | 08:30:00 | 02:19:15 | 00:00:00 | |
| DB0UT-7 | 2026-09-01 00:53:01 | 45.60829 | 9.63463 | 250° | 20km/h | 34308m | 4.3m/s | -39.0°C | 2.5% | 0hPa | 2.6V | 00:00:00 | 02:19:19 | 00:00:00 | |
| DO3MHA-11 | 2026-09-01 00:52:57 | 45.60818 | 9.63476 | 350° | 24km/h | 34285m | 3.3m/s | -38.9°C | 2.4% | 0hPa | 2.6V | 00:00:00 | 02:19:15 | 00:00:00 | |
| OE5DRO-10 | 2026-09-01 00:52:55 | 45.60812 | 9.63482 | 274° | 22km/h | 34276m | 5.9m/s | -38.9°C | 2.5% | 0hPa | 2.6V | 00:00:00 | 00:00:00 | 00:00:00 | |
| RDZBGO | 2026-09-01 00:52:54 | 45.60812 | 9.63482 | 275° | 15km/h | 34276m | 6.0m/s | -39.0°C | 0.7% | 0hPa | 2.6V | 00:00:00 | 00:00:00 | 00:00:00 | |
| IW2NTF | 2026-09-01 00:52:53 | 45.60834 | 9.63542 | 329° | 13km/h | 34229m | 5m/s | -39.1°C | 2.5% | 0hPa | 2.6V | 08:30:00 | 02:19:05 | 00:00:00 | |
| DL1ZP-14 | 2026-09-01 00:52:52 | 45.60824 | 9.63508 | 227° | 38km/h | 34256m | 5.0m/s | -39.0°C | 0.7% | -1.0hPa | 2.6V | 00:00:00 | 00:00:00 | 00:00:00 | |
| DF7PN | 2026-09-01 00:52:50 | 45.60835 | 9.63527 | 238° | 26km/h | 34247m | 5.2m/s | -39.1°C | 0.7% | -1.0hPa | 2.5V | 00:00:00 | 00:00:00 | 00:00:00 | |
| NBG1-10 | 2026-09-01 00:52:49 | 45.60837 | 9.63534 | 262° | 18km/h | 34242m | 5.9m/s | -39.1°C | 2.5% | 0hPa | 2.5V | 00:00:00 | 02:19:07 | 00:00:00 | |
| DO3MHA-11 | 2026-09-01 00:52:47 | 45.60834 | 9.63542 | 330° | 20km/h | 34230m | 4.9m/s | -39.1°C | 2.5% | 0hPa | 2.5V | 00:00:00 | 02:19:05 | 00:00:00 | |
| IW2NTF | 2026-09-01 00:52:42 | 45.60855 | 9.63598 | 293° | 7km/h | 34174m | 5.6m/s | -39.1°C | 2.5% | 0hPa | 2.5V | 08:30:00 | 02:18:55 | 00:00:00 | |
| DO3MHA-11 | 2026-09-01 00:52:37 | 45.60855 | 9.63598 | 294° | 18km/h | 34175m | 5.6m/s | -39.0°C | 2.5% | 0hPa | 2.5V | 00:00:00 | 02:18:55 | 00:00:00 | |
| OE5DRO-10 | 2026-09-01 00:52:36 | 45.60855 | 9.63600 | 286° | 18km/h | 34170m | 4.4m/s | -39.0°C | 2.5% | 0hPa | 2.5V | 00:00:00 | 00:00:00 | 00:00:00 | |
| RDZBGO | 2026-09-01 00:52:34 | 45.60855 | 9.63602 | 236° | 9km/h | 34165m | 4.6m/s | -39.1°C | 0.7% | 0hPa | 2.5V | 00:00:00 | 00:00:00 | 00:00:00 | |
| IW2NTF | 2026-09-01 00:52:32 | 45.60885 | 9.63638 | 337° | 5km/h | 34119m | 5.4m/s | -39°C | 2.4% | 0hPa | 2.5V | 08:30:00 | 02:18:45 | 00:00:00 | |
| DB0UT-7 | 2026-09-01 00:52:31 | 45.60875 | 9.63623 | 215° | 15km/h | 34142m | 4.0m/s | -39.0°C | 2.5% | 0hPa | 2.6V | 00:00:00 | 00:00:00 | 00:00:00 | |
| DO3MHA-11 | 2026-09-01 00:52:27 | 45.60885 | 9.63638 | 338° | 16km/h | 34119m | 5.4m/s | -39.0°C | 2.4% | 0hPa | 2.6V | 00:00:00 | 02:18:45 | 00:00:00 | |
| IW2NTF | 2026-09-01 00:52:22 | 45.60918 | 9.63653 | 41° | 11km/h | 34065m | 6.7m/s | -38.9°C | 2.4% | 0hPa | 2.6V | 08:30:00 | 02:18:35 | 00:00:00 | |
| DL1ZP-14 | 2026-09-01 00:52:21 | 45.60903 | 9.63653 | 195° | 31km/h | 34087m | 3.9m/s | -38.9°C | 0.7% | -1.0hPa | 2.5V | 00:00:00 | 00:00:00 | 00:00:00 | |
| DF7PN | 2026-09-01 00:52:19 | 45.60916 | 9.63656 | 177° | 15km/h | 34079m | 5.8m/s | -38.9°C | 0.7% | -1.0hPa | 2.5V | 00:00:00 | 00:00:00 | 00:00:00 | |
| DO3MHA-11 | 2026-09-01 00:52:17 | 45.60918 | 9.63653 | 42° | 16km/h | 34065m | 6.6m/s | -38.9°C | 2.4% | 0hPa | 2.5V | 00:00:00 | 02:18:35 | 00:00:00 | |
| IN3HCDX | 2026-09-01 00:52:16 | 45.60915 | 9.63651 | 23° | 13km/h | 34060m | 4.7m/s | 0°C | 0% | 0hPa | 2.5V | 00:00:00 | 00:00:00 | 00:00:00 | |
| RDZBGO | 2026-09-01 00:52:13 | 45.60912 | 9.63650 | 271° | 4km/h | 34050m | 5.5m/s | -38.9°C | 0.7% | 0hPa | 2.5V | 00:00:00 | 00:00:00 | 00:00:00 | |
| IW2NTF | 2026-09-01 00:52:11 | 45.60941 | 9.63649 | 79° | 11km/h | 34006m | 4.5m/s | -39.4°C | 2.4% | 0hPa | 2.5V | 08:30:00 | 02:18:24 | 00:00:00 | |
| DO3MHA-11 | 2026-09-01 00:52:07 | 45.60940 | 9.63653 | 101° | 13km/h | 34011m | 5.4m/s | -39.3°C | 2.4% | 0hPa | 2.5V | 00:00:00 | 02:18:25 | 00:00:00 | |
| DK5PH-5 | 2026-09-01 00:52:02 | 45.60946 | 9.63650 | 216° | 18km/h | 33984m | 6.0m/s | -39.6°C | 2.5% | 0hPa | 2.5V | 00:00:00 | 02:18:20 | 08:30:00 | |
| IW2NTF | 2026-09-01 00:52:01 | 45.60956 | 9.63652 | 58° | 18km/h | 33951m | 4.5m/s | -40°C | 2.6% | 0hPa | 2.5V | 08:30:00 | 02:18:14 | 00:00:00 | |
| DB0UT-7 | 2026-09-01 00:52:01 | 45.60950 | 9.63654 | 215° | 22km/h | 33979m | 4.7m/s | -39.7°C | 2.5% | 0hPa | 2.5V | 00:00:00 | 02:18:19 | 00:00:00 | |
| OE5DRO-10 | 2026-09-01 00:51:58 | 45.60959 | 9.63660 | 101° | 18km/h | 33964m | 6.6m/s | -39.8°C | 2.5% | 0hPa | 2.6V | 00:00:00 | 00:00:00 | 00:00:00 | |
| DO3MHA-11 | 2026-09-01 00:51:57 | 45.60958 | 9.63657 | 61° | 15km/h | 33957m | 6.4m/s | -39.9°C | 2.5% | 0hPa | 2.6V | 00:00:00 | 02:18:15 | 00:00:00 | |
| IW2NTF | 2026-09-01 00:51:52 | 45.60968 | 9.63649 | 34° | 31km/h | 33899m | 8.2m/s | -40.1°C | 2.6% | 0hPa | 2.6V | 08:30:00 | 02:18:04 | 00:00:00 | |
| DL1ZP-14 | 2026-09-01 00:51:51 | 45.60971 | 9.63650 | 213° | 22km/h | 33921m | 2.5m/s | -40.1°C | 0.7% | -1.0hPa | 2.5V | 00:00:00 | 00:00:00 | 00:00:00 | |
| DF7PN | 2026-09-01 00:51:48 | 45.60975 | 9.63655 | 328° | 2km/h | 33914m | 5.7m/s | -40.1°C | 0.7% | -1.0hPa | 2.6V | 00:00:00 | 00:00:00 | 00:00:00 | |
| DO3MHA-11 | 2026-09-01 00:51:47 | 45.60973 | 9.63654 | 28° | 27km/h | 33908m | 8.4m/s | -40.0°C | 2.6% | 0hPa | 2.6V | 00:00:00 | 02:18:05 | 00:00:00 | |
| IN3HCDX | 2026-09-01 00:51:42 | 45.60950 | 9.63627 | 54° | 18km/h | 33887m | 2.6m/s | 0°C | 0% | 0hPa | 2.6V | 00:00:00 | 00:00:00 | 00:00:00 | |
| OE5DRO-10 | 2026-09-01 00:51:39 | 45.60963 | 9.63631 | 210° | 33km/h | 33862m | 1.8m/s | -40.1°C | 2.6% | 0hPa | 2.6V | 00:00:00 | 00:00:00 | 00:00:00 | |
| DO3MHA-11 | 2026-09-01 00:51:37 | 45.60971 | 9.63636 | 167° | 27km/h | 33859m | 3.7m/s | -40.0°C | 2.6% | 0hPa | 2.6V | 00:00:00 | 02:17:55 | 08:30:00 | |
| NBG1-10 | 2026-09-01 00:51:32 | 45.60935 | 9.63593 | 40° | 35km/h | 33828m | 0.7m/s | -40.0°C | 2.6% | 0hPa | 2.6V | 00:00:00 | 02:17:50 | 00:00:00 | |
| DB0UT-7 | 2026-09-01 00:51:31 | 45.60929 | 9.63586 | 42° | 31km/h | 33826m | 4.0m/s | -40.0°C | 2.5% | 0hPa | 2.6V | 00:00:00 | 00:00:00 | 00:00:00 | |
| DO3MHA-11 | 2026-09-01 00:51:26 | 45.60950 | 9.63598 | 193° | 29km/h | 33796m | 1.5m/s | -40.0°C | 2.6% | 0hPa | 2.6V | 00:00:00 | 02:17:44 | 00:00:00 | |
| OE5DRO-10 | 2026-09-01 00:51:20 | 45.60927 | 9.63556 | 19° | 33km/h | 33762m | 2.8m/s | -40.2°C | 2.6% | 0hPa | 2.6V | 00:00:00 | 00:00:00 | 08:30:00 | |
| DL1ZP-14 | 2026-09-01 00:51:19 | 45.60914 | 9.63557 | 311° | 16km/h | 33753m | 6.9m/s | -40.3°C | 0.8% | -1.0hPa | 2.6V | 00:00:00 | 00:00:00 | 00:00:00 | |
| DF7PN | 2026-09-01 00:51:17 | 45.60913 | 9.63563 | 254° | 20km/h | 33746m | 7.0m/s | -40.3°C | 0.8% | -1.0hPa | 2.6V | 00:00:00 | 00:00:00 | 00:00:00 | |
| DO3MHA-11 | 2026-09-01 00:51:16 | 45.60917 | 9.63569 | 220° | 35km/h | 33740m | 5.2m/s | -40.2°C | 2.7% | 0hPa | 2.6V | 00:00:00 | 02:17:34 | 00:00:00 | |
| RDZBGO | 2026-09-01 00:51:10 | 45.60936 | 9.63537 | 71° | 46km/h | 33712m | 4.6m/s | -40.1°C | 0.8% | 0hPa | 2.6V | 00:00:00 | 00:00:00 | 00:00:00 | |
| DO3MHA-11 | 2026-09-01 00:51:06 | 45.60901 | 9.63536 | 274° | 46km/h | 33683m | 6.9m/s | -39.8°C | 2.6% | 0hPa | 2.6V | 00:00:00 | 02:17:24 | 00:00:00 | |
| DL1ZP-14 | 2026-09-01 00:50:48 | 45.60893 | 9.63496 | 7° | 47km/h | 33572m | 7.7m/s | -39.2°C | 0.7% | -1.0hPa | 2.6V | 00:00:00 | 00:00:00 | 00:00:00 | |
| DF7PN | 2026-09-01 00:50:46 | 45.60881 | 9.63498 | 343° | 47km/h | 33565m | 5.7m/s | -39.2°C | 0.7% | -1.0hPa | 2.6V | 00:00:00 | 00:00:00 | 00:00:00 | |
| DO3MHA-11 | 2026-09-01 00:50:45 | 45.60871 | 9.63505 | 319° | 40km/h | 33561m | 3.5m/s | -39.1°C | 2.5% | 0hPa | 2.6V | 00:00:00 | 02:17:03 | 00:00:00 | |
| IW2NTF | 2026-09-01 00:50:43 | 45.60875 | 9.63531 | 166° | 35km/h | 33536m | 9.3m/s | -39.2°C | 2.5% | 0hPa | 2.6V | 08:30:00 | 02:16:59 | 00:00:00 | |
| OE5DRO-10 | 2026-09-01 00:50:42 | 45.60868 | 9.63530 | 205° | 29km/h | 33545m | 8.8m/s | -39.1°C | 2.5% | 0hPa | 2.6V | 00:00:00 | 00:00:00 | 00:00:00 | |
| IW2NTF | 2026-09-01 00:50:33 | 45.60846 | 9.63514 | 113° | 31km/h | 33459m | 6.9m/s | -39.2°C | 2.6% | 0hPa | 2.6V | 08:30:00 | 02:16:46 | 00:00:00 | |
| DK5PH-5 | 2026-09-01 00:50:32 | 45.60856 | 9.63520 | 326° | 26km/h | 33485m | 2.7m/s | -39.2°C | 2.5% | 0hPa | 2.5V | 00:00:00 | 02:16:50 | 00:00:00 | |
| DB0UT-7 | 2026-09-01 00:50:31 | 45.60849 | 9.63525 | 336° | 33km/h | 33482m | 4.8m/s | -39.2°C | 2.5% | 0hPa | 2.5V | 00:00:00 | 00:00:00 | 00:00:00 | |
| RDZBGO | 2026-09-01 00:50:30 | 45.60849 | 9.63525 | 336° | 24km/h | 33482m | 4.8m/s | -39.2°C | 0.7% | 0hPa | 2.6V | 00:00:00 | 00:00:00 | 00:00:00 | |
| NBG1-10 | 2026-09-01 00:50:26 | 45.60853 | 9.63496 | 122° | 38km/h | 33451m | 2.9m/s | -39.1°C | 2.6% | 0hPa | 2.6V | 00:00:00 | 02:16:44 | 08:30:00 | |
| OE5DRO-10 | 2026-09-01 00:50:23 | 45.60850 | 9.63498 | 318° | 38km/h | 33432m | 8.6m/s | -39.0°C | 2.5% | 0hPa | 2.5V | 00:00:00 | 00:00:00 | 00:00:00 | |
| IW2NTF | 2026-09-01 00:50:22 | 45.60795 | 9.63505 | 73° | 35km/h | 33397m | 7.4m/s | -38.8°C | 2.5% | 0hPa | 2.5V | 08:30:00 | 02:16:35 | 00:00:00 | |
| DL1ZP-14 | 2026-09-01 00:50:18 | 45.60795 | 9.63494 | 107° | 29km/h | 33391m | 5.2m/s | -38.8°C | 0.7% | -1.0hPa | 2.6V | 00:00:00 | 00:00:00 | 00:00:00 | |
| DF7PN | 2026-09-01 00:50:15 | 45.60804 | 9.63484 | 192° | 20km/h | 33381m | 5.6m/s | -38.7°C | 0% | -1.0hPa | 2.5V | 00:00:00 | 00:00:00 | 00:00:00 | |
| IN3HCDX | 2026-09-01 00:50:12 | 45.60807 | 9.63489 | 246° | 26km/h | 33375m | 7.1m/s | 0°C | 0% | 0hPa | 2.5V | 00:00:00 | 00:00:00 | 00:00:00 | |
| IW2NTF | 2026-09-01 00:50:10 | 45.60756 | 9.63493 | 118° | 35km/h | 33329m | 3.4m/s | -38.3°C | 2.4% | 0hPa | 2.5V | 08:30:00 | 02:16:23 | 00:00:00 | |
| OE5DRO-10 | 2026-09-01 00:50:04 | 45.60761 | 9.63485 | 162° | 40km/h | 33325m | 4.3m/s | -38.3°C | 2.4% | 0hPa | 2.5V | 00:00:00 | 00:00:00 | 00:00:00 | |
| DB0UT-7 | 2026-09-01 00:50:01 | 45.60774 | 9.63512 | 278° | 31km/h | 33303m | 7.3m/s | -38.0°C | 2.3% | 0hPa | 2.5V | 00:00:00 | 02:16:19 | 00:00:00 | |
| IW2NTF | 2026-09-01 00:49:53 | 45.60739 | 9.63504 | 153° | 31km/h | 33257m | 4m/s | -38.2°C | 2.3% | 0hPa | 2.5V | 08:30:00 | 02:16:11 | 00:00:00 | |
| DL1ZP-14 | 2026-09-01 00:49:46 | 45.60729 | 9.63566 | 351° | 29km/h | 33214m | 5.5m/s | -39.0°C | 0.7% | -1.0hPa | 2.6V | 00:00:00 | 00:00:00 | 00:00:00 | |
| DF7PN | 2026-09-01 00:49:44 | 45.60719 | 9.63560 | 67° | 18km/h | 33202m | 6.6m/s | -39.2°C | 0.7% | -1.0hPa | 2.5V | 00:00:00 | 00:00:00 | 00:00:00 | |
| IW2NTF | 2026-09-01 00:49:43 | 45.60728 | 9.63544 | 172° | 26km/h | 33182m | 6m/s | -39.4°C | 2.5% | 0hPa | 2.5V | 08:30:00 | 02:15:59 | 00:00:00 | |
| OE5DXL-15 | 2026-09-01 00:49:43 | 45.60719 | 9.63553 | 111° | 27km/h | 33195m | 6.7m/s | -39.2°C | 2.4% | 0hPa | 2.5V | 00:00:00 | 00:00:00 | 00:00:00 | |
| DO3MHA-11 | 2026-09-01 00:49:36 | 45.60740 | 9.63560 | 344° | 22km/h | 33152m | 7.5m/s | -39.6°C | 2.5% | 0hPa | 2.5V | 00:00:00 | 02:15:54 | 00:00:00 | |
| IW2NTF | 2026-09-01 00:49:33 | 45.60729 | 9.63557 | 189° | 15km/h | 33123m | 7.1m/s | -39.7°C | 2.5% | 0hPa | 2.5V | 08:30:00 | 02:15:49 | 00:00:00 | |
| DB0UT-7 | 2026-09-01 00:49:31 | 45.60729 | 9.63557 | 190° | 24km/h | 33123m | 7.1m/s | -39.6°C | 2.5% | 0hPa | 2.6V | 00:00:00 | 00:00:00 | 00:00:00 | |
| RDZBGO | 2026-09-01 00:49:28 | 45.60740 | 9.63558 | 181° | 27km/h | 33111m | 4.5m/s | -39.7°C | 0% | 0hPa | 2.6V | 00:00:00 | 00:00:00 | 00:00:00 | |
| OE5DRO-10 | 2026-09-01 00:49:26 | 45.60753 | 9.63551 | 88° | 22km/h | 33095m | 6.3m/s | -39.6°C | 2.5% | 0hPa | 2.6V | 00:00:00 | 00:00:00 | 00:00:00 | |
| IW2NTF | 2026-09-01 00:49:23 | 45.60732 | 9.63550 | 300° | 18km/h | 33064m | 5.6m/s | -39.7°C | 2.5% | 0hPa | 2.6V | 08:30:00 | 02:15:39 | 00:00:00 | |
| DO3MHA-11 | 2026-09-01 00:49:21 | 45.60732 | 9.63550 | 301° | 15km/h | 33064m | 5.5m/s | -39.6°C | 2.5% | 0hPa | 2.6V | 00:00:00 | 02:15:39 | 00:00:00 | |
| DK5PH-5 | 2026-09-01 00:49:20 | 45.60731 | 9.63556 | 268° | 22km/h | 33059m | 4.3m/s | -39.6°C | 2.5% | 0hPa | 2.6V | 00:00:00 | 02:15:38 | 00:00:00 | |
| DL1ZP-14 | 2026-09-01 00:49:15 | 45.60738 | 9.63525 | 72° | 22km/h | 33026m | 2.9m/s | -39.8°C | 0.7% | -1.0hPa | 2.6V | 00:00:00 | 00:00:00 | 00:00:00 | |
| IW2NTF | 2026-09-01 00:49:13 | 45.60729 | 9.63524 | 305° | 29km/h | 33007m | 8.7m/s | -39.8°C | 2.5% | 0hPa | 2.5V | 08:30:00 | 02:15:29 | 00:00:00 | |
| DF7PN | 2026-09-01 00:49:13 | 45.60733 | 9.63518 | 337° | 15km/h | 33016m | 8.1m/s | -39.8°C | 0.7% | -1.0hPa | 2.5V | 00:00:00 | 00:00:00 | 00:00:00 | |
| DO3MHA-11 | 2026-09-01 00:49:11 | 45.60729 | 9.63523 | 306° | 31km/h | 33007m | 8.6m/s | -39.8°C | 2.5% | 0hPa | 2.5V | 00:00:00 | 02:15:29 | 08:30:00 | |
| OE5DRO-10 | 2026-09-01 00:49:07 | 45.60708 | 9.63558 | 352° | 37km/h | 32990m | 5.9m/s | -39.9°C | 2.5% | 0hPa | 2.5V | 00:00:00 | 00:00:00 | 00:00:00 | |
| IW2NTF | 2026-09-01 00:49:03 | 45.60696 | 9.63502 | 114° | 5km/h | 32958m | 5.6m/s | -40.1°C | 2.6% | 0hPa | 2.5V | 08:30:00 | 02:15:19 | 00:00:00 | |
| DO3MHA-11 | 2026-09-01 00:49:01 | 45.60696 | 9.63502 | 115° | 35km/h | 32958m | 5.6m/s | -40.1°C | 2.6% | 0hPa | 2.6V | 00:00:00 | 02:15:19 | 00:00:00 | |
| IW2NTF | 2026-09-01 00:48:53 | 45.60634 | 9.63491 | 119° | 35km/h | 32898m | 4.2m/s | -40.2°C | 2.6% | 0hPa | 2.6V | 08:30:00 | 02:15:09 | 00:00:00 | |
| DO3MHA-11 | 2026-09-01 00:48:51 | 45.60634 | 9.63490 | 120° | 37km/h | 32899m | 4.1m/s | -40.2°C | 2.6% | 0hPa | 2.6V | 00:00:00 | 02:15:09 | 00:00:00 | |
| DK5PH-5 | 2026-09-01 00:48:50 | 45.60639 | 9.63484 | 163° | 26km/h | 32895m | 4.3m/s | -40.3°C | 2.6% | 0hPa | 2.6V | 00:00:00 | 02:15:08 | 00:00:00 | |
| OE5DRO-10 | 2026-09-01 00:48:48 | 45.60641 | 9.63495 | 291° | 37km/h | 32884m | 6.6m/s | -40.3°C | 2.6% | 0hPa | 2.6V | 00:00:00 | 00:00:00 | 00:00:00 | |
| RDZBGO | 2026-09-01 00:48:46 | 45.60636 | 9.63506 | 316° | 46km/h | 32877m | 7.9m/s | 0°C | 0% | 0hPa | 2.6V | 00:00:00 | 00:00:00 | 00:00:00 | |
| IW2NTF | 2026-09-01 00:48:43 | 45.60569 | 9.63502 | 74° | 16km/h | 32844m | 8.2m/s | -40.2°C | 2.6% | 0hPa | 2.6V | 08:30:00 | 02:14:59 | 00:00:00 | |
| DF7PN | 2026-09-01 00:48:42 | 45.60569 | 9.63502 | 74° | 16km/h | 32844m | 8.2m/s | -40.2°C | 0.8% | -1.0hPa | 2.6V | 00:00:00 | 00:00:00 | 00:00:00 | |
| DO3MHA-11 | 2026-09-01 00:48:41 | 45.60569 | 9.63502 | 75° | 24km/h | 32844m | 8.1m/s | -40.2°C | 2.6% | 0hPa | 2.6V | 00:00:00 | 02:14:59 | 00:00:00 | |
| NBG1-10 | 2026-09-01 00:48:40 | 45.60570 | 9.63498 | 161° | 24km/h | 32836m | 8.9m/s | -40.2°C | 2.6% | 0hPa | 2.6V | 00:00:00 | 02:14:58 | 00:00:00 | |
| IW2NTF | 2026-09-01 00:48:33 | 45.60527 | 9.63511 | 11° | 20km/h | 32781m | 5.3m/s | -40.3°C | 2.6% | 0hPa | 2.5V | 08:30:00 | 02:14:48 | 00:00:00 | |
| DB0UT-7 | 2026-09-01 00:48:31 | 45.60533 | 9.63514 | 21° | 20km/h | 32786m | 2.9m/s | -40.3°C | 2.6% | 0hPa | 2.6V | 00:00:00 | 00:00:00 | 00:00:00 | |
| OE5DRO-10 | 2026-09-01 00:48:29 | 45.60524 | 9.63512 | 299° | 24km/h | 32775m | 7.8m/s | -40.2°C | 2.6% | 0hPa | 2.6V | 00:00:00 | 00:00:00 | 08:30:00 | |
| RDZBGO | 2026-09-01 00:48:26 | 45.60527 | 9.63525 | 239° | 31km/h | 32760m | 5.9m/s | 0°C | 0% | 0hPa | 2.5V | 00:00:00 | 00:00:00 | 00:00:00 | |
| IW2NTF | 2026-09-01 00:48:22 | 45.60510 | 9.63534 | 21° | 27km/h | 32722m | 4.4m/s | -40.2°C | 2.6% | 0hPa | 2.5V | 08:30:00 | 02:14:38 | 00:00:00 | |
| S52SK | 2026-09-01 00:48:20 | 45.60517 | 9.63539 | 27° | 33km/h | 32727m | 4.3m/s | -40.2°C | 0.8% | 0hPa | 2.5V | 00:00:00 | 00:00:00 | 00:00:00 | |
| DK5PH-5 | 2026-09-01 00:48:14 | 45.60503 | 9.63575 | 280° | 20km/h | 32688m | 5.4m/s | -40.2°C | 2.7% | 0hPa | 2.5V | 00:00:00 | 02:14:32 | 00:00:00 | |
| IW2NTF | 2026-09-01 00:48:12 | 45.60489 | 9.63592 | 25° | 13km/h | 32664m | 5.2m/s | -40.2°C | 2.6% | 0hPa | 2.6V | 08:30:00 | 02:14:28 | 00:00:00 | |
| DF7PN | 2026-09-01 00:48:11 | 45.60489 | 9.63592 | 25° | 11km/h | 32664m | 5.2m/s | -40.2°C | 0.8% | -1.0hPa | 2.6V | 00:00:00 | 00:00:00 | 00:00:00 | |
| OE5DRO-10 | 2026-09-01 00:48:10 | 45.60489 | 9.63592 | 26° | 15km/h | 32665m | 5.1m/s | -40.1°C | 2.6% | 0hPa | 2.6V | 00:00:00 | 00:00:00 | 00:00:00 | |
| S52SK | 2026-09-01 00:48:09 | 45.60489 | 9.63592 | 27° | 13km/h | 32665m | 5.2m/s | -40.2°C | 0% | 0hPa | 2.6V | 00:00:00 | 00:00:00 | 00:00:00 | |
| NBG1-10 | 2026-09-01 00:48:07 | 45.60491 | 9.63588 | 199° | 24km/h | 32646m | 6.0m/s | -40.1°C | 2.6% | 0hPa | 2.6V | 00:00:00 | 02:14:25 | 00:00:00 | |
| RDZBGO | 2026-09-01 00:48:05 | 45.60495 | 9.63592 | 221° | 20km/h | 32640m | 4.7m/s | 0°C | 0% | 0hPa | 2.6V | 00:00:00 | 00:00:00 | 00:00:00 | |
| OE5DXL-15 | 2026-09-01 00:48:03 | 45.60499 | 9.63610 | 292° | 26km/h | 32623m | 6.6m/s | -40.0°C | 2.6% | 0hPa | 2.6V | 00:00:00 | 00:00:00 | 00:00:00 | |
| IW2NTF | 2026-09-01 00:48:02 | 45.60491 | 9.63625 | 294° | 13km/h | 32606m | 5.7m/s | -40°C | 2.6% | 0hPa | 2.6V | 08:30:00 | 02:14:18 | 00:00:00 | |
| DB0UT-7 | 2026-09-01 00:48:01 | 45.60493 | 9.63620 | 311° | 27km/h | 32611m | 4.9m/s | -40.0°C | 2.6% | 0hPa | 2.5V | 00:00:00 | 02:14:19 | 00:00:00 | |
| IW2NTF | 2026-09-01 00:47:52 | 45.60497 | 9.63654 | 301° | 20km/h | 32547m | 2.9m/s | -39.9°C | 2.6% | 0hPa | 2.5V | 08:30:00 | 02:14:08 | 00:00:00 | |
| OE5DRO-10 | 2026-09-01 00:47:51 | 45.60501 | 9.63649 | 330° | 35km/h | 32551m | 4.4m/s | -39.9°C | 2.6% | 0hPa | 2.5V | 00:00:00 | 00:00:00 | 00:00:00 | |
| DK5PH-5 | 2026-09-01 00:47:44 | 45.60536 | 9.63682 | 164° | 40km/h | 32515m | 2.7m/s | -39.9°C | 2.6% | 0hPa | 2.5V | 00:00:00 | 02:14:02 | 00:00:00 | |
| IW2NTF | 2026-09-01 00:47:42 | 45.60534 | 9.63666 | 0° | 33km/h | 32488m | 3.7m/s | -39.9°C | 2.6% | 0hPa | 2.5V | 08:30:00 | 02:13:58 | 00:00:00 | |
| DL1ZP-14 | 2026-09-01 00:47:42 | 45.60534 | 9.63666 | 0° | 31km/h | 32488m | 3.7m/s | -39.9°C | 0.7% | -1.0hPa | 2.5V | 00:00:00 | 00:00:00 | 00:00:00 | |
| DF7PN | 2026-09-01 00:47:40 | 45.60527 | 9.63668 | 333° | 24km/h | 32486m | 0.5m/s | -39.9°C | 0.8% | -1.0hPa | 2.6V | 00:00:00 | 00:00:00 | 00:00:00 | |
| DO3MHA-11 | 2026-09-01 00:47:34 | 45.60558 | 9.63686 | 167° | 55km/h | 32455m | 3.1m/s | -39.8°C | 2.6% | 0hPa | 2.6V | 00:00:00 | 02:13:52 | 00:00:00 | |
| IW2NTF | 2026-09-01 00:47:33 | 45.60583 | 9.63650 | 40° | 27km/h | 32435m | 9.5m/s | -39.8°C | 2.6% | 0hPa | 2.6V | 08:30:00 | 02:13:48 | 00:00:00 | |
| OE5DXL-15 | 2026-09-01 00:47:33 | 45.60572 | 9.63678 | 152° | 38km/h | 32453m | 1.3m/s | -39.8°C | 2.6% | 0hPa | 2.5V | 00:00:00 | 00:00:00 | 00:00:00 | |
| OE5DRO-10 | 2026-09-01 00:47:32 | 45.60581 | 9.63669 | 132° | 38km/h | 32450m | 3.9m/s | -39.8°C | 2.6% | 0hPa | 2.5V | 00:00:00 | 00:00:00 | 00:00:00 | |
| DB0UT-7 | 2026-09-01 00:47:31 | 45.60585 | 9.63658 | 97° | 38km/h | 32444m | 7.7m/s | -39.8°C | 2.6% | 0hPa | 2.6V | 00:00:00 | 00:00:00 | 00:00:00 | |
| IW2NTF | 2026-09-01 00:47:22 | 45.60608 | 9.63643 | 92° | 44km/h | 32376m | 5.2m/s | -39.7°C | 2.5% | 0hPa | 2.6V | 08:30:00 | 02:13:38 | 00:00:00 | |
| DO3MHA-11 | 2026-09-01 00:47:22 | 45.60596 | 9.63675 | 139° | 51km/h | 32387m | 5.5m/s | -39.6°C | 2.5% | 0hPa | 2.5V | 00:00:00 | 02:13:40 | 00:00:00 | |
| OE5DRO-10 | 2026-09-01 00:47:13 | 45.60611 | 9.63652 | 178° | 35km/h | 32336m | 4.4m/s | -39.7°C | 2.5% | 0hPa | 2.5V | 00:00:00 | 00:00:00 | 00:00:00 | |
| IW2NTF | 2026-09-01 00:47:12 | 45.60636 | 9.63620 | 99° | 49km/h | 32317m | 7.8m/s | -39.7°C | 2.6% | 0hPa | 2.5V | 08:30:00 | 02:13:28 | 00:00:00 | |
| DK5PH-5 | 2026-09-01 00:47:11 | 45.60631 | 9.63636 | 126° | 24km/h | 32325m | 7.1m/s | -39.7°C | 2.5% | 0hPa | 2.5V | 00:00:00 | 02:13:29 | 00:00:00 | |
| DL1ZP-14 | 2026-09-01 00:47:10 | 45.60636 | 9.63620 | 99° | 49km/h | 32317m | 7.8m/s | -39.7°C | 0.8% | -1.0hPa | 2.5V | 00:00:00 | 00:00:00 | 00:00:00 | |
| DF7PN | 2026-09-01 00:47:09 | 45.60623 | 9.63581 | 27° | 27km/h | 32300m | 3.7m/s | -39.7°C | 0.7% | -1.0hPa | 2.6V | 00:00:00 | 00:00:00 | 00:00:00 | |
| OE5DXL-15 | 2026-09-01 00:47:03 | 45.60628 | 9.63588 | 190° | 33km/h | 32273m | 7.0m/s | -39.7°C | 2.5% | 0hPa | 2.6V | 00:00:00 | 00:00:00 | 00:00:00 | |
| IW2NTF | 2026-09-01 00:47:02 | 45.60655 | 9.63576 | 127° | 33km/h | 32258m | 5.3m/s | -39.9°C | 2.5% | 0hPa | 2.5V | 08:30:00 | 02:13:18 | 00:00:00 | |
| DB0UT-7 | 2026-09-01 00:46:59 | 45.60658 | 9.63566 | 95° | 24km/h | 32252m | 7.2m/s | -39.9°C | 2.5% | 0hPa | 2.5V | 00:00:00 | 02:13:17 | 00:00:00 | |
| OE5DRO-10 | 2026-09-01 00:46:54 | 45.60632 | 9.63538 | 19° | 18km/h | 32218m | 5.6m/s | -40.0°C | 2.5% | 0hPa | 2.5V | 00:00:00 | 00:00:00 | 00:00:00 | |
| IW2NTF | 2026-09-01 00:46:52 | 45.60640 | 9.63523 | 138° | 26km/h | 32189m | 6m/s | -40.2°C | 2.6% | 0hPa | 2.5V | 08:30:00 | 02:13:08 | 00:00:00 | |
| IW2NTF | 2026-09-01 00:46:42 | 45.60616 | 9.63483 | 79° | 27km/h | 32126m | 5.1m/s | -40.5°C | 2.6% | 0hPa | 2.6V | 08:30:00 | 02:12:58 | 00:00:00 | |
| DK5PH-5 | 2026-09-01 00:46:39 | 45.60616 | 9.63475 | 98° | 20km/h | 32122m | 5.2m/s | -40.5°C | 2.6% | 0hPa | 2.6V | 00:00:00 | 02:12:57 | 08:30:00 | |
| DF7PN | 2026-09-01 00:46:37 | 45.60617 | 9.63470 | 253° | 5km/h | 32107m | 8.1m/s | -40.6°C | 0.8% | -1.0hPa | 2.6V | 00:00:00 | 00:00:00 | 00:00:00 | |
| OE5DRO-10 | 2026-09-01 00:46:35 | 45.60614 | 9.63481 | 317° | 24km/h | 32094m | 5.4m/s | -40.6°C | 2.7% | 0hPa | 2.6V | 00:00:00 | 00:00:00 | 00:00:00 | |
| IW2NTF | 2026-09-01 00:46:32 | 45.60572 | 9.63465 | 47° | 40km/h | 32060m | 4.5m/s | -40.7°C | 2.7% | 0hPa | 2.6V | 08:30:00 | 02:12:48 | 00:00:00 | |
| DO3MHA-11 | 2026-09-01 00:46:32 | 45.60589 | 9.63484 | 24° | 20km/h | 32073m | 7.7m/s | -40.6°C | 2.7% | 0hPa | 2.5V | 00:00:00 | 02:12:50 | 00:00:00 | |
| DB0UT-7 | 2026-09-01 00:46:29 | 45.60566 | 9.63455 | 55° | 16km/h | 32056m | 5.5m/s | -40.6°C | 2.7% | 0hPa | 2.5V | 00:00:00 | 00:00:00 | 00:00:00 | |
| S52SK | 2026-09-01 00:46:28 | 45.60566 | 9.63455 | 56° | 29km/h | 32056m | 5.6m/s | -40.7°C | 0% | 0hPa | 2.5V | 00:00:00 | 00:00:00 | 00:00:00 | |
| NBG1-10 | 2026-09-01 00:46:26 | 45.60563 | 9.63449 | 249° | 16km/h | 32034m | 6.5m/s | -40.6°C | 2.7% | 0hPa | 2.5V | 00:00:00 | 02:12:44 | 00:00:00 | |
| IW2NTF | 2026-09-01 00:46:22 | 45.60552 | 9.63441 | 61° | 31km/h | 31993m | 6.6m/s | -40.6°C | 2.7% | 0hPa | 2.5V | 08:30:00 | 02:12:38 | 00:00:00 | |
| OE5DRO-10 | 2026-09-01 00:46:16 | 45.60544 | 9.63415 | 81° | 15km/h | 31967m | 6.8m/s | -40.5°C | 2.7% | 0hPa | 2.5V | 00:00:00 | 00:00:00 | 00:00:00 | |
| S52SK | 2026-09-01 00:46:15 | 45.60544 | 9.63415 | 82° | 5km/h | 31967m | 6.8m/s | -40.5°C | 0% | 0hPa | 2.5V | 00:00:00 | 00:00:00 | 00:00:00 | |
| IW2NTF | 2026-09-01 00:46:13 | 45.60540 | 9.63390 | 84° | 26km/h | 31928m | 5.2m/s | -40.4°C | 2.7% | 0hPa | 2.5V | 08:30:00 | 02:12:28 | 00:00:00 | |
| DO3MHA-11 | 2026-09-01 00:46:09 | 45.60540 | 9.63381 | 96° | 18km/h | 31923m | 6.3m/s | -40.3°C | 2.6% | 0hPa | 2.6V | 00:00:00 | 02:12:27 | 00:00:00 | |
| DL1ZP-14 | 2026-09-01 00:46:08 | 45.60541 | 9.63374 | 113° | 16km/h | 31916m | 7.6m/s | -40.3°C | 0.8% | -1.0hPa | 2.6V | 00:00:00 | 00:00:00 | 00:00:00 | |
| DF7PN | 2026-09-01 00:46:06 | 45.60547 | 9.63366 | 149° | 16km/h | 31902m | 5.8m/s | -40.2°C | 0.8% | -1.0hPa | 2.5V | 00:00:00 | 00:00:00 | 00:00:00 | |
| IW2NTF | 2026-09-01 00:46:03 | 45.60559 | 9.63333 | 116° | 15km/h | 31864m | 7.3m/s | -40.2°C | 2.6% | 0hPa | 2.5V | 08:30:00 | 02:12:18 | 00:00:00 | |
| DB0UT-7 | 2026-09-01 00:45:59 | 45.60561 | 9.63329 | 134° | 16km/h | 31857m | 6.5m/s | -40.2°C | 2.6% | 0hPa | 2.5V | 00:00:00 | 02:12:17 | 00:00:00 | |
| OE5DRO-10 | 2026-09-01 00:45:57 | 45.60566 | 9.63323 | 135° | 15km/h | 31845m | 5.6m/s | -40.2°C | 2.7% | 0hPa | 2.6V | 00:00:00 | 00:00:00 | 00:00:00 | |
| NBG1-10 | 2026-09-01 00:45:53 | 45.60573 | 9.63296 | 102° | 16km/h | 31820m | 4.7m/s | -40.2°C | 2.6% | 0hPa | 2.6V | 00:00:00 | 02:12:11 | 00:00:00 | |
| IW2NTF | 2026-09-01 00:45:52 | 45.60578 | 9.63288 | 212° | 11km/h | 31800m | 7m/s | -40.2°C | 2.6% | 0hPa | 2.6V | 08:30:00 | 02:12:08 | 00:00:00 | |
| DO3MHA-11 | 2026-09-01 00:45:49 | 45.60581 | 9.63291 | 219° | 16km/h | 31795m | 4.9m/s | -40.1°C | 2.6% | 0hPa | 2.5V | 00:00:00 | 02:12:07 | 08:30:00 | |
| IW2NTF | 2026-09-01 00:45:42 | 45.60594 | 9.63266 | 256° | 13km/h | 31732m | 5.2m/s | -40.3°C | 2.6% | 0hPa | 2.5V | 08:30:00 | 02:11:57 | 00:00:00 | |
| DO3MHA-11 | 2026-09-01 00:45:39 | 45.60594 | 9.63267 | 257° | 18km/h | 31732m | 5.2m/s | -40.2°C | 2.6% | 0hPa | 2.5V | 00:00:00 | 02:11:57 | 00:00:00 | |
| OE5DRO-10 | 2026-09-01 00:45:38 | 45.60595 | 9.63270 | 250° | 18km/h | 31726m | 5.5m/s | -40.2°C | 2.6% | 0hPa | 2.5V | 00:00:00 | 00:00:00 | 08:30:00 | |
| DL1ZP-14 | 2026-09-01 00:45:37 | 45.60596 | 9.63271 | 162° | 4km/h | 31720m | 6.7m/s | -40.3°C | 0.8% | -1.0hPa | 2.5V | 00:00:00 | 00:00:00 | 00:00:00 | |
| DF7PN | 2026-09-01 00:45:35 | 45.60600 | 9.63264 | 126° | 22km/h | 31707m | 6.0m/s | -40.3°C | 0.8% | -1.0hPa | 2.5V | 00:00:00 | 00:00:00 | 00:00:00 | |
| IW2NTF | 2026-09-01 00:45:33 | 45.60629 | 9.63231 | 125° | 15km/h | 31670m | 7m/s | -40.3°C | 2.6% | 0hPa | 2.5V | 08:30:00 | 02:11:47 | 00:00:00 | |
| DB0UT-7 | 2026-09-01 00:45:29 | 45.60629 | 9.63231 | 126° | 29km/h | 31670m | 6.9m/s | -40.3°C | 2.6% | 0hPa | 2.6V | 00:00:00 | 00:00:00 | 00:00:00 | |
| IW2NTF | 2026-09-01 00:45:22 | 45.60662 | 9.63203 | 124° | 38km/h | 31613m | 7.1m/s | -40.5°C | 2.6% | 0hPa | 2.6V | 08:30:00 | 02:11:37 | 00:00:00 | |
| NBG1-10 | 2026-09-01 00:45:20 | 45.60656 | 9.63212 | 143° | 33km/h | 31619m | 4.3m/s | -40.4°C | 2.6% | 0hPa | 2.5V | 00:00:00 | 02:11:38 | 08:30:00 | |
| DO3MHA-11 | 2026-09-01 00:45:19 | 45.60662 | 9.63203 | 125° | 33km/h | 31613m | 7.1m/s | -40.5°C | 2.6% | 0hPa | 2.6V | 00:00:00 | 02:11:37 | 00:00:00 | |
| BAUMI2-15 | 2026-09-01 00:45:15 | 45.60664 | 9.63149 | 78° | 16km/h | 31591m | 2.5m/s | -40.6°C | 2.7% | 0hPa | 2.5V | 00:00:00 | 02:11:33 | 00:00:00 | |
| IW2NTF | 2026-09-01 00:45:12 | 45.60702 | 9.63139 | 144° | 46km/h | 31558m | 4.6m/s | -40.8°C | 2.7% | 0hPa | 2.6V | 08:30:00 | 02:11:27 | 00:00:00 | |
| BAUMI2-15 | 2026-09-01 00:45:10 | 45.60692 | 9.63146 | 167° | 42km/h | 31562m | 1.9m/s | -40.7°C | 2.7% | 0hPa | 2.6V | 00:00:00 | 02:11:28 | 00:00:00 | |
| DK5PH-5 | 2026-09-01 00:45:09 | 45.60702 | 9.63139 | 145° | 35km/h | 31559m | 4.5m/s | -40.8°C | 2.7% | 0hPa | 2.6V | 00:00:00 | 02:11:27 | 00:00:00 | |
| DL1ZP-14 | 2026-09-01 00:45:07 | 45.60713 | 9.63089 | 78° | 58km/h | 31537m | 6.3m/s | -40.9°C | 0.8% | -1.0hPa | 2.5V | 00:00:00 | 00:00:00 | 00:00:00 | |
| DF7PN | 2026-09-01 00:45:05 | 45.60703 | 9.63056 | 58° | 37km/h | 31527m | 4.5m/s | -40.8°C | 0.8% | -1.0hPa | 2.6V | 00:00:00 | 00:00:00 | 00:00:00 | |
| IW2NTF | 2026-09-01 00:45:03 | 45.60715 | 9.63043 | 162° | 38km/h | 31497m | 4.7m/s | -40.9°C | 2.6% | 0hPa | 2.6V | 08:30:00 | 02:11:17 | 00:00:00 | |
| OE5DRO-10 | 2026-09-01 00:45:00 | 45.60707 | 9.63045 | 182° | 37km/h | 31502m | 5.4m/s | -40.8°C | 2.7% | 0hPa | 2.6V | 00:00:00 | 00:00:00 | 00:00:00 | |
| DB0UT-7 | 2026-09-01 00:44:59 | 45.60716 | 9.63043 | 163° | 37km/h | 31497m | 4.7m/s | -40.8°C | 2.6% | 0hPa | 2.6V | 00:00:00 | 02:11:17 | 00:00:00 | |
| BAUMI2-15 | 2026-09-01 00:44:58 | 45.60724 | 9.63036 | 141° | 40km/h | 31492m | 4.9m/s | -40.8°C | 2.6% | 0hPa | 2.6V | 00:00:00 | 02:11:16 | 08:30:00 | |
| BAUMI2-15 | 2026-09-01 00:44:52 | 45.60731 | 9.62947 | 79° | 31km/h | 31455m | 4.8m/s | -40.8°C | 2.7% | 0hPa | 2.6V | 00:00:00 | 02:11:10 | 00:00:00 | |
| IW2NTF | 2026-09-01 00:44:50 | 45.60737 | 9.62921 | 129° | 33km/h | 31436m | 7.8m/s | -40.9°C | 2.6% | 0hPa | 2.6V | 08:30:00 | 02:11:07 | 00:00:00 | |
| DO3MHA-11 | 2026-09-01 00:44:49 | 45.60737 | 9.62921 | 130° | 33km/h | 31437m | 7.8m/s | -40.9°C | 2.6% | 0hPa | 2.6V | 00:00:00 | 02:11:07 | 00:00:00 | |
| BAUMI2-15 | 2026-09-01 00:44:47 | 45.60751 | 9.62899 | 131° | 31km/h | 31423m | 5.7m/s | -41.0°C | 2.7% | 0hPa | 2.5V | 00:00:00 | 02:11:05 | 00:00:00 | |
| OE5DRO-10 | 2026-09-01 00:44:41 | 45.60761 | 9.62839 | 56° | 37km/h | 31387m | 4.3m/s | -41.1°C | 2.7% | 0hPa | 2.5V | 00:00:00 | 00:00:00 | 00:00:00 | |
| IW2NTF | 2026-09-01 00:44:40 | 45.60756 | 9.62817 | 84° | 40km/h | 31378m | 6.3m/s | -41.2°C | 2.7% | 0hPa | 2.6V | 08:30:00 | 02:10:57 | 00:00:00 | |
| BAUMI2-15 | 2026-09-01 00:44:39 | 45.60756 | 9.62817 | 85° | 49km/h | 31379m | 6.3m/s | -41.2°C | 2.7% | 0hPa | 2.6V | 00:00:00 | 02:10:57 | 00:00:00 | |
| DK5PH-5 | 2026-09-01 00:44:35 | 45.60767 | 9.62747 | 112° | 31km/h | 31354m | 4.7m/s | -41.2°C | 2.7% | 0hPa | 2.6V | 00:00:00 | 02:10:53 | 00:00:00 | |
| DF7PN | 2026-09-01 00:44:33 | 45.60772 | 9.62722 | 93° | 22km/h | 31342m | 6.4m/s | -41.3°C | 0.8% | -1.0hPa | 2.6V | 00:00:00 | 00:00:00 | 00:00:00 | |
| IW2NTF | 2026-09-01 00:44:31 | 45.60762 | 9.62692 | 68° | 33km/h | 31319m | 5.5m/s | -41.3°C | 2.7% | 0hPa | 2.6V | 08:30:00 | 02:10:47 | 00:00:00 | |
| DO3MHA-11 | 2026-09-01 00:44:29 | 45.60762 | 9.62692 | 69° | 37km/h | 31319m | 5.5m/s | -41.2°C | 2.7% | 0hPa | 2.6V | 00:00:00 | 02:10:47 | 00:00:00 | |
| OE5DXL-15 | 2026-09-01 00:44:23 | 45.60761 | 9.62613 | 92° | 29km/h | 31285m | 4.6m/s | -41.1°C | 2.8% | 0hPa | 2.6V | 00:00:00 | 00:00:00 | 00:00:00 | |
| OE5DRO-10 | 2026-09-01 00:44:22 | 45.60761 | 9.62600 | 88° | 31km/h | 31280m | 5.3m/s | -41.1°C | 2.8% | 0hPa | 2.6V | 00:00:00 | 00:00:00 | 00:00:00 | |
| IW2NTF | 2026-09-01 00:44:20 | 45.60757 | 9.62559 | 79° | 37km/h | 31263m | 4.5m/s | -41.1°C | 2.7% | 0hPa | 2.6V | 08:30:00 | 02:10:37 | 00:00:00 | |
| DO3MHA-11 | 2026-09-01 00:44:19 | 45.60757 | 9.62558 | 80° | 29km/h | 31263m | 4.5m/s | -41.0°C | 2.7% | 0hPa | 2.6V | 00:00:00 | 02:10:37 | 08:30:00 | |
| NBG1-10 | 2026-09-01 00:44:14 | 45.60752 | 9.62523 | 92° | 31km/h | 31236m | 3.5m/s | -41.0°C | 2.7% | 0hPa | 2.6V | 00:00:00 | 02:10:32 | 00:00:00 | |
| IW2NTF | 2026-09-01 00:44:10 | 45.60745 | 9.62450 | 71° | 53km/h | 31207m | 4.2m/s | -41.1°C | 2.7% | 0hPa | 2.6V | 08:30:00 | 02:10:27 | 00:00:00 | |
| DO3MHA-11 | 2026-09-01 00:44:09 | 45.60745 | 9.62450 | 72° | 27km/h | 31208m | 4.1m/s | -41.1°C | 2.7% | 0hPa | 2.6V | 00:00:00 | 02:10:27 | 00:00:00 | |
| DK5PH-5 | 2026-09-01 00:44:05 | 45.60728 | 9.62412 | 36° | 24km/h | 31184m | 5.0m/s | -41.1°C | 2.6% | 0hPa | 2.6V | 00:00:00 | 02:10:23 | 00:00:00 | |
| DL1ZP-14 | 2026-09-01 00:44:04 | 45.60726 | 9.62408 | 50° | 11km/h | 31179m | 5.8m/s | -41.2°C | 0.8% | -1.0hPa | 2.6V | 00:00:00 | 00:00:00 | 00:00:00 | |
| OE5DRO-10 | 2026-09-01 00:44:03 | 45.60724 | 9.62403 | 75° | 27km/h | 31173m | 6.0m/s | -41.2°C | 2.7% | 0hPa | 2.6V | 00:00:00 | 00:00:00 | 00:00:00 | |
| DF7PN | 2026-09-01 00:44:02 | 45.60723 | 9.62396 | 84° | 24km/h | 31167m | 5.6m/s | -41.3°C | 0.8% | -1.0hPa | 2.6V | 00:00:00 | 00:00:00 | 00:00:00 | |
| IW2NTF | 2026-09-01 00:44:01 | 45.60722 | 9.62362 | 83° | 33km/h | 31151m | 5.6m/s | -41.6°C | 2.8% | 0hPa | 2.6V | 08:30:00 | 02:10:17 | 00:00:00 | |
| DB0UT-7 | 2026-09-01 00:43:59 | 45.60722 | 9.62362 | 84° | 29km/h | 31151m | 5.6m/s | -41.5°C | 2.8% | 0hPa | 2.6V | 00:00:00 | 02:10:17 | 00:00:00 | |
| OE5DXL-15 | 2026-09-01 00:43:53 | 45.60701 | 9.62314 | 48° | 27km/h | 31117m | 6.4m/s | -41.4°C | 2.8% | 0hPa | 2.6V | 00:00:00 | 00:00:00 | 00:00:00 | |
| IW2NTF | 2026-09-01 00:43:50 | 45.60679 | 9.62280 | 43° | 22km/h | 31095m | 6.8m/s | -41.6°C | 2.8% | 0hPa | 2.6V | 08:30:00 | 02:10:07 | 00:00:00 | |
| DO3MHA-11 | 2026-09-01 00:43:49 | 45.60679 | 9.62280 | 44° | 33km/h | 31095m | 6.8m/s | -41.5°C | 2.8% | 0hPa | 2.6V | 00:00:00 | 02:10:07 | 00:00:00 | |
| OE5DRO-10 | 2026-09-01 00:43:44 | 45.60659 | 9.62251 | 54° | 31km/h | 31069m | 7.3m/s | -41.4°C | 2.8% | 0hPa | 2.6V | 00:00:00 | 00:00:00 | 00:00:00 | |
| NBG1-10 | 2026-09-01 00:43:41 | 45.60636 | 9.62211 | 46° | 29km/h | 31054m | 3.4m/s | -41.3°C | 2.8% | 0hPa | 2.5V | 00:00:00 | 02:09:59 | 00:00:00 | |
| IW2NTF | 2026-09-01 00:43:40 | 45.60623 | 9.62197 | 21° | 24km/h | 31042m | 7.3m/s | -41.3°C | 2.7% | 0hPa | 2.6V | 08:30:00 | 02:09:57 | 00:00:00 | |
| DO3MHA-11 | 2026-09-01 00:43:39 | 45.60623 | 9.62197 | 22° | 26km/h | 31043m | 7.3m/s | -41.3°C | 2.7% | 0hPa | 2.5V | 00:00:00 | 02:09:57 | 00:00:00 | |
| DK5PH-5 | 2026-09-01 00:43:35 | 45.60609 | 9.62194 | 41° | 31km/h | 31019m | 5.9m/s | -41.2°C | 2.7% | 0hPa | 2.5V | 00:00:00 | 02:09:53 | 00:00:00 | |
| DL1ZP-14 | 2026-09-01 00:43:33 | 45.60600 | 9.62178 | 53° | 35km/h | 31007m | 5.9m/s | -41.2°C | 0.8% | -1.0hPa | 2.6V | 00:00:00 | 00:00:00 | 00:00:00 | |
| DF7PN | 2026-09-01 00:43:31 | 45.60588 | 9.62157 | 48° | 37km/h | 30995m | 6.4m/s | -41.2°C | 0.8% | -1.0hPa | 2.6V | 00:00:00 | 00:00:00 | 00:00:00 | |
| IW2NTF | 2026-09-01 00:43:30 | 45.60575 | 9.62141 | 36° | 31km/h | 30983m | 5.5m/s | -41.2°C | 2.7% | 0hPa | 2.6V | 08:30:00 | 02:09:47 | 00:00:00 | |
| DB0UT-7 | 2026-09-01 00:43:29 | 45.60575 | 9.62140 | 37° | 31km/h | 30984m | 5.4m/s | -41.2°C | 2.7% | 0hPa | 2.6V | 00:00:00 | 00:00:00 | 00:00:00 | |
| OE5DRO-10 | 2026-09-01 00:43:25 | 45.60548 | 9.62122 | 15° | 29km/h | 30960m | 4.7m/s | -41.3°C | 2.7% | 0hPa | 2.6V | 00:00:00 | 00:00:00 | 00:00:00 | |
| IW2NTF | 2026-09-01 00:43:20 | 45.60518 | 9.62113 | 40° | 35km/h | 30927m | 7.7m/s | -41.6°C | 2.7% | 0hPa | 2.6V | 08:30:00 | 02:09:37 | 00:00:00 | |
| OE5DXL-15 | 2026-09-01 00:43:20 | 45.60524 | 9.62119 | 31° | 27km/h | 30933m | 4.7m/s | -41.5°C | 2.8% | 0hPa | 2.5V | 00:00:00 | 00:00:00 | 00:00:00 | |
| DO3MHA-11 | 2026-09-01 00:43:19 | 45.60518 | 9.62113 | 41° | 33km/h | 30927m | 7.6m/s | -41.6°C | 2.7% | 0hPa | 2.6V | 00:00:00 | 02:09:37 | 00:00:00 | |
| IW2NTF | 2026-09-01 00:43:11 | 45.60449 | 9.62083 | 20° | 24km/h | 30868m | 6.1m/s | -42°C | 2.7% | 0hPa | 2.6V | 08:30:00 | 02:09:27 | 00:00:00 | |
| DO3MHA-11 | 2026-09-01 00:43:09 | 45.60449 | 9.62082 | 21° | 35km/h | 30869m | 6.1m/s | -41.9°C | 2.7% | 0hPa | 2.5V | 00:00:00 | 02:09:27 | 00:00:00 | |
| NBG1-10 | 2026-09-01 00:43:08 | 45.60443 | 9.62077 | 36° | 27km/h | 30863m | 6.0m/s | -41.9°C | 2.8% | 0hPa | 2.5V | 00:00:00 | 02:09:26 | 00:00:00 | |
| OE5DRO-10 | 2026-09-01 00:43:06 | 45.60427 | 9.62060 | 36° | 27km/h | 30851m | 6.0m/s | -42.0°C | 2.8% | 0hPa | 2.5V | 00:00:00 | 00:00:00 | 00:00:00 | |
| DK5PH-5 | 2026-09-01 00:43:04 | 45.60410 | 9.62048 | 17° | 20km/h | 30838m | 6.3m/s | -42.1°C | 2.8% | 0hPa | 2.5V | 00:00:00 | 02:09:22 | 00:00:00 | |
| DL1ZP-14 | 2026-09-01 00:43:02 | 45.60393 | 9.62046 | 354° | 31km/h | 30826m | 5.5m/s | -42.2°C | 0.8% | -1.0hPa | 2.5V | 00:00:00 | 00:00:00 | 00:00:00 | |
| IW2NTF | 2026-09-01 00:43:00 | 45.60370 | 9.62047 | 10° | 29km/h | 30809m | 6m/s | -42.4°C | 2.9% | 0hPa | 2.6V | 08:30:00 | 02:09:17 | 00:00:00 | |
| DF7PN | 2026-09-01 00:43:00 | 45.60377 | 9.62048 | 359° | 29km/h | 30815m | 5.9m/s | -42.3°C | 0.8% | -1.0hPa | 2.6V | 00:00:00 | 00:00:00 | 00:00:00 | |
| DO3MHA-11 | 2026-09-01 00:42:59 | 45.60370 | 9.62047 | 11° | 22km/h | 30809m | 6.0m/s | -42.4°C | 2.9% | 0hPa | 2.6V | 00:00:00 | 02:09:17 | 00:00:00 | |
| IW2NTF | 2026-09-01 00:42:50 | 45.60316 | 9.62006 | 5° | 33km/h | 30743m | 4.5m/s | -42.6°C | 2.9% | 0hPa | 2.6V | 08:30:00 | 02:09:06 | 00:00:00 | |
| OE5DXL-15 | 2026-09-01 00:42:50 | 45.60333 | 9.62012 | 21° | 15km/h | 30754m | 6.8m/s | -42.5°C | 2.9% | 0hPa | 2.6V | 00:00:00 | 00:00:00 | 00:00:00 | |
| DO3MHA-11 | 2026-09-01 00:42:49 | 45.60325 | 9.62008 | 15° | 18km/h | 30748m | 5.0m/s | -42.6°C | 2.9% | 0hPa | 2.6V | 00:00:00 | 02:09:07 | 08:30:00 | |
| OE5DRO-10 | 2026-09-01 00:42:48 | 45.60308 | 9.62006 | 354° | 13km/h | 30738m | 6.3m/s | -42.5°C | 2.9% | 0hPa | 2.5V | 00:00:00 | 00:00:00 | 08:30:00 | |
| DO3MHA-11 | 2026-09-01 00:42:47 | 45.60298 | 9.61999 | 47° | 13km/h | 30689m | 6.2m/s | -42.4°C | 2.8% | 0hPa | 2.5V | 00:00:00 | 02:08:57 | 00:00:00 | |
| IW2NTF | 2026-09-01 00:42:44 | 45.60288 | 9.61996 | 340° | 15km/h | 30669m | 5.8m/s | -42.4°C | 2.9% | 0hPa | 2.5V | 08:30:00 | 02:08:54 | 00:00:00 | |
| NBG1-10 | 2026-09-01 00:42:36 | 45.60285 | 9.61997 | 344° | 11km/h | 30663m | 5.7m/s | -42.4°C | 2.8% | 0hPa | 2.5V | 00:00:00 | 02:08:53 | 00:00:00 | |
| DK5PH-5 | 2026-09-01 00:42:34 | 45.60282 | 9.61998 | 2° | 11km/h | 30657m | 6.3m/s | -42.5°C | 2.9% | 0hPa | 2.5V | 00:00:00 | 02:08:52 | 00:00:00 | |
| DL1ZP-14 | 2026-09-01 00:42:31 | 45.60276 | 9.61991 | 82° | 11km/h | 30639m | 5.0m/s | -42.6°C | 0.8% | -1.0hPa | 2.5V | 00:00:00 | 00:00:00 | 00:00:00 | |
| DO3MHA-11 | 2026-09-01 00:42:29 | 45.60278 | 9.61985 | 163° | 13km/h | 30628m | 7.3m/s | -42.5°C | 2.8% | 0hPa | 2.6V | 00:00:00 | 02:08:47 | 00:00:00 | |
| IW2NTF | 2026-09-01 00:42:28 | 45.60290 | 9.61985 | 51° | 11km/h | 30595m | 7.2m/s | -42.6°C | 2.9% | 0hPa | 2.6V | 08:30:00 | 02:08:42 | 00:00:00 | |
| OE5DRO-10 | 2026-09-01 00:42:28 | 45.60282 | 9.61984 | 188° | 11km/h | 30620m | 7.2m/s | -42.5°C | 2.9% | 0hPa | 2.6V | 00:00:00 | 00:00:00 | 00:00:00 | |
| S52SK | 2026-09-01 00:42:25 | 45.60289 | 9.61987 | 196° | 9km/h | 30609m | 4.9m/s | -42.6°C | 0% | 0hPa | 2.6V | 00:00:00 | 00:00:00 | 00:00:00 | |
| DO3MHA-11 | 2026-09-01 00:42:19 | 45.60275 | 9.61976 | 292° | 7km/h | 30565m | 5.8m/s | -42.6°C | 2.9% | 0hPa | 2.6V | 00:00:00 | 02:08:37 | 00:00:00 | |
| IW2NTF | 2026-09-01 00:42:18 | 45.60275 | 9.61974 | 76° | 13km/h | 30534m | 5.7m/s | -42.7°C | 2.9% | 0hPa | 2.6V | 08:30:00 | 02:08:32 | 00:00:00 | |
| S52SK | 2026-09-01 00:42:14 | 45.60276 | 9.61978 | 86° | 9km/h | 30541m | 6.4m/s | -42.7°C | 0% | 0hPa | 2.6V | 00:00:00 | 00:00:00 | 00:00:00 | |
| IW2NTF | 2026-09-01 00:42:08 | 45.60266 | 9.61966 | 74° | 11km/h | 30473m | 6m/s | -42.7°C | 2.9% | 0hPa | 2.6V | 08:30:00 | 02:08:22 | 00:00:00 | |
| S52SK | 2026-09-01 00:42:07 | 45.60271 | 9.61974 | 304° | 7km/h | 30498m | 6.1m/s | -42.7°C | 0% | 0hPa | 2.6V | 00:00:00 | 00:00:00 | 00:00:00 | |
| DK5PH-5 | 2026-09-01 00:42:04 | 45.60266 | 9.61966 | 75° | 11km/h | 30474m | 6.0m/s | -42.7°C | 2.9% | 0hPa | 2.6V | 00:00:00 | 02:08:22 | 08:30:00 | |
| NBG1-10 | 2026-09-01 00:42:02 | 45.60266 | 9.61962 | 209° | 11km/h | 30460m | 6.1m/s | -42.6°C | 2.9% | 0hPa | 2.5V | 00:00:00 | 02:08:20 | 00:00:00 | |
| DL1ZP-14 | 2026-09-01 00:42:00 | 45.60266 | 9.61965 | 297° | 2km/h | 30449m | 5.8m/s | -42.7°C | 0.9% | -1.0hPa | 2.5V | 00:00:00 | 00:00:00 | 00:00:00 | |
| DF7PN | 2026-09-01 00:41:58 | 45.60261 | 9.61963 | 21° | 11km/h | 30429m | 5.4m/s | -42.7°C | 0.9% | -1.0hPa | 2.5V | 00:00:00 | 00:00:00 | 00:00:00 | |
| OE5DRO-10 | 2026-09-01 00:41:50 | 45.60265 | 9.61968 | 134° | 13km/h | 30386m | 6.9m/s | -42.6°C | 2.9% | 0hPa | 2.5V | 00:00:00 | 00:00:00 | 00:00:00 | |
| DO3MHA-11 | 2026-09-01 00:41:49 | 45.60268 | 9.61964 | 120° | 7km/h | 30380m | 5.6m/s | -42.6°C | 2.9% | 0hPa | 2.6V | 00:00:00 | 02:08:07 | 00:00:00 | |
| DO3MHA-11 | 2026-09-01 00:41:39 | 45.60278 | 9.61961 | 164° | 18km/h | 30320m | 6.4m/s | -42.9°C | 3.0% | 0hPa | 2.6V | 00:00:00 | 02:07:57 | 00:00:00 | |
| IW2NTF | 2026-09-01 00:41:38 | 45.60306 | 9.61946 | 111° | 24km/h | 30283m | 6.5m/s | -42.9°C | 3% | 0hPa | 2.6V | 08:30:00 | 02:07:51 | 00:00:00 | |
| DK5PH-5 | 2026-09-01 00:41:34 | 45.60303 | 9.61953 | 133° | 18km/h | 30290m | 7.1m/s | -42.8°C | 3.0% | 0hPa | 2.6V | 00:00:00 | 02:07:52 | 00:00:00 | |
| OE5DRO-10 | 2026-09-01 00:41:31 | 45.60308 | 9.61931 | 95° | 18km/h | 30272m | 5.5m/s | -42.8°C | 3.0% | 0hPa | 2.6V | 00:00:00 | 00:00:00 | 00:00:00 | |
| DL1ZP-14 | 2026-09-01 00:41:29 | 45.60312 | 9.61927 | 195° | 11km/h | 30253m | 5.4m/s | -42.8°C | 0.9% | -1.0hPa | 2.6V | 00:00:00 | 00:00:00 | 00:00:00 | |
| IW2NTF | 2026-09-01 00:41:27 | 45.60340 | 9.61901 | 133° | 24km/h | 30216m | 6.4m/s | -42.6°C | 2.9% | 0hPa | 2.5V | 08:30:00 | 02:07:40 | 00:00:00 | |
| DF7PN | 2026-09-01 00:41:27 | 45.60320 | 9.61926 | 158° | 20km/h | 30240m | 6.7m/s | -42.8°C | 0.9% | -1.0hPa | 2.6V | 00:00:00 | 00:00:00 | 00:00:00 | |
| DO3MHA-11 | 2026-09-01 00:41:19 | 45.60345 | 9.61887 | 72° | 18km/h | 30198m | 5.9m/s | -42.5°C | 2.9% | 0hPa | 2.6V | 00:00:00 | 02:07:37 | 08:30:00 | |
| IW2NTF | 2026-09-01 00:41:14 | 45.60360 | 9.61848 | 100° | 18km/h | 30137m | 6.8m/s | -42.6°C | 2.9% | 0hPa | 2.6V | 08:30:00 | 02:07:27 | 00:00:00 | |
| DO3MHA-11 | 2026-09-01 00:41:09 | 45.60359 | 9.61847 | 101° | 15km/h | 30138m | 6.7m/s | -42.5°C | 2.9% | 0hPa | 2.5V | 00:00:00 | 02:07:27 | 00:00:00 | |
| DK5PH-5 | 2026-09-01 00:41:04 | 45.60347 | 9.61819 | 358° | 20km/h | 30108m | 6.7m/s | -42.6°C | 2.9% | 0hPa | 2.5V | 00:00:00 | 02:07:22 | 00:00:00 | |
| IW2NTF | 2026-09-01 00:41:02 | 45.60352 | 9.61791 | 70° | 26km/h | 30065m | 6.2m/s | -42.8°C | 2.9% | 0hPa | 2.5V | 08:30:00 | 02:07:15 | 00:00:00 | |
| DL1ZP-14 | 2026-09-01 00:40:58 | 45.60352 | 9.61791 | 70° | 24km/h | 30065m | 6.2m/s | -42.8°C | 0.9% | -1.0hPa | 2.5V | 00:00:00 | 00:00:00 | 00:00:00 | |
| DF7PN | 2026-09-01 00:40:56 | 45.60347 | 9.61778 | 40° | 16km/h | 30052m | 6.2m/s | -42.8°C | 0.9% | -1.0hPa | 2.5V | 00:00:00 | 00:00:00 | 00:00:00 | |
| IW2NTF | 2026-09-01 00:40:52 | 45.60333 | 9.61756 | 60° | 15km/h | 30004m | 4.8m/s | -42.9°C | 2.9% | 0hPa | 2.5V | 08:30:00 | 02:07:05 | 00:00:00 | |
| DO3MHA-11 | 2026-09-01 00:40:49 | 45.60335 | 9.61761 | 57° | 26km/h | 30015m | 6.7m/s | -42.8°C | 2.9% | 0hPa | 2.6V | 00:00:00 | 02:07:07 | 00:00:00 | |
| BAUMI2-15 | 2026-09-01 00:40:47 | 45.60333 | 9.61756 | 61° | 24km/h | 30004m | 4.7m/s | -42.9°C | 2.9% | 0hPa | 2.5V | 00:00:00 | 02:07:05 | 00:00:00 | |
| IW2NTF | 2026-09-01 00:40:41 | 45.60285 | 9.61693 | 54° | 18km/h | 29941m | 6.8m/s | -43.1°C | 2.9% | 0hPa | 2.5V | 08:30:00 | 02:06:55 | 00:00:00 | |
| DO3MHA-11 | 2026-09-01 00:40:39 | 45.60292 | 9.61699 | 8° | 27km/h | 29954m | 5.3m/s | -42.9°C | 2.9% | 0hPa | 2.6V | 00:00:00 | 02:06:57 | 00:00:00 | |
| DK5PH-5 | 2026-09-01 00:40:34 | 45.60274 | 9.61666 | 53° | 31km/h | 29925m | 5.3m/s | -43.1°C | 2.9% | 0hPa | 2.6V | 00:00:00 | 02:06:52 | 00:00:00 | |
| IW2NTF | 2026-09-01 00:40:33 | 45.60228 | 9.61629 | 45° | 29km/h | 29880m | 5.8m/s | -43.5°C | 3% | 0hPa | 2.5V | 08:30:00 | 02:06:45 | 00:00:00 | |
| DO3MHA-11 | 2026-09-01 00:40:29 | 45.60240 | 9.61641 | 23° | 31km/h | 29894m | 6.6m/s | -43.3°C | 3.0% | 0hPa | 2.5V | 00:00:00 | 02:06:47 | 00:00:00 | |
| S52SK | 2026-09-01 00:40:28 | 45.60240 | 9.61641 | 23° | 29km/h | 29894m | 6.6m/s | -43.4°C | 0% | 0hPa | 2.5V | 00:00:00 | 00:00:00 | 00:00:00 | |
| DL1ZP-14 | 2026-09-01 00:40:27 | 45.60222 | 9.61622 | 44° | 29km/h | 29875m | 5.1m/s | -43.5°C | 0.9% | -1.0hPa | 2.5V | 00:00:00 | 00:00:00 | 00:00:00 | |
| BAUMI2-15 | 2026-09-01 00:40:24 | 45.60210 | 9.61609 | 24° | 33km/h | 29863m | 7.1m/s | -43.5°C | 3.1% | 0hPa | 2.6V | 00:00:00 | 02:06:42 | 08:30:00 | |
| IW2NTF | 2026-09-01 00:40:22 | 45.60158 | 9.61573 | 33° | 35km/h | 29822m | 5.8m/s | -43.4°C | 3% | 0hPa | 2.5V | 08:30:00 | 02:06:35 | 00:00:00 | |
| S52SK | 2026-09-01 00:40:17 | 45.60164 | 9.61580 | 39° | 35km/h | 29828m | 4.8m/s | 0°C | 0% | 0hPa | 2.5V | 00:00:00 | 00:00:00 | 00:00:00 | |
| OE5DRO-10 | 2026-09-01 00:40:15 | 45.60142 | 9.61563 | 15° | 33km/h | 29810m | 6.3m/s | -43.3°C | 3.0% | 0hPa | 2.5V | 00:00:00 | 00:00:00 | 00:00:00 | |
| BAUMI2-15 | 2026-09-01 00:40:14 | 45.60133 | 9.61560 | 12° | 35km/h | 29804m | 5.6m/s | -43.2°C | 3.0% | 0hPa | 2.5V | 00:00:00 | 02:06:32 | 00:00:00 | |
| IW2NTF | 2026-09-01 00:40:12 | 45.60089 | 9.61517 | 19° | 22km/h | 29763m | 7.1m/s | -43.2°C | 3% | 0hPa | 2.5V | 08:30:00 | 02:06:25 | 00:00:00 | |
| S52SK | 2026-09-01 00:40:10 | 45.60110 | 9.61546 | 41° | 35km/h | 29786m | 7.1m/s | 0°C | 0% | 0hPa | 2.5V | 00:00:00 | 00:00:00 | 00:00:00 | |
| DO3MHA-11 | 2026-09-01 00:40:09 | 45.60099 | 9.61529 | 51° | 33km/h | 29775m | 4.7m/s | -43.2°C | 3.0% | 0hPa | 2.5V | 00:00:00 | 02:06:27 | 00:00:00 | |
| NBG1-10 | 2026-09-01 00:40:05 | 45.60076 | 9.61516 | 357° | 33km/h | 29750m | 5.2m/s | -43.2°C | 2.9% | 0hPa | 2.5V | 00:00:00 | 02:06:23 | 08:30:00 | |
| DK5PH-5 | 2026-09-01 00:40:04 | 45.60067 | 9.61516 | 4° | 33km/h | 29745m | 5.9m/s | -43.2°C | 2.9% | 0hPa | 2.5V | 00:00:00 | 02:06:22 | 00:00:00 | |
| BAUMI2-15 | 2026-09-01 00:40:03 | 45.60058 | 9.61514 | 14° | 35km/h | 29738m | 6.5m/s | -43.2°C | 3.0% | 0hPa | 2.5V | 00:00:00 | 02:06:21 | 00:00:00 | |
| IW2NTF | 2026-09-01 00:40:02 | 45.60009 | 9.61489 | 10° | 27km/h | 29702m | 5.4m/s | -43.3°C | 2.9% | 0hPa | 2.5V | 08:30:00 | 02:06:15 | 00:00:00 | |
| DL1ZP-14 | 2026-09-01 00:39:55 | 45.59994 | 9.61484 | 15° | 33km/h | 29690m | 6.0m/s | -43.3°C | 0.9% | -1.0hPa | 2.5V | 00:00:00 | 00:00:00 | 00:00:00 | |
| DF7PN | 2026-09-01 00:39:53 | 45.59976 | 9.61479 | 4° | 38km/h | 29679m | 5.4m/s | -43.4°C | 0.9% | -1.0hPa | 2.5V | 00:00:00 | 00:00:00 | 00:00:00 | |
| IW2NTF | 2026-09-01 00:39:52 | 45.59921 | 9.61475 | 29° | 33km/h | 29643m | 5.7m/s | -43.5°C | 3% | 0hPa | 2.5V | 08:30:00 | 02:06:05 | 00:00:00 | |
| BAUMI2-15 | 2026-09-01 00:39:52 | 45.59966 | 9.61479 | 358° | 42km/h | 29673m | 7.1m/s | -43.4°C | 3.0% | 0hPa | 2.5V | 00:00:00 | 02:06:10 | 00:00:00 | |
| DO3MHA-11 | 2026-09-01 00:39:49 | 45.59936 | 9.61482 | 5° | 31km/h | 29656m | 5.7m/s | -43.4°C | 3.0% | 0hPa | 2.6V | 00:00:00 | 02:06:07 | 08:30:00 | |
| IW2NTF | 2026-09-01 00:39:42 | 45.59844 | 9.61456 | 12° | 35km/h | 29585m | 6.5m/s | -43.7°C | 3% | 0hPa | 2.5V | 08:30:00 | 02:05:55 | 00:00:00 | |
| BAUMI2-15 | 2026-09-01 00:39:41 | 45.59879 | 9.61466 | 359° | 35km/h | 29609m | 6.4m/s | -43.6°C | 3.0% | 0hPa | 2.5V | 00:00:00 | 02:05:59 | 00:00:00 | |
| DO3MHA-11 | 2026-09-01 00:39:39 | 45.59862 | 9.61462 | 16° | 27km/h | 29597m | 5.2m/s | -43.6°C | 3.0% | 0hPa | 2.5V | 00:00:00 | 02:05:57 | 00:00:00 | |
| OE5DRO-10 | 2026-09-01 00:39:37 | 45.59844 | 9.61456 | 13° | 26km/h | 29586m | 6.4m/s | -43.6°C | 3.0% | 0hPa | 2.5V | 00:00:00 | 00:00:00 | 00:00:00 | |
| BAUMI2-15 | 2026-09-01 00:39:36 | 45.59836 | 9.61454 | 9° | 24km/h | 29580m | 5.6m/s | -43.7°C | 3.0% | 0hPa | 2.5V | 00:00:00 | 02:05:54 | 00:00:00 | |
| DK5PH-5 | 2026-09-01 00:39:34 | 45.59823 | 9.61451 | 16° | 22km/h | 29569m | 5.6m/s | -43.7°C | 3.0% | 0hPa | 2.5V | 00:00:00 | 02:05:52 | 00:00:00 | |
| IW2NTF | 2026-09-01 00:39:33 | 45.59787 | 9.61445 | 326° | 33km/h | 29528m | 5.1m/s | -43.9°C | 3.1% | 0hPa | 2.5V | 08:30:00 | 02:05:45 | 00:00:00 | |
| NBG1-10 | 2026-09-01 00:39:32 | 45.59813 | 9.61444 | 36° | 24km/h | 29556m | 5.5m/s | -43.8°C | 3.0% | 0hPa | 2.5V | 00:00:00 | 02:05:50 | 00:00:00 | |
| DO3MHA-11 | 2026-09-01 00:39:29 | 45.59799 | 9.61437 | 349° | 27km/h | 29542m | 6.1m/s | -43.8°C | 3.1% | 0hPa | 2.5V | 00:00:00 | 02:05:47 | 00:00:00 | |
| DL1ZP-14 | 2026-09-01 00:39:24 | 45.59765 | 9.61454 | 13° | 29km/h | 29515m | 7.1m/s | -44.0°C | 0.9% | -1.0hPa | 2.5V | 00:00:00 | 00:00:00 | 00:00:00 | |
| IW2NTF | 2026-09-01 00:39:22 | 45.59735 | 9.61432 | 315° | 27km/h | 29474m | 5.8m/s | -44°C | 3.1% | 0hPa | 2.5V | 08:30:00 | 02:05:35 | 00:00:00 | |
| DO3MHA-11 | 2026-09-01 00:39:19 | 45.59743 | 9.61423 | 355° | 22km/h | 29487m | 6.0m/s | -44.0°C | 3.1% | 0hPa | 2.5V | 00:00:00 | 02:05:37 | 00:00:00 | |
| OE5DRO-10 | 2026-09-01 00:39:18 | 45.59740 | 9.61426 | 317° | 22km/h | 29481m | 5.9m/s | -44.0°C | 3.1% | 0hPa | 2.5V | 00:00:00 | 00:00:00 | 00:00:00 | |
| IW2NTF | 2026-09-01 00:39:10 | 45.59688 | 9.61442 | 30° | 15km/h | 29417m | 4.9m/s | -44.2°C | 3.1% | 0hPa | 2.5V | 08:30:00 | 02:05:25 | 00:00:00 | |
| DO3MHA-11 | 2026-09-01 00:39:09 | 45.59693 | 9.61448 | 41° | 22km/h | 29429m | 5.4m/s | -44.0°C | 3.1% | 0hPa | 2.6V | 00:00:00 | 02:05:27 | 00:00:00 | |
| DK5PH-5 | 2026-09-01 00:39:04 | 45.59677 | 9.61449 | 306° | 16km/h | 29402m | 8.0m/s | -44.3°C | 3.1% | 0hPa | 2.6V | 00:00:00 | 02:05:22 | 00:00:00 | |
| IW2NTF | 2026-09-01 00:39:02 | 45.59652 | 9.61480 | 62° | 16km/h | 29360m | 5.1m/s | -44.4°C | 3.2% | 0hPa | 2.6V | 08:30:00 | 02:05:15 | 00:00:00 | |
| DL1ZP-14 | 2026-09-01 00:38:53 | 45.59650 | 9.61481 | 287° | 20km/h | 29339m | 5.8m/s | -44.5°C | 1.0% | -1.0hPa | 2.6V | 00:00:00 | 00:00:00 | 00:00:00 | |
| DF7PN | 2026-09-01 00:38:51 | 45.59631 | 9.61514 | 320° | 26km/h | 29317m | 3.4m/s | -44.5°C | 1.0% | -1.0hPa | 2.5V | 00:00:00 | 00:00:00 | 00:00:00 | |
| DO3MHA-11 | 2026-09-01 00:38:49 | 45.59630 | 9.61514 | 321° | 15km/h | 29317m | 3.3m/s | -44.4°C | 3.2% | 0hPa | 2.5V | 00:00:00 | 02:05:07 | 00:00:00 | |
| IW2NTF | 2026-09-01 00:38:46 | 45.59630 | 9.61525 | 174° | 15km/h | 29292m | 4.7m/s | -44.3°C | 3.2% | 0hPa | 2.5V | 08:30:00 | 02:05:03 | 00:00:00 | |
| OE5DRO-10 | 2026-09-01 00:38:40 | 45.59625 | 9.61531 | 325° | 15km/h | 29265m | 6.4m/s | -44.2°C | 3.2% | 0hPa | 2.6V | 00:00:00 | 00:00:00 | 00:00:00 | |
| DO3MHA-11 | 2026-09-01 00:38:39 | 45.59620 | 9.61537 | 317° | 11km/h | 29259m | 5.5m/s | -44.2°C | 3.1% | 0hPa | 2.6V | 00:00:00 | 02:04:57 | 00:00:00 | |
| IW2NTF | 2026-09-01 00:38:36 | 45.59612 | 9.61551 | 334° | 4km/h | 29238m | 6.2m/s | -44.2°C | 3.1% | 0hPa | 2.6V | 08:30:00 | 02:04:53 | 00:00:00 | |
| DK5PH-5 | 2026-09-01 00:38:33 | 45.59610 | 9.61551 | 19° | 13km/h | 29226m | 5.1m/s | 0°C | 0% | 0hPa | 2.5V | 00:00:00 | 02:04:51 | 00:00:00 | |
| DO3MHA-11 | 2026-09-01 00:38:29 | 45.59611 | 9.61563 | 259° | 16km/h | 29203m | 5.7m/s | -44.1°C | 3.1% | 0hPa | 2.5V | 00:00:00 | 02:04:47 | 00:00:00 | |
| DB0UT-7 | 2026-09-01 00:38:28 | 45.59611 | 9.61570 | 276° | 11km/h | 29197m | 4.8m/s | -44.1°C | 3.1% | 0hPa | 2.5V | 00:00:00 | 00:00:00 | 00:00:00 | |
| IW2NTF | 2026-09-01 00:38:26 | 45.59601 | 9.61586 | 348° | 22km/h | 29179m | 5m/s | -44.2°C | 3.1% | 0hPa | 2.6V | 08:30:00 | 02:04:43 | 00:00:00 | |
| NBG1-10 | 2026-09-01 00:38:26 | 45.59606 | 9.61583 | 326° | 11km/h | 29185m | 6.8m/s | -44.1°C | 3.1% | 0hPa | 2.5V | 00:00:00 | 02:04:44 | 00:00:00 | |
| S52SK | 2026-09-01 00:38:24 | 45.59601 | 9.61586 | 350° | 22km/h | 29179m | 5.0m/s | 0°C | 0% | 0hPa | 2.5V | 00:00:00 | 00:00:00 | 00:00:00 | |
| DL1ZP-14 | 2026-09-01 00:38:22 | 45.59591 | 9.61587 | 275° | 2km/h | 29163m | 6.5m/s | -44.2°C | 1.0% | -1.0hPa | 2.5V | 00:00:00 | 00:00:00 | 00:00:00 | |
| OE5DRO-10 | 2026-09-01 00:38:21 | 45.59592 | 9.61589 | 216° | 11km/h | 29157m | 5.7m/s | -44.1°C | 3.1% | 0hPa | 2.5V | 00:00:00 | 00:00:00 | 00:00:00 | |
| IW2NTF | 2026-09-01 00:38:20 | 45.59594 | 9.61612 | 310° | 16km/h | 29123m | 5.3m/s | -44.1°C | 3.1% | 0hPa | 2.5V | 08:30:00 | 02:04:33 | 00:00:00 | |
| DF7PN | 2026-09-01 00:38:20 | 45.59597 | 9.61595 | 230° | 13km/h | 29146m | 5.8m/s | -44.2°C | 0.9% | -1.0hPa | 2.6V | 00:00:00 | 00:00:00 | 00:00:00 | |
| DO3MHA-11 | 2026-09-01 00:38:19 | 45.59597 | 9.61595 | 231° | 13km/h | 29147m | 5.8m/s | -44.1°C | 3.1% | 0hPa | 2.6V | 00:00:00 | 02:04:37 | 08:30:00 | |
| S52SK | 2026-09-01 00:38:13 | 45.59592 | 9.61617 | 299° | 16km/h | 29118m | 6.1m/s | 0°C | 0% | 0hPa | 2.5V | 00:00:00 | 00:00:00 | 00:00:00 | |
| DO3MHA-11 | 2026-09-01 00:38:09 | 45.59592 | 9.61630 | 106° | 7km/h | 29088m | 5.6m/s | -44.1°C | 3.1% | 0hPa | 2.5V | 00:00:00 | 02:04:27 | 00:00:00 | |
| IW2NTF | 2026-09-01 00:38:07 | 45.59599 | 9.61628 | 209° | 11km/h | 29064m | 5.6m/s | -44.1°C | 3.1% | 0hPa | 2.5V | 08:30:00 | 02:04:23 | 00:00:00 | |
| DK5PH-5 | 2026-09-01 00:38:03 | 45.59602 | 9.61632 | 270° | 11km/h | 29053m | 6.6m/s | 0°C | 0% | 0hPa | 2.6V | 00:00:00 | 02:04:21 | 00:00:00 | |
| OE5DRO-10 | 2026-09-01 00:38:02 | 45.59601 | 9.61635 | 316° | 11km/h | 29047m | 5.9m/s | -44.0°C | 3.1% | 0hPa | 2.6V | 00:00:00 | 00:00:00 | 00:00:00 | |
| IW2NTF | 2026-09-01 00:37:59 | 45.59615 | 9.61637 | 164° | 16km/h | 29007m | 5.5m/s | -44°C | 3% | 0hPa | 2.5V | 08:30:00 | 02:04:13 | 00:00:00 | |
| DL1ZP-14 | 2026-09-01 00:37:51 | 45.59617 | 9.61632 | 315° | 4km/h | 28985m | 6.0m/s | -44.0°C | 0.9% | -1.0hPa | 2.6V | 00:00:00 | 00:00:00 | 00:00:00 | |
| DO3MHA-11 | 2026-09-01 00:37:49 | 45.59618 | 9.61636 | 221° | 13km/h | 28973m | 5.3m/s | -44.1°C | 3.0% | 0hPa | 2.6V | 00:00:00 | 02:04:07 | 00:00:00 | |
| IW2NTF | 2026-09-01 00:37:46 | 45.59628 | 9.61636 | 125° | 11km/h | 28949m | 5.5m/s | -44.3°C | 3.1% | 0hPa | 2.5V | 08:30:00 | 02:04:03 | 00:00:00 | |
| OE5DRO-10 | 2026-09-01 00:37:43 | 45.59631 | 9.61630 | 156° | 15km/h | 28940m | 5.2m/s | -44.3°C | 3.1% | 0hPa | 2.5V | 00:00:00 | 00:00:00 | 00:00:00 | |
| IW2NTF | 2026-09-01 00:37:40 | 45.59631 | 9.61662 | 223° | 4km/h | 28892m | 6.7m/s | -44.4°C | 3.1% | 0hPa | 2.5V | 08:30:00 | 02:03:53 | 00:00:00 | |
| DO3MHA-11 | 2026-09-01 00:37:39 | 45.59637 | 9.61647 | 279° | 13km/h | 28916m | 6.2m/s | -44.3°C | 3.1% | 0hPa | 2.5V | 00:00:00 | 02:03:57 | 00:00:00 | |
| DK5PH-5 | 2026-09-01 00:37:33 | 45.59636 | 9.61662 | 166° | 15km/h | 28880m | 5.1m/s | 0°C | 0% | 0hPa | 2.5V | 00:00:00 | 02:03:51 | 00:00:00 | |
| DO3MHA-11 | 2026-09-01 00:37:29 | 45.59648 | 9.61656 | 261° | 18km/h | 28858m | 5.4m/s | -44.5°C | 3.2% | 0hPa | 2.5V | 00:00:00 | 02:03:47 | 00:00:00 | |
| DB0UT-7 | 2026-09-01 00:37:28 | 45.59648 | 9.61660 | 275° | 22km/h | 28851m | 6.9m/s | -44.5°C | 3.2% | 0hPa | 2.5V | 00:00:00 | 00:00:00 | 00:00:00 | |
| IW2NTF | 2026-09-01 00:37:26 | 45.59646 | 9.61686 | 275° | 22km/h | 28835m | 2.5m/s | -44.5°C | 3.2% | 0hPa | 2.5V | 08:30:00 | 02:03:43 | 00:00:00 | |
| OE5DRO-10 | 2026-09-01 00:37:24 | 45.59646 | 9.61692 | 285° | 22km/h | 28832m | 3.9m/s | -44.5°C | 3.2% | 0hPa | 2.5V | 00:00:00 | 00:00:00 | 00:00:00 | |
| BAUMI2-15 | 2026-09-01 00:37:23 | 45.59645 | 9.61694 | 5° | 16km/h | 28826m | 6.9m/s | -44.5°C | 3.1% | 0hPa | 2.5V | 00:00:00 | 02:03:41 | 08:30:00 | |
| IW2NTF | 2026-09-01 00:37:20 | 45.59667 | 9.61677 | 273° | 33km/h | 28781m | 6.3m/s | -44.6°C | 3.1% | 0hPa | 2.6V | 08:30:00 | 02:03:33 | 00:00:00 | |
| NBG1-10 | 2026-09-01 00:37:20 | 45.59647 | 9.61673 | 115° | 20km/h | 28808m | 3.6m/s | -44.5°C | 3.1% | 0hPa | 2.5V | 00:00:00 | 02:03:38 | 00:00:00 | |
| DO3MHA-11 | 2026-09-01 00:37:19 | 45.59651 | 9.61664 | 133° | 24km/h | 28804m | 4.5m/s | -44.5°C | 3.1% | 0hPa | 2.5V | 00:00:00 | 02:03:37 | 00:00:00 | |
| BAUMI2-15 | 2026-09-01 00:37:18 | 45.59656 | 9.61659 | 165° | 27km/h | 28798m | 5.2m/s | -44.5°C | 3.1% | 0hPa | 2.5V | 00:00:00 | 02:03:36 | 00:00:00 | |
| BAUMI2-15 | 2026-09-01 00:37:13 | 45.59660 | 9.61697 | 323° | 16km/h | 28769m | 4.7m/s | -44.6°C | 3.1% | 0hPa | 2.5V | 00:00:00 | 02:03:31 | 00:00:00 | |
| IW2NTF | 2026-09-01 00:37:10 | 45.59673 | 9.61702 | 233° | 18km/h | 28725m | 6.2m/s | -44.8°C | 3.2% | 0hPa | 2.5V | 08:30:00 | 02:03:23 | 00:00:00 | |
| DO3MHA-11 | 2026-09-01 00:37:09 | 45.59651 | 9.61695 | 154° | 22km/h | 28748m | 7.1m/s | -44.7°C | 3.2% | 0hPa | 2.6V | 00:00:00 | 02:03:27 | 00:00:00 | |
| BAUMI2-15 | 2026-09-01 00:37:08 | 45.59656 | 9.61693 | 176° | 24km/h | 28741m | 5.9m/s | -44.7°C | 3.2% | 0hPa | 2.6V | 00:00:00 | 02:03:26 | 00:00:00 | |
| OE5DRO-10 | 2026-09-01 00:37:05 | 45.59673 | 9.61702 | 234° | 16km/h | 28725m | 6.2m/s | -44.7°C | 3.2% | 0hPa | 2.5V | 00:00:00 | 00:00:00 | 08:30:00 | |
| BAUMI2-15 | 2026-09-01 00:37:03 | 45.59673 | 9.61714 | 302° | 20km/h | 28713m | 5.7m/s | -44.7°C | 3.3% | 0hPa | 2.5V | 00:00:00 | 02:03:21 | 00:00:00 | |
| IW2NTF | 2026-09-01 00:37:00 | 45.59682 | 9.61747 | 184° | 13km/h | 28666m | 6.5m/s | -44.6°C | 3.2% | 0hPa | 2.5V | 08:30:00 | 02:03:13 | 00:00:00 | |
| DO3MHA-11 | 2026-09-01 00:36:59 | 45.59666 | 9.61738 | 240° | 13km/h | 28691m | 6.2m/s | -44.7°C | 3.2% | 0hPa | 2.6V | 00:00:00 | 02:03:17 | 00:00:00 | |
| DB0UT-7 | 2026-09-01 00:36:58 | 45.59669 | 9.61742 | 213° | 15km/h | 28685m | 6.3m/s | -44.6°C | 3.2% | 0hPa | 2.6V | 00:00:00 | 02:03:16 | 00:00:00 | |
| BAUMI2-15 | 2026-09-01 00:36:53 | 45.59685 | 9.61747 | 192° | 11km/h | 28655m | 5.3m/s | -44.5°C | 3.2% | 0hPa | 2.6V | 00:00:00 | 02:03:11 | 00:00:00 | |
| PG1ADW-2 | 2026-09-01 00:36:50 | 45.59690 | 9.61752 | 216° | 16km/h | 28637m | 5.8m/s | 0°C | 0% | 0hPa | 2.6V | 00:00:00 | 02:03:08 | 00:00:00 | |
| IW2NTF | 2026-09-01 00:36:49 | 45.59705 | 9.61777 | 215° | 16km/h | 28608m | 4.7m/s | -44.5°C | 3.2% | 0hPa | 2.6V | 08:30:00 | 02:03:03 | 00:00:00 | |
| DO3MHA-11 | 2026-09-01 00:36:49 | 45.59694 | 9.61756 | 224° | 18km/h | 28631m | 5.1m/s | -44.5°C | 3.2% | 0hPa | 2.5V | 00:00:00 | 02:03:07 | 08:30:00 | |
| BAUMI2-15 | 2026-09-01 00:36:48 | 45.59697 | 9.61762 | 233° | 18km/h | 28625m | 6.5m/s | -44.5°C | 3.2% | 0hPa | 2.6V | 00:00:00 | 02:03:06 | 00:00:00 | |
| NBG1-10 | 2026-09-01 00:36:47 | 45.59700 | 9.61767 | 240° | 15km/h | 28619m | 6.3m/s | -44.4°C | 3.2% | 0hPa | 2.6V | 00:00:00 | 02:03:05 | 00:00:00 | |
| OE5DRO-10 | 2026-09-01 00:36:46 | 45.59702 | 9.61773 | 236° | 15km/h | 28613m | 4.7m/s | -44.4°C | 3.1% | 0hPa | 2.5V | 00:00:00 | 00:00:00 | 00:00:00 | |
| BAUMI2-15 | 2026-09-01 00:36:43 | 45.59714 | 9.61781 | 181° | 15km/h | 28596m | 6.3m/s | -44.4°C | 3.1% | 0hPa | 2.5V | 00:00:00 | 02:03:01 | 00:00:00 | |
| DO3MHA-11 | 2026-09-01 00:36:39 | 45.59729 | 9.61777 | 180° | 11km/h | 28572m | 5.7m/s | -44.4°C | 3.1% | 0hPa | 2.5V | 00:00:00 | 02:02:57 | 00:00:00 | |
| BAUMI2-15 | 2026-09-01 00:36:38 | 45.59730 | 9.61777 | 223° | 13km/h | 28566m | 5.1m/s | -44.4°C | 3.1% | 0hPa | 2.5V | 00:00:00 | 02:02:56 | 08:30:00 | |
| IW2NTF | 2026-09-01 00:36:36 | 45.59737 | 9.61783 | 202° | 18km/h | 28548m | 5.3m/s | -44.4°C | 3.2% | 0hPa | 2.6V | 08:30:00 | 02:02:53 | 00:00:00 | |
| BAUMI2-15 | 2026-09-01 00:36:33 | 45.59745 | 9.61788 | 199° | 15km/h | 28537m | 6.6m/s | -44.3°C | 3.2% | 0hPa | 2.5V | 00:00:00 | 02:02:51 | 00:00:00 | |
| IW2NTF | 2026-09-01 00:36:30 | 45.59775 | 9.61786 | 225° | 9km/h | 28491m | 7.1m/s | -44.5°C | 3.1% | 0hPa | 2.5V | 08:30:00 | 02:02:43 | 00:00:00 | |
| PG1ADW-2 | 2026-09-01 00:36:30 | 45.59754 | 9.61788 | 166° | 16km/h | 28519m | 5.8m/s | 0°C | 0% | 0hPa | 2.5V | 00:00:00 | 00:00:00 | 00:00:00 | |
| DO3MHA-11 | 2026-09-01 00:36:29 | 45.59758 | 9.61787 | 165° | 16km/h | 28513m | 6.6m/s | -44.3°C | 3.1% | 0hPa | 2.5V | 00:00:00 | 02:02:47 | 00:00:00 | |
| DB0UT-7 | 2026-09-01 00:36:28 | 45.59763 | 9.61785 | 169° | 13km/h | 28507m | 5.4m/s | -44.3°C | 3.1% | 0hPa | 2.5V | 00:00:00 | 00:00:00 | 00:00:00 | |
| OE5DRO-10 | 2026-09-01 00:36:27 | 45.59768 | 9.61784 | 176° | 15km/h | 28502m | 4.0m/s | -44.4°C | 3.1% | 0hPa | 2.5V | 00:00:00 | 00:00:00 | 00:00:00 | |
| S52SK | 2026-09-01 00:36:25 | 45.59772 | 9.61784 | 192° | 13km/h | 28498m | 5.1m/s | 0°C | 0% | 0hPa | 2.5V | 00:00:00 | 00:00:00 | 00:00:00 | |
| BAUMI2-15 | 2026-09-01 00:36:23 | 45.59775 | 9.61793 | 284° | 16km/h | 28478m | 5.6m/s | -44.5°C | 3.2% | 0hPa | 2.5V | 00:00:00 | 02:02:41 | 00:00:00 | |
| DO3MHA-11 | 2026-09-01 00:36:19 | 45.59784 | 9.61808 | 177° | 15km/h | 28455m | 5.4m/s | -44.4°C | 3.1% | 0hPa | 2.5V | 00:00:00 | 02:02:37 | 00:00:00 | |
| BAUMI2-15 | 2026-09-01 00:36:18 | 45.59789 | 9.61806 | 163° | 16km/h | 28450m | 5.1m/s | -44.4°C | 3.1% | 0hPa | 2.5V | 00:00:00 | 02:02:36 | 00:00:00 | |
| IW2NTF | 2026-09-01 00:36:16 | 45.59798 | 9.61801 | 183° | 4km/h | 28431m | 5.1m/s | -44.5°C | 3.1% | 0hPa | 2.5V | 08:30:00 | 02:02:33 | 00:00:00 | |
| NBG1-10 | 2026-09-01 00:36:14 | 45.59799 | 9.61802 | 242° | 13km/h | 28427m | 4.7m/s | -44.5°C | 3.1% | 0hPa | 2.5V | 00:00:00 | 02:02:32 | 00:00:00 | |
| IW2NTF | 2026-09-01 00:36:11 | 45.59825 | 9.61818 | 179° | 7km/h | 28377m | 5.2m/s | -44.9°C | 3.2% | 0hPa | 2.5V | 08:30:00 | 02:02:23 | 00:00:00 | |
| BAUMI2-15 | 2026-09-01 00:36:11 | 45.59807 | 9.61813 | 209° | 11km/h | 28409m | 5.5m/s | -44.6°C | 3.1% | 0hPa | 2.5V | 00:00:00 | 02:02:29 | 00:00:00 | |
| PG1ADW-2 | 2026-09-01 00:36:10 | 45.59812 | 9.61816 | 198° | 15km/h | 28404m | 4.9m/s | 0°C | 0% | 0hPa | 2.5V | 00:00:00 | 00:00:00 | 00:00:00 | |
| DO3MHA-11 | 2026-09-01 00:36:09 | 45.59817 | 9.61818 | 192° | 13km/h | 28399m | 5.5m/s | -44.7°C | 3.1% | 0hPa | 2.5V | 00:00:00 | 02:02:27 | 00:00:00 | |
| OE5DRO-10 | 2026-09-01 00:36:08 | 45.59820 | 9.61819 | 184° | 11km/h | 28393m | 6.1m/s | -44.7°C | 3.2% | 0hPa | 2.5V | 00:00:00 | 00:00:00 | 00:00:00 | |
| IW2NTF | 2026-09-01 00:36:01 | 45.59840 | 9.61817 | 129° | 7km/h | 28318m | 6.8m/s | -45°C | 3.1% | 0hPa | 2.6V | 08:30:00 | 02:02:13 | 00:00:00 | |
| DO3MHA-11 | 2026-09-01 00:35:59 | 45.59844 | 9.61825 | 82° | 11km/h | 28342m | 6.7m/s | -44.9°C | 3.2% | 0hPa | 2.5V | 00:00:00 | 02:02:17 | 00:00:00 | |
| DB0UT-7 | 2026-09-01 00:35:58 | 45.59843 | 9.61824 | 30° | 13km/h | 28335m | 6.4m/s | -45.0°C | 3.2% | 0hPa | 2.5V | 00:00:00 | 02:02:16 | 00:00:00 | |
| IW2NTF | 2026-09-01 00:35:50 | 45.59836 | 9.61824 | 47° | 15km/h | 28259m | 5.1m/s | -45.4°C | 3.2% | 0hPa | 2.5V | 08:30:00 | 02:02:03 | 00:00:00 | |
| DL1ZP-14 | 2026-09-01 00:35:47 | 45.59842 | 9.61829 | 5° | 15km/h | 28271m | 6.4m/s | -45.3°C | 0.9% | -1.0hPa | 2.5V | 00:00:00 | 00:00:00 | 00:00:00 | |
| DF7PN | 2026-09-01 00:35:45 | 45.59836 | 9.61824 | 47° | 13km/h | 28259m | 5.1m/s | -45.4°C | 1.0% | -1.0hPa | 2.5V | 00:00:00 | 00:00:00 | 00:00:00 | |
| NBG1-10 | 2026-09-01 00:35:41 | 45.59825 | 9.61814 | 343° | 13km/h | 28237m | 5.0m/s | -45.5°C | 3.2% | 0hPa | 2.5V | 00:00:00 | 02:01:59 | 00:00:00 | |
| DO3MHA-11 | 2026-09-01 00:35:39 | 45.59824 | 9.61819 | 248° | 15km/h | 28225m | 6.7m/s | -45.6°C | 3.2% | 0hPa | 2.5V | 00:00:00 | 02:01:57 | 00:00:00 | |
| IW2NTF | 2026-09-01 00:35:38 | 45.59827 | 9.61836 | 321° | 13km/h | 28203m | 6.6m/s | -45.8°C | 3.2% | 0hPa | 2.5V | 08:30:00 | 02:01:53 | 00:00:00 | |
| PG1ADW-2 | 2026-09-01 00:35:30 | 45.59818 | 9.61824 | 124° | 15km/h | 28174m | 5.3m/s | 0°C | 0% | 0hPa | 2.5V | 00:00:00 | 02:01:48 | 00:00:00 | |
| IW2NTF | 2026-09-01 00:35:29 | 45.59822 | 9.61818 | 314° | 11km/h | 28141m | 6.6m/s | -46°C | 3.2% | 0hPa | 2.5V | 08:30:00 | 02:01:42 | 00:00:00 | |
| DO3MHA-11 | 2026-09-01 00:35:29 | 45.59821 | 9.61819 | 136° | 11km/h | 28170m | 4.5m/s | -45.9°C | 3.3% | 0hPa | 2.6V | 00:00:00 | 02:01:47 | 00:00:00 | |
| DB0UT-7 | 2026-09-01 00:35:28 | 45.59823 | 9.61816 | 140° | 11km/h | 28164m | 5.5m/s | -45.9°C | 3.3% | 0hPa | 2.6V | 00:00:00 | 00:00:00 | 08:30:00 | |
| IW2NTF | 2026-09-01 00:35:19 | 45.59819 | 9.61810 | 190° | 16km/h | 28084m | 4.9m/s | -46.7°C | 3.3% | 0hPa | 2.5V | 08:30:00 | 02:01:32 | 00:00:00 | |
| DO3MHA-11 | 2026-09-01 00:35:19 | 45.59807 | 9.61821 | 28° | 13km/h | 28112m | 3.9m/s | -46.2°C | 3.3% | 0hPa | 2.5V | 00:00:00 | 02:01:37 | 08:30:00 | |
| DL1ZP-14 | 2026-09-01 00:35:16 | 45.59809 | 9.61812 | 156° | 16km/h | 28095m | 6.8m/s | -46.6°C | 1.0% | -1.0hPa | 2.6V | 00:00:00 | 00:00:00 | 00:00:00 | |
| DF7PN | 2026-09-01 00:35:14 | 45.59818 | 9.61810 | 190° | 16km/h | 28084m | 4.9m/s | -46.7°C | 1.0% | -1.0hPa | 2.6V | 00:00:00 | 00:00:00 | 00:00:00 | |
| OE5DRO-10 | 2026-09-01 00:35:11 | 45.59821 | 9.61819 | 307° | 7km/h | 28067m | 5.0m/s | -46.8°C | 3.4% | 0hPa | 2.6V | 00:00:00 | 00:00:00 | 00:00:00 | |
| IW2NTF | 2026-09-01 00:35:09 | 45.59823 | 9.61818 | 283° | 4km/h | 28027m | 6.2m/s | -47.2°C | 3.4% | 0hPa | 2.5V | 08:30:00 | 02:01:22 | 00:00:00 | |
| DO3MHA-11 | 2026-09-01 00:35:09 | 45.59818 | 9.61824 | 346° | 7km/h | 28057m | 5.9m/s | -47.0°C | 3.4% | 0hPa | 2.5V | 00:00:00 | 02:01:27 | 00:00:00 | |
| NBG1-10 | 2026-09-01 00:35:08 | 45.59818 | 9.61823 | 117° | 7km/h | 28050m | 6.1m/s | -47.0°C | 3.4% | 0hPa | 2.5V | 00:00:00 | 02:01:26 | 08:30:00 | |
| IW2NTF | 2026-09-01 00:34:59 | 45.59804 | 9.61812 | 308° | 2km/h | 27971m | 4.8m/s | -47.9°C | 3.6% | 0hPa | 2.5V | 08:30:00 | 02:01:12 | 00:00:00 | |
| DO3MHA-11 | 2026-09-01 00:34:59 | 45.59814 | 9.61819 | 50° | 7km/h | 27999m | 5.6m/s | -47.4°C | 3.5% | 0hPa | 2.5V | 00:00:00 | 02:01:17 | 00:00:00 | |
| DB0UT-7 | 2026-09-01 00:34:58 | 45.59812 | 9.61816 | 48° | 7km/h | 27994m | 5.2m/s | -47.5°C | 3.4% | 0hPa | 2.5V | 00:00:00 | 02:01:16 | 00:00:00 | |
| OE5DRO-10 | 2026-09-01 00:34:52 | 45.59806 | 9.61812 | 161° | 7km/h | 27960m | 6.1m/s | -48.0°C | 3.6% | 0hPa | 2.5V | 00:00:00 | 00:00:00 | 00:00:00 | |
| DO3MHA-11 | 2026-09-01 00:34:49 | 45.59808 | 9.61810 | 348° | 7km/h | 27944m | 6.9m/s | -48.0°C | 3.7% | 0hPa | 2.5V | 00:00:00 | 02:01:07 | 00:00:00 | |
| IW2NTF | 2026-09-01 00:34:48 | 45.59801 | 9.61811 | 142° | 9km/h | 27915m | 5.7m/s | -48.2°C | 3.7% | 0hPa | 2.5V | 08:30:00 | 02:01:02 | 00:00:00 | |
| DL1ZP-14 | 2026-09-01 00:34:45 | 45.59801 | 9.61813 | 84° | 2km/h | 27921m | 6.3m/s | -48.2°C | 1.1% | -1.0hPa | 2.6V | 00:00:00 | 00:00:00 | 00:00:00 | |
| DF7PN | 2026-09-01 00:34:43 | 45.59806 | 9.61808 | 169° | 9km/h | 27904m | 6.1m/s | -48.3°C | -1.0% | -1.0hPa | 2.6V | 00:00:00 | 00:00:00 | 00:00:00 | |
| DO3MHA-11 | 2026-09-01 00:34:39 | 45.59811 | 9.61812 | 231° | 7km/h | 27886m | 4.8m/s | -48.3°C | 3.7% | 0hPa | 2.6V | 00:00:00 | 02:00:57 | 00:00:00 | |
| IW2NTF | 2026-09-01 00:34:37 | 45.59816 | 9.61814 | 282° | 5km/h | 27857m | 6.6m/s | -48.4°C | 3.7% | 0hPa | 2.6V | 08:30:00 | 02:00:52 | 00:00:00 | |
| NBG1-10 | 2026-09-01 00:34:35 | 45.59816 | 9.61813 | 201° | 9km/h | 27864m | 5.8m/s | -48.3°C | 3.8% | 0hPa | 2.6V | 00:00:00 | 02:00:53 | 00:00:00 | |
| OE5DRO-10 | 2026-09-01 00:34:33 | 45.59816 | 9.61816 | 281° | 9km/h | 27852m | 5.0m/s | -48.3°C | 3.7% | 0hPa | 2.6V | 00:00:00 | 00:00:00 | 00:00:00 | |
| DO3MHA-11 | 2026-09-01 00:34:29 | 45.59823 | 9.61820 | 181° | 5km/h | 27829m | 5.1m/s | -48.2°C | 3.7% | 0hPa | 2.6V | 00:00:00 | 02:00:47 | 00:00:00 | |
| DB0UT-7 | 2026-09-01 00:34:28 | 45.59827 | 9.61821 | 190° | 9km/h | 27823m | 5.4m/s | -48.2°C | 3.7% | 0hPa | 2.6V | 00:00:00 | 00:00:00 | 00:00:00 | |
| IW2NTF | 2026-09-01 00:34:27 | 45.59829 | 9.61826 | 335° | 2km/h | 27799m | 6.5m/s | -48.4°C | 3.7% | 0hPa | 2.6V | 08:30:00 | 02:00:42 | 00:00:00 | |
| DO3MHA-11 | 2026-09-01 00:34:19 | 45.59830 | 9.61829 | 248° | 11km/h | 27771m | 5.6m/s | -48.4°C | 3.7% | 0hPa | 2.6V | 00:00:00 | 02:00:37 | 00:00:00 | |
| IW2NTF | 2026-09-01 00:34:17 | 45.59844 | 9.61844 | 226° | 9km/h | 27743m | 6m/s | -48.5°C | 3.7% | 0hPa | 2.6V | 08:30:00 | 02:00:32 | 00:00:00 | |
| OE5DRO-10 | 2026-09-01 00:34:14 | 45.59844 | 9.61844 | 227° | 11km/h | 27743m | 6.0m/s | -48.4°C | 3.7% | 0hPa | 2.6V | 00:00:00 | 00:00:00 | 08:30:00 | |
| DF7PN | 2026-09-01 00:34:12 | 45.59842 | 9.61853 | 316° | 11km/h | 27725m | 4.8m/s | 0°C | -1.0% | -1.0hPa | 2.5V | 00:00:00 | 00:00:00 | 00:00:00 | |
| DO3MHA-11 | 2026-09-01 00:34:09 | 45.59840 | 9.61856 | 172° | 11km/h | 27714m | 6.7m/s | -48.4°C | 3.7% | 0hPa | 2.5V | 00:00:00 | 02:00:27 | 00:00:00 | |
| IW2NTF | 2026-09-01 00:34:07 | 45.59856 | 9.61857 | 236° | 11km/h | 27684m | 5.4m/s | -48.4°C | 3.8% | 0hPa | 2.5V | 08:30:00 | 02:00:22 | 00:00:00 | |
| DO3MHA-11 | 2026-09-01 00:33:59 | 45.59862 | 9.61861 | 149° | 9km/h | 27657m | 4.9m/s | -48.3°C | 3.7% | 0hPa | 2.6V | 00:00:00 | 02:00:17 | 00:00:00 | |
| DB0UT-7 | 2026-09-01 00:33:58 | 45.59865 | 9.61859 | 159° | 9km/h | 27652m | 4.8m/s | -48.3°C | 3.7% | 0hPa | 2.6V | 00:00:00 | 02:00:16 | 00:00:00 | |
| IW2NTF | 2026-09-01 00:33:57 | 45.59873 | 9.61864 | 222° | 7km/h | 27628m | 5.3m/s | -48.3°C | 3.8% | 0hPa | 2.5V | 08:30:00 | 02:00:12 | 00:00:00 | |
| S52SK | 2026-09-01 00:33:56 | 45.59868 | 9.61858 | 182° | 9km/h | 27646m | 6.6m/s | 0°C | 0% | 0hPa | 2.5V | 00:00:00 | 00:00:00 | 00:00:00 | |
| OE5DRO-10 | 2026-09-01 00:33:55 | 45.59871 | 9.61862 | 236° | 7km/h | 27633m | 5.4m/s | -48.3°C | 3.7% | 0hPa | 2.5V | 00:00:00 | 00:00:00 | 00:00:00 | |
| DO3MHA-11 | 2026-09-01 00:33:49 | 45.59879 | 9.61856 | 97° | 7km/h | 27600m | 6.2m/s | -48.2°C | 3.7% | 0hPa | 2.5V | 00:00:00 | 02:00:07 | 08:30:00 | |
| IW2NTF | 2026-09-01 00:33:47 | 45.59885 | 9.61854 | 141° | 15km/h | 27571m | 6m/s | -48.2°C | 3.7% | 0hPa | 2.5V | 08:30:00 | 02:00:02 | 00:00:00 | |
| NBG1-10 | 2026-09-01 00:33:47 | 45.59880 | 9.61856 | 247° | 11km/h | 27588m | 4.8m/s | -48.2°C | 3.7% | 0hPa | 2.5V | 00:00:00 | 02:00:05 | 00:00:00 | |
| DL1ZP-14 | 2026-09-01 00:33:43 | 45.59887 | 9.61851 | 124° | 13km/h | 27566m | 5.0m/s | -48.2°C | 1.1% | -1.0hPa | 2.5V | 00:00:00 | 00:00:00 | 00:00:00 | |
| DF7PN | 2026-09-01 00:33:41 | 45.59885 | 9.61842 | 5° | 7km/h | 27541m | 5.1m/s | 0°C | -1.0% | -1.0hPa | 2.6V | 00:00:00 | 00:00:00 | 00:00:00 | |
| DO3MHA-11 | 2026-09-01 00:33:39 | 45.59885 | 9.61842 | 6° | 9km/h | 27542m | 5.1m/s | -48.1°C | 3.7% | 0hPa | 2.6V | 00:00:00 | 01:59:57 | 00:00:00 | |
| IW2NTF | 2026-09-01 00:33:37 | 45.59887 | 9.61834 | 146° | 7km/h | 27512m | 6.4m/s | -48°C | 3.7% | 0hPa | 2.6V | 08:30:00 | 01:59:52 | 00:00:00 | |
| DO3MHA-11 | 2026-09-01 00:33:29 | 45.59888 | 9.61814 | 87° | 15km/h | 27484m | 5.9m/s | -48.0°C | 3.6% | 0hPa | 2.6V | 00:00:00 | 01:59:47 | 00:00:00 | |
| DB0UT-7 | 2026-09-01 00:33:28 | 45.59887 | 9.61806 | 80° | 13km/h | 27478m | 4.9m/s | -47.9°C | 3.6% | 0hPa | 2.6V | 00:00:00 | 00:00:00 | 00:00:00 | |
| IW2NTF | 2026-09-01 00:33:28 | 45.59882 | 9.61791 | 105° | 2km/h | 27455m | 5.2m/s | -48°C | 3.6% | 0hPa | 2.6V | 08:30:00 | 01:59:42 | 00:00:00 | |
| DO3MHA-11 | 2026-09-01 00:33:19 | 45.59893 | 9.61775 | 114° | 15km/h | 27427m | 6.5m/s | -47.9°C | 3.6% | 0hPa | 2.6V | 00:00:00 | 01:59:37 | 00:00:00 | |
| IW2NTF | 2026-09-01 00:33:17 | 45.59893 | 9.61747 | 106° | 22km/h | 27396m | 6m/s | -48°C | 3.6% | 0hPa | 2.5V | 08:30:00 | 01:59:32 | 00:00:00 | |
| OE5DRO-10 | 2026-09-01 00:33:17 | 45.59893 | 9.61766 | 73° | 13km/h | 27415m | 5.3m/s | -47.9°C | 3.6% | 0hPa | 2.5V | 00:00:00 | 00:00:00 | 00:00:00 | |
| NBG1-10 | 2026-09-01 00:33:14 | 45.59893 | 9.61747 | 107° | 13km/h | 27397m | 6.0m/s | -47.9°C | 3.6% | 0hPa | 2.5V | 00:00:00 | 01:59:32 | 00:00:00 | |
| DL1ZP-14 | 2026-09-01 00:33:12 | 45.59897 | 9.61735 | 120° | 15km/h | 27385m | 6.3m/s | -48.0°C | 1.1% | -1.0hPa | 2.6V | 00:00:00 | 00:00:00 | 00:00:00 | |
| DO3MHA-11 | 2026-09-01 00:33:09 | 45.59901 | 9.61727 | 138° | 11km/h | 27368m | 4.8m/s | -48.1°C | 3.6% | 0hPa | 2.6V | 00:00:00 | 01:59:27 | 00:00:00 | |
| IW2NTF | 2026-09-01 00:33:07 | 45.59911 | 9.61704 | 93° | 15km/h | 27340m | 6.6m/s | -48.2°C | 3.6% | 0hPa | 2.6V | 08:30:00 | 01:59:22 | 00:00:00 | |
| DO3MHA-11 | 2026-09-01 00:32:59 | 45.59912 | 9.61690 | 143° | 15km/h | 27311m | 6.8m/s | -48.4°C | 3.6% | 0hPa | 2.5V | 00:00:00 | 01:59:17 | 00:00:00 | |
| DB0UT-7 | 2026-09-01 00:32:58 | 45.59915 | 9.61687 | 141° | 11km/h | 27305m | 5.4m/s | -48.4°C | 3.6% | 0hPa | 2.5V | 00:00:00 | 01:59:16 | 00:00:00 | |
| IW2NTF | 2026-09-01 00:32:57 | 45.59921 | 9.61671 | 71° | 11km/h | 27282m | 5.1m/s | -48.6°C | 3.6% | 0hPa | 2.5V | 08:30:00 | 01:59:12 | 00:00:00 | |
| BAUMI2-15 | 2026-09-01 00:32:51 | 45.59918 | 9.61656 | 79° | 11km/h | 27265m | 4.7m/s | -48.7°C | 3.7% | 0hPa | 2.5V | 00:00:00 | 01:59:09 | 00:00:00 | |
| DO3MHA-11 | 2026-09-01 00:32:49 | 45.59916 | 9.61647 | 62° | 9km/h | 27255m | 6.0m/s | -48.8°C | 3.7% | 0hPa | 2.5V | 00:00:00 | 01:59:07 | 00:00:00 | |
| IW2NTF | 2026-09-01 00:32:47 | 45.59913 | 9.61642 | 134° | 13km/h | 27225m | 7.2m/s | -49°C | 3.7% | 0hPa | 2.5V | 08:30:00 | 01:59:02 | 00:00:00 | |
| BAUMI2-15 | 2026-09-01 00:32:46 | 45.59912 | 9.61644 | 350° | 7km/h | 27238m | 4.4m/s | -48.8°C | 3.7% | 0hPa | 2.5V | 00:00:00 | 01:59:04 | 00:00:00 | |
| NBG1-10 | 2026-09-01 00:32:41 | 45.59920 | 9.61628 | 110° | 9km/h | 27208m | 6.2m/s | -49.1°C | 3.7% | 0hPa | 2.5V | 00:00:00 | 01:58:59 | 00:00:00 | |
| OE5DXL-15 | 2026-09-01 00:32:40 | 45.59920 | 9.61625 | 61° | 9km/h | 27202m | 6.2m/s | 0°C | 0% | 0hPa | 2.5V | 00:00:00 | 00:00:00 | 00:00:00 | |
| DO3MHA-11 | 2026-09-01 00:32:39 | 45.59919 | 9.61624 | 4° | 9km/h | 27196m | 5.3m/s | -49.1°C | 3.7% | 0hPa | 2.5V | 00:00:00 | 01:58:57 | 00:00:00 | |
| IW2NTF | 2026-09-01 00:32:37 | 45.59914 | 9.61617 | 102° | 13km/h | 27167m | 5.5m/s | -49.4°C | 3.8% | 0hPa | 2.5V | 08:30:00 | 01:58:52 | 00:00:00 | |
| BAUMI2-15 | 2026-09-01 00:32:36 | 45.59914 | 9.61623 | 73° | 9km/h | 27179m | 5.9m/s | -49.2°C | 3.8% | 0hPa | 2.6V | 00:00:00 | 01:58:54 | 08:30:00 | |
| BAUMI2-15 | 2026-09-01 00:32:31 | 45.59916 | 9.61605 | 111° | 9km/h | 27150m | 4.8m/s | -49.6°C | 3.8% | 0hPa | 2.5V | 00:00:00 | 01:58:49 | 00:00:00 | |
| DO3MHA-11 | 2026-09-01 00:32:29 | 45.59919 | 9.61601 | 159° | 7km/h | 27138m | 6.4m/s | -49.8°C | 3.9% | 0hPa | 2.5V | 00:00:00 | 01:58:47 | 00:00:00 | |
| IW2NTF | 2026-09-01 00:32:28 | 45.59925 | 9.61601 | 62° | 2km/h | 27109m | 5.3m/s | -49.9°C | 4% | 0hPa | 2.5V | 08:30:00 | 01:58:42 | 00:00:00 | |
| BAUMI2-15 | 2026-09-01 00:32:27 | 45.59925 | 9.61601 | 239° | 7km/h | 27120m | 6.5m/s | -49.8°C | 3.9% | 0hPa | 2.6V | 00:00:00 | 01:58:44 | 00:00:00 | |
| BAUMI2-15 | 2026-09-01 00:32:21 | 45.59927 | 9.61594 | 113° | 7km/h | 27091m | 5.4m/s | -49.9°C | 4.0% | 0hPa | 2.6V | 00:00:00 | 01:58:39 | 00:00:00 | |
| OE5DRO-10 | 2026-09-01 00:32:20 | 45.59927 | 9.61590 | 102° | 9km/h | 27085m | 6.5m/s | -49.9°C | 4.0% | 0hPa | 2.6V | 00:00:00 | 00:00:00 | 00:00:00 | |
| IW2NTF | 2026-09-01 00:32:17 | 45.59937 | 9.61590 | 183° | 13km/h | 27050m | 4.4m/s | -50°C | 4% | 0hPa | 2.5V | 08:30:00 | 01:58:32 | 00:00:00 | |
| BAUMI2-15 | 2026-09-01 00:32:16 | 45.59930 | 9.61589 | 195° | 9km/h | 27061m | 7.1m/s | -50.0°C | 4.0% | 0hPa | 2.6V | 00:00:00 | 01:58:34 | 00:00:00 | |
| DL1ZP-14 | 2026-09-01 00:32:10 | 45.59940 | 9.61585 | 80° | 9km/h | 27027m | 5.3m/s | -50.1°C | -1.0% | -1.0hPa | 2.6V | 00:00:00 | 00:00:00 | 00:00:00 | |
| DO3MHA-11 | 2026-09-01 00:32:09 | 45.59940 | 9.61581 | 97° | 11km/h | 27021m | 6.6m/s | -50.1°C | 4.1% | 0hPa | 2.6V | 00:00:00 | 01:58:27 | 00:00:00 | |
| IW2NTF | 2026-09-01 00:32:07 | 45.59945 | 9.61564 | 280° | 4km/h | 26991m | 5.9m/s | -50°C | 4.1% | 0hPa | 2.6V | 08:30:00 | 01:58:22 | 00:00:00 | |
| BAUMI2-15 | 2026-09-01 00:32:06 | 45.59944 | 9.61566 | 120° | 7km/h | 27004m | 5.7m/s | -50.0°C | 4.0% | 0hPa | 2.5V | 00:00:00 | 01:58:24 | 00:00:00 | |
| NBG1-10 | 2026-09-01 00:32:04 | 45.59945 | 9.61564 | 281° | 9km/h | 26992m | 5.9m/s | -50.0°C | 4.1% | 0hPa | 2.6V | 00:00:00 | 01:58:22 | 00:00:00 | |
| BAUMI2-15 | 2026-09-01 00:32:01 | 45.59947 | 9.61573 | 216° | 9km/h | 26975m | 6.1m/s | -50.0°C | 4.0% | 0hPa | 2.6V | 00:00:00 | 01:58:19 | 00:00:00 | |
| DO3MHA-11 | 2026-09-01 00:31:59 | 45.59951 | 9.61572 | 132° | 9km/h | 26964m | 5.7m/s | -49.9°C | 4.0% | 0hPa | 2.6V | 00:00:00 | 01:58:17 | 00:00:00 | |
| DB0UT-7 | 2026-09-01 00:31:58 | 45.59951 | 9.61570 | 89° | 9km/h | 26957m | 7.2m/s | -49.9°C | 4.0% | 0hPa | 2.6V | 00:00:00 | 01:58:16 | 00:00:00 | |
| IW2NTF | 2026-09-01 00:31:57 | 45.59948 | 9.61557 | 123° | 7km/h | 26935m | 6.3m/s | -50°C | 4% | 0hPa | 2.6V | 08:30:00 | 01:58:12 | 00:00:00 | |
| BAUMI2-15 | 2026-09-01 00:31:56 | 45.59949 | 9.61563 | 57° | 11km/h | 26946m | 4.5m/s | -49.9°C | 4.0% | 0hPa | 2.5V | 00:00:00 | 01:58:14 | 00:00:00 | |
| PG1ADW-2 | 2026-09-01 00:31:53 | 45.59950 | 9.61556 | 164° | 9km/h | 26929m | 6.2m/s | 0°C | 0% | 0hPa | 2.5V | 00:00:00 | 00:00:00 | 00:00:00 | |
| BAUMI2-15 | 2026-09-01 00:31:51 | 45.59956 | 9.61555 | 186° | 7km/h | 26918m | 5.0m/s | -49.8°C | 4.0% | 0hPa | 2.5V | 00:00:00 | 01:58:09 | 08:30:00 | |
| IW2NTF | 2026-09-01 00:31:49 | 45.59958 | 9.61540 | 121° | 13km/h | 26877m | 5.4m/s | -49.7°C | 3.9% | 0hPa | 2.6V | 08:30:00 | 01:58:02 | 00:00:00 | |
| DO3MHA-11 | 2026-09-01 00:31:49 | 45.59959 | 9.61555 | 22° | 9km/h | 26906m | 6.1m/s | -49.8°C | 4.0% | 0hPa | 2.6V | 00:00:00 | 01:58:07 | 00:00:00 | |
| BAUMI2-15 | 2026-09-01 00:31:46 | 45.59956 | 9.61548 | 90° | 9km/h | 26889m | 6.8m/s | -49.7°C | 4.0% | 0hPa | 2.5V | 00:00:00 | 01:58:04 | 00:00:00 | |
| OE5DRO-10 | 2026-09-01 00:31:42 | 45.59960 | 9.61535 | 147° | 7km/h | 26865m | 5.7m/s | -49.6°C | 4.0% | 0hPa | 2.5V | 00:00:00 | 00:00:00 | 00:00:00 | |
| BAUMI2-15 | 2026-09-01 00:31:41 | 45.59961 | 9.61535 | 205° | 7km/h | 26859m | 5.4m/s | -49.6°C | 4.0% | 0hPa | 2.5V | 00:00:00 | 01:57:59 | 00:00:00 | |
| IW2NTF | 2026-09-01 00:31:37 | 45.59964 | 9.61540 | 31° | 11km/h | 26819m | 4m/s | -49.6°C | 4% | 0hPa | 2.5V | 08:30:00 | 01:57:52 | 00:00:00 | |
| BAUMI2-15 | 2026-09-01 00:31:36 | 45.59968 | 9.61542 | 351° | 13km/h | 26830m | 7.0m/s | -49.6°C | 4.0% | 0hPa | 2.5V | 00:00:00 | 01:57:54 | 00:00:00 | |
| OE5DXL-15 | 2026-09-01 00:31:31 | 45.59964 | 9.61532 | 155° | 11km/h | 26802m | 5.5m/s | 0°C | 0% | 0hPa | 2.5V | 00:00:00 | 01:57:49 | 00:00:00 | |
| IW2NTF | 2026-09-01 00:31:29 | 45.59971 | 9.61533 | 87° | 5km/h | 26762m | 6.2m/s | -49.3°C | 3.9% | 0hPa | 2.5V | 08:30:00 | 01:57:42 | 00:00:00 | |
| DO3MHA-11 | 2026-09-01 00:31:29 | 45.59971 | 9.61530 | 185° | 7km/h | 26792m | 5.9m/s | -49.4°C | 3.9% | 0hPa | 2.5V | 00:00:00 | 01:57:47 | 00:00:00 | |
| DB0UT-7 | 2026-09-01 00:31:28 | 45.59973 | 9.61531 | 215° | 11km/h | 26786m | 6.2m/s | -49.4°C | 3.9% | 0hPa | 2.5V | 00:00:00 | 00:00:00 | 00:00:00 | |
| OE5DRO-10 | 2026-09-01 00:31:23 | 45.59971 | 9.61531 | 103° | 11km/h | 26757m | 5.1m/s | -49.2°C | 3.9% | 0hPa | 2.5V | 00:00:00 | 00:00:00 | 08:30:00 | |
| DO3MHA-11 | 2026-09-01 00:31:19 | 45.59971 | 9.61521 | 143° | 9km/h | 26735m | 4.6m/s | -49.1°C | 3.9% | 0hPa | 2.5V | 00:00:00 | 01:57:37 | 00:00:00 | |
| IW2NTF | 2026-09-01 00:31:17 | 45.59982 | 9.61529 | 246° | 9km/h | 26706m | 6.3m/s | -49°C | 3.8% | 0hPa | 2.6V | 08:30:00 | 01:57:32 | 00:00:00 | |
| IW2NTF | 2026-09-01 00:31:09 | 45.59989 | 9.61522 | 244° | 18km/h | 26649m | 5.1m/s | -49°C | 3.8% | 0hPa | 2.5V | 08:30:00 | 01:57:22 | 00:00:00 | |
| DO3MHA-11 | 2026-09-01 00:31:09 | 45.59975 | 9.61525 | 105° | 15km/h | 26677m | 6.5m/s | -48.9°C | 3.8% | 0hPa | 2.5V | 00:00:00 | 01:57:27 | 00:00:00 | |
| OE5DRO-10 | 2026-09-01 00:31:04 | 45.59989 | 9.61522 | 245° | 13km/h | 26649m | 5.0m/s | -48.9°C | 3.8% | 0hPa | 2.5V | 00:00:00 | 00:00:00 | 00:00:00 | |
| OE5DXL-15 | 2026-09-01 00:31:01 | 45.59995 | 9.61538 | 231° | 11km/h | 26633m | 5.4m/s | 0°C | 0% | 0hPa | 2.5V | 00:00:00 | 00:00:00 | 00:00:00 | |
| DO3MHA-11 | 2026-09-01 00:30:59 | 45.59996 | 9.61539 | 92° | 15km/h | 26622m | 6.7m/s | -48.9°C | 3.8% | 0hPa | 2.5V | 00:00:00 | 01:57:17 | 00:00:00 | |
| DB0UT-7 | 2026-09-01 00:30:58 | 45.59996 | 9.61536 | 73° | 16km/h | 26615m | 6.1m/s | -48.9°C | 3.8% | 0hPa | 2.5V | 00:00:00 | 01:57:16 | 08:30:00 | |
| IW2NTF | 2026-09-01 00:30:57 | 45.59999 | 9.61513 | 131° | 22km/h | 26592m | 5.6m/s | -49°C | 3.8% | 0hPa | 2.5V | 08:30:00 | 01:57:12 | 00:00:00 | |
| IW2NTF | 2026-09-01 00:30:49 | 45.60015 | 9.61495 | 108° | 29km/h | 26539m | 5.2m/s | -49.1°C | 3.9% | 0hPa | 2.6V | 08:30:00 | 01:57:02 | 00:00:00 | |
| DO3MHA-11 | 2026-09-01 00:30:49 | 45.60012 | 9.61515 | 287° | 16km/h | 26566m | 4.1m/s | -49.0°C | 3.8% | 0hPa | 2.6V | 00:00:00 | 01:57:07 | 08:30:00 | |
| DO3MHA-11 | 2026-09-01 00:30:39 | 45.60024 | 9.61473 | 189° | 18km/h | 26512m | 6.3m/s | -49.0°C | 3.9% | 0hPa | 2.6V | 00:00:00 | 01:56:57 | 00:00:00 | |
| IW2NTF | 2026-09-01 00:30:37 | 45.60041 | 9.61467 | 87° | 11km/h | 26485m | 6.6m/s | -48.9°C | 3.8% | 0hPa | 2.6V | 08:30:00 | 01:56:52 | 00:00:00 | |
| IW2NTF | 2026-09-01 00:30:29 | 45.60044 | 9.61409 | 119° | 11km/h | 26430m | 4.4m/s | -48.7°C | 3.6% | 0hPa | 2.6V | 08:30:00 | 01:56:42 | 00:00:00 | |
| DO3MHA-11 | 2026-09-01 00:30:29 | 45.60040 | 9.61431 | 105° | 18km/h | 26458m | 4.9m/s | -48.7°C | 3.7% | 0hPa | 2.5V | 00:00:00 | 01:56:47 | 00:00:00 | |
| DB0UT-7 | 2026-09-01 00:30:28 | 45.60041 | 9.61424 | 105° | 20km/h | 26452m | 6.3m/s | -48.7°C | 3.8% | 0hPa | 2.5V | 00:00:00 | 00:00:00 | 00:00:00 | |
| OE5DRO-10 | 2026-09-01 00:30:26 | 45.60042 | 9.61416 | 95° | 20km/h | 26440m | 5.0m/s | -48.7°C | 3.7% | 0hPa | 2.5V | 00:00:00 | 00:00:00 | 00:00:00 | |
| NBG1-10 | 2026-09-01 00:30:25 | 45.60042 | 9.61412 | 106° | 20km/h | 26435m | 3.9m/s | -48.7°C | 3.7% | 0hPa | 2.6V | 00:00:00 | 01:56:43 | 00:00:00 | |
| IW2NTF | 2026-09-01 00:30:13 | 45.60045 | 9.61318 | 126° | 20km/h | 26362m | 6.3m/s | -48.9°C | 3.6% | 0hPa | 2.6V | 08:30:00 | 01:56:30 | 00:00:00 | |
| DO3MHA-11 | 2026-09-01 00:30:09 | 45.60053 | 9.61303 | 127° | 20km/h | 26346m | 5.3m/s | -49.0°C | 3.6% | 0hPa | 2.6V | 00:00:00 | 01:56:27 | 00:00:00 | |
| OE5DRO-10 | 2026-09-01 00:30:07 | 45.60058 | 9.61291 | 102° | 18km/h | 26335m | 4.3m/s | -49.2°C | 3.7% | 0hPa | 2.6V | 00:00:00 | 00:00:00 | 00:00:00 | |
| IW2NTF | 2026-09-01 00:30:03 | 45.60043 | 9.61263 | 47° | 20km/h | 26307m | 4.8m/s | -49.7°C | 3.8% | 0hPa | 2.6V | 08:30:00 | 01:56:20 | 00:00:00 | |
| DO3MHA-11 | 2026-09-01 00:29:59 | 45.60042 | 9.61242 | 114° | 18km/h | 26291m | 4.6m/s | -49.8°C | 3.8% | 0hPa | 2.5V | 00:00:00 | 01:56:17 | 00:00:00 | |
| DB0UT-7 | 2026-09-01 00:29:58 | 45.60045 | 9.61234 | 112° | 22km/h | 26286m | 5.6m/s | -49.9°C | 3.9% | 0hPa | 2.5V | 00:00:00 | 01:56:16 | 00:00:00 | |
| IW2NTF | 2026-09-01 00:29:53 | 45.60037 | 9.61201 | 51° | 15km/h | 26253m | 5.7m/s | -50.2°C | 3.9% | 0hPa | 2.5V | 08:30:00 | 01:56:10 | 00:00:00 | |
| NBG1-10 | 2026-09-01 00:29:52 | 45.60037 | 9.61201 | 52° | 24km/h | 26253m | 5.7m/s | -50.2°C | 3.9% | 0hPa | 2.5V | 00:00:00 | 01:56:10 | 08:30:00 | |
| DO3MHA-11 | 2026-09-01 00:29:49 | 45.60029 | 9.61190 | 31° | 18km/h | 26238m | 5.9m/s | -50.2°C | 3.9% | 0hPa | 2.6V | 00:00:00 | 01:56:07 | 00:00:00 | |
| OE5DRO-10 | 2026-09-01 00:29:48 | 45.60024 | 9.61186 | 22° | 24km/h | 26232m | 6.8m/s | -50.3°C | 4.0% | 0hPa | 2.5V | 00:00:00 | 00:00:00 | 00:00:00 | |
| IW2NTF | 2026-09-01 00:29:43 | 45.60003 | 9.61165 | 39° | 15km/h | 26199m | 5.5m/s | -50.6°C | 4% | 0hPa | 2.5V | 08:30:00 | 01:56:00 | 00:00:00 | |
| DO3MHA-11 | 2026-09-01 00:29:39 | 45.59987 | 9.61157 | 16° | 27km/h | 26184m | 4.6m/s | -50.6°C | 4.0% | 0hPa | 2.6V | 00:00:00 | 01:55:57 | 00:00:00 | |
| IW2NTF | 2026-09-01 00:29:34 | 45.59940 | 9.61134 | 355° | 29km/h | 26145m | 5m/s | -50.8°C | 4.1% | 0hPa | 2.6V | 08:30:00 | 01:55:50 | 00:00:00 | |
| DF7PN | 2026-09-01 00:29:32 | 45.59940 | 9.61134 | 355° | 29km/h | 26145m | 5.0m/s | 0°C | -1.0% | -1.0hPa | 2.6V | 00:00:00 | 00:00:00 | 00:00:00 | |
| DO3MHA-11 | 2026-09-01 00:29:29 | 45.59922 | 9.61137 | 357° | 24km/h | 26129m | 5.1m/s | -50.8°C | 4.1% | 0hPa | 2.6V | 00:00:00 | 01:55:47 | 00:00:00 | |
| DB0UT-7 | 2026-09-01 00:29:28 | 45.59917 | 9.61137 | 1° | 22km/h | 26125m | 4.3m/s | -50.8°C | 4.1% | 0hPa | 2.6V | 00:00:00 | 00:00:00 | 00:00:00 | |
| BAUMI2-15 | 2026-09-01 00:29:26 | 45.59904 | 9.61137 | 360° | 29km/h | 26113m | 6.1m/s | -50.8°C | 4.1% | 0hPa | 2.6V | 00:00:00 | 01:55:44 | 00:00:00 | |
| IW2NTF | 2026-09-01 00:29:24 | 45.59870 | 9.61133 | 4° | 18km/h | 26087m | 4.4m/s | -50.9°C | 4.1% | 0hPa | 2.6V | 08:30:00 | 01:55:39 | 00:00:00 | |
| BAUMI2-15 | 2026-09-01 00:29:21 | 45.59870 | 9.61132 | 5° | 24km/h | 26087m | 4.3m/s | -50.9°C | 4.1% | 0hPa | 2.5V | 00:00:00 | 01:55:39 | 00:00:00 | |
| DO3MHA-11 | 2026-09-01 00:29:19 | 45.59860 | 9.61135 | 338° | 26km/h | 26077m | 6.4m/s | -50.9°C | 4.2% | 0hPa | 2.5V | 00:00:00 | 01:55:37 | 08:30:00 | |
| BAUMI2-15 | 2026-09-01 00:29:16 | 45.59843 | 9.61150 | 327° | 24km/h | 26060m | 6.2m/s | -50.8°C | 4.1% | 0hPa | 2.6V | 00:00:00 | 01:55:34 | 00:00:00 | |
| BAUMI2-15 | 2026-09-01 00:29:11 | 45.59815 | 9.61160 | 354° | 18km/h | 26032m | 4.7m/s | -50.8°C | 4.1% | 0hPa | 2.6V | 00:00:00 | 01:55:29 | 00:00:00 | |
| IW2NTF | 2026-09-01 00:29:10 | 45.59793 | 9.61178 | 304° | 20km/h | 26000m | 6.2m/s | -51°C | 4.1% | 0hPa | 2.6V | 08:30:00 | 01:55:23 | 00:00:00 | |
| OE5DRO-10 | 2026-09-01 00:29:10 | 45.59808 | 9.61162 | 351° | 18km/h | 26028m | 4.3m/s | -50.9°C | 4.1% | 0hPa | 2.6V | 00:00:00 | 00:00:00 | 00:00:00 | |
| DO3MHA-11 | 2026-09-01 00:29:09 | 45.59803 | 9.61163 | 345° | 20km/h | 26023m | 5.9m/s | -50.9°C | 4.1% | 0hPa | 2.6V | 00:00:00 | 01:55:27 | 00:00:00 | |
| BAUMI2-15 | 2026-09-01 00:29:06 | 45.59796 | 9.61173 | 296° | 26km/h | 26006m | 4.8m/s | -51.0°C | 4.1% | 0hPa | 2.6V | 00:00:00 | 01:55:24 | 00:00:00 | |
| BAUMI2-15 | 2026-09-01 00:29:01 | 45.59772 | 9.61203 | 333° | 20km/h | 25979m | 6.0m/s | -51.0°C | 4.2% | 0hPa | 2.6V | 00:00:00 | 01:55:19 | 08:30:00 | |
| DO3MHA-11 | 2026-09-01 00:28:59 | 45.59764 | 9.61208 | 338° | 18km/h | 25968m | 4.9m/s | -51.1°C | 4.1% | 0hPa | 2.6V | 00:00:00 | 01:55:17 | 00:00:00 | |
| IW2NTF | 2026-09-01 00:28:58 | 45.59755 | 9.61223 | 293° | 20km/h | 25945m | 5.1m/s | -51.2°C | 4.2% | 0hPa | 2.6V | 08:30:00 | 01:55:13 | 00:00:00 | |
| BAUMI2-15 | 2026-09-01 00:28:52 | 45.59751 | 9.61243 | 292° | 22km/h | 25929m | 4.4m/s | -51.2°C | 4.1% | 0hPa | 2.6V | 00:00:00 | 01:55:10 | 00:00:00 | |
| OE5DRO-10 | 2026-09-01 00:28:51 | 45.59748 | 9.61249 | 309° | 18km/h | 25924m | 5.6m/s | -51.2°C | 4.2% | 0hPa | 2.6V | 00:00:00 | 00:00:00 | 00:00:00 | |
| IW2NTF | 2026-09-01 00:28:50 | 45.59724 | 9.61272 | 294° | 11km/h | 25891m | 5.2m/s | -51.2°C | 4.2% | 0hPa | 2.6V | 08:30:00 | 01:55:03 | 00:00:00 | |
| DO3MHA-11 | 2026-09-01 00:28:49 | 45.59739 | 9.61259 | 334° | 16km/h | 25913m | 4.7m/s | -51.2°C | 4.1% | 0hPa | 2.6V | 00:00:00 | 01:55:07 | 00:00:00 | |
| BAUMI2-15 | 2026-09-01 00:28:47 | 45.59729 | 9.61266 | 331° | 15km/h | 25903m | 6.2m/s | -51.1°C | 4.1% | 0hPa | 2.5V | 00:00:00 | 01:55:05 | 00:00:00 | |
| NBG1-10 | 2026-09-01 00:28:46 | 45.59726 | 9.61269 | 315° | 13km/h | 25897m | 5.9m/s | -51.2°C | 4.1% | 0hPa | 2.5V | 00:00:00 | 01:55:04 | 00:00:00 | |
| BAUMI2-15 | 2026-09-01 00:28:42 | 45.59719 | 9.61287 | 303° | 16km/h | 25874m | 4.9m/s | -51.3°C | 4.2% | 0hPa | 2.5V | 00:00:00 | 01:55:00 | 00:00:00 | |
| DO3MHA-11 | 2026-09-01 00:28:39 | 45.59712 | 9.61301 | 318° | 15km/h | 25857m | 5.2m/s | -51.3°C | 4.2% | 0hPa | 2.5V | 00:00:00 | 01:54:57 | 00:00:00 | |
| IW2NTF | 2026-09-01 00:28:37 | 45.59694 | 9.61312 | 335° | 22km/h | 25836m | 3.8m/s | -51.5°C | 4.2% | 0hPa | 2.5V | 08:30:00 | 01:54:53 | 00:00:00 | |
| BAUMI2-15 | 2026-09-01 00:28:37 | 45.59705 | 9.61306 | 339° | 18km/h | 25847m | 6.1m/s | -51.4°C | 4.2% | 0hPa | 2.6V | 00:00:00 | 01:54:55 | 00:00:00 | |
| S52SK | 2026-09-01 00:28:33 | 45.59690 | 9.61316 | 326° | 16km/h | 25832m | 4.3m/s | 0°C | 0% | 0hPa | 2.6V | 00:00:00 | 00:00:00 | 00:00:00 | |
| BAUMI2-15 | 2026-09-01 00:28:32 | 45.59687 | 9.61322 | 242° | 9km/h | 25820m | 6.7m/s | -51.4°C | 4.2% | 0hPa | 2.6V | 00:00:00 | 01:54:50 | 00:00:00 | |
| IW2NTF | 2026-09-01 00:28:29 | 45.59678 | 9.61334 | 356° | 11km/h | 25769m | 5.8m/s | -51.4°C | 4.1% | 0hPa | 2.6V | 08:30:00 | 01:54:41 | 00:00:00 | |
| DO3MHA-11 | 2026-09-01 00:28:29 | 45.59693 | 9.61329 | 245° | 11km/h | 25804m | 5.8m/s | -51.3°C | 4.2% | 0hPa | 2.5V | 00:00:00 | 01:54:47 | 00:00:00 | |
| DB0UT-7 | 2026-09-01 00:28:28 | 45.59692 | 9.61330 | 327° | 13km/h | 25798m | 5.9m/s | -51.3°C | 4.2% | 0hPa | 2.5V | 00:00:00 | 00:00:00 | 00:00:00 | |
| BAUMI2-15 | 2026-09-01 00:28:27 | 45.59690 | 9.61332 | 346° | 13km/h | 25792m | 5.4m/s | -51.3°C | 4.2% | 0hPa | 2.5V | 00:00:00 | 01:54:45 | 00:00:00 | |
| BAUMI2-15 | 2026-09-01 00:28:22 | 45.59674 | 9.61334 | 355° | 7km/h | 25764m | 5.8m/s | -51.4°C | 4.2% | 0hPa | 2.5V | 00:00:00 | 01:54:40 | 00:00:00 | |
| DO3MHA-11 | 2026-09-01 00:28:19 | 45.59671 | 9.61337 | 222° | 13km/h | 25747m | 6.9m/s | -51.4°C | 4.1% | 0hPa | 2.5V | 00:00:00 | 01:54:37 | 00:00:00 | |
| IW2NTF | 2026-09-01 00:28:18 | 45.59661 | 9.61346 | 358° | 22km/h | 25715m | 5.5m/s | -51.6°C | 4.2% | 0hPa | 2.5V | 08:30:00 | 01:54:31 | 00:00:00 | |
| BAUMI2-15 | 2026-09-01 00:28:17 | 45.59673 | 9.61340 | 243° | 16km/h | 25737m | 4.0m/s | -51.5°C | 4.2% | 0hPa | 2.5V | 00:00:00 | 01:54:35 | 00:00:00 | |
| OE5DRO-10 | 2026-09-01 00:28:13 | 45.59660 | 9.61346 | 359° | 16km/h | 25715m | 5.5m/s | -51.6°C | 4.2% | 0hPa | 2.5V | 00:00:00 | 00:00:00 | 00:00:00 | |
| BAUMI2-15 | 2026-09-01 00:28:10 | 45.59648 | 9.61343 | 26° | 16km/h | 25700m | 4.2m/s | 0°C | 0% | 0hPa | 2.5V | 00:00:00 | 01:54:28 | 08:30:00 | |
| DO3MHA-11 | 2026-09-01 00:28:09 | 45.59645 | 9.61341 | 25° | 15km/h | 25695m | 5.1m/s | -51.6°C | 4.2% | 0hPa | 2.5V | 00:00:00 | 01:54:27 | 00:00:00 | |
| BAUMI2-15 | 2026-09-01 00:28:05 | 45.59629 | 9.61335 | 15° | 13km/h | 25673m | 5.1m/s | 0°C | 0% | 0hPa | 2.5V | 00:00:00 | 01:54:23 | 00:00:00 | |
| IW2NTF | 2026-09-01 00:28:03 | 45.59623 | 9.61332 | 26° | 9km/h | 25662m | 4.8m/s | -51.6°C | 4.3% | 0hPa | 2.5V | 08:30:00 | 01:54:21 | 00:00:00 | |
| NBG1-10 | 2026-09-01 00:28:02 | 45.59621 | 9.61330 | 15° | 20km/h | 25658m | 3.8m/s | -51.6°C | 4.3% | 0hPa | 2.5V | 00:00:00 | 01:54:20 | 00:00:00 | |
| BAUMI2-15 | 2026-09-01 00:28:00 | 45.59612 | 9.61330 | 360° | 22km/h | 25647m | 6.3m/s | 0°C | 0% | 0hPa | 2.5V | 00:00:00 | 01:54:18 | 00:00:00 | |
| DO3MHA-11 | 2026-09-01 00:27:59 | 45.59606 | 9.61330 | 356° | 18km/h | 25641m | 5.1m/s | -51.6°C | 4.3% | 0hPa | 2.5V | 00:00:00 | 01:54:17 | 00:00:00 | |
| DB0UT-7 | 2026-09-01 00:27:58 | 45.59600 | 9.61331 | 353° | 20km/h | 25636m | 5.3m/s | -51.6°C | 4.3% | 0hPa | 2.5V | 00:00:00 | 01:54:16 | 00:00:00 | |
| BAUMI2-15 | 2026-09-01 00:27:55 | 45.59585 | 9.61336 | 344° | 16km/h | 25619m | 4.8m/s | 0°C | 0% | 0hPa | 2.6V | 00:00:00 | 01:54:13 | 00:00:00 | |
| IW2NTF | 2026-09-01 00:27:53 | 45.59576 | 9.61339 | 348° | 20km/h | 25607m | 5.6m/s | -51.7°C | 4.2% | 0hPa | 2.6V | 08:30:00 | 01:54:11 | 00:00:00 | |
| DO3MHA-11 | 2026-09-01 00:27:49 | 45.59561 | 9.61343 | 348° | 22km/h | 25586m | 4.0m/s | -51.7°C | 4.2% | 0hPa | 2.5V | 00:00:00 | 01:54:07 | 08:30:00 | |
| IW2NTF | 2026-09-01 00:27:44 | 45.59502 | 9.61369 | 346° | 22km/h | 25526m | 5.1m/s | -51.9°C | 4.3% | 0hPa | 2.5V | 08:30:00 | 01:53:56 | 00:00:00 | |
| BAUMI2-15 | 2026-09-01 00:27:44 | 45.59529 | 9.61351 | 345° | 20km/h | 25560m | 5.6m/s | 0°C | 0% | 0hPa | 2.6V | 00:00:00 | 01:54:02 | 00:00:00 | |
| BAUMI2-15 | 2026-09-01 00:27:39 | 45.59507 | 9.61367 | 342° | 20km/h | 25532m | 5.1m/s | 0°C | 0% | 0hPa | 2.6V | 00:00:00 | 01:53:57 | 00:00:00 | |
| OE5DRO-10 | 2026-09-01 00:27:35 | 45.59488 | 9.61375 | 331° | 20km/h | 25510m | 5.3m/s | -51.8°C | 4.3% | 0hPa | 2.6V | 00:00:00 | 00:00:00 | 00:00:00 | |
| BAUMI2-15 | 2026-09-01 00:27:34 | 45.59485 | 9.61378 | 331° | 20km/h | 25505m | 4.7m/s | 0°C | 0% | 0hPa | 2.6V | 00:00:00 | 01:53:52 | 00:00:00 | |
| IW2NTF | 2026-09-01 00:27:32 | 45.59450 | 9.61407 | 302° | 24km/h | 25466m | 5m/s | -51.7°C | 4.3% | 0hPa | 2.6V | 08:30:00 | 01:53:45 | 00:00:00 | |
| DO3MHA-11 | 2026-09-01 00:27:29 | 45.59458 | 9.61394 | 324° | 22km/h | 25478m | 6.4m/s | -51.7°C | 4.3% | 0hPa | 2.5V | 00:00:00 | 01:53:47 | 00:00:00 | |
| DB0UT-7 | 2026-09-01 00:27:28 | 45.59453 | 9.61400 | 309° | 16km/h | 25472m | 5.9m/s | -51.7°C | 4.3% | 0hPa | 2.5V | 00:00:00 | 00:00:00 | 00:00:00 | |
| IW2NTF | 2026-09-01 00:27:22 | 45.59413 | 9.61450 | 331° | 20km/h | 25410m | 4.9m/s | -51.8°C | 4.3% | 0hPa | 2.5V | 08:30:00 | 01:53:35 | 00:00:00 | |
| DO3MHA-11 | 2026-09-01 00:27:19 | 45.59420 | 9.61444 | 321° | 18km/h | 25422m | 5.8m/s | -51.6°C | 4.2% | 0hPa | 2.6V | 00:00:00 | 01:53:37 | 00:00:00 | |
| OE5DRO-10 | 2026-09-01 00:27:16 | 45.59409 | 9.61454 | 324° | 15km/h | 25405m | 5.5m/s | -51.7°C | 4.3% | 0hPa | 2.5V | 00:00:00 | 00:00:00 | 00:00:00 | |
| IW2NTF | 2026-09-01 00:27:11 | 45.59390 | 9.61502 | 268° | 4km/h | 25344m | 6.3m/s | -51.7°C | 4.2% | 0hPa | 2.5V | 08:30:00 | 01:53:23 | 00:00:00 | |
| DO3MHA-11 | 2026-09-01 00:27:09 | 45.59388 | 9.61489 | 294° | 11km/h | 25367m | 6.0m/s | -51.7°C | 4.3% | 0hPa | 2.5V | 00:00:00 | 01:53:27 | 00:00:00 | |
| DO3MHA-11 | 2026-09-01 00:26:59 | 45.59383 | 9.61520 | 274° | 9km/h | 25312m | 5.1m/s | -51.6°C | 4.3% | 0hPa | 2.5V | 00:00:00 | 01:53:17 | 00:00:00 | |
| DB0UT-7 | 2026-09-01 00:26:58 | 45.59382 | 9.61526 | 283° | 9km/h | 25306m | 6.2m/s | -51.6°C | 4.3% | 0hPa | 2.5V | 00:00:00 | 01:53:16 | 00:00:00 | |
| OE5DRO-10 | 2026-09-01 00:26:57 | 45.59382 | 9.61530 | 290° | 9km/h | 25300m | 5.1m/s | -51.6°C | 4.3% | 0hPa | 2.5V | 00:00:00 | 00:00:00 | 00:00:00 | |
| IW2NTF | 2026-09-01 00:26:55 | 45.59381 | 9.61535 | 228° | 5km/h | 25289m | 6.5m/s | -51.7°C | 4.3% | 0hPa | 2.5V | 08:30:00 | 01:53:13 | 00:00:00 | |
| IW2NTF | 2026-09-01 00:26:50 | 45.59390 | 9.61556 | 240° | 16km/h | 25235m | 5.2m/s | -51.6°C | 4.3% | 0hPa | 2.5V | 08:30:00 | 01:53:03 | 00:00:00 | |
| DO3MHA-11 | 2026-09-01 00:26:49 | 45.59387 | 9.61541 | 313° | 11km/h | 25257m | 4.1m/s | -51.6°C | 4.3% | 0hPa | 2.5V | 00:00:00 | 01:53:07 | 00:00:00 | |
| IW2NTF | 2026-09-01 00:26:40 | 45.59402 | 9.61584 | 287° | 11km/h | 25182m | 4.3m/s | -51.4°C | 4.2% | 0hPa | 2.6V | 08:30:00 | 01:52:53 | 00:00:00 | |
| OE5DRO-10 | 2026-09-01 00:26:38 | 45.59404 | 9.61574 | 242° | 7km/h | 25199m | 5.6m/s | -51.4°C | 4.2% | 0hPa | 2.5V | 00:00:00 | 00:00:00 | 00:00:00 | |
| S52SK | 2026-09-01 00:26:36 | 45.59404 | 9.61577 | 281° | 9km/h | 25193m | 6.6m/s | 0°C | 0% | 0hPa | 2.5V | 00:00:00 | 00:00:00 | 00:00:00 | |
| S52SK | 2026-09-01 00:26:30 | 45.59408 | 9.61594 | 174° | 9km/h | 25162m | 5.1m/s | 0°C | 0% | 0hPa | 2.5V | 00:00:00 | 00:00:00 | 00:00:00 | |
| IW2NTF | 2026-09-01 00:26:30 | 45.59407 | 9.61587 | 253° | 5km/h | 25129m | 4.7m/s | -51.1°C | 4.2% | 0hPa | 2.6V | 08:30:00 | 01:52:43 | 00:00:00 | |
| DO3MHA-11 | 2026-09-01 00:26:29 | 45.59410 | 9.61590 | 73° | 5km/h | 25150m | 5.3m/s | -51.1°C | 4.2% | 0hPa | 2.5V | 00:00:00 | 01:52:47 | 00:00:00 | |
| NBG1-10 | 2026-09-01 00:26:23 | 45.59408 | 9.61590 | 283° | 11km/h | 25120m | 5.6m/s | -51.1°C | 4.1% | 0hPa | 2.5V | 00:00:00 | 01:52:41 | 00:00:00 | |
| IW2NTF | 2026-09-01 00:26:20 | 45.59412 | 9.61581 | 94° | 9km/h | 25077m | 6.3m/s | -51.2°C | 4.2% | 0hPa | 2.6V | 08:30:00 | 01:52:33 | 00:00:00 | |
| DO3MHA-11 | 2026-09-01 00:26:19 | 45.59406 | 9.61587 | 126° | 7km/h | 25098m | 6.3m/s | -51.1°C | 4.1% | 0hPa | 2.6V | 00:00:00 | 01:52:37 | 08:30:00 | |
| IW2NTF | 2026-09-01 00:26:11 | 45.59404 | 9.61551 | 77° | 11km/h | 25022m | 6m/s | -51.2°C | 4.1% | 0hPa | 2.5V | 08:30:00 | 01:52:23 | 00:00:00 | |
| DO3MHA-11 | 2026-09-01 00:26:09 | 45.59404 | 9.61564 | 115° | 11km/h | 25045m | 4.4m/s | -51.2°C | 4.2% | 0hPa | 2.5V | 00:00:00 | 01:52:27 | 00:00:00 | |
| OE5DRO-10 | 2026-09-01 00:26:00 | 45.59393 | 9.61532 | 49° | 15km/h | 24996m | 3.9m/s | -51.2°C | 4.1% | 0hPa | 2.5V | 00:00:00 | 00:00:00 | 00:00:00 | |
| DO3MHA-11 | 2026-09-01 00:25:59 | 45.59391 | 9.61527 | 58° | 11km/h | 24991m | 5.6m/s | -51.2°C | 4.0% | 0hPa | 2.5V | 00:00:00 | 01:52:17 | 00:00:00 | |
| DB0UT-7 | 2026-09-01 00:25:58 | 45.59390 | 9.61524 | 79° | 15km/h | 24986m | 6.0m/s | -51.2°C | 4.1% | 0hPa | 2.5V | 00:00:00 | 01:52:16 | 00:00:00 | |
| IW2NTF | 2026-09-01 00:25:55 | 45.59390 | 9.61514 | 71° | 11km/h | 24969m | 5.9m/s | -51.3°C | 4.1% | 0hPa | 2.5V | 08:30:00 | 01:52:13 | 00:00:00 | |
| IW2NTF | 2026-09-01 00:25:50 | 45.59362 | 9.61467 | 61° | 16km/h | 24917m | 6.1m/s | -51.9°C | 4.2% | 0hPa | 2.5V | 08:30:00 | 01:52:03 | 00:00:00 | |
| NBG1-10 | 2026-09-01 00:25:50 | 45.59380 | 9.61495 | 43° | 16km/h | 24944m | 4.5m/s | -51.4°C | 4.1% | 0hPa | 2.5V | 00:00:00 | 01:52:08 | 00:00:00 | |
| DO3MHA-11 | 2026-09-01 00:25:49 | 45.59376 | 9.61491 | 45° | 16km/h | 24938m | 6.3m/s | -51.5°C | 4.1% | 0hPa | 2.5V | 00:00:00 | 01:52:07 | 00:00:00 | |
| OE5DRO-10 | 2026-09-01 00:25:41 | 45.59358 | 9.61452 | 64° | 15km/h | 24897m | 5.0m/s | -52.1°C | 4.3% | 0hPa | 2.6V | 00:00:00 | 00:00:00 | 08:30:00 | |
| IW2NTF | 2026-09-01 00:25:40 | 45.59344 | 9.61441 | 352° | 16km/h | 24867m | 5.1m/s | -52.3°C | 4.3% | 0hPa | 2.5V | 08:30:00 | 01:51:53 | 00:00:00 | |
| DO3MHA-11 | 2026-09-01 00:25:39 | 45.59355 | 9.61444 | 47° | 15km/h | 24888m | 4.3m/s | -52.2°C | 4.3% | 0hPa | 2.6V | 00:00:00 | 01:51:57 | 00:00:00 | |
| IW2NTF | 2026-09-01 00:25:30 | 45.59311 | 9.61429 | 346° | 18km/h | 24816m | 5.4m/s | -52.3°C | 4.3% | 0hPa | 2.6V | 08:30:00 | 01:51:43 | 00:00:00 | |
| DO3MHA-11 | 2026-09-01 00:25:29 | 45.59322 | 9.61432 | 71° | 18km/h | 24836m | 4.5m/s | -52.2°C | 4.3% | 0hPa | 2.6V | 00:00:00 | 01:51:47 | 00:00:00 | |
| DB0UT-7 | 2026-09-01 00:25:28 | 45.59321 | 9.61430 | 46° | 22km/h | 24831m | 5.5m/s | -52.2°C | 4.3% | 0hPa | 2.6V | 00:00:00 | 00:00:00 | 00:00:00 | |
| BAUMI2-15 | 2026-09-01 00:25:22 | 45.59297 | 9.61435 | 355° | 20km/h | 24800m | 4.3m/s | 0°C | 0% | 0hPa | 2.6V | 00:00:00 | 01:51:40 | 00:00:00 | |
| IW2NTF | 2026-09-01 00:25:20 | 45.59264 | 9.61432 | 298° | 18km/h | 24766m | 4.4m/s | -52.5°C | 4.3% | 0hPa | 2.6V | 08:30:00 | 01:51:33 | 00:00:00 | |
| NBG1-10 | 2026-09-01 00:25:17 | 45.59269 | 9.61426 | 360° | 22km/h | 24777m | 5.7m/s | -52.5°C | 4.3% | 0hPa | 2.6V | 00:00:00 | 01:51:35 | 00:00:00 | |
| IW2NTF | 2026-09-01 00:25:10 | 45.59214 | 9.61452 | 340° | 27km/h | 24717m | 5.3m/s | -52.8°C | 4.4% | 0hPa | 2.6V | 08:30:00 | 01:51:23 | 00:00:00 | |
| DO3MHA-11 | 2026-09-01 00:25:10 | 45.59240 | 9.61450 | 6° | 24km/h | 24742m | 5.8m/s | -52.6°C | 4.3% | 0hPa | 2.6V | 00:00:00 | 01:51:28 | 00:00:00 | |
| BAUMI2-15 | 2026-09-01 00:25:06 | 45.59220 | 9.61449 | 348° | 22km/h | 24723m | 5.2m/s | 0°C | 0% | 0hPa | 2.5V | 00:00:00 | 01:51:24 | 00:00:00 | |
| OE5DRO-10 | 2026-09-01 00:25:03 | 45.59201 | 9.61462 | 323° | 22km/h | 24708m | 4.4m/s | -52.8°C | 4.4% | 0hPa | 2.5V | 00:00:00 | 00:00:00 | 00:00:00 | |
| IW2NTF | 2026-09-01 00:25:00 | 45.59168 | 9.61510 | 353° | 26km/h | 24666m | 6m/s | -53°C | 4.4% | 0hPa | 2.5V | 08:30:00 | 01:51:13 | 00:00:00 | |
| DO3MHA-11 | 2026-09-01 00:25:00 | 45.59190 | 9.61484 | 288° | 24km/h | 24691m | 4.6m/s | -52.9°C | 4.5% | 0hPa | 2.6V | 00:00:00 | 01:51:18 | 00:00:00 | |
| DB0UT-7 | 2026-09-01 00:24:58 | 45.59185 | 9.61499 | 309° | 20km/h | 24681m | 5.9m/s | -52.9°C | 4.5% | 0hPa | 2.6V | 00:00:00 | 01:51:16 | 00:00:00 | |
| IW2NTF | 2026-09-01 00:24:50 | 45.59127 | 9.61543 | 322° | 18km/h | 24614m | 4.8m/s | -53°C | 4.4% | 0hPa | 2.5V | 08:30:00 | 01:51:03 | 00:00:00 | |
| DO3MHA-11 | 2026-09-01 00:24:50 | 45.59142 | 9.61515 | 329° | 20km/h | 24639m | 4.7m/s | -53.0°C | 4.5% | 0hPa | 2.5V | 00:00:00 | 01:51:08 | 00:00:00 | |
| S52SK | 2026-09-01 00:24:48 | 45.59137 | 9.61520 | 313° | 22km/h | 24635m | 3.4m/s | 0°C | 0% | 0hPa | 2.5V | 00:00:00 | 00:00:00 | 00:00:00 | |
| NBG1-10 | 2026-09-01 00:24:44 | 45.59123 | 9.61546 | 342° | 22km/h | 24609m | 6.3m/s | -53.0°C | 4.4% | 0hPa | 2.5V | 00:00:00 | 01:51:02 | 08:30:00 | |
| S52SK | 2026-09-01 00:24:43 | 45.59123 | 9.61546 | 342° | 22km/h | 24609m | 6.3m/s | 0°C | 0% | 0hPa | 2.5V | 00:00:00 | 00:00:00 | 00:00:00 | |
| IW2NTF | 2026-09-01 00:24:40 | 45.59085 | 9.61574 | 308° | 22km/h | 24563m | 4.3m/s | -53.1°C | 4.5% | 0hPa | 2.5V | 08:30:00 | 01:50:53 | 00:00:00 | |
| DO3MHA-11 | 2026-09-01 00:24:40 | 45.59098 | 9.61547 | 354° | 16km/h | 24589m | 5.1m/s | -53.0°C | 4.5% | 0hPa | 2.5V | 00:00:00 | 01:50:58 | 08:30:00 | |
| S52SK | 2026-09-01 00:24:37 | 45.59093 | 9.61553 | 297° | 16km/h | 24579m | 5.2m/s | 0°C | 0% | 0hPa | 2.5V | 00:00:00 | 00:00:00 | 00:00:00 | |
| IW2NTF | 2026-09-01 00:24:30 | 45.59045 | 9.61612 | 299° | 20km/h | 24511m | 5.3m/s | -53.3°C | 4.5% | 0hPa | 2.5V | 08:30:00 | 01:50:43 | 00:00:00 | |
| DB0UT-7 | 2026-09-01 00:24:28 | 45.59060 | 9.61594 | 334° | 24km/h | 24528m | 5.2m/s | -53.3°C | 4.6% | 0hPa | 2.5V | 00:00:00 | 00:00:00 | 00:00:00 | |
| BAUMI2-15 | 2026-09-01 00:24:26 | 45.59049 | 9.61605 | 316° | 20km/h | 24517m | 5.9m/s | 0°C | 0% | 0hPa | 2.5V | 00:00:00 | 01:50:44 | 00:00:00 | |
| OE5DRO-10 | 2026-09-01 00:24:24 | 45.59043 | 9.61618 | 289° | 22km/h | 24507m | 4.7m/s | -53.3°C | 4.5% | 0hPa | 2.5V | 00:00:00 | 00:00:00 | 00:00:00 | |
| DO3MHA-11 | 2026-09-01 00:24:20 | 45.59036 | 9.61646 | 297° | 24km/h | 24486m | 4.9m/s | -53.3°C | 4.6% | 0hPa | 2.5V | 00:00:00 | 01:50:38 | 00:00:00 | |
| IW2NTF | 2026-09-01 00:24:19 | 45.59015 | 9.61686 | 307° | 33km/h | 24453m | 4.1m/s | -53.4°C | 4.5% | 0hPa | 2.5V | 08:30:00 | 01:50:32 | 00:00:00 | |
| BAUMI2-15 | 2026-09-01 00:24:17 | 45.59029 | 9.61662 | 307° | 26km/h | 24470m | 5.3m/s | 0°C | 0% | 0hPa | 2.6V | 00:00:00 | 01:50:35 | 00:00:00 | |
| DO3MHA-11 | 2026-09-01 00:24:10 | 45.59003 | 9.61719 | 299° | 20km/h | 24432m | 5.8m/s | -53.4°C | 4.5% | 0hPa | 2.6V | 00:00:00 | 01:50:28 | 00:00:00 | |
| IW2NTF | 2026-09-01 00:24:09 | 45.58983 | 9.61747 | 304° | 18km/h | 24400m | 5.1m/s | -53.7°C | 4.6% | 0hPa | 2.6V | 08:30:00 | 01:50:22 | 00:00:00 | |
| OE5DRO-10 | 2026-09-01 00:24:05 | 45.58986 | 9.61742 | 310° | 22km/h | 24405m | 5.8m/s | -53.6°C | 4.6% | 0hPa | 2.6V | 00:00:00 | 00:00:00 | 00:00:00 | |
| BAUMI2-15 | 2026-09-01 00:24:00 | 45.58967 | 9.61773 | 316° | 20km/h | 24378m | 4.9m/s | 0°C | 0% | 0hPa | 2.6V | 00:00:00 | 01:50:18 | 00:00:00 | |
| IW2NTF | 2026-09-01 00:23:59 | 45.58944 | 9.61805 | 322° | 24km/h | 24343m | 4.3m/s | -53.8°C | 4.6% | 0hPa | 2.6V | 08:30:00 | 01:50:12 | 00:00:00 | |
| DO3MHA-11 | 2026-09-01 00:23:59 | 45.58962 | 9.61780 | 310° | 24km/h | 24372m | 6.6m/s | -53.9°C | 4.7% | 0hPa | 2.5V | 00:00:00 | 01:50:17 | 00:00:00 | |
| DB0UT-7 | 2026-09-01 00:23:58 | 45.58959 | 9.61786 | 306° | 16km/h | 24366m | 5.6m/s | -53.8°C | 4.7% | 0hPa | 2.5V | 00:00:00 | 01:50:16 | 00:00:00 | |
| BAUMI2-15 | 2026-09-01 00:23:55 | 45.58949 | 9.61800 | 325° | 24km/h | 24349m | 5.4m/s | 0°C | 0% | 0hPa | 2.5V | 00:00:00 | 01:50:13 | 00:00:00 | |
| BAUMI2-15 | 2026-09-01 00:23:50 | 45.58931 | 9.61830 | 292° | 15km/h | 24322m | 5.0m/s | 0°C | 0% | 0hPa | 2.5V | 00:00:00 | 01:50:08 | 00:00:00 | |
| IW2NTF | 2026-09-01 00:23:50 | 45.58910 | 9.61856 | 2° | 7km/h | 24287m | 5.9m/s | -53.9°C | 4.7% | 0hPa | 2.5V | 08:30:00 | 01:50:02 | 00:00:00 | |
| DO3MHA-11 | 2026-09-01 00:23:49 | 45.58929 | 9.61837 | 300° | 13km/h | 24316m | 5.4m/s | -53.7°C | 4.6% | 0hPa | 2.5V | 00:00:00 | 01:50:07 | 00:00:00 | |
| OE5DRO-10 | 2026-09-01 00:23:46 | 45.58917 | 9.61853 | 337° | 11km/h | 24300m | 5.0m/s | -53.7°C | 4.6% | 0hPa | 2.5V | 00:00:00 | 00:00:00 | 00:00:00 | |
| BAUMI2-15 | 2026-09-01 00:23:43 | 45.58908 | 9.61855 | 10° | 11km/h | 24282m | 4.8m/s | 0°C | 0% | 0hPa | 2.5V | 00:00:00 | 01:50:01 | 00:00:00 | |
| IW2NTF | 2026-09-01 00:23:40 | 45.58889 | 9.61895 | 335° | 16km/h | 24232m | 4.5m/s | -53.8°C | 4.7% | 0hPa | 2.5V | 08:30:00 | 01:49:52 | 00:00:00 | |
| BAUMI2-15 | 2026-09-01 00:23:38 | 45.58900 | 9.61873 | 282° | 18km/h | 24255m | 5.8m/s | 0°C | 0% | 0hPa | 2.5V | 00:00:00 | 01:49:56 | 00:00:00 | |
| NBG1-10 | 2026-09-01 00:23:37 | 45.58899 | 9.61880 | 288° | 15km/h | 24250m | 4.6m/s | -53.8°C | 4.7% | 0hPa | 2.5V | 00:00:00 | 01:49:55 | 00:00:00 | |
| BAUMI2-15 | 2026-09-01 00:23:33 | 45.58886 | 9.61897 | 338° | 9km/h | 24227m | 6.0m/s | 0°C | 0% | 0hPa | 2.5V | 00:00:00 | 01:49:51 | 00:00:00 | |
| IW2NTF | 2026-09-01 00:23:29 | 45.58879 | 9.61938 | 275° | 26km/h | 24176m | 4.4m/s | -53.8°C | 4.7% | 0hPa | 2.5V | 08:30:00 | 01:49:42 | 00:00:00 | |
| DB0UT-7 | 2026-09-01 00:23:28 | 45.58880 | 9.61907 | 288° | 15km/h | 24199m | 5.1m/s | -53.8°C | 4.7% | 0hPa | 2.5V | 00:00:00 | 00:00:00 | 00:00:00 | |
| OE5DRO-10 | 2026-09-01 00:23:27 | 45.58879 | 9.61912 | 276° | 18km/h | 24193m | 5.8m/s | -53.8°C | 4.7% | 0hPa | 2.5V | 00:00:00 | 00:00:00 | 00:00:00 | |
| DO3MHA-11 | 2026-09-01 00:23:26 | 45.58879 | 9.61920 | 268° | 15km/h | 24187m | 6.9m/s | -53.8°C | 4.7% | 0hPa | 2.5V | 00:00:00 | 01:49:44 | 00:00:00 | |
| IW2NTF | 2026-09-01 00:23:19 | 45.58873 | 9.61973 | 274° | 16km/h | 24121m | 5m/s | -53.8°C | 4.7% | 0hPa | 2.5V | 08:30:00 | 01:49:32 | 00:00:00 | |
| IW2NTF | 2026-09-01 00:23:09 | 45.58881 | 9.62024 | 173° | 13km/h | 24065m | 5.9m/s | -53.8°C | 4.7% | 0hPa | 2.5V | 08:30:00 | 01:49:22 | 00:00:00 | |
| OE5DRO-10 | 2026-09-01 00:23:08 | 45.58877 | 9.62021 | 266° | 9km/h | 24088m | 6.2m/s | -53.8°C | 4.7% | 0hPa | 2.5V | 00:00:00 | 00:00:00 | 00:00:00 | |
| NBG1-10 | 2026-09-01 00:23:04 | 45.58881 | 9.62024 | 174° | 7km/h | 24065m | 5.8m/s | -53.7°C | 4.7% | 0hPa | 2.5V | 00:00:00 | 01:49:22 | 00:00:00 | |
| IW2NTF | 2026-09-01 00:22:59 | 45.58897 | 9.62059 | 211° | 9km/h | 24014m | 5.6m/s | -53.6°C | 4.6% | 0hPa | 2.5V | 08:30:00 | 01:49:12 | 00:00:00 | |
| DB0UT-7 | 2026-09-01 00:22:58 | 45.58889 | 9.62043 | 269° | 7km/h | 24035m | 5.3m/s | -53.6°C | 4.6% | 0hPa | 2.5V | 00:00:00 | 01:49:16 | 00:00:00 | |
| S52SK | 2026-09-01 00:22:53 | 45.58897 | 9.62059 | 212° | 9km/h | 24014m | 5.6m/s | 0°C | 0% | 0hPa | 2.5V | 00:00:00 | 00:00:00 | 00:00:00 | |
| IW2NTF | 2026-09-01 00:22:49 | 45.58906 | 9.62070 | 285° | 5km/h | 23958m | 4.8m/s | -53.7°C | 4.6% | 0hPa | 2.5V | 08:30:00 | 01:49:02 | 00:00:00 | |
| OE5DRO-10 | 2026-09-01 00:22:49 | 45.58900 | 9.62060 | 191° | 5km/h | 23985m | 5.8m/s | -53.6°C | 4.7% | 0hPa | 2.5V | 00:00:00 | 00:00:00 | 08:30:00 | |
| S52SK | 2026-09-01 00:22:48 | 45.58900 | 9.62060 | 191° | 7km/h | 23985m | 5.9m/s | 0°C | 0% | 0hPa | 2.5V | 00:00:00 | 00:00:00 | 00:00:00 | |
| S52SK | 2026-09-01 00:22:43 | 45.58906 | 9.62070 | 287° | 5km/h | 23959m | 4.8m/s | 0°C | 0% | 0hPa | 2.5V | 00:00:00 | 00:00:00 | 00:00:00 | |
| IW2NTF | 2026-09-01 00:22:39 | 45.58915 | 9.62072 | 225° | 4km/h | 23903m | 4.4m/s | -53.7°C | 4.7% | 0hPa | 2.5V | 08:30:00 | 01:48:52 | 00:00:00 | |
| IW2NTF | 2026-09-01 00:22:30 | 45.58906 | 9.62067 | 299° | 13km/h | 23851m | 4m/s | -53.6°C | 4.7% | 0hPa | 2.6V | 08:30:00 | 01:48:42 | 00:00:00 | |
| DB0UT-7 | 2026-09-01 00:22:28 | 45.58908 | 9.62064 | 106° | 13km/h | 23872m | 4.8m/s | -53.7°C | 4.7% | 0hPa | 2.6V | 00:00:00 | 00:00:00 | 00:00:00 | |
| IW2NTF | 2026-09-01 00:22:19 | 45.58889 | 9.62100 | 317° | 9km/h | 23798m | 5.8m/s | -53.4°C | 4.6% | 0hPa | 2.6V | 08:30:00 | 01:48:32 | 00:00:00 | |
| OE5DRO-10 | 2026-09-01 00:22:11 | 45.58886 | 9.62112 | 282° | 18km/h | 23782m | 6.3m/s | -53.3°C | 4.6% | 0hPa | 2.6V | 00:00:00 | 00:00:00 | 00:00:00 | |
| IW2NTF | 2026-09-01 00:22:08 | 45.58865 | 9.62155 | 327° | 24km/h | 23738m | 5m/s | -53.4°C | 4.6% | 0hPa | 2.6V | 08:30:00 | 01:48:21 | 00:00:00 | |
| DB0UT-7 | 2026-09-01 00:21:58 | 45.58853 | 9.62173 | 286° | 15km/h | 23713m | 5.6m/s | -53.3°C | 4.6% | 0hPa | 2.6V | 00:00:00 | 01:48:16 | 08:30:00 | |
| NBG1-10 | 2026-09-01 00:21:57 | 45.58851 | 9.62179 | 291° | 15km/h | 23708m | 5.7m/s | -53.3°C | 4.6% | 0hPa | 2.6V | 00:00:00 | 01:48:15 | 00:00:00 | |
| IW2NTF | 2026-09-01 00:21:54 | 45.58842 | 9.62206 | 303° | 13km/h | 23687m | 5.8m/s | -53.3°C | 4.6% | 0hPa | 2.6V | 08:30:00 | 01:48:11 | 00:00:00 | |
| OE5DRO-10 | 2026-09-01 00:21:52 | 45.58840 | 9.62209 | 322° | 15km/h | 23682m | 5.2m/s | -53.2°C | 4.7% | 0hPa | 2.6V | 00:00:00 | 00:00:00 | 00:00:00 | |
| IW2NTF | 2026-09-01 00:21:48 | 45.58816 | 9.62237 | 293° | 20km/h | 23629m | 5.4m/s | -53.1°C | 4.6% | 0hPa | 2.6V | 08:30:00 | 01:48:00 | 00:00:00 | |
| OE3JTB-15 | 2026-09-01 00:21:39 | 45.58809 | 9.62254 | 304° | 15km/h | 23615m | 5.5m/s | 0°C | 0% | 0hPa | 2.5V | 00:00:00 | 00:00:00 | 00:00:00 | |
| DO3MHA-11 | 2026-09-01 00:21:38 | 45.58808 | 9.62256 | 322° | 13km/h | 23609m | 4.9m/s | -53.0°C | 4.6% | 0hPa | 2.5V | 00:00:00 | 01:47:56 | 00:00:00 | |
| IW2NTF | 2026-09-01 00:21:33 | 45.58789 | 9.62268 | 318° | 13km/h | 23578m | 4.7m/s | -52.9°C | 4.5% | 0hPa | 2.5V | 08:30:00 | 01:47:50 | 00:00:00 | |
| OE5DRO-10 | 2026-09-01 00:21:33 | 45.58792 | 9.62265 | 330° | 15km/h | 23584m | 5.8m/s | -52.9°C | 4.6% | 0hPa | 2.5V | 00:00:00 | 00:00:00 | 00:00:00 | |
| DB0UT-7 | 2026-09-01 00:21:28 | 45.58779 | 9.62286 | 299° | 15km/h | 23559m | 4.3m/s | -52.7°C | 4.5% | 0hPa | 2.5V | 00:00:00 | 00:00:00 | 00:00:00 | |
| IW2NTF | 2026-09-01 00:21:27 | 45.58769 | 9.62307 | 321° | 22km/h | 23528m | 4m/s | -52.7°C | 4.4% | 0hPa | 2.5V | 08:30:00 | 01:47:40 | 00:00:00 | |
| BAUMI2-15 | 2026-09-01 00:21:26 | 45.58777 | 9.62293 | 276° | 13km/h | 23548m | 4.9m/s | 0°C | 0% | 0hPa | 2.5V | 00:00:00 | 01:47:44 | 00:00:00 | |
| DO3MHA-11 | 2026-09-01 00:21:24 | 45.58775 | 9.62299 | 310° | 15km/h | 23539m | 5.8m/s | -52.6°C | 4.5% | 0hPa | 2.5V | 00:00:00 | 01:47:42 | 08:30:00 | |
| BAUMI2-15 | 2026-09-01 00:21:21 | 45.58765 | 9.62312 | 322° | 18km/h | 23524m | 5.0m/s | 0°C | 0% | 0hPa | 2.5V | 00:00:00 | 01:47:39 | 00:00:00 | |
| BAUMI2-15 | 2026-09-01 00:21:19 | 45.58749 | 9.62331 | 314° | 15km/h | 23498m | 4.5m/s | 0°C | 0% | 0hPa | 2.5V | 00:00:00 | 01:47:34 | 00:00:00 | |
| OE5DRO-10 | 2026-09-01 00:21:18 | 45.58743 | 9.62341 | 296° | 15km/h | 23490m | 4.8m/s | -52.8°C | 4.4% | 0hPa | 2.5V | 00:00:00 | 00:00:00 | 00:00:00 | |
| IW2NTF | 2026-09-01 00:21:15 | 45.58743 | 9.62349 | 261° | 9km/h | 23478m | 4.8m/s | -52.8°C | 4.4% | 0hPa | 2.5V | 08:30:00 | 01:47:30 | 00:00:00 | |
| BAUMI2-15 | 2026-09-01 00:21:14 | 45.58742 | 9.62353 | 273° | 11km/h | 23474m | 4.2m/s | 0°C | 0% | 0hPa | 2.5V | 00:00:00 | 01:47:29 | 00:00:00 | |
| IW2NTF | 2026-09-01 00:21:08 | 45.58731 | 9.62399 | 271° | 13km/h | 23430m | 5.2m/s | -53°C | 4.4% | 0hPa | 2.5V | 08:30:00 | 01:47:20 | 00:00:00 | |
| OE3JTB-15 | 2026-09-01 00:21:07 | 45.58734 | 9.62375 | 303° | 15km/h | 23456m | 4.3m/s | 0°C | 0% | 0hPa | 2.5V | 00:00:00 | 01:47:25 | 00:00:00 | |
| BAUMI2-15 | 2026-09-01 00:21:02 | 45.58731 | 9.62399 | 272° | 13km/h | 23431m | 5.2m/s | 0°C | 0% | 0hPa | 2.5V | 00:00:00 | 01:47:20 | 00:00:00 | |
| DB0UT-7 | 2026-09-01 00:20:58 | 45.58731 | 9.62419 | 251° | 13km/h | 23410m | 5.4m/s | -53.0°C | 4.5% | 0hPa | 2.5V | 00:00:00 | 01:47:16 | 00:00:00 | |
| BAUMI2-15 | 2026-09-01 00:20:57 | 45.58732 | 9.62424 | 254° | 15km/h | 23405m | 4.1m/s | 0°C | 0% | 0hPa | 2.5V | 00:00:00 | 01:47:15 | 00:00:00 | |
| OE5DRO-10 | 2026-09-01 00:20:55 | 45.58733 | 9.62434 | 277° | 13km/h | 23395m | 5.1m/s | -53.2°C | 4.5% | 0hPa | 2.5V | 00:00:00 | 00:00:00 | 00:00:00 | |
| IW2NTF | 2026-09-01 00:20:53 | 45.58734 | 9.62451 | 235° | 15km/h | 23381m | 6.1m/s | -53.3°C | 4.5% | 0hPa | 2.6V | 08:30:00 | 01:47:10 | 00:00:00 | |
| BAUMI2-15 | 2026-09-01 00:20:52 | 45.58734 | 9.62451 | 236° | 15km/h | 23381m | 6.1m/s | 0°C | 0% | 0hPa | 2.6V | 00:00:00 | 01:47:10 | 00:00:00 | |
| IW2NTF | 2026-09-01 00:20:47 | 45.58758 | 9.62471 | 256° | 5km/h | 23330m | 4.3m/s | -53.6°C | 4.6% | 0hPa | 2.6V | 08:30:00 | 01:47:00 | 00:00:00 | |
| DO3MHA-11 | 2026-09-01 00:20:38 | 45.58770 | 9.62475 | 183° | 13km/h | 23310m | 4.0m/s | -53.4°C | 4.6% | 0hPa | 2.6V | 00:00:00 | 01:46:56 | 00:00:00 | |
| OE5DRO-10 | 2026-09-01 00:20:36 | 45.58782 | 9.62478 | 199° | 11km/h | 23302m | 5.2m/s | -53.4°C | 4.6% | 0hPa | 2.6V | 00:00:00 | 00:00:00 | 00:00:00 | |
| IW2NTF | 2026-09-01 00:20:34 | 45.58794 | 9.62493 | 227° | 9km/h | 23282m | 4.5m/s | -53.4°C | 4.6% | 0hPa | 2.6V | 08:30:00 | 01:46:50 | 00:00:00 | |
| DB0UT-7 | 2026-09-01 00:20:28 | 45.58793 | 9.62490 | 89° | 9km/h | 23261m | 3.7m/s | -53.4°C | 4.6% | 0hPa | 2.5V | 00:00:00 | 00:00:00 | 00:00:00 | |
| IW2NTF | 2026-09-01 00:20:27 | 45.58815 | 9.62481 | 214° | 9km/h | 23232m | 4.1m/s | -53.4°C | 4.5% | 0hPa | 2.5V | 08:30:00 | 01:46:40 | 00:00:00 | |
| NBG1-10 | 2026-09-01 00:20:18 | 45.58816 | 9.62479 | 85° | 9km/h | 23213m | 4.6m/s | -53.3°C | 4.5% | 0hPa | 2.5V | 00:00:00 | 01:46:36 | 00:00:00 | |
| OE5DRO-10 | 2026-09-01 00:20:17 | 45.58815 | 9.62475 | 76° | 7km/h | 23209m | 3.9m/s | -53.4°C | 4.5% | 0hPa | 2.5V | 00:00:00 | 00:00:00 | 00:00:00 | |
| IW2NTF | 2026-09-01 00:20:13 | 45.58816 | 9.62462 | 154° | 13km/h | 23183m | 5m/s | -53.5°C | 4.6% | 0hPa | 2.5V | 08:30:00 | 01:46:30 | 00:00:00 | |
| IW2NTF | 2026-09-01 00:20:07 | 45.58817 | 9.62442 | 102° | 7km/h | 23137m | 5.2m/s | -53.4°C | 4.5% | 0hPa | 2.5V | 08:30:00 | 01:46:20 | 00:00:00 | |
| DB0UT-7 | 2026-09-01 00:19:58 | 45.58815 | 9.62442 | 240° | 7km/h | 23118m | 5.5m/s | -53.3°C | 4.5% | 0hPa | 2.5V | 00:00:00 | 01:46:16 | 00:00:00 | |
| NBG1-10 | 2026-09-01 00:19:45 | 45.58810 | 9.62405 | 4° | 7km/h | 23054m | 3.8m/s | -53.7°C | 4.7% | 0hPa | 2.5V | 00:00:00 | 01:46:03 | 08:30:00 | |
| OE5DRO-10 | 2026-09-01 00:19:39 | 45.58812 | 9.62393 | 73° | 9km/h | 23025m | 5.5m/s | -53.7°C | 4.7% | 0hPa | 2.5V | 00:00:00 | 00:00:00 | 00:00:00 | |
| DO3MHA-11 | 2026-09-01 00:19:36 | 45.58810 | 9.62380 | 90° | 7km/h | 23010m | 5.4m/s | -53.7°C | 4.7% | 0hPa | 2.5V | 00:00:00 | 01:45:54 | 00:00:00 | |
| DB0UT-7 | 2026-09-01 00:19:28 | 45.58812 | 9.62369 | 110° | 11km/h | 22971m | 4.9m/s | -53.8°C | 4.7% | 0hPa | 2.5V | 00:00:00 | 00:00:00 | 00:00:00 | |
| DO3MHA-11 | 2026-09-01 00:19:26 | 45.58813 | 9.62360 | 88° | 9km/h | 22961m | 5.6m/s | -53.7°C | 4.7% | 0hPa | 2.5V | 00:00:00 | 01:45:44 | 00:00:00 | |
| OE5DRO-10 | 2026-09-01 00:19:20 | 45.58809 | 9.62342 | 65° | 11km/h | 22931m | 5.2m/s | -53.6°C | 4.6% | 0hPa | 2.5V | 00:00:00 | 00:00:00 | 00:00:00 | |
| IW2NTF | 2026-09-01 00:19:19 | 45.58807 | 9.62336 | 90° | 5km/h | 22916m | 5.3m/s | -53.6°C | 4.6% | 0hPa | 2.5V | 08:30:00 | 01:45:35 | 00:00:00 | |
| DO3MHA-11 | 2026-09-01 00:19:12 | 45.58809 | 9.62321 | 50° | 13km/h | 22891m | 4.8m/s | -53.4°C | 4.5% | 0hPa | 2.6V | 00:00:00 | 01:45:30 | 00:00:00 | |
| IW2NTF | 2026-09-01 00:19:07 | 45.58803 | 9.62294 | 79° | 15km/h | 22856m | 4.2m/s | -53.5°C | 4.6% | 0hPa | 2.6V | 08:30:00 | 01:45:23 | 00:00:00 | |
| OE5DRO-10 | 2026-09-01 00:19:01 | 45.58803 | 9.62273 | 85° | 9km/h | 22837m | 5.2m/s | -53.5°C | 4.5% | 0hPa | 2.5V | 00:00:00 | 00:00:00 | 00:00:00 | |
| IW2NTF | 2026-09-01 00:18:59 | 45.58799 | 9.62262 | 100° | 11km/h | 22806m | 4.1m/s | -53.6°C | 4.6% | 0hPa | 2.5V | 08:30:00 | 01:45:13 | 00:00:00 | |
| DB0UT-7 | 2026-09-01 00:18:58 | 45.58800 | 9.62269 | 14° | 9km/h | 22821m | 4.7m/s | -53.5°C | 4.6% | 0hPa | 2.5V | 00:00:00 | 01:45:16 | 00:00:00 | |
| DO3MHA-11 | 2026-09-01 00:18:51 | 45.58796 | 9.62246 | 62° | 9km/h | 22787m | 4.3m/s | -53.6°C | 4.6% | 0hPa | 2.5V | 00:00:00 | 01:45:09 | 00:00:00 | |
| IW2NTF | 2026-09-01 00:18:49 | 45.58793 | 9.62228 | 50° | 7km/h | 22756m | 4.4m/s | -53.6°C | 4.5% | 0hPa | 2.5V | 08:30:00 | 01:45:03 | 00:00:00 | |
| OE5DRO-10 | 2026-09-01 00:18:42 | 45.58793 | 9.62220 | 112° | 11km/h | 22740m | 4.7m/s | -53.6°C | 4.6% | 0hPa | 2.5V | 00:00:00 | 00:00:00 | 00:00:00 | |
| IW2NTF | 2026-09-01 00:18:40 | 45.58783 | 9.62202 | 88° | 4km/h | 22706m | 5m/s | -53.9°C | 4.6% | 0hPa | 2.5V | 08:30:00 | 01:44:53 | 00:00:00 | |
| NBG1-10 | 2026-09-01 00:18:39 | 45.58792 | 9.62208 | 42° | 13km/h | 22726m | 5.1m/s | -53.7°C | 4.6% | 0hPa | 2.5V | 00:00:00 | 01:44:57 | 00:00:00 | |
| IW2NTF | 2026-09-01 00:18:30 | 45.58771 | 9.62177 | 57° | 9km/h | 22658m | 6m/s | -54°C | 4.7% | 0hPa | 2.5V | 08:30:00 | 01:44:43 | 00:00:00 | |
| DB0UT-7 | 2026-09-01 00:18:28 | 45.58774 | 9.62182 | 33° | 15km/h | 22673m | 5.4m/s | -53.9°C | 4.7% | 0hPa | 2.6V | 00:00:00 | 00:00:00 | 00:00:00 | |
| OE5DRO-10 | 2026-09-01 00:18:23 | 45.58767 | 9.62170 | 58° | 15km/h | 22648m | 4.2m/s | -54.0°C | 4.8% | 0hPa | 2.6V | 00:00:00 | 00:00:00 | 00:00:00 | |
| IW2NTF | 2026-09-01 00:18:19 | 45.58746 | 9.62139 | 7° | 16km/h | 22609m | 5.1m/s | -54.1°C | 4.7% | 0hPa | 2.6V | 08:30:00 | 01:44:33 | 00:00:00 | |
| DO3MHA-11 | 2026-09-01 00:18:18 | 45.58759 | 9.62147 | 40° | 11km/h | 22623m | 6.0m/s | -54.1°C | 4.7% | 0hPa | 2.6V | 00:00:00 | 01:44:36 | 00:00:00 | |
| S52SK | 2026-09-01 00:18:13 | 45.58742 | 9.62139 | 355° | 9km/h | 22604m | 5.9m/s | 0°C | 0% | 0hPa | 2.6V | 00:00:00 | 00:00:00 | 00:00:00 | |
| IW2NTF | 2026-09-01 00:18:09 | 45.58724 | 9.62103 | 34° | 15km/h | 22558m | 5.4m/s | -54.1°C | 4.7% | 0hPa | 2.6V | 08:30:00 | 01:44:23 | 00:00:00 | |
| DO3MHA-11 | 2026-09-01 00:18:08 | 45.58735 | 9.62119 | 54° | 22km/h | 22573m | 4.3m/s | -54.1°C | 4.7% | 0hPa | 2.6V | 00:00:00 | 01:44:26 | 00:00:00 | |
| NBG1-10 | 2026-09-01 00:18:06 | 45.58727 | 9.62106 | 44° | 26km/h | 22564m | 5.6m/s | -54.1°C | 4.7% | 0hPa | 2.6V | 00:00:00 | 01:44:24 | 00:00:00 | |
| OE5DRO-10 | 2026-09-01 00:18:04 | 45.58720 | 9.62100 | 17° | 24km/h | 22553m | 4.7m/s | -54.0°C | 4.7% | 0hPa | 2.5V | 00:00:00 | 00:00:00 | 00:00:00 | |
| IW2NTF | 2026-09-01 00:17:59 | 45.58675 | 9.62065 | 32° | 26km/h | 22502m | 3.4m/s | -54°C | 4.6% | 0hPa | 2.6V | 08:30:00 | 01:44:12 | 00:00:00 | |
| DB0UT-7 | 2026-09-01 00:17:58 | 45.58692 | 9.62088 | 45° | 27km/h | 22521m | 4.5m/s | -54.0°C | 4.6% | 0hPa | 2.6V | 00:00:00 | 01:44:16 | 00:00:00 | |
| IW2NTF | 2026-09-01 00:17:49 | 45.58612 | 9.62045 | 37° | 29km/h | 22452m | 4.4m/s | -54.6°C | 4.9% | 0hPa | 2.6V | 08:30:00 | 01:44:02 | 00:00:00 | |
| OE5DRO-10 | 2026-09-01 00:17:45 | 45.58618 | 9.62051 | 39° | 29km/h | 22457m | 4.9m/s | -54.5°C | 4.8% | 0hPa | 2.5V | 00:00:00 | 00:00:00 | 00:00:00 | |
| IW2NTF | 2026-09-01 00:17:39 | 45.58532 | 9.62045 | 5° | 29km/h | 22401m | 3.9m/s | -54.5°C | 4.9% | 0hPa | 2.5V | 08:30:00 | 01:43:52 | 00:00:00 | |
| NBG1-10 | 2026-09-01 00:17:33 | 45.58525 | 9.62043 | 14° | 22km/h | 22396m | 6.4m/s | 0°C | 0% | 0hPa | 2.5V | 00:00:00 | 01:43:51 | 00:00:00 | |
| IW2NTF | 2026-09-01 00:17:29 | 45.58466 | 9.62039 | 357° | 26km/h | 22349m | 4.9m/s | -54.2°C | 4.9% | 0hPa | 2.5V | 08:30:00 | 01:43:42 | 00:00:00 | |
| DB0UT-7 | 2026-09-01 00:17:28 | 45.58497 | 9.62036 | 355° | 22km/h | 22370m | 4.1m/s | -54.3°C | 4.9% | 0hPa | 2.6V | 00:00:00 | 00:00:00 | 08:30:00 | |
| OE5DRO-10 | 2026-09-01 00:17:26 | 45.58480 | 9.62039 | 357° | 22km/h | 22360m | 5.2m/s | -54.2°C | 4.9% | 0hPa | 2.5V | 00:00:00 | 00:00:00 | 00:00:00 | |
| IW2NTF | 2026-09-01 00:17:19 | 45.58406 | 9.62044 | 337° | 29km/h | 22299m | 3.8m/s | -53.9°C | 4.8% | 0hPa | 2.5V | 08:30:00 | 01:43:32 | 00:00:00 | |
| IW2NTF | 2026-09-01 00:17:09 | 45.58360 | 9.62064 | 330° | 18km/h | 22250m | 5.5m/s | -53.5°C | 4.7% | 0hPa | 2.5V | 08:30:00 | 01:43:22 | 00:00:00 | |
| DO3MHA-11 | 2026-09-01 00:17:08 | 45.58380 | 9.62056 | 354° | 20km/h | 22270m | 5.4m/s | -53.5°C | 4.7% | 0hPa | 2.5V | 00:00:00 | 01:43:26 | 00:00:00 | |
| OE5DRO-10 | 2026-09-01 00:17:07 | 45.58375 | 9.62057 | 351° | 18km/h | 22265m | 4.5m/s | -53.5°C | 4.7% | 0hPa | 2.5V | 00:00:00 | 00:00:00 | 08:30:00 | |
| IW2NTF | 2026-09-01 00:16:59 | 45.58323 | 9.62088 | 357° | 16km/h | 22200m | 5.6m/s | -53.1°C | 4.5% | 0hPa | 2.6V | 08:30:00 | 01:43:12 | 00:00:00 | |
| NBG1-10 | 2026-09-01 00:16:58 | 45.58336 | 9.62089 | 344° | 15km/h | 22221m | 5.2m/s | -53.2°C | 4.6% | 0hPa | 2.6V | 00:00:00 | 01:43:16 | 00:00:00 | |
| DO3MHA-11 | 2026-09-01 00:16:57 | 45.58332 | 9.62090 | 360° | 16km/h | 22215m | 5.8m/s | -53.2°C | 4.5% | 0hPa | 2.6V | 00:00:00 | 01:43:15 | 00:00:00 | |
| IW2NTF | 2026-09-01 00:16:49 | 45.58288 | 9.62117 | 339° | 11km/h | 22151m | 5.8m/s | -53.3°C | 4.6% | 0hPa | 2.6V | 08:30:00 | 01:43:02 | 00:00:00 | |
| OE5DRO-10 | 2026-09-01 00:16:48 | 45.58301 | 9.62107 | 317° | 13km/h | 22171m | 4.4m/s | -53.1°C | 4.5% | 0hPa | 2.6V | 00:00:00 | 00:00:00 | 00:00:00 | |
| IW2NTF | 2026-09-01 00:16:40 | 45.58273 | 9.62148 | 287° | 9km/h | 22103m | 5.2m/s | -53.2°C | 4.5% | 0hPa | 2.6V | 08:30:00 | 01:42:52 | 00:00:00 | |
| OE5DRO-10 | 2026-09-01 00:16:29 | 45.58267 | 9.62176 | 273° | 20km/h | 22078m | 4.8m/s | -53.0°C | 4.6% | 0hPa | 2.6V | 00:00:00 | 00:00:00 | 00:00:00 | |
| IW2NTF | 2026-09-01 00:16:28 | 45.58268 | 9.62221 | 255° | 20km/h | 22043m | 4.2m/s | -52.9°C | 4.4% | 0hPa | 2.6V | 08:30:00 | 01:42:40 | 00:00:00 | |
| DB0UT-7 | 2026-09-01 00:16:28 | 45.58267 | 9.62182 | 275° | 20km/h | 22073m | 4.1m/s | -53.0°C | 4.5% | 0hPa | 2.5V | 00:00:00 | 00:00:00 | 00:00:00 | |
| DO3MHA-11 | 2026-09-01 00:16:26 | 45.58265 | 9.62194 | 282° | 18km/h | 22063m | 4.6m/s | -53.0°C | 4.5% | 0hPa | 2.5V | 00:00:00 | 01:42:44 | 00:00:00 | |
| NBG1-10 | 2026-09-01 00:16:25 | 45.58265 | 9.62201 | 272° | 20km/h | 22059m | 4.0m/s | -52.9°C | 4.5% | 0hPa | 2.5V | 00:00:00 | 01:42:43 | 00:00:00 | |
| IW2NTF | 2026-09-01 00:16:17 | 45.58270 | 9.62290 | 250° | 24km/h | 21992m | 6m/s | -52.8°C | 4.4% | 0hPa | 2.6V | 08:30:00 | 01:42:30 | 00:00:00 | |
| DO3MHA-11 | 2026-09-01 00:16:16 | 45.58266 | 9.62260 | 263° | 13km/h | 22013m | 4.7m/s | -52.8°C | 4.4% | 0hPa | 2.5V | 00:00:00 | 01:42:34 | 00:00:00 | |
| OE5DRO-10 | 2026-09-01 00:16:10 | 45.58275 | 9.62306 | 247° | 18km/h | 21982m | 4.0m/s | -52.8°C | 4.4% | 0hPa | 2.5V | 00:00:00 | 00:00:00 | 00:00:00 | |
| IW2NTF | 2026-09-01 00:16:08 | 45.58288 | 9.62368 | 238° | 22km/h | 21941m | 5.8m/s | -53.3°C | 4.5% | 0hPa | 2.5V | 08:30:00 | 01:42:20 | 00:00:00 | |
| DB0UT-7 | 2026-09-01 00:15:58 | 45.58299 | 9.62391 | 225° | 16km/h | 21921m | 4.9m/s | -53.4°C | 4.6% | 0hPa | 2.5V | 00:00:00 | 01:42:16 | 00:00:00 | |
| IW2NTF | 2026-09-01 00:15:57 | 45.58305 | 9.62419 | 247° | 11km/h | 21892m | 5.4m/s | -53.4°C | 4.6% | 0hPa | 2.5V | 08:30:00 | 01:42:10 | 00:00:00 | |
| NBG1-10 | 2026-09-01 00:15:52 | 45.58305 | 9.62419 | 248° | 16km/h | 21892m | 5.4m/s | -53.4°C | 4.6% | 0hPa | 2.5V | 00:00:00 | 01:42:10 | 00:00:00 | |
| OE5DRO-10 | 2026-09-01 00:15:51 | 45.58306 | 9.62422 | 227° | 16km/h | 21887m | 4.2m/s | -53.4°C | 4.5% | 0hPa | 2.5V | 00:00:00 | 00:00:00 | 00:00:00 | |
| IW2NTF | 2026-09-01 00:15:43 | 45.58335 | 9.62458 | 279° | 9km/h | 21836m | 5.3m/s | -53.4°C | 4.4% | 0hPa | 2.5V | 08:30:00 | 01:41:59 | 00:00:00 | |
| IW2NTF | 2026-09-01 00:15:36 | 45.58377 | 9.62479 | 238° | 15km/h | 21789m | 5.9m/s | -54.4°C | 4.8% | 0hPa | 2.5V | 08:30:00 | 01:41:49 | 00:00:00 | |
| OE5DRO-10 | 2026-09-01 00:15:32 | 45.58374 | 9.62475 | 207° | 11km/h | 21794m | 4.2m/s | -54.2°C | 4.8% | 0hPa | 2.5V | 00:00:00 | 00:00:00 | 00:00:00 | |
| DB0UT-7 | 2026-09-01 00:15:28 | 45.58375 | 9.62495 | 311° | 13km/h | 21774m | 5.1m/s | -54.4°C | 4.9% | 0hPa | 2.5V | 00:00:00 | 00:00:00 | 00:00:00 | |
| IW2NTF | 2026-09-01 00:15:22 | 45.58385 | 9.62508 | 224° | 11km/h | 21741m | 3.9m/s | -54.2°C | 4.8% | 0hPa | 2.5V | 08:30:00 | 01:41:39 | 00:00:00 | |
| DO3MHA-11 | 2026-09-01 00:15:21 | 45.58385 | 9.62508 | 225° | 11km/h | 21741m | 3.8m/s | -54.2°C | 4.8% | 0hPa | 2.5V | 00:00:00 | 01:41:39 | 00:00:00 | |
| NBG1-10 | 2026-09-01 00:15:19 | 45.58386 | 9.62510 | 26° | 15km/h | 21730m | 5.7m/s | -54.1°C | 4.7% | 0hPa | 2.5V | 00:00:00 | 01:41:37 | 00:00:00 | |
| IW2NTF | 2026-09-01 00:15:16 | 45.58400 | 9.62506 | 189° | 20km/h | 21686m | 5.3m/s | -54°C | 4.7% | 0hPa | 2.5V | 08:30:00 | 01:41:28 | 00:00:00 | |
| OE5DRO-10 | 2026-09-01 00:15:13 | 45.58385 | 9.62506 | 181° | 16km/h | 21701m | 6.0m/s | -54.0°C | 4.7% | 0hPa | 2.6V | 00:00:00 | 00:00:00 | 00:00:00 | |
| DO3MHA-11 | 2026-09-01 00:15:11 | 45.58395 | 9.62505 | 180° | 13km/h | 21690m | 4.0m/s | -54.0°C | 4.7% | 0hPa | 2.5V | 00:00:00 | 01:41:29 | 00:00:00 | |
| IW2NTF | 2026-09-01 00:15:02 | 45.58425 | 9.62496 | 183° | 24km/h | 21637m | 4.5m/s | -53.9°C | 4.7% | 0hPa | 2.5V | 08:30:00 | 01:41:18 | 00:00:00 | |
| DO3MHA-11 | 2026-09-01 00:15:01 | 45.58420 | 9.62495 | 184° | 22km/h | 21642m | 4.8m/s | -53.9°C | 4.7% | 0hPa | 2.6V | 00:00:00 | 01:41:19 | 08:30:00 | |
| DB0UT-7 | 2026-09-01 00:14:58 | 45.58438 | 9.62494 | 164° | 20km/h | 21627m | 4.7m/s | -53.8°C | 4.7% | 0hPa | 2.6V | 00:00:00 | 01:41:16 | 00:00:00 | |
| IW2NTF | 2026-09-01 00:14:55 | 45.58464 | 9.62471 | 163° | 24km/h | 21590m | 4m/s | -53.6°C | 4.6% | 0hPa | 2.6V | 08:30:00 | 01:41:08 | 00:00:00 | |
| OE5DRO-10 | 2026-09-01 00:14:54 | 45.58451 | 9.62481 | 132° | 18km/h | 21609m | 4.6m/s | -53.7°C | 4.7% | 0hPa | 2.6V | 00:00:00 | 00:00:00 | 00:00:00 | |
| DO3MHA-11 | 2026-09-01 00:14:51 | 45.58458 | 9.62474 | 156° | 20km/h | 21595m | 5.1m/s | -53.6°C | 4.6% | 0hPa | 2.6V | 00:00:00 | 01:41:09 | 00:00:00 | |
| NBG1-10 | 2026-09-01 00:14:46 | 45.58486 | 9.62468 | 173° | 22km/h | 21572m | 4.2m/s | -53.5°C | 4.6% | 0hPa | 2.6V | 00:00:00 | 01:41:04 | 08:30:00 | |
| IW2NTF | 2026-09-01 00:14:42 | 45.58504 | 9.62440 | 142° | 15km/h | 21541m | 4.6m/s | -53.5°C | 4.6% | 0hPa | 2.6V | 08:30:00 | 01:40:58 | 00:00:00 | |
| DO3MHA-11 | 2026-09-01 00:14:41 | 45.58501 | 9.62444 | 124° | 20km/h | 21546m | 5.4m/s | -53.5°C | 4.6% | 0hPa | 2.5V | 00:00:00 | 01:40:59 | 00:00:00 | |
| IW2NTF | 2026-09-01 00:14:35 | 45.58557 | 9.62415 | 138° | 27km/h | 21493m | 4m/s | -53.5°C | 4.6% | 0hPa | 2.5V | 08:30:00 | 01:40:48 | 00:00:00 | |
| OE5DRO-10 | 2026-09-01 00:14:35 | 45.58530 | 9.62430 | 178° | 26km/h | 21517m | 5.5m/s | -53.4°C | 4.6% | 0hPa | 2.6V | 00:00:00 | 00:00:00 | 00:00:00 | |
| DB0UT-7 | 2026-09-01 00:14:28 | 45.58567 | 9.62403 | 146° | 22km/h | 21484m | 5.2m/s | -53.6°C | 4.6% | 0hPa | 2.6V | 00:00:00 | 00:00:00 | 00:00:00 | |
| IW2NTF | 2026-09-01 00:14:23 | 45.58612 | 9.62372 | 132° | 27km/h | 21445m | 4.2m/s | -53.7°C | 4.7% | 0hPa | 2.5V | 08:30:00 | 01:40:38 | 00:00:00 | |
| DO3MHA-11 | 2026-09-01 00:14:21 | 45.58607 | 9.62378 | 143° | 22km/h | 21450m | 4.8m/s | -53.7°C | 4.7% | 0hPa | 2.5V | 00:00:00 | 01:40:39 | 00:00:00 | |
| IW2NTF | 2026-09-01 00:14:15 | 45.58644 | 9.62313 | 122° | 26km/h | 21397m | 4.5m/s | -53.5°C | 4.6% | 0hPa | 2.5V | 08:30:00 | 01:40:28 | 00:00:00 | |
| DO3MHA-11 | 2026-09-01 00:14:11 | 45.58641 | 9.62319 | 134° | 24km/h | 21402m | 4.2m/s | -53.5°C | 4.6% | 0hPa | 2.6V | 00:00:00 | 01:40:29 | 00:00:00 | |
| NBG1-10 | 2026-09-01 00:14:07 | 45.58650 | 9.62287 | 99° | 27km/h | 21382m | 4.1m/s | -53.4°C | 4.6% | 0hPa | 2.6V | 00:00:00 | 01:40:25 | 00:00:00 | |
| IW2NTF | 2026-09-01 00:14:02 | 45.58661 | 9.62238 | 92° | 11km/h | 21349m | 3.5m/s | -53.5°C | 4.5% | 0hPa | 2.6V | 08:30:00 | 01:40:18 | 00:00:00 | |
| DO3MHA-11 | 2026-09-01 00:14:01 | 45.58660 | 9.62242 | 98° | 24km/h | 21353m | 4.2m/s | -53.4°C | 4.5% | 0hPa | 2.6V | 00:00:00 | 01:40:19 | 00:00:00 | |
| DB0UT-7 | 2026-09-01 00:13:58 | 45.58662 | 9.62227 | 103° | 26km/h | 21340m | 5.2m/s | -53.4°C | 4.5% | 0hPa | 2.5V | 00:00:00 | 01:40:16 | 00:00:00 | |
| OE5DRO-10 | 2026-09-01 00:13:57 | 45.58663 | 9.62219 | 101° | 26km/h | 21335m | 4.1m/s | -53.4°C | 4.6% | 0hPa | 2.5V | 00:00:00 | 00:00:00 | 00:00:00 | |
| IW2NTF | 2026-09-01 00:13:55 | 45.58661 | 9.62149 | 96° | 22km/h | 21302m | 3.4m/s | -53.6°C | 4.5% | 0hPa | 2.5V | 08:30:00 | 01:40:08 | 00:00:00 | |
| DO3MHA-11 | 2026-09-01 00:13:51 | 45.58660 | 9.62157 | 93° | 22km/h | 21306m | 4.7m/s | -53.5°C | 4.6% | 0hPa | 2.5V | 00:00:00 | 01:40:09 | 00:00:00 | |
| IW2NTF | 2026-09-01 00:13:42 | 45.58644 | 9.62067 | 69° | 35km/h | 21256m | 4m/s | -53.6°C | 4.5% | 0hPa | 2.5V | 08:30:00 | 01:39:58 | 00:00:00 | |
| DO3MHA-11 | 2026-09-01 00:13:41 | 45.58648 | 9.62079 | 68° | 26km/h | 21260m | 4.2m/s | -53.6°C | 4.5% | 0hPa | 2.5V | 00:00:00 | 01:39:59 | 00:00:00 | |
| OE5DRO-10 | 2026-09-01 00:13:38 | 45.58640 | 9.62046 | 77° | 26km/h | 21246m | 4.7m/s | -53.6°C | 4.5% | 0hPa | 2.5V | 00:00:00 | 00:00:00 | 00:00:00 | |
| IW2NTF | 2026-09-01 00:13:36 | 45.58615 | 9.61983 | 61° | 38km/h | 21207m | 5.8m/s | -53.8°C | 4.5% | 0hPa | 2.5V | 08:30:00 | 01:39:48 | 00:00:00 | |
| DO3MHA-11 | 2026-09-01 00:13:31 | 45.58619 | 9.61995 | 64° | 29km/h | 21213m | 4.2m/s | -53.7°C | 4.5% | 0hPa | 2.6V | 00:00:00 | 01:39:49 | 08:30:00 | |
| DB0UT-7 | 2026-09-01 00:13:28 | 45.58606 | 9.61958 | 63° | 26km/h | 21199m | 3.6m/s | -53.9°C | 4.5% | 0hPa | 2.5V | 00:00:00 | 00:00:00 | 00:00:00 | |
| NBG1-10 | 2026-09-01 00:13:27 | 45.58601 | 9.61947 | 66° | 26km/h | 21194m | 5.2m/s | -54.0°C | 4.6% | 0hPa | 2.5V | 00:00:00 | 01:39:45 | 00:00:00 | |
| IW2NTF | 2026-09-01 00:13:22 | 45.58575 | 9.61910 | 45° | 27km/h | 21160m | 4.9m/s | -54.4°C | 4.7% | 0hPa | 2.5V | 08:30:00 | 01:39:38 | 00:00:00 | |
| DO3MHA-11 | 2026-09-01 00:13:21 | 45.58580 | 9.61916 | 35° | 27km/h | 21166m | 5.0m/s | -54.3°C | 4.6% | 0hPa | 2.5V | 00:00:00 | 01:39:39 | 00:00:00 | |
| OE5DRO-10 | 2026-09-01 00:13:19 | 45.58570 | 9.61902 | 51° | 27km/h | 21156m | 4.4m/s | -54.4°C | 4.7% | 0hPa | 2.5V | 00:00:00 | 00:00:00 | 00:00:00 | |
| IW2NTF | 2026-09-01 00:13:13 | 45.58523 | 9.61854 | 12° | 31km/h | 21113m | 4.2m/s | -54.9°C | 4.8% | 0hPa | 2.6V | 08:30:00 | 01:39:28 | 00:00:00 | |
| DO3MHA-11 | 2026-09-01 00:13:11 | 45.58530 | 9.61856 | 12° | 29km/h | 21119m | 5.1m/s | -54.7°C | 4.7% | 0hPa | 2.6V | 00:00:00 | 01:39:29 | 00:00:00 | |
| IW2NTF | 2026-09-01 00:13:02 | 45.58461 | 9.61808 | 349° | 20km/h | 21067m | 4.5m/s | -54.9°C | 4.8% | 0hPa | 2.6V | 08:30:00 | 01:39:18 | 00:00:00 | |
| DO3MHA-11 | 2026-09-01 00:13:01 | 45.58466 | 9.61807 | 3° | 24km/h | 21073m | 5.8m/s | -54.9°C | 4.9% | 0hPa | 2.5V | 00:00:00 | 01:39:19 | 00:00:00 | |
| OE5DRO-10 | 2026-09-01 00:13:00 | 45.58461 | 9.61808 | 350° | 26km/h | 21068m | 4.5m/s | -54.8°C | 4.8% | 0hPa | 2.5V | 00:00:00 | 00:00:00 | 00:00:00 | |
| DB0UT-7 | 2026-09-01 00:12:58 | 45.58450 | 9.61811 | 349° | 26km/h | 21059m | 5.4m/s | -54.8°C | 4.9% | 0hPa | 2.5V | 00:00:00 | 01:39:16 | 08:30:00 | |
| NBG1-10 | 2026-09-01 00:12:54 | 45.58423 | 9.61808 | 29° | 24km/h | 21041m | 5.6m/s | -54.9°C | 4.7% | 0hPa | 2.6V | 00:00:00 | 01:39:12 | 00:00:00 | |
| IW2NTF | 2026-09-01 00:12:52 | 45.58406 | 9.61790 | 21° | 27km/h | 21023m | 4.9m/s | -55.3°C | 4.9% | 0hPa | 2.5V | 08:30:00 | 01:39:08 | 00:00:00 | |
| DO3MHA-11 | 2026-09-01 00:12:51 | 45.58411 | 9.61794 | 34° | 27km/h | 21028m | 3.9m/s | -55.2°C | 4.9% | 0hPa | 2.5V | 00:00:00 | 01:39:09 | 00:00:00 | |
| IW2NTF | 2026-09-01 00:12:43 | 45.58337 | 9.61808 | 352° | 26km/h | 20976m | 5.3m/s | -55.3°C | 5% | 0hPa | 2.5V | 08:30:00 | 01:38:58 | 00:00:00 | |
| DO3MHA-11 | 2026-09-01 00:12:41 | 45.58343 | 9.61807 | 355° | 24km/h | 20981m | 4.1m/s | -55.2°C | 5.0% | 0hPa | 2.5V | 00:00:00 | 01:38:59 | 00:00:00 | |
| IW2NTF | 2026-09-01 00:12:32 | 45.58281 | 9.61820 | 357° | 16km/h | 20930m | 5.2m/s | -55.1°C | 5% | 0hPa | 2.5V | 08:30:00 | 01:38:48 | 00:00:00 | |
| DO3MHA-11 | 2026-09-01 00:12:31 | 45.58284 | 9.61819 | 343° | 20km/h | 20935m | 3.7m/s | -55.1°C | 5.0% | 0hPa | 2.5V | 00:00:00 | 01:38:49 | 00:00:00 | |
| DB0UT-7 | 2026-09-01 00:12:28 | 45.58270 | 9.61819 | 10° | 16km/h | 20921m | 4.6m/s | -55.1°C | 4.9% | 0hPa | 2.5V | 00:00:00 | 00:00:00 | 00:00:00 | |
| IW2NTF | 2026-09-01 00:12:23 | 45.58231 | 9.61829 | 343° | 13km/h | 20884m | 4.8m/s | -55°C | 5% | 0hPa | 2.5V | 08:30:00 | 01:38:38 | 00:00:00 | |
| OE5DRO-10 | 2026-09-01 00:12:22 | 45.58238 | 9.61827 | 348° | 15km/h | 20892m | 4.6m/s | -55.0°C | 5.0% | 0hPa | 2.6V | 00:00:00 | 00:00:00 | 00:00:00 | |
| DO3MHA-11 | 2026-09-01 00:12:21 | 45.58234 | 9.61828 | 349° | 15km/h | 20888m | 3.7m/s | -54.9°C | 5.0% | 0hPa | 2.6V | 00:00:00 | 01:38:39 | 00:00:00 | |
| IW2NTF | 2026-09-01 00:12:13 | 45.58193 | 9.61841 | 336° | 20km/h | 20837m | 4.9m/s | -54.8°C | 4.8% | 0hPa | 2.6V | 08:30:00 | 01:38:28 | 00:00:00 | |
| OE5DRO-10 | 2026-09-01 00:12:03 | 45.58171 | 9.61847 | 2° | 11km/h | 20804m | 4.0m/s | -54.8°C | 4.8% | 0hPa | 2.6V | 00:00:00 | 00:00:00 | 00:00:00 | |
| IW2NTF | 2026-09-01 00:12:02 | 45.58160 | 9.61854 | 320° | 18km/h | 20789m | 3.8m/s | -54.8°C | 4.9% | 0hPa | 2.6V | 08:30:00 | 01:38:18 | 00:00:00 | |
| DO3MHA-11 | 2026-09-01 00:12:01 | 45.58163 | 9.61850 | 331° | 9km/h | 20794m | 5.4m/s | -54.8°C | 4.8% | 0hPa | 2.5V | 00:00:00 | 01:38:19 | 08:30:00 | |
| DB0UT-7 | 2026-09-01 00:11:58 | 45.58152 | 9.61860 | 335° | 7km/h | 20781m | 5.3m/s | -54.8°C | 4.9% | 0hPa | 2.5V | 00:00:00 | 01:38:16 | 00:00:00 | |
| IW2NTF | 2026-09-01 00:11:52 | 45.58141 | 9.61862 | 32° | 11km/h | 20743m | 5m/s | -55°C | 4.9% | 0hPa | 2.5V | 08:30:00 | 01:38:08 | 00:00:00 | |
| DO3MHA-11 | 2026-09-01 00:11:51 | 45.58143 | 9.61864 | 25° | 7km/h | 20748m | 5.7m/s | -54.9°C | 4.9% | 0hPa | 2.5V | 00:00:00 | 01:38:09 | 00:00:00 | |
| OE5DRO-10 | 2026-09-01 00:11:44 | 45.58129 | 9.61854 | 327° | 7km/h | 20714m | 4.0m/s | -54.9°C | 5.0% | 0hPa | 2.5V | 00:00:00 | 00:00:00 | 00:00:00 | |
| IW2NTF | 2026-09-01 00:11:43 | 45.58133 | 9.61861 | 187° | 5km/h | 20695m | 4.8m/s | -54.8°C | 4.9% | 0hPa | 2.5V | 08:30:00 | 01:37:58 | 00:00:00 | |
| DO3MHA-11 | 2026-09-01 00:11:41 | 45.58131 | 9.61860 | 218° | 7km/h | 20700m | 3.2m/s | -54.8°C | 4.9% | 0hPa | 2.5V | 00:00:00 | 01:37:59 | 00:00:00 | |
| NBG1-10 | 2026-09-01 00:11:37 | 45.58133 | 9.61853 | 75° | 7km/h | 20681m | 4.1m/s | -54.7°C | 4.8% | 0hPa | 2.5V | 00:00:00 | 01:37:55 | 00:00:00 | |
| IW2NTF | 2026-09-01 00:11:33 | 45.58131 | 9.61851 | 225° | 7km/h | 20649m | 4.6m/s | -54.5°C | 4.7% | 0hPa | 2.5V | 08:30:00 | 01:37:48 | 00:00:00 | |
| DO3MHA-11 | 2026-09-01 00:11:31 | 45.58130 | 9.61849 | 262° | 7km/h | 20653m | 3.6m/s | -54.5°C | 4.7% | 0hPa | 2.5V | 00:00:00 | 01:37:49 | 00:00:00 | |
| DB0UT-7 | 2026-09-01 00:11:28 | 45.58135 | 9.61854 | 188° | 7km/h | 20639m | 3.9m/s | -54.4°C | 4.6% | 0hPa | 2.6V | 00:00:00 | 00:00:00 | 00:00:00 | |
| OE5DRO-10 | 2026-09-01 00:11:25 | 45.58140 | 9.61852 | 75° | 7km/h | 20625m | 4.8m/s | -54.3°C | 4.6% | 0hPa | 2.5V | 00:00:00 | 00:00:00 | 08:30:00 | |
| IW2NTF | 2026-09-01 00:11:22 | 45.58137 | 9.61841 | 62° | 5km/h | 20601m | 5.5m/s | -54.5°C | 4.6% | 0hPa | 2.5V | 08:30:00 | 01:37:38 | 00:00:00 | |
| DO3MHA-11 | 2026-09-01 00:11:21 | 45.58138 | 9.61842 | 77° | 7km/h | 20606m | 4.2m/s | -54.4°C | 4.6% | 0hPa | 2.6V | 00:00:00 | 01:37:39 | 00:00:00 | |
| IW2NTF | 2026-09-01 00:11:12 | 45.58138 | 9.61820 | 51° | 11km/h | 20555m | 5.1m/s | -54.8°C | 4.7% | 0hPa | 2.6V | 08:30:00 | 01:37:28 | 00:00:00 | |
| DO3MHA-11 | 2026-09-01 00:11:11 | 45.58140 | 9.61823 | 40° | 7km/h | 20560m | 4.7m/s | -54.7°C | 4.7% | 0hPa | 2.5V | 00:00:00 | 01:37:29 | 00:00:00 | |
| OE5DRO-10 | 2026-09-01 00:11:06 | 45.58133 | 9.61810 | 63° | 9km/h | 20536m | 4.1m/s | -55.0°C | 4.8% | 0hPa | 2.5V | 00:00:00 | 00:00:00 | 00:00:00 | |
| NBG1-10 | 2026-09-01 00:11:04 | 45.58134 | 9.61808 | 158° | 15km/h | 20525m | 4.7m/s | -55.0°C | 4.8% | 0hPa | 2.5V | 00:00:00 | 01:37:22 | 00:00:00 | |
| IW2NTF | 2026-09-01 00:11:02 | 45.58130 | 9.61806 | 24° | 13km/h | 20506m | 4m/s | -55.3°C | 4.9% | 0hPa | 2.6V | 08:30:00 | 01:37:18 | 00:00:00 | |
| DO3MHA-11 | 2026-09-01 00:11:01 | 45.58132 | 9.61807 | 12° | 13km/h | 20511m | 4.8m/s | -55.2°C | 4.8% | 0hPa | 2.7V | 00:00:00 | 01:37:19 | 00:00:00 | |
| DB0UT-7 | 2026-09-01 00:10:58 | 45.58124 | 9.61799 | 53° | 16km/h | 20497m | 4.3m/s | -55.3°C | 4.9% | 0hPa | 2.7V | 00:00:00 | 01:37:16 | 00:00:00 | |
| IW2NTF | 2026-09-01 00:10:52 | 45.58108 | 9.61785 | 322° | 9km/h | 20458m | 5m/s | -55.5°C | 5% | 0hPa | 2.7V | 08:30:00 | 01:37:08 | 00:00:00 | |
| DO3MHA-11 | 2026-09-01 00:10:51 | 45.58109 | 9.61783 | 297° | 16km/h | 20463m | 3.9m/s | -55.4°C | 4.9% | 0hPa | 2.5V | 00:00:00 | 01:37:09 | 00:00:00 | |
| OE5DRO-10 | 2026-09-01 00:10:47 | 45.58098 | 9.61784 | 29° | 18km/h | 20444m | 5.1m/s | -55.5°C | 5.0% | 0hPa | 2.5V | 00:00:00 | 00:00:00 | 00:00:00 | |
| IW2NTF | 2026-09-01 00:10:42 | 45.58073 | 9.61757 | 4° | 11km/h | 20410m | 5.8m/s | -55.5°C | 5% | 0hPa | 2.5V | 08:30:00 | 01:36:58 | 00:00:00 | |
| DO3MHA-11 | 2026-09-01 00:10:41 | 45.58076 | 9.61758 | 14° | 16km/h | 20415m | 4.5m/s | -55.5°C | 5.0% | 0hPa | 2.5V | 00:00:00 | 01:36:59 | 00:00:00 | |
| IW2NTF | 2026-09-01 00:10:31 | 45.58035 | 9.61727 | 30° | 24km/h | 20362m | 4.3m/s | -55.3°C | 4.8% | 0hPa | 2.5V | 08:30:00 | 01:36:48 | 00:00:00 | |
| DO3MHA-11 | 2026-09-01 00:10:31 | 45.58039 | 9.61732 | 44° | 18km/h | 20367m | 5.3m/s | -55.2°C | 4.9% | 0hPa | 2.5V | 00:00:00 | 01:36:49 | 08:30:00 | |
| DB0UT-7 | 2026-09-01 00:10:28 | 45.58025 | 9.61721 | 13° | 15km/h | 20353m | 5.5m/s | -55.2°C | 4.9% | 0hPa | 2.5V | 00:00:00 | 00:00:00 | 00:00:00 | |
| IW2NTF | 2026-09-01 00:10:22 | 45.57995 | 9.61712 | 42° | 16km/h | 20313m | 4.6m/s | -55.4°C | 4.9% | 0hPa | 2.5V | 08:30:00 | 01:36:38 | 00:00:00 | |
| DO3MHA-11 | 2026-09-01 00:10:21 | 45.57998 | 9.61716 | 39° | 15km/h | 20319m | 5.5m/s | -55.3°C | 4.9% | 0hPa | 2.5V | 00:00:00 | 01:36:39 | 00:00:00 | |
| IW2NTF | 2026-09-01 00:10:11 | 45.57964 | 9.61685 | 73° | 15km/h | 20262m | 5.7m/s | -55.8°C | 5% | 0hPa | 2.5V | 08:30:00 | 01:36:28 | 00:00:00 | |
| DO3MHA-11 | 2026-09-01 00:10:11 | 45.57965 | 9.61690 | 57° | 13km/h | 20268m | 5.3m/s | -55.7°C | 4.9% | 0hPa | 2.6V | 00:00:00 | 01:36:29 | 00:00:00 | |
| OE5DRO-10 | 2026-09-01 00:10:09 | 45.57962 | 9.61679 | 76° | 13km/h | 20257m | 4.5m/s | -55.7°C | 5.0% | 0hPa | 2.6V | 00:00:00 | 00:00:00 | 00:00:00 | |
| IW2NTF | 2026-09-01 00:10:01 | 45.57944 | 9.61652 | 75° | 5km/h | 20213m | 4.1m/s | -56°C | 5.1% | 0hPa | 2.6V | 08:30:00 | 01:36:18 | 00:00:00 | |
| DO3MHA-11 | 2026-09-01 00:10:01 | 45.57945 | 9.61654 | 41° | 11km/h | 20217m | 4.1m/s | -56.0°C | 5.0% | 0hPa | 2.7V | 00:00:00 | 01:36:19 | 00:00:00 | |
| DB0UT-7 | 2026-09-01 00:09:58 | 45.57945 | 9.61647 | 128° | 15km/h | 20202m | 4.7m/s | -56.0°C | 5.0% | 0hPa | 2.5V | 00:00:00 | 01:36:16 | 00:00:00 | |
| IW2NTF | 2026-09-01 00:09:51 | 45.57946 | 9.61612 | 67° | 11km/h | 20164m | 5.3m/s | -56.2°C | 5.1% | 0hPa | 2.5V | 08:30:00 | 01:36:08 | 00:00:00 | |
| DO3MHA-11 | 2026-09-01 00:09:51 | 45.57947 | 9.61616 | 84° | 15km/h | 20169m | 4.2m/s | -56.2°C | 5.1% | 0hPa | 2.5V | 00:00:00 | 01:36:09 | 00:00:00 | |
| OE5DRO-10 | 2026-09-01 00:09:50 | 45.57946 | 9.61612 | 68° | 15km/h | 20164m | 5.2m/s | 0°C | 0% | 0hPa | 2.5V | 00:00:00 | 00:00:00 | 00:00:00 | |
| IW2NTF | 2026-09-01 00:09:45 | 45.57963 | 9.61567 | 109° | 9km/h | 20113m | 4.3m/s | -56.2°C | 5% | 0hPa | 2.5V | 08:30:00 | 01:35:58 | 00:00:00 | |
| NBG1-10 | 2026-09-01 00:09:43 | 45.57957 | 9.61580 | 129° | 16km/h | 20129m | 5.1m/s | -56.0°C | 5.0% | 0hPa | 2.7V | 00:00:00 | 01:36:01 | 00:00:00 | |
| DO3MHA-11 | 2026-09-01 00:09:41 | 45.57962 | 9.61570 | 124° | 15km/h | 20119m | 5.7m/s | -56.1°C | 5.0% | 0hPa | 2.7V | 00:00:00 | 01:35:59 | 00:00:00 | |
| IW2NTF | 2026-09-01 00:09:36 | 45.57970 | 9.61522 | 110° | 11km/h | 20065m | 3.7m/s | -56.2°C | 5% | 0hPa | 2.7V | 08:30:00 | 01:35:48 | 00:00:00 | |
| DO3MHA-11 | 2026-09-01 00:09:31 | 45.57969 | 9.61526 | 121° | 15km/h | 20069m | 4.9m/s | -56.2°C | 5.0% | 0hPa | 2.7V | 00:00:00 | 01:35:49 | 00:00:00 | |
| DB0UT-7 | 2026-09-01 00:09:28 | 45.57971 | 9.61516 | 104° | 22km/h | 20055m | 5.3m/s | -56.1°C | 4.9% | 0hPa | 2.5V | 00:00:00 | 00:00:00 | 00:00:00 | |
| IW2NTF | 2026-09-01 00:09:25 | 45.57972 | 9.61471 | 128° | 20km/h | 20014m | 4.2m/s | -56.6°C | 5% | 0hPa | 2.5V | 08:30:00 | 01:35:38 | 00:00:00 | |
| DO3MHA-11 | 2026-09-01 00:09:21 | 45.57969 | 9.61477 | 120° | 20km/h | 20019m | 5.5m/s | -56.4°C | 4.9% | 0hPa | 2.5V | 00:00:00 | 01:35:39 | 00:00:00 | |
| IW2NTF | 2026-09-01 00:09:16 | 45.57975 | 9.61397 | 77° | 31km/h | 19965m | 5m/s | -57.3°C | 5.3% | 0hPa | 2.5V | 08:30:00 | 01:35:28 | 00:00:00 | |
| OE5DRO-10 | 2026-09-01 00:09:12 | 45.57977 | 9.61417 | 85° | 26km/h | 19976m | 4.4m/s | 0°C | 0% | 0hPa | 2.5V | 00:00:00 | 00:00:00 | 00:00:00 | |
| DO3MHA-11 | 2026-09-01 00:09:11 | 45.57977 | 9.61408 | 80° | 26km/h | 19971m | 6.2m/s | -57.3°C | 5.3% | 0hPa | 2.5V | 00:00:00 | 01:35:29 | 00:00:00 | |
| NBG1-10 | 2026-09-01 00:09:10 | 45.57975 | 9.61397 | 78° | 26km/h | 19965m | 5.0m/s | -57.3°C | 5.3% | 0hPa | 2.5V | 00:00:00 | 01:35:28 | 08:30:00 | |
| IW2NTF | 2026-09-01 00:09:06 | 45.57965 | 9.61309 | 77° | 27km/h | 19915m | 4.4m/s | -57.4°C | 5.5% | 0hPa | 2.5V | 08:30:00 | 01:35:18 | 00:00:00 | |
| DO3MHA-11 | 2026-09-01 00:09:01 | 45.57966 | 9.61319 | 76° | 26km/h | 19921m | 5.5m/s | -57.4°C | 5.4% | 0hPa | 2.5V | 00:00:00 | 01:35:19 | 08:30:00 | |
| DB0UT-7 | 2026-09-01 00:08:58 | 45.57961 | 9.61290 | 70° | 24km/h | 19905m | 5.1m/s | -57.5°C | 5.5% | 0hPa | 2.5V | 00:00:00 | 01:35:16 | 00:00:00 | |
| IW2NTF | 2026-09-01 00:08:55 | 45.57943 | 9.61221 | 64° | 27km/h | 19865m | 5.7m/s | -57.3°C | 5.5% | 0hPa | 2.5V | 08:30:00 | 01:35:08 | 00:00:00 | |
| OE5DRO-10 | 2026-09-01 00:08:53 | 45.57952 | 9.61247 | 69° | 26km/h | 19880m | 5.7m/s | 0°C | 0% | 0hPa | 2.6V | 00:00:00 | 00:00:00 | 00:00:00 | |
| DO3MHA-11 | 2026-09-01 00:08:51 | 45.57946 | 9.61230 | 62° | 24km/h | 19870m | 4.4m/s | -57.3°C | 5.5% | 0hPa | 2.6V | 00:00:00 | 01:35:09 | 00:00:00 | |
| IW2NTF | 2026-09-01 00:08:46 | 45.57915 | 9.61146 | 58° | 24km/h | 19815m | 4.9m/s | -57.1°C | 5.4% | 0hPa | 2.6V | 08:30:00 | 01:34:58 | 00:00:00 | |
| DO3MHA-11 | 2026-09-01 00:08:41 | 45.57918 | 9.61154 | 62° | 24km/h | 19821m | 5.6m/s | -57.1°C | 5.4% | 0hPa | 2.6V | 00:00:00 | 01:34:59 | 00:00:00 | |
| NBG1-10 | 2026-09-01 00:08:37 | 45.57906 | 9.61123 | 65° | 18km/h | 19801m | 4.2m/s | -57.0°C | 5.4% | 0hPa | 2.6V | 00:00:00 | 01:34:55 | 00:00:00 | |
| IW2NTF | 2026-09-01 00:08:35 | 45.57883 | 9.61077 | 48° | 16km/h | 19767m | 5.5m/s | -56.9°C | 5.4% | 0hPa | 2.6V | 08:30:00 | 01:34:48 | 00:00:00 | |
| OE5DRO-10 | 2026-09-01 00:08:34 | 45.57895 | 9.61099 | 50° | 20km/h | 19787m | 3.6m/s | 0°C | 0% | 0hPa | 2.7V | 00:00:00 | 00:00:00 | 00:00:00 | |
| DO3MHA-11 | 2026-09-01 00:08:31 | 45.57885 | 9.61082 | 55° | 20km/h | 19772m | 4.5m/s | -56.9°C | 5.4% | 0hPa | 2.7V | 00:00:00 | 01:34:49 | 00:00:00 | |
| DB0UT-7 | 2026-09-01 00:08:28 | 45.57876 | 9.61068 | 44° | 18km/h | 19757m | 4.0m/s | -56.8°C | 5.4% | 0hPa | 2.5V | 00:00:00 | 00:00:00 | 08:30:00 | |
| IW2NTF | 2026-09-01 00:08:25 | 45.57846 | 9.61027 | 30° | 15km/h | 19719m | 5.6m/s | -56.7°C | 5.2% | 0hPa | 2.7V | 08:30:00 | 01:34:38 | 00:00:00 | |
| DO3MHA-11 | 2026-09-01 00:08:21 | 45.57851 | 9.61030 | 31° | 16km/h | 19725m | 4.2m/s | -56.7°C | 5.3% | 0hPa | 2.5V | 00:00:00 | 01:34:39 | 00:00:00 | |
| IW2NTF | 2026-09-01 00:08:16 | 45.57810 | 9.60989 | 14° | 24km/h | 19673m | 4.8m/s | -56.5°C | 5.2% | 0hPa | 2.5V | 08:30:00 | 01:34:28 | 00:00:00 | |
| DO3MHA-11 | 2026-09-01 00:08:11 | 45.57816 | 9.60992 | 24° | 18km/h | 19678m | 5.5m/s | -56.4°C | 5.2% | 0hPa | 2.5V | 00:00:00 | 01:34:29 | 00:00:00 | |
| IW2NTF | 2026-09-01 00:08:05 | 45.57769 | 9.60971 | 2° | 16km/h | 19628m | 3.9m/s | -56.4°C | 5.2% | 0hPa | 2.5V | 08:30:00 | 01:34:18 | 00:00:00 | |
| DO3MHA-11 | 2026-09-01 00:08:01 | 45.57773 | 9.60972 | 7° | 15km/h | 19633m | 5.1m/s | -56.4°C | 5.1% | 0hPa | 2.5V | 00:00:00 | 01:34:19 | 00:00:00 | |
| DB0UT-7 | 2026-09-01 00:07:58 | 45.57760 | 9.60970 | 10° | 13km/h | 19618m | 4.4m/s | -56.4°C | 5.2% | 0hPa | 2.5V | 00:00:00 | 01:34:16 | 00:00:00 | |
| IW2NTF | 2026-09-01 00:07:55 | 45.57732 | 9.60971 | 350° | 18km/h | 19582m | 5.4m/s | -56.3°C | 5.2% | 0hPa | 2.5V | 08:30:00 | 01:34:08 | 00:00:00 | |
| NBG1-10 | 2026-09-01 00:07:55 | 45.57750 | 9.60969 | 352° | 11km/h | 19605m | 4.5m/s | -56.3°C | 5.2% | 0hPa | 2.5V | 00:00:00 | 01:34:13 | 00:00:00 | |
| DO3MHA-11 | 2026-09-01 00:07:51 | 45.57737 | 9.60970 | 358° | 13km/h | 19587m | 4.1m/s | -56.2°C | 5.2% | 0hPa | 2.5V | 00:00:00 | 01:34:09 | 00:00:00 | |
| IW2NTF | 2026-09-01 00:07:45 | 45.57708 | 9.60982 | 10° | 9km/h | 19536m | 5.3m/s | -56.4°C | 5.3% | 0hPa | 2.5V | 08:30:00 | 01:33:58 | 00:00:00 | |
| DO3MHA-11 | 2026-09-01 00:07:41 | 45.57710 | 9.60982 | 348° | 13km/h | 19541m | 4.5m/s | -56.3°C | 5.3% | 0hPa | 2.5V | 00:00:00 | 01:33:59 | 00:00:00 | |
| IW2NTF | 2026-09-01 00:07:35 | 45.57682 | 9.60990 | 216° | 7km/h | 19486m | 4.1m/s | -56°C | 5.1% | 0hPa | 2.5V | 08:30:00 | 01:33:48 | 00:00:00 | |
| DO3MHA-11 | 2026-09-01 00:07:31 | 45.57680 | 9.60988 | 239° | 5km/h | 19492m | 5.8m/s | -56.0°C | 5.1% | 0hPa | 2.6V | 00:00:00 | 01:33:49 | 08:30:00 | |
| DB0UT-7 | 2026-09-01 00:07:28 | 45.57683 | 9.60990 | 95° | 5km/h | 19476m | 6.1m/s | -55.9°C | 5.1% | 0hPa | 2.7V | 00:00:00 | 00:00:00 | 00:00:00 | |
| IW2NTF | 2026-09-01 00:07:25 | 45.57677 | 9.60982 | 10° | 5km/h | 19433m | 4.3m/s | -55.7°C | 5% | 0hPa | 2.7V | 08:30:00 | 01:33:38 | 00:00:00 | |
| NBG1-10 | 2026-09-01 00:07:22 | 45.57680 | 9.60981 | 313° | 9km/h | 19444m | 5.2m/s | -55.7°C | 5.0% | 0hPa | 2.5V | 00:00:00 | 01:33:40 | 00:00:00 | |
| DO3MHA-11 | 2026-09-01 00:07:21 | 45.57679 | 9.60982 | 350° | 5km/h | 19439m | 5.8m/s | -55.7°C | 5.1% | 0hPa | 2.7V | 00:00:00 | 01:33:39 | 00:00:00 | |
| IW2NTF | 2026-09-01 00:07:16 | 45.57681 | 9.60969 | 123° | 4km/h | 19384m | 4.7m/s | -55.4°C | 4.9% | 0hPa | 2.7V | 08:30:00 | 01:33:28 | 00:00:00 | |
| DO3MHA-11 | 2026-09-01 00:07:11 | 45.57680 | 9.60970 | 148° | 5km/h | 19389m | 4.3m/s | -55.4°C | 5.0% | 0hPa | 2.7V | 00:00:00 | 01:33:29 | 00:00:00 | |
| IW2NTF | 2026-09-01 00:07:06 | 45.57685 | 9.60947 | 105° | 13km/h | 19338m | 4.8m/s | -55.5°C | 4.8% | 0hPa | 2.7V | 08:30:00 | 01:33:18 | 00:00:00 | |
| DO3MHA-11 | 2026-09-01 00:07:01 | 45.57685 | 9.60951 | 98° | 15km/h | 19343m | 3.7m/s | -55.4°C | 4.9% | 0hPa | 2.5V | 00:00:00 | 01:33:19 | 00:00:00 | |
| DB0UT-7 | 2026-09-01 00:06:58 | 45.57688 | 9.60939 | 134° | 18km/h | 19329m | 4.2m/s | -55.5°C | 4.9% | 0hPa | 2.5V | 00:00:00 | 01:33:16 | 00:00:00 | |
| IW2NTF | 2026-09-01 00:06:55 | 45.57702 | 9.60908 | 106° | 20km/h | 19291m | 5m/s | -55.9°C | 5% | 0hPa | 2.5V | 08:30:00 | 01:33:08 | 00:00:00 | |
| NBG1-10 | 2026-09-01 00:06:49 | 45.57703 | 9.60901 | 104° | 29km/h | 19288m | 3.4m/s | -55.9°C | 5.1% | 0hPa | 2.5V | 00:00:00 | 01:33:07 | 00:00:00 | |
| DO3MHA-11 | 2026-09-01 00:06:48 | 45.57705 | 9.60894 | 111° | 20km/h | 19284m | 4.2m/s | -55.9°C | 5.1% | 0hPa | 2.5V | 00:00:00 | 01:33:06 | 00:00:00 | |
| IW2NTF | 2026-09-01 00:06:45 | 45.57723 | 9.60849 | 114° | 24km/h | 19247m | 5.3m/s | -56°C | 5.1% | 0hPa | 2.5V | 08:30:00 | 01:32:58 | 00:00:00 | |
| DO3MHA-11 | 2026-09-01 00:06:38 | 45.57730 | 9.60833 | 122° | 24km/h | 19238m | 3.8m/s | -55.9°C | 5.1% | 0hPa | 2.5V | 00:00:00 | 01:32:56 | 00:00:00 | |
| IW2NTF | 2026-09-01 00:06:35 | 45.57748 | 9.60775 | 110° | 24km/h | 19201m | 4.8m/s | -56°C | 5% | 0hPa | 2.5V | 08:30:00 | 01:32:48 | 00:00:00 | |
| DO3MHA-11 | 2026-09-01 00:06:28 | 45.57753 | 9.60756 | 114° | 31km/h | 19192m | 5.6m/s | -56.0°C | 5.0% | 0hPa | 2.7V | 00:00:00 | 01:32:46 | 00:00:00 | |
| IW2NTF | 2026-09-01 00:06:25 | 45.57776 | 9.60668 | 109° | 26km/h | 19156m | 4.7m/s | -55.9°C | 5% | 0hPa | 2.5V | 08:30:00 | 01:32:38 | 00:00:00 | |
| DO3MHA-11 | 2026-09-01 00:06:18 | 45.57780 | 9.60650 | 102° | 31km/h | 19147m | 3.8m/s | -55.9°C | 5.0% | 0hPa | 2.7V | 00:00:00 | 01:32:36 | 00:00:00 | |
| NBG1-10 | 2026-09-01 00:06:16 | 45.57783 | 9.60631 | 111° | 33km/h | 19138m | 4.9m/s | -55.9°C | 4.9% | 0hPa | 2.7V | 00:00:00 | 01:32:34 | 00:00:00 | |
| IW2NTF | 2026-09-01 00:06:15 | 45.57792 | 9.60562 | 95° | 35km/h | 19109m | 4.8m/s | -56.2°C | 5.1% | 0hPa | 2.7V | 08:30:00 | 01:32:28 | 00:00:00 | |
| DO3MHA-11 | 2026-09-01 00:06:08 | 45.57793 | 9.60538 | 94° | 31km/h | 19101m | 5.0m/s | -56.2°C | 5.1% | 0hPa | 2.7V | 00:00:00 | 01:32:26 | 00:00:00 | |
| IW2NTF | 2026-09-01 00:06:05 | 45.57790 | 9.60406 | 76° | 31km/h | 19047m | 4.6m/s | -56.6°C | 5.1% | 0hPa | 2.7V | 08:30:00 | 01:32:14 | 00:00:00 | |
| IW2NTF | 2026-09-01 00:05:59 | 45.57768 | 9.60291 | 60° | 37km/h | 19000m | 5.2m/s | -56.8°C | 5.3% | 0hPa | 2.5V | 08:30:00 | 01:32:04 | 00:00:00 | |
| DB0UT-7 | 2026-09-01 00:05:58 | 45.57793 | 9.60429 | 82° | 35km/h | 19055m | 4.5m/s | -56.4°C | 5.1% | 0hPa | 2.7V | 00:00:00 | 01:32:16 | 00:00:00 | |
| DO3MHA-11 | 2026-09-01 00:05:48 | 45.57777 | 9.60315 | 68° | 37km/h | 19010m | 5.0m/s | -56.8°C | 5.4% | 0hPa | 2.7V | 00:00:00 | 01:32:06 | 00:00:00 | |
| NBG1-10 | 2026-09-01 00:05:43 | 45.57755 | 9.60256 | 63° | 33km/h | 18987m | 5.2m/s | -56.6°C | 5.3% | 0hPa | 2.7V | 00:00:00 | 01:32:01 | 00:00:00 | |
| IW2NTF | 2026-09-01 00:05:41 | 45.57733 | 9.60143 | 71° | 38km/h | 18944m | 5.4m/s | -56.5°C | 5.1% | 0hPa | 2.5V | 08:30:00 | 01:31:52 | 00:00:00 | |
| DO3MHA-11 | 2026-09-01 00:05:39 | 45.57742 | 9.60196 | 82° | 35km/h | 18963m | 3.8m/s | -56.5°C | 5.2% | 0hPa | 2.5V | 00:00:00 | 01:31:56 | 00:00:00 | |
| DO3MHA-11 | 2026-09-01 00:05:28 | 45.57710 | 9.60082 | 72° | 31km/h | 18916m | 5.4m/s | -56.8°C | 5.3% | 0hPa | 2.5V | 00:00:00 | 01:31:46 | 00:00:00 | |
| IW2NTF | 2026-09-01 00:05:26 | 45.57705 | 9.60044 | 72° | 35km/h | 18897m | 4.1m/s | -56.8°C | 5.4% | 0hPa | 2.5V | 08:30:00 | 01:31:42 | 00:00:00 | |
| IW2NTF | 2026-09-01 00:05:20 | 45.57677 | 9.59937 | 84° | 33km/h | 18851m | 4m/s | -56.8°C | 5.3% | 0hPa | 2.7V | 08:30:00 | 01:31:32 | 00:00:00 | |
| DO3MHA-11 | 2026-09-01 00:05:20 | 45.57685 | 9.59980 | 65° | 35km/h | 18870m | 4.6m/s | -56.7°C | 5.3% | 0hPa | 2.5V | 00:00:00 | 01:31:36 | 00:00:00 | |
| NBG1-10 | 2026-09-01 00:05:10 | 45.57668 | 9.59884 | 68° | 37km/h | 18832m | 5.3m/s | -56.7°C | 5.2% | 0hPa | 2.5V | 00:00:00 | 01:31:28 | 00:00:00 | |
| DO3MHA-11 | 2026-09-01 00:05:08 | 45.57660 | 9.59862 | 57° | 37km/h | 18823m | 4.1m/s | -56.7°C | 5.2% | 0hPa | 2.5V | 00:00:00 | 01:31:26 | 00:00:00 | |
| IW2NTF | 2026-09-01 00:05:04 | 45.57635 | 9.59798 | 78° | 35km/h | 18795m | 3.9m/s | -56.8°C | 5.2% | 0hPa | 2.5V | 08:30:00 | 01:31:20 | 00:00:00 | |
| DB0UT-7 | 2026-09-01 00:04:59 | 45.57625 | 9.59741 | 70° | 40km/h | 18777m | 5.0m/s | -56.9°C | 5.4% | 0hPa | 2.5V | 00:00:00 | 01:31:16 | 00:00:00 | |
| DO3MHA-11 | 2026-09-01 00:04:58 | 45.57625 | 9.59741 | 70° | 40km/h | 18777m | 5.0m/s | -56.9°C | 5.4% | 0hPa | 2.5V | 00:00:00 | 01:31:16 | 00:00:00 | |
| IW2NTF | 2026-09-01 00:04:54 | 45.57595 | 9.59662 | 61° | 38km/h | 18749m | 5.4m/s | -56.9°C | 5.3% | 0hPa | 2.5V | 08:30:00 | 01:31:10 | 00:00:00 | |
| DO3MHA-11 | 2026-09-01 00:04:50 | 45.57580 | 9.59611 | 68° | 42km/h | 18731m | 4.8m/s | -56.8°C | 5.3% | 0hPa | 2.5V | 00:00:00 | 01:31:06 | 00:00:00 | |
| IW2NTF | 2026-09-01 00:04:44 | 45.57545 | 9.59538 | 41° | 38km/h | 18704m | 5.3m/s | -56.8°C | 5.3% | 0hPa | 2.5V | 08:30:00 | 01:31:00 | 00:00:00 | |
| NBG1-10 | 2026-09-01 00:04:38 | 45.57515 | 9.59484 | 66° | 37km/h | 18681m | 4.2m/s | -56.7°C | 5.3% | 0hPa | 2.7V | 00:00:00 | 01:30:55 | 00:00:00 | |
| IW2NTF | 2026-09-01 00:04:34 | 45.57489 | 9.59425 | 49° | 37km/h | 18657m | 5.1m/s | -56.7°C | 5.3% | 0hPa | 2.7V | 08:30:00 | 01:30:50 | 00:00:00 | |
| IW2NTF | 2026-09-01 00:04:24 | 45.57434 | 9.59332 | 43° | 33km/h | 18610m | 4.6m/s | -56.5°C | 5.3% | 0hPa | 2.5V | 08:30:00 | 01:30:40 | 00:00:00 | |
| DO3MHA-11 | 2026-09-01 00:04:18 | 45.57405 | 9.59303 | 37° | 33km/h | 18591m | 5.0m/s | -56.4°C | 5.2% | 0hPa | 2.5V | 00:00:00 | 01:30:36 | 00:00:00 | |
| IW2NTF | 2026-09-01 00:04:16 | 45.57369 | 9.59255 | 51° | 29km/h | 18563m | 5m/s | -56.3°C | 5.3% | 0hPa | 2.5V | 08:30:00 | 01:30:30 | 00:00:00 | |
| IW2NTF | 2026-09-01 00:04:08 | 45.57299 | 9.59188 | 40° | 26km/h | 18518m | 3.8m/s | -55.9°C | 5.2% | 0hPa | 2.5V | 08:30:00 | 01:30:20 | 00:00:00 | |
| NBG1-10 | 2026-09-01 00:04:04 | 45.57311 | 9.59201 | 33° | 31km/h | 18528m | 5.1m/s | -56.0°C | 5.2% | 0hPa | 2.7V | 00:00:00 | 01:30:22 | 08:30:00 | |
| DB0UT-7 | 2026-09-01 00:03:58 | 45.57279 | 9.59159 | 40° | 31km/h | 18500m | 4.7m/s | -55.8°C | 5.2% | 0hPa | 2.7V | 00:00:00 | 01:30:16 | 08:30:00 | |
| IW2NTF | 2026-09-01 00:03:56 | 45.57238 | 9.59120 | 34° | 37km/h | 18475m | 3.7m/s | -55.6°C | 5.1% | 0hPa | 2.7V | 08:30:00 | 01:30:10 | 00:00:00 | |
| DO3MHA-11 | 2026-09-01 00:03:50 | 45.57195 | 9.59088 | 35° | 31km/h | 18449m | 3.0m/s | -55.4°C | 5.1% | 0hPa | 2.7V | 00:00:00 | 01:30:04 | 00:00:00 | |
| IW2NTF | 2026-09-01 00:03:46 | 45.57163 | 9.59058 | 36° | 31km/h | 18425m | 4.5m/s | -55.3°C | 5.1% | 0hPa | 2.7V | 08:30:00 | 01:29:59 | 00:00:00 | |
| DO3MHA-11 | 2026-09-01 00:03:42 | 45.57130 | 9.59030 | 29° | 29km/h | 18403m | 5.4m/s | -55.0°C | 5.0% | 0hPa | 2.7V | 00:00:00 | 01:29:54 | 00:00:00 | |
| IW2NTF | 2026-09-01 00:03:36 | 45.57096 | 9.59002 | 31° | 27km/h | 18380m | 4.2m/s | -54.9°C | 5% | 0hPa | 2.7V | 08:30:00 | 01:29:49 | 00:00:00 | |
| IW2NTF | 2026-09-01 00:03:26 | 45.57032 | 9.58943 | 27° | 29km/h | 18334m | 5.2m/s | -54.5°C | 4.9% | 0hPa | 2.7V | 08:30:00 | 01:29:39 | 00:00:00 | |
| DO3MHA-11 | 2026-09-01 00:03:25 | 45.56940 | 9.58871 | 31° | 27km/h | 18267m | 4.7m/s | -53.9°C | 4.6% | 0hPa | 2.5V | 00:00:00 | 01:29:24 | 00:00:00 | |
| DB0UT-7 | 2026-09-01 00:03:17 | 45.56894 | 9.58823 | 27° | 16km/h | 18230m | 5.2m/s | -54.1°C | 4.6% | 0hPa | 2.5V | 00:00:00 | 01:29:16 | 00:00:00 | |
| DO3MHA-11 | 2026-09-01 00:03:16 | 45.56886 | 9.58819 | 18° | 24km/h | 18222m | 3.8m/s | -54.3°C | 4.6% | 0hPa | 2.5V | 00:00:00 | 01:29:14 | 08:30:00 | |
| IW2NTF | 2026-09-01 00:03:14 | 45.56969 | 9.58889 | 32° | 27km/h | 18289m | 4m/s | -54.1°C | 4.6% | 0hPa | 2.5V | 08:30:00 | 01:29:29 | 00:00:00 | |
| NBG1-10 | 2026-09-01 00:03:14 | 45.56866 | 9.58797 | 43° | 15km/h | 18204m | 4.0m/s | -54.7°C | 4.8% | 0hPa | 2.7V | 00:00:00 | 01:29:10 | 00:00:00 | |
| DO3MHA-11 | 2026-09-01 00:03:07 | 45.56842 | 9.58760 | 65° | 15km/h | 18178m | 4.2m/s | -54.7°C | 4.8% | 0hPa | 2.7V | 00:00:00 | 01:29:04 | 00:00:00 | |
| IW2NTF | 2026-09-01 00:03:04 | 45.56910 | 9.58841 | 40° | 31km/h | 18244m | 5.5m/s | -54°C | 4.6% | 0hPa | 2.7V | 08:30:00 | 01:29:19 | 00:00:00 | |
| IW2NTF | 2026-09-01 00:02:54 | 45.56859 | 9.58789 | 39° | 33km/h | 18199m | 4m/s | -54.7°C | 4.8% | 0hPa | 2.5V | 08:30:00 | 01:29:09 | 00:00:00 | |
| DO3MHA-11 | 2026-09-01 00:02:47 | 45.56812 | 9.58729 | 17° | 11km/h | 18134m | 4.0m/s | -54.6°C | 4.8% | 0hPa | 2.7V | 00:00:00 | 01:28:54 | 00:00:00 | |
| IW2NTF | 2026-09-01 00:02:44 | 45.56830 | 9.58753 | 43° | 20km/h | 18156m | 4.9m/s | -54.8°C | 4.8% | 0hPa | 2.7V | 08:30:00 | 01:28:59 | 00:00:00 | |
| DB0UT-7 | 2026-09-01 00:02:40 | 45.56797 | 9.58716 | 52° | 9km/h | 18096m | 4.6m/s | -54.4°C | 4.7% | 0hPa | 2.5V | 00:00:00 | 00:00:00 | 00:00:00 | |
| IW2NTF | 2026-09-01 00:02:34 | 45.56803 | 9.58724 | 20° | 5km/h | 18110m | 4.4m/s | -54.5°C | 4.8% | 0hPa | 2.7V | 08:30:00 | 01:28:49 | 00:00:00 | |
| DO3MHA-11 | 2026-09-01 00:02:34 | 45.56791 | 9.58708 | 31° | 9km/h | 18087m | 4.9m/s | -54.4°C | 4.7% | 0hPa | 2.7V | 00:00:00 | 01:28:44 | 00:00:00 | |
| IW2NTF | 2026-09-01 00:02:24 | 45.56778 | 9.58705 | 55° | 7km/h | 18064m | 4.1m/s | -54.5°C | 4.8% | 0hPa | 2.5V | 08:30:00 | 01:28:39 | 00:00:00 | |
| NBG1-10 | 2026-09-01 00:02:24 | 45.56778 | 9.58701 | 121° | 11km/h | 18055m | 5.5m/s | -54.5°C | 4.8% | 0hPa | 2.7V | 00:00:00 | 01:28:37 | 00:00:00 | |
| DO3MHA-11 | 2026-09-01 00:02:18 | 45.56779 | 9.58691 | 71° | 9km/h | 18036m | 3.7m/s | -54.4°C | 4.9% | 0hPa | 2.5V | 00:00:00 | 01:28:33 | 00:00:00 | |
| IW2NTF | 2026-09-01 00:02:14 | 45.56776 | 9.58681 | 96° | 9km/h | 18014m | 5.3m/s | -54.4°C | 4.9% | 0hPa | 2.5V | 08:30:00 | 01:28:28 | 00:00:00 | |
| DO3MHA-11 | 2026-09-01 00:02:05 | 45.56778 | 9.58662 | 57° | 11km/h | 17990m | 4.8m/s | -54.2°C | 4.7% | 0hPa | 2.7V | 00:00:00 | 01:28:23 | 00:00:00 | |
| IW2NTF | 2026-09-01 00:02:04 | 45.56778 | 9.58656 | 157° | 13km/h | 17966m | 4.7m/s | -54.1°C | 4.8% | 0hPa | 2.7V | 08:30:00 | 01:28:18 | 00:00:00 | |
| DO3MHA-11 | 2026-09-01 00:02:01 | 45.56818 | 9.58578 | 125° | 18km/h | 17892m | 5.9m/s | -53.5°C | 4.6% | 0hPa | 2.7V | 00:00:00 | 01:28:03 | 00:00:00 | |
| IW2NTF | 2026-09-01 00:01:54 | 45.56800 | 9.58611 | 120° | 22km/h | 17917m | 4.8m/s | -53.8°C | 4.7% | 0hPa | 2.7V | 08:30:00 | 01:28:08 | 00:00:00 | |
| DO3MHA-11 | 2026-09-01 00:01:46 | 45.56843 | 9.58522 | 112° | 22km/h | 17844m | 5.1m/s | -53.1°C | 4.6% | 0hPa | 2.5V | 00:00:00 | 01:27:53 | 00:00:00 | |
| IW2NTF | 2026-09-01 00:01:44 | 45.56829 | 9.58555 | 157° | 13km/h | 17867m | 4.3m/s | -53.4°C | 4.6% | 0hPa | 2.5V | 08:30:00 | 01:27:58 | 00:00:00 | |
| DB0UT-7 | 2026-09-01 00:01:38 | 45.56868 | 9.58476 | 164° | 31km/h | 17808m | 7.5m/s | -53.1°C | 4.5% | 0hPa | 2.7V | 00:00:00 | 00:00:00 | 00:00:00 | |
| IW2NTF | 2026-09-01 00:01:34 | 45.56860 | 9.58483 | 134° | 22km/h | 17819m | 4.2m/s | -53.1°C | 4.5% | 0hPa | 2.7V | 08:30:00 | 01:27:48 | 00:00:00 | |
| DO3MHA-11 | 2026-09-01 00:01:34 | 45.56880 | 9.58467 | 124° | 31km/h | 17794m | 5.2m/s | -53.0°C | 4.4% | 0hPa | 2.7V | 00:00:00 | 01:27:43 | 08:30:00 | |
| IW2NTF | 2026-09-01 00:01:25 | 45.56894 | 9.58395 | 127° | 27km/h | 17760m | 6.2m/s | -52.7°C | 4.3% | 0hPa | 2.5V | 08:30:00 | 01:27:37 | 00:00:00 | |
| DO3MHA-11 | 2026-09-01 00:01:20 | 45.56914 | 9.58371 | 139° | 33km/h | 17738m | 4.9m/s | -52.6°C | 4.2% | 0hPa | 2.7V | 00:00:00 | 01:27:33 | 00:00:00 | |
| NBG1-10 | 2026-09-01 00:01:17 | 45.56924 | 9.58357 | 130° | 46km/h | 17728m | 4.9m/s | -52.6°C | 4.2% | 0hPa | 2.7V | 00:00:00 | 01:27:31 | 00:00:00 | |
| IW2NTF | 2026-09-01 00:01:13 | 45.56938 | 9.58319 | 99° | 31km/h | 17704m | 7.3m/s | -52.7°C | 4.1% | 0hPa | 2.7V | 08:30:00 | 01:27:27 | 00:00:00 | |
| DO3MHA-11 | 2026-09-01 00:01:07 | 45.56949 | 9.58267 | 123° | 35km/h | 17682m | 5.3m/s | -52.7°C | 4.2% | 0hPa | 2.5V | 00:00:00 | 01:27:23 | 00:00:00 | |
| IW2NTF | 2026-09-01 00:01:04 | 45.56971 | 9.58202 | 96° | 29km/h | 17649m | 5.7m/s | -53.6°C | 4.3% | 0hPa | 2.5V | 08:30:00 | 01:27:17 | 00:00:00 | |
| DO3MHA-11 | 2026-09-01 00:01:00 | 45.56982 | 9.58151 | 110° | 51km/h | 17626m | 7.1m/s | -54.3°C | 4.6% | 0hPa | 2.5V | 00:00:00 | 01:27:13 | 00:00:00 | |
| IW2NTF | 2026-09-01 00:00:55 | 45.57001 | 9.58048 | 97° | 55km/h | 17595m | 5m/s | -54.8°C | 4.9% | 0hPa | 2.7V | 08:30:00 | 01:27:07 | 00:00:00 | |
| DO3MHA-11 | 2026-09-01 00:00:48 | 45.57002 | 9.57969 | 92° | 55km/h | 17577m | 4.0m/s | -54.6°C | 4.8% | 0hPa | 2.5V | 00:00:00 | 01:27:03 | 00:00:00 | |
| IW2NTF | 2026-09-01 00:00:44 | 45.57006 | 9.57848 | 96° | 55km/h | 17549m | 3.3m/s | -54.5°C | 4.8% | 0hPa | 2.5V | 08:30:00 | 01:26:57 | 00:00:00 | |
| NBG1-10 | 2026-09-01 00:00:40 | 45.57006 | 9.57848 | 97° | 55km/h | 17549m | 3.2m/s | -54.4°C | 4.8% | 0hPa | 2.5V | 00:00:00 | 01:26:57 | 00:00:00 | |
| DO3MHA-11 | 2026-09-01 00:00:35 | 45.57006 | 9.57771 | 87° | 57km/h | 17531m | 5.0m/s | -54.3°C | 4.8% | 0hPa | 2.7V | 00:00:00 | 01:26:53 | 00:00:00 | |
| IW2NTF | 2026-09-01 00:00:34 | 45.57005 | 9.57649 | 91° | 58km/h | 17505m | 5m/s | -54.3°C | 4.6% | 0hPa | 2.7V | 08:30:00 | 01:26:47 | 00:00:00 | |
| DB0UT-7 | 2026-09-01 00:00:29 | 45.57005 | 9.57628 | 95° | 55km/h | 17501m | 4.2m/s | -54.2°C | 4.6% | 0hPa | 2.5V | 00:00:00 | 00:00:00 | 00:00:00 | |
| DO3MHA-11 | 2026-09-01 00:00:28 | 45.57008 | 9.57570 | 89° | 53km/h | 17489m | 4.7m/s | -54.2°C | 4.5% | 0hPa | 2.5V | 00:00:00 | 01:26:43 | 00:00:00 | |
| IW2NTF | 2026-09-01 00:00:24 | 45.57003 | 9.57455 | 93° | 55km/h | 17463m | 4.5m/s | -54.7°C | 4.6% | 0hPa | 2.5V | 08:30:00 | 01:26:37 | 00:00:00 | |
| DO3MHA-11 | 2026-09-01 00:00:21 | 45.57001 | 9.57375 | 84° | 57km/h | 17444m | 4.2m/s | -55.4°C | 4.9% | 0hPa | 2.5V | 00:00:00 | 01:26:33 | 00:00:00 | |
| IW2NTF | 2026-09-01 00:00:15 | 45.56992 | 9.57252 | 79° | 57km/h | 17416m | 4.1m/s | -55.8°C | 5% | 0hPa | 2.5V | 08:30:00 | 01:26:27 | 00:00:00 | |
| NBG1-10 | 2026-09-01 00:00:06 | 45.56985 | 9.57192 | 79° | 47km/h | 17403m | 4.1m/s | -55.9°C | 4.9% | 0hPa | 2.5V | 00:00:00 | 01:26:24 | 00:00:00 | |
| DO3MHA-11 | 2026-09-01 00:00:05 | 45.56982 | 9.57173 | 76° | 51km/h | 17398m | 4.8m/s | -55.9°C | 4.9% | 0hPa | 2.5V | 00:00:00 | 01:26:23 | 00:00:00 | |
| IW2NTF | 2026-09-01 00:00:04 | 45.56964 | 9.57062 | 78° | 49km/h | 17370m | 3.8m/s | -56.1°C | 4.9% | 0hPa | 2.5V | 08:30:00 | 01:26:17 | 00:00:00 | |
| DB0UT-7 | 2026-08-31 23:59:58 | 45.56962 | 9.57045 | 81° | 46km/h | 17367m | 3.6m/s | -56.1°C | 4.9% | 0hPa | 2.5V | 00:00:00 | 01:26:16 | 00:00:00 | |
| IW2NTF | 2026-08-31 23:59:53 | 45.56946 | 9.56887 | 84° | 47km/h | 17326m | 4.4m/s | -57.8°C | 5.5% | 0hPa | 2.5V | 08:30:00 | 01:26:07 | 00:00:00 | |
| DO3MHA-11 | 2026-08-31 23:59:52 | 45.56951 | 9.56940 | 81° | 44km/h | 17340m | 4.7m/s | -57.0°C | 5.2% | 0hPa | 2.7V | 00:00:00 | 01:26:10 | 08:30:00 | |
| IW2NTF | 2026-08-31 23:59:43 | 45.56942 | 9.56740 | 89° | 46km/h | 17283m | 5.8m/s | -58.6°C | 5.9% | 0hPa | 2.5V | 08:30:00 | 01:25:57 | 00:00:00 | |
| DO3MHA-11 | 2026-08-31 23:59:42 | 45.56945 | 9.56785 | 82° | 44km/h | 17295m | 4.3m/s | -58.4°C | 5.8% | 0hPa | 2.5V | 00:00:00 | 01:26:00 | 00:00:00 | |
| IW2NTF | 2026-08-31 23:59:33 | 45.56940 | 9.56578 | 82° | 51km/h | 17240m | 3.2m/s | -58.5°C | 5.9% | 0hPa | 2.5V | 08:30:00 | 01:25:47 | 00:00:00 | |
| NBG1-10 | 2026-08-31 23:59:33 | 45.56945 | 9.56641 | 91° | 49km/h | 17257m | 4.4m/s | -58.5°C | 5.9% | 0hPa | 2.7V | 00:00:00 | 01:25:51 | 00:00:00 | |
| DO3MHA-11 | 2026-08-31 23:59:32 | 45.56945 | 9.56627 | 88° | 49km/h | 17253m | 4.2m/s | -58.5°C | 5.9% | 0hPa | 2.7V | 00:00:00 | 01:25:50 | 00:00:00 | |
| DB0UT-7 | 2026-08-31 23:59:28 | 45.56939 | 9.56559 | 83° | 49km/h | 17236m | 4.6m/s | -58.4°C | 5.8% | 0hPa | 2.7V | 00:00:00 | 00:00:00 | 08:30:00 | |
| IW2NTF | 2026-08-31 23:59:23 | 45.56932 | 9.56395 | 81° | 46km/h | 17198m | 4.8m/s | -58.8°C | 6% | 0hPa | 2.5V | 08:30:00 | 01:25:37 | 00:00:00 | |
| DO3MHA-11 | 2026-08-31 23:59:22 | 45.56936 | 9.56446 | 87° | 47km/h | 17211m | 4.6m/s | -58.8°C | 6.0% | 0hPa | 2.7V | 00:00:00 | 01:25:40 | 00:00:00 | |
| IW2NTF | 2026-08-31 23:59:13 | 45.56912 | 9.56230 | 78° | 46km/h | 17154m | 4m/s | -58.6°C | 6% | 0hPa | 2.7V | 08:30:00 | 01:25:27 | 00:00:00 | |
| DO3MHA-11 | 2026-08-31 23:59:12 | 45.56918 | 9.56279 | 83° | 49km/h | 17168m | 4.5m/s | -58.7°C | 6.0% | 0hPa | 2.6V | 00:00:00 | 01:25:30 | 00:00:00 | |
| IW2NTF | 2026-08-31 23:59:03 | 45.56887 | 9.56058 | 70° | 42km/h | 17111m | 4.8m/s | -58.6°C | 6% | 0hPa | 2.6V | 08:30:00 | 01:25:17 | 00:00:00 | |
| DO3MHA-11 | 2026-08-31 23:59:02 | 45.56898 | 9.56104 | 77° | 47km/h | 17125m | 4.7m/s | -58.5°C | 6.0% | 0hPa | 2.6V | 00:00:00 | 01:25:20 | 00:00:00 | |
| DB0UT-7 | 2026-08-31 23:58:58 | 45.56884 | 9.56043 | 71° | 49km/h | 17107m | 4.2m/s | -58.6°C | 6.1% | 0hPa | 2.6V | 00:00:00 | 01:25:16 | 00:00:00 | |
| IW2NTF | 2026-08-31 23:58:54 | 45.56848 | 9.55884 | 67° | 53km/h | 17069m | 3.4m/s | -58.8°C | 6% | 0hPa | 2.6V | 08:30:00 | 01:25:07 | 00:00:00 | |
| DO3MHA-11 | 2026-08-31 23:58:52 | 45.56860 | 9.55939 | 75° | 51km/h | 17082m | 4.5m/s | -58.8°C | 6.0% | 0hPa | 2.7V | 00:00:00 | 01:25:10 | 00:00:00 | |
| IW2NTF | 2026-08-31 23:58:43 | 45.56813 | 9.55716 | 70° | 49km/h | 17027m | 5.2m/s | -58.6°C | 6% | 0hPa | 2.7V | 08:30:00 | 01:24:57 | 00:00:00 | |
| DO3MHA-11 | 2026-08-31 23:58:42 | 45.56822 | 9.55767 | 79° | 46km/h | 17040m | 5.2m/s | -58.5°C | 5.9% | 0hPa | 2.6V | 00:00:00 | 01:25:00 | 00:00:00 | |
| NBG1-10 | 2026-08-31 23:58:41 | 45.56819 | 9.55750 | 77° | 47km/h | 17035m | 4.5m/s | -58.5°C | 5.9% | 0hPa | 2.6V | 00:00:00 | 01:24:59 | 08:30:00 | |
| IW2NTF | 2026-08-31 23:58:33 | 45.56778 | 9.55554 | 78° | 55km/h | 16985m | 2.7m/s | -59.5°C | 6.2% | 0hPa | 2.7V | 08:30:00 | 01:24:47 | 00:00:00 | |
| DO3MHA-11 | 2026-08-31 23:58:32 | 45.56786 | 9.55610 | 75° | 51km/h | 16997m | 4.3m/s | -59.0°C | 5.9% | 0hPa | 2.5V | 00:00:00 | 01:24:50 | 00:00:00 | |
| DB0UT-7 | 2026-08-31 23:58:28 | 45.56775 | 9.55535 | 74° | 44km/h | 16982m | 3.6m/s | -59.4°C | 6.2% | 0hPa | 2.5V | 00:00:00 | 00:00:00 | 00:00:00 | |
| IW2NTF | 2026-08-31 23:58:23 | 45.56725 | 9.55404 | 64° | 49km/h | 16944m | 3.1m/s | -59.3°C | 6.3% | 0hPa | 2.5V | 08:30:00 | 01:24:37 | 00:00:00 | |
| DO3MHA-11 | 2026-08-31 23:58:22 | 45.56740 | 9.55445 | 62° | 47km/h | 16956m | 3.5m/s | -59.3°C | 6.5% | 0hPa | 2.7V | 00:00:00 | 01:24:40 | 08:30:00 | |
| IW2NTF | 2026-08-31 23:58:13 | 45.56658 | 9.55259 | 68° | 38km/h | 16902m | 4m/s | -59.1°C | 6.2% | 0hPa | 2.6V | 08:30:00 | 01:24:27 | 00:00:00 | |
| DO3MHA-11 | 2026-08-31 23:58:12 | 45.56675 | 9.55301 | 48° | 38km/h | 16915m | 3.9m/s | -59.1°C | 6.2% | 0hPa | 2.7V | 00:00:00 | 01:24:30 | 00:00:00 | |
| NBG1-10 | 2026-08-31 23:58:08 | 45.56654 | 9.55247 | 67° | 40km/h | 16897m | 5.7m/s | -59.0°C | 6.2% | 0hPa | 2.7V | 00:00:00 | 01:24:26 | 00:00:00 | |
| IW2NTF | 2026-08-31 23:58:03 | 45.56609 | 9.55153 | 46° | 44km/h | 16855m | 3.8m/s | -58.6°C | 6.1% | 0hPa | 2.7V | 08:30:00 | 01:24:17 | 00:00:00 | |
| DO3MHA-11 | 2026-08-31 23:58:02 | 45.56627 | 9.55185 | 59° | 40km/h | 16869m | 3.5m/s | -58.7°C | 6.1% | 0hPa | 2.7V | 00:00:00 | 01:24:20 | 00:00:00 | |
| DB0UT-7 | 2026-08-31 23:57:58 | 45.56602 | 9.55141 | 50° | 40km/h | 16851m | 4.6m/s | -58.6°C | 6.0% | 0hPa | 2.7V | 00:00:00 | 01:24:16 | 00:00:00 | |
| IW2NTF | 2026-08-31 23:57:53 | 45.56561 | 9.55030 | 51° | 42km/h | 16807m | 4.4m/s | -58.2°C | 6% | 0hPa | 2.6V | 08:30:00 | 01:24:07 | 00:00:00 | |
| DO3MHA-11 | 2026-08-31 23:57:52 | 45.56576 | 9.55064 | 57° | 44km/h | 16821m | 2.7m/s | -58.3°C | 6.2% | 0hPa | 2.7V | 00:00:00 | 01:24:10 | 00:00:00 | |
| IW2NTF | 2026-08-31 23:57:44 | 45.56520 | 9.54900 | 51° | 29km/h | 16749m | 6.2m/s | -57.7°C | 5.8% | 0hPa | 2.6V | 08:30:00 | 01:23:57 | 00:00:00 | |
| DO3MHA-11 | 2026-08-31 23:57:42 | 45.56522 | 9.54930 | 101° | 40km/h | 16768m | 4.3m/s | -57.8°C | 5.8% | 0hPa | 2.5V | 00:00:00 | 01:24:00 | 00:00:00 | |
| IW2NTF | 2026-08-31 23:57:35 | 45.56479 | 9.54777 | 98° | 31km/h | 16687m | 5.9m/s | -57.1°C | 5.8% | 0hPa | 2.5V | 08:30:00 | 01:23:47 | 00:00:00 | |
| DO3MHA-11 | 2026-08-31 23:57:32 | 45.56475 | 9.54808 | 81° | 38km/h | 16707m | 6.6m/s | -57.2°C | 5.8% | 0hPa | 2.7V | 00:00:00 | 01:23:50 | 00:00:00 | |
| DB0UT-7 | 2026-08-31 23:57:28 | 45.56479 | 9.54765 | 84° | 40km/h | 16682m | 4.6m/s | -57.0°C | 5.8% | 0hPa | 2.7V | 00:00:00 | 00:00:00 | 00:00:00 | |
| IW2NTF | 2026-08-31 23:57:23 | 45.56451 | 9.54639 | 105° | 44km/h | 16621m | 7.7m/s | -56.6°C | 5.4% | 0hPa | 2.7V | 08:30:00 | 01:23:37 | 00:00:00 | |
| DO3MHA-11 | 2026-08-31 23:57:22 | 45.56447 | 9.54684 | 75° | 38km/h | 16644m | 6.9m/s | -56.8°C | 5.5% | 0hPa | 2.6V | 00:00:00 | 01:23:40 | 00:00:00 | |
| DO3MHA-11 | 2026-08-31 23:57:12 | 45.56456 | 9.54552 | 74° | 42km/h | 16579m | 4.8m/s | -56.2°C | 5.4% | 0hPa | 2.7V | 00:00:00 | 01:23:30 | 00:00:00 | |
| IW2NTF | 2026-08-31 23:57:11 | 45.56443 | 9.54508 | 74° | 35km/h | 16564m | 4.4m/s | -56.3°C | 5.5% | 0hPa | 2.7V | 08:30:00 | 01:23:27 | 00:00:00 | |
| DO3MHA-11 | 2026-08-31 23:57:02 | 45.56465 | 9.54412 | 80° | 40km/h | 16530m | 7.1m/s | -56.0°C | 5.3% | 0hPa | 2.6V | 00:00:00 | 01:23:20 | 00:00:00 | |
| IW2NTF | 2026-08-31 23:57:01 | 45.56450 | 9.54386 | 38° | 33km/h | 16513m | 4m/s | -56.1°C | 5.2% | 0hPa | 2.6V | 08:30:00 | 01:23:17 | 00:00:00 | |
| DB0UT-7 | 2026-08-31 23:56:58 | 45.56444 | 9.54378 | 49° | 47km/h | 16509m | 2.7m/s | -56.1°C | 5.3% | 0hPa | 2.7V | 00:00:00 | 01:23:16 | 00:00:00 | |
| DO3MHA-11 | 2026-08-31 23:56:52 | 45.56458 | 9.54284 | 117° | 44km/h | 16477m | 2.8m/s | -55.9°C | 5.3% | 0hPa | 2.7V | 00:00:00 | 01:23:10 | 08:30:00 | |
| IW2NTF | 2026-08-31 23:56:51 | 45.56469 | 9.54225 | 83° | 46km/h | 16463m | 5.9m/s | -55.8°C | 5.2% | 0hPa | 2.6V | 08:30:00 | 01:23:07 | 00:00:00 | |
| NBG1-10 | 2026-08-31 23:56:51 | 45.56465 | 9.54263 | 111° | 51km/h | 16474m | 4.4m/s | -55.9°C | 5.3% | 0hPa | 2.7V | 00:00:00 | 01:23:09 | 00:00:00 | |
| DO3MHA-11 | 2026-08-31 23:56:42 | 45.56469 | 9.54140 | 114° | 51km/h | 16430m | 6.0m/s | -55.8°C | 5.1% | 0hPa | 2.7V | 00:00:00 | 01:23:00 | 00:00:00 | |
| IW2NTF | 2026-08-31 23:56:41 | 45.56478 | 9.54084 | 92° | 53km/h | 16410m | 7.3m/s | -55.8°C | 5.1% | 0hPa | 2.7V | 08:30:00 | 01:22:57 | 00:00:00 | |
| DO3MHA-11 | 2026-08-31 23:56:32 | 45.56485 | 9.53960 | 98° | 58km/h | 16366m | 6.2m/s | -56.1°C | 5.3% | 0hPa | 2.7V | 00:00:00 | 01:22:50 | 00:00:00 | |
| IW2NTF | 2026-08-31 23:56:31 | 45.56490 | 9.53897 | 98° | 60km/h | 16350m | 5.5m/s | -56.3°C | 5.4% | 0hPa | 2.7V | 08:30:00 | 01:22:47 | 00:00:00 | |
| DB0UT-7 | 2026-08-31 23:56:28 | 45.56493 | 9.53875 | 101° | 62km/h | 16346m | 4.0m/s | -56.3°C | 5.4% | 0hPa | 2.7V | 00:00:00 | 00:00:00 | 00:00:00 | |
| DO3MHA-11 | 2026-08-31 23:56:22 | 45.56510 | 9.53751 | 105° | 64km/h | 16317m | 3.6m/s | -56.2°C | 5.4% | 0hPa | 2.6V | 00:00:00 | 01:22:40 | 00:00:00 | |
| IW2NTF | 2026-08-31 23:56:21 | 45.56521 | 9.53677 | 101° | 71km/h | 16303m | 4.1m/s | -56.2°C | 5.4% | 0hPa | 2.7V | 08:30:00 | 01:22:37 | 00:00:00 | |
| NBG1-10 | 2026-08-31 23:56:18 | 45.56525 | 9.53652 | 104° | 66km/h | 16299m | 4.5m/s | -56.2°C | 5.4% | 0hPa | 2.6V | 00:00:00 | 01:22:36 | 00:00:00 | |
| DO3MHA-11 | 2026-08-31 23:56:12 | 45.56543 | 9.53526 | 103° | 64km/h | 16274m | 4.1m/s | -56.1°C | 5.4% | 0hPa | 2.6V | 00:00:00 | 01:22:30 | 00:00:00 | |
| IW2NTF | 2026-08-31 23:56:11 | 45.56552 | 9.53464 | 101° | 62km/h | 16262m | 4.1m/s | -56.1°C | 5.3% | 0hPa | 2.6V | 08:30:00 | 01:22:27 | 00:00:00 | |
| IW2NTF | 2026-08-31 23:56:04 | 45.56589 | 9.53234 | 102° | 64km/h | 16217m | 5.3m/s | -56°C | 5.4% | 0hPa | 2.6V | 08:30:00 | 01:22:17 | 00:00:00 | |
| DO3MHA-11 | 2026-08-31 23:56:02 | 45.56578 | 9.53301 | 101° | 64km/h | 16231m | 5.2m/s | -55.8°C | 5.2% | 0hPa | 2.6V | 00:00:00 | 01:22:20 | 00:00:00 | |
| DB0UT-7 | 2026-08-31 23:55:58 | 45.56592 | 9.53211 | 103° | 68km/h | 16213m | 4.1m/s | -56.0°C | 5.4% | 0hPa | 2.6V | 00:00:00 | 01:22:16 | 00:00:00 | |
| DO3MHA-11 | 2026-08-31 23:55:52 | 45.56620 | 9.53077 | 102° | 68km/h | 16186m | 3.4m/s | -55.9°C | 5.3% | 0hPa | 2.6V | 00:00:00 | 01:22:10 | 00:00:00 | |
| IW2NTF | 2026-08-31 23:55:51 | 45.56630 | 9.53009 | 101° | 66km/h | 16171m | 4.1m/s | -55.9°C | 5.3% | 0hPa | 2.6V | 08:30:00 | 01:22:07 | 00:00:00 | |
| NBG1-10 | 2026-08-31 23:55:44 | 45.56653 | 9.52890 | 111° | 71km/h | 16150m | 3.6m/s | -56.0°C | 5.2% | 0hPa | 2.6V | 00:00:00 | 01:22:02 | 00:00:00 | |
| IW2NTF | 2026-08-31 23:55:42 | 45.56678 | 9.52774 | 102° | 66km/h | 16127m | 4.5m/s | -56.2°C | 5.2% | 0hPa | 2.6V | 08:30:00 | 01:21:57 | 00:00:00 | |
| IW2NTF | 2026-08-31 23:55:32 | 45.56721 | 9.52530 | 105° | 75km/h | 16082m | 4.6m/s | -56.8°C | 5.4% | 0hPa | 2.7V | 08:30:00 | 01:21:47 | 00:00:00 | |
| DO3MHA-11 | 2026-08-31 23:55:32 | 45.56705 | 9.52608 | 107° | 73km/h | 16096m | 4.8m/s | -56.4°C | 5.2% | 0hPa | 2.6V | 00:00:00 | 01:21:50 | 00:00:00 | |
| DB0UT-7 | 2026-08-31 23:55:28 | 45.56726 | 9.52504 | 104° | 73km/h | 16077m | 4.9m/s | -57.0°C | 5.6% | 0hPa | 2.6V | 00:00:00 | 00:00:00 | 00:00:00 | |
| IW2NTF | 2026-08-31 23:55:22 | 45.56758 | 9.52270 | 101° | 78km/h | 16039m | 4.5m/s | -57.8°C | 5.9% | 0hPa | 2.6V | 08:30:00 | 01:21:37 | 00:00:00 | |
| DO3MHA-11 | 2026-08-31 23:55:12 | 45.56776 | 9.52084 | 97° | 71km/h | 16007m | 5.0m/s | -57.7°C | 5.8% | 0hPa | 2.6V | 00:00:00 | 01:21:30 | 00:00:00 | |
| IW2NTF | 2026-08-31 23:55:11 | 45.56781 | 9.52008 | 94° | 71km/h | 15993m | 4.4m/s | -57.7°C | 5.8% | 0hPa | 2.6V | 08:30:00 | 01:21:27 | 00:00:00 | |
| NBG1-10 | 2026-08-31 23:55:11 | 45.56778 | 9.52058 | 96° | 75km/h | 16003m | 4.2m/s | -57.7°C | 5.8% | 0hPa | 2.6V | 00:00:00 | 01:21:29 | 00:00:00 | |
| DO3MHA-11 | 2026-08-31 23:55:02 | 45.56799 | 9.51827 | 98° | 73km/h | 15962m | 5.1m/s | -57.7°C | 5.8% | 0hPa | 2.6V | 00:00:00 | 01:21:20 | 00:00:00 | |
| IW2NTF | 2026-08-31 23:55:01 | 45.56806 | 9.51749 | 95° | 75km/h | 15949m | 4.9m/s | -57.8°C | 5.9% | 0hPa | 2.6V | 08:30:00 | 01:21:17 | 00:00:00 | |
| DB0UT-7 | 2026-08-31 23:54:58 | 45.56807 | 9.51722 | 95° | 77km/h | 15945m | 3.9m/s | -57.8°C | 5.8% | 0hPa | 2.7V | 00:00:00 | 01:21:16 | 08:30:00 | |
| DO3MHA-11 | 2026-08-31 23:54:52 | 45.56821 | 9.51564 | 99° | 78km/h | 15919m | 4.3m/s | -58.1°C | 6.0% | 0hPa | 2.7V | 00:00:00 | 01:21:10 | 00:00:00 | |
| IW2NTF | 2026-08-31 23:54:51 | 45.56832 | 9.51484 | 102° | 77km/h | 15905m | 4.6m/s | -58.4°C | 6.2% | 0hPa | 2.6V | 08:30:00 | 01:21:07 | 00:00:00 | |
| IW2NTF | 2026-08-31 23:54:41 | 45.56869 | 9.51202 | 100° | 77km/h | 15860m | 4.4m/s | -58.5°C | 6.3% | 0hPa | 2.6V | 08:30:00 | 01:20:57 | 00:00:00 | |
| NBG1-10 | 2026-08-31 23:54:38 | 45.56872 | 9.51175 | 99° | 78km/h | 15857m | 3.7m/s | -58.5°C | 6.2% | 0hPa | 2.6V | 00:00:00 | 01:20:56 | 00:00:00 | |
| IW2NTF | 2026-08-31 23:54:31 | 45.56897 | 9.50936 | 97° | 82km/h | 15818m | 3.9m/s | -58.5°C | 6.3% | 0hPa | 2.6V | 08:30:00 | 01:20:47 | 00:00:00 | |
| DB0UT-7 | 2026-08-31 23:54:28 | 45.56900 | 9.50907 | 98° | 80km/h | 15814m | 4.5m/s | -58.5°C | 6.4% | 0hPa | 2.7V | 00:00:00 | 00:00:00 | 00:00:00 | |
| DO3MHA-11 | 2026-08-31 23:54:22 | 45.56917 | 9.50734 | 98° | 80km/h | 15790m | 4.8m/s | -58.4°C | 6.3% | 0hPa | 2.7V | 00:00:00 | 01:20:40 | 00:00:00 | |
| IW2NTF | 2026-08-31 23:54:21 | 45.56924 | 9.50653 | 95° | 77km/h | 15776m | 5m/s | -58.4°C | 6.3% | 0hPa | 2.6V | 08:30:00 | 01:20:37 | 00:00:00 | |
| DO3MHA-11 | 2026-08-31 23:54:12 | 45.56946 | 9.50445 | 100° | 77km/h | 15744m | 3.0m/s | -58.3°C | 6.3% | 0hPa | 2.7V | 00:00:00 | 01:20:30 | 00:00:00 | |
| IW2NTF | 2026-08-31 23:54:08 | 45.56959 | 9.50336 | 96° | 73km/h | 15727m | 5m/s | -58.4°C | 6.4% | 0hPa | 2.7V | 08:30:00 | 01:20:26 | 00:00:00 | |
| DO3MHA-11 | 2026-08-31 23:54:02 | 45.56969 | 9.50168 | 97° | 80km/h | 15701m | 4.4m/s | -58.4°C | 6.5% | 0hPa | 2.7V | 00:00:00 | 01:20:20 | 00:00:00 | |
| IW2NTF | 2026-08-31 23:53:59 | 45.56982 | 9.50055 | 98° | 77km/h | 15684m | 3.9m/s | -58.4°C | 6.4% | 0hPa | 2.7V | 08:30:00 | 01:20:16 | 00:00:00 | |
| IW2NTF | 2026-08-31 23:53:54 | 45.57000 | 9.49752 | 98° | 84km/h | 15640m | 4.9m/s | -58.3°C | 6.4% | 0hPa | 2.7V | 08:30:00 | 01:20:06 | 00:00:00 | |
| DO3MHA-11 | 2026-08-31 23:53:52 | 45.56991 | 9.49877 | 95° | 86km/h | 15658m | 4.6m/s | -58.3°C | 6.5% | 0hPa | 2.7V | 00:00:00 | 01:20:10 | 08:30:00 | |
| IW2NTF | 2026-08-31 23:53:43 | 45.57015 | 9.49442 | 92° | 88km/h | 15594m | 5.3m/s | -58.3°C | 6.4% | 0hPa | 2.7V | 08:30:00 | 01:19:56 | 00:00:00 | |
| DO3MHA-11 | 2026-08-31 23:53:42 | 45.57013 | 9.49569 | 93° | 88km/h | 15613m | 4.4m/s | -58.3°C | 6.5% | 0hPa | 2.7V | 00:00:00 | 01:20:00 | 00:00:00 | |
| DO3MHA-11 | 2026-08-31 23:53:32 | 45.57022 | 9.49256 | 92° | 91km/h | 15567m | 4.9m/s | -58.0°C | 6.2% | 0hPa | 2.7V | 00:00:00 | 01:19:50 | 00:00:00 | |
| IW2NTF | 2026-08-31 23:53:28 | 45.57024 | 9.49123 | 88° | 97km/h | 15548m | 4.2m/s | -58°C | 6.2% | 0hPa | 2.7V | 08:30:00 | 01:19:46 | 00:00:00 | |
| DB0UT-7 | 2026-08-31 23:53:28 | 45.57024 | 9.49123 | 89° | 91km/h | 15549m | 4.1m/s | -57.9°C | 6.2% | 0hPa | 2.7V | 00:00:00 | 00:00:00 | 00:00:00 | |
| DO3MHA-11 | 2026-08-31 23:53:22 | 45.57017 | 9.48928 | 91° | 93km/h | 15523m | 4.2m/s | -58.6°C | 6.6% | 0hPa | 2.7V | 00:00:00 | 01:19:40 | 00:00:00 | |
| IW2NTF | 2026-08-31 23:53:19 | 45.57019 | 9.48796 | 90° | 97km/h | 15506m | 4.2m/s | -58.8°C | 6.7% | 0hPa | 2.7V | 08:30:00 | 01:19:36 | 00:00:00 | |
| DO3MHA-11 | 2026-08-31 23:53:12 | 45.57017 | 9.48590 | 89° | 89km/h | 15480m | 4.8m/s | -58.7°C | 6.7% | 0hPa | 2.7V | 00:00:00 | 01:19:30 | 00:00:00 | |
| IW2NTF | 2026-08-31 23:53:08 | 45.57014 | 9.48460 | 86° | 89km/h | 15460m | 4.9m/s | -58.7°C | 6.7% | 0hPa | 2.7V | 08:30:00 | 01:19:26 | 00:00:00 | |
| DO3MHA-11 | 2026-08-31 23:53:02 | 45.57010 | 9.48268 | 90° | 86km/h | 15434m | 4.4m/s | -58.8°C | 6.9% | 0hPa | 2.7V | 00:00:00 | 01:19:20 | 00:00:00 | |
| IW2NTF | 2026-08-31 23:52:58 | 45.57008 | 9.48148 | 87° | 82km/h | 15414m | 5.3m/s | -58.8°C | 6.9% | 0hPa | 2.7V | 08:30:00 | 01:19:16 | 00:00:00 | |
| DB0UT-7 | 2026-08-31 23:52:58 | 45.57008 | 9.48148 | 88° | 88km/h | 15415m | 5.2m/s | -58.7°C | 6.9% | 0hPa | 2.7V | 00:00:00 | 01:19:16 | 00:00:00 | |
| DO3MHA-11 | 2026-08-31 23:52:52 | 45.57003 | 9.47962 | 91° | 88km/h | 15388m | 5.1m/s | -58.6°C | 6.9% | 0hPa | 2.7V | 00:00:00 | 01:19:10 | 00:00:00 | |
| NBG1-10 | 2026-08-31 23:52:49 | 45.57003 | 9.47870 | 91° | 88km/h | 15374m | 5.4m/s | -58.5°C | 7.0% | 0hPa | 2.7V | 00:00:00 | 01:19:07 | 00:00:00 | |
| IW2NTF | 2026-08-31 23:52:48 | 45.57003 | 9.47808 | 90° | 86km/h | 15364m | 5m/s | -58.5°C | 7% | 0hPa | 2.7V | 08:30:00 | 01:19:05 | 00:00:00 | |
| DO3MHA-11 | 2026-08-31 23:52:42 | 45.57006 | 9.47648 | 92° | 88km/h | 15341m | 4.5m/s | -58.4°C | 6.9% | 0hPa | 2.7V | 00:00:00 | 01:19:00 | 00:00:00 | |
| IW2NTF | 2026-08-31 23:52:38 | 45.57001 | 9.47493 | 85° | 86km/h | 15317m | 5.4m/s | -58.3°C | 6.6% | 0hPa | 2.7V | 08:30:00 | 01:18:55 | 00:00:00 | |
| DO3MHA-11 | 2026-08-31 23:52:32 | 45.56999 | 9.47331 | 92° | 89km/h | 15294m | 5.5m/s | -58.1°C | 6.6% | 0hPa | 2.7V | 00:00:00 | 01:18:50 | 00:00:00 | |
| IW2NTF | 2026-08-31 23:52:29 | 45.56999 | 9.47169 | 86° | 84km/h | 15269m | 5.8m/s | -58.3°C | 6.7% | 0hPa | 2.7V | 08:30:00 | 01:18:45 | 00:00:00 | |
| DB0UT-7 | 2026-08-31 23:52:28 | 45.57000 | 9.47199 | 88° | 89km/h | 15274m | 3.8m/s | -58.2°C | 6.6% | 0hPa | 2.7V | 00:00:00 | 00:00:00 | 00:00:00 | |
| DO3MHA-11 | 2026-08-31 23:52:22 | 45.56988 | 9.47014 | 86° | 88km/h | 15246m | 4.9m/s | -58.8°C | 7.1% | 0hPa | 2.7V | 00:00:00 | 01:18:40 | 08:30:00 | |
| IW2NTF | 2026-08-31 23:52:18 | 45.56986 | 9.46844 | 92° | 91km/h | 15223m | 5.1m/s | -59.8°C | 7.5% | 0hPa | 2.7V | 08:30:00 | 01:18:35 | 00:00:00 | |
| DO3MHA-11 | 2026-08-31 23:52:12 | 45.56985 | 9.46696 | 85° | 93km/h | 15200m | 4.2m/s | -60.0°C | 7.8% | 0hPa | 2.6V | 00:00:00 | 01:18:30 | 00:00:00 | |
| IW2NTF | 2026-08-31 23:52:08 | 45.56975 | 9.46532 | 85° | 97km/h | 15177m | 4m/s | -60°C | 7.8% | 0hPa | 2.6V | 08:30:00 | 01:18:25 | 00:00:00 | |
| DO3MHA-11 | 2026-08-31 23:52:02 | 45.56971 | 9.46364 | 86° | 88km/h | 15154m | 4.8m/s | -59.9°C | 7.9% | 0hPa | 2.6V | 00:00:00 | 01:18:20 | 00:00:00 | |
| IW2NTF | 2026-08-31 23:51:59 | 45.56960 | 9.46213 | 82° | 88km/h | 15130m | 4.3m/s | -59.8°C | 7.8% | 0hPa | 2.6V | 08:30:00 | 01:18:15 | 00:00:00 | |
| DB0UT-7 | 2026-08-31 23:51:58 | 45.56963 | 9.46244 | 84° | 86km/h | 15135m | 4.6m/s | -59.8°C | 7.8% | 0hPa | 2.6V | 00:00:00 | 01:18:16 | 00:00:00 | |
| NBG1-10 | 2026-08-31 23:51:56 | 45.56958 | 9.46181 | 85° | 86km/h | 15127m | 3.5m/s | -59.8°C | 7.8% | 0hPa | 2.6V | 00:00:00 | 01:18:14 | 00:00:00 | |
| DO3MHA-11 | 2026-08-31 23:51:52 | 45.56955 | 9.46049 | 91° | 84km/h | 15108m | 4.8m/s | -59.8°C | 7.8% | 0hPa | 2.6V | 00:00:00 | 01:18:10 | 00:00:00 | |
| IW2NTF | 2026-08-31 23:51:48 | 45.56950 | 9.45897 | 81° | 80km/h | 15085m | 3.7m/s | -60°C | 8% | 0hPa | 2.6V | 08:30:00 | 01:18:05 | 00:00:00 | |
| IW2NTF | 2026-08-31 23:51:39 | 45.56945 | 9.45585 | 86° | 84km/h | 15042m | 5.4m/s | -60.2°C | 8.1% | 0hPa | 2.6V | 08:30:00 | 01:17:55 | 00:00:00 | |
| IW2NTF | 2026-08-31 23:51:32 | 45.56929 | 9.45282 | 90° | 89km/h | 14997m | 3.8m/s | -60.2°C | 8.2% | 0hPa | 2.7V | 08:30:00 | 01:17:45 | 00:00:00 | |
| DO3MHA-11 | 2026-08-31 23:51:32 | 45.56934 | 9.45441 | 86° | 88km/h | 15021m | 4.5m/s | -60.1°C | 8.2% | 0hPa | 2.7V | 00:00:00 | 01:17:50 | 00:00:00 | |
| DB0UT-7 | 2026-08-31 23:51:28 | 45.56929 | 9.45314 | 90° | 86km/h | 15002m | 5.5m/s | -60.1°C | 8.1% | 0hPa | 2.7V | 00:00:00 | 00:00:00 | 00:00:00 | |
| DO3MHA-11 | 2026-08-31 23:51:22 | 45.56921 | 9.45124 | 84° | 86km/h | 14974m | 4.4m/s | -60.1°C | 8.3% | 0hPa | 2.7V | 00:00:00 | 01:17:40 | 00:00:00 | |
| IW2NTF | 2026-08-31 23:51:20 | 45.56910 | 9.44975 | 87° | 88km/h | 14951m | 4.9m/s | -60°C | 7.9% | 0hPa | 2.6V | 08:30:00 | 01:17:35 | 00:00:00 | |
| DO3MHA-11 | 2026-08-31 23:51:12 | 45.56901 | 9.44818 | 83° | 82km/h | 14928m | 5.4m/s | -59.7°C | 7.9% | 0hPa | 2.6V | 00:00:00 | 01:17:30 | 00:00:00 | |
| IW2NTF | 2026-08-31 23:51:10 | 45.56884 | 9.44678 | 81° | 78km/h | 14905m | 5.3m/s | -59.6°C | 7.8% | 0hPa | 2.6V | 08:30:00 | 01:17:25 | 00:00:00 | |
| DO3MHA-11 | 2026-08-31 23:51:02 | 45.56877 | 9.44527 | 84° | 78km/h | 14881m | 4.5m/s | -59.5°C | 7.8% | 0hPa | 2.7V | 00:00:00 | 01:17:20 | 00:00:00 | |
| IW2NTF | 2026-08-31 23:51:00 | 45.56864 | 9.44384 | 81° | 75km/h | 14859m | 4.9m/s | -59.4°C | 7.7% | 0hPa | 2.7V | 08:30:00 | 01:17:15 | 00:00:00 | |
| DB0UT-7 | 2026-08-31 23:50:58 | 45.56867 | 9.44411 | 83° | 80km/h | 14864m | 3.4m/s | -59.4°C | 7.8% | 0hPa | 2.7V | 00:00:00 | 01:17:16 | 00:00:00 | |
| DO3MHA-11 | 2026-08-31 23:50:52 | 45.56852 | 9.44245 | 86° | 80km/h | 14837m | 5.1m/s | -59.2°C | 7.6% | 0hPa | 2.7V | 00:00:00 | 01:17:10 | 08:30:00 | |
| IW2NTF | 2026-08-31 23:50:50 | 45.56847 | 9.44094 | 87° | 80km/h | 14814m | 5.4m/s | -59.2°C | 7.6% | 0hPa | 2.6V | 08:30:00 | 01:17:05 | 00:00:00 | |
| DO3MHA-11 | 2026-08-31 23:50:42 | 45.56835 | 9.43955 | 83° | 80km/h | 14791m | 4.3m/s | -59.0°C | 7.6% | 0hPa | 2.6V | 00:00:00 | 01:17:00 | 00:00:00 | |
| IW2NTF | 2026-08-31 23:50:39 | 45.56829 | 9.43781 | 89° | 80km/h | 14762m | 5.5m/s | -58.8°C | 7.5% | 0hPa | 2.6V | 08:30:00 | 01:16:54 | 00:00:00 | |
| DO3MHA-11 | 2026-08-31 23:50:37 | 45.56824 | 9.43668 | 84° | 82km/h | 14744m | 3.9m/s | -58.6°C | 7.5% | 0hPa | 2.7V | 00:00:00 | 01:16:50 | 00:00:00 | |
| IW2NTF | 2026-08-31 23:50:33 | 45.56815 | 9.43492 | 90° | 82km/h | 14715m | 5.8m/s | -58.4°C | 7.4% | 0hPa | 2.7V | 08:30:00 | 01:16:44 | 00:00:00 | |
| DO3MHA-11 | 2026-08-31 23:50:31 | 45.56816 | 9.43374 | 90° | 82km/h | 14696m | 3.8m/s | -58.3°C | 7.3% | 0hPa | 2.6V | 00:00:00 | 01:16:40 | 00:00:00 | |
| IW2NTF | 2026-08-31 23:50:18 | 45.56804 | 9.43201 | 85° | 84km/h | 14666m | 4.6m/s | -58.3°C | 7.3% | 0hPa | 2.6V | 08:30:00 | 01:16:34 | 00:00:00 | |
| NBG1-10 | 2026-08-31 23:50:17 | 45.56806 | 9.43231 | 83° | 86km/h | 14671m | 5.0m/s | -58.3°C | 7.3% | 0hPa | 2.6V | 00:00:00 | 01:16:35 | 00:00:00 | |
| DO3MHA-11 | 2026-08-31 23:50:12 | 45.56800 | 9.43080 | 88° | 84km/h | 14648m | 5.2m/s | -58.1°C | 7.3% | 0hPa | 2.6V | 00:00:00 | 01:16:30 | 00:00:00 | |
| IW2NTF | 2026-08-31 23:50:08 | 45.56786 | 9.42901 | 83° | 84km/h | 14620m | 5.6m/s | -57.9°C | 7.2% | 0hPa | 2.6V | 08:30:00 | 01:16:24 | 00:00:00 | |
| DO3MHA-11 | 2026-08-31 23:50:02 | 45.56782 | 9.42779 | 89° | 84km/h | 14601m | 5.2m/s | -57.7°C | 7.3% | 0hPa | 2.7V | 00:00:00 | 01:16:20 | 00:00:00 | |
| IW2NTF | 2026-08-31 23:49:58 | 45.56766 | 9.42597 | 79° | 82km/h | 14573m | 5.4m/s | -57.6°C | 7.2% | 0hPa | 2.7V | 08:30:00 | 01:16:14 | 00:00:00 | |
| DB0UT-7 | 2026-08-31 23:49:57 | 45.56769 | 9.42626 | 80° | 88km/h | 14579m | 4.4m/s | -57.6°C | 7.3% | 0hPa | 2.6V | 00:00:00 | 01:16:15 | 00:00:00 | |
| DO3MHA-11 | 2026-08-31 23:49:52 | 45.56756 | 9.42476 | 87° | 89km/h | 14554m | 3.9m/s | -57.5°C | 7.1% | 0hPa | 2.6V | 00:00:00 | 01:16:10 | 00:00:00 | |
| IW2NTF | 2026-08-31 23:49:49 | 45.56742 | 9.42282 | 80° | 86km/h | 14523m | 4.6m/s | -57.4°C | 7% | 0hPa | 2.6V | 08:30:00 | 01:16:04 | 00:00:00 | |
| NBG1-10 | 2026-08-31 23:49:44 | 45.56734 | 9.42219 | 79° | 89km/h | 14512m | 5.1m/s | -57.3°C | 6.9% | 0hPa | 2.6V | 00:00:00 | 01:16:02 | 00:00:00 | |
| DO3MHA-11 | 2026-08-31 23:49:42 | 45.56724 | 9.42156 | 78° | 88km/h | 14501m | 5.5m/s | -57.2°C | 6.9% | 0hPa | 2.7V | 00:00:00 | 01:16:00 | 00:00:00 | |
| IW2NTF | 2026-08-31 23:49:38 | 45.56690 | 9.41971 | 73° | 84km/h | 14472m | 3.8m/s | -57°C | 6.9% | 0hPa | 2.7V | 08:30:00 | 01:15:54 | 00:00:00 | |
| DO3MHA-11 | 2026-08-31 23:49:32 | 45.56665 | 9.41853 | 76° | 89km/h | 14454m | 4.9m/s | -56.8°C | 6.9% | 0hPa | 2.6V | 00:00:00 | 01:15:50 | 00:00:00 | |
| IW2NTF | 2026-08-31 23:49:28 | 45.56636 | 9.41663 | 79° | 88km/h | 14427m | 4.4m/s | -56.8°C | 6.8% | 0hPa | 2.6V | 08:30:00 | 01:15:44 | 00:00:00 | |
| DB0UT-7 | 2026-08-31 23:49:27 | 45.56640 | 9.41695 | 79° | 93km/h | 14432m | 4.8m/s | -56.8°C | 6.8% | 0hPa | 2.7V | 00:00:00 | 00:00:00 | 00:00:00 | |
| DO3MHA-11 | 2026-08-31 23:49:22 | 45.56617 | 9.41540 | 77° | 91km/h | 14410m | 4.7m/s | -56.8°C | 6.8% | 0hPa | 2.7V | 00:00:00 | 01:15:40 | 08:30:00 | |
| IW2NTF | 2026-08-31 23:49:17 | 45.56572 | 9.41180 | 81° | 89km/h | 14360m | 5.5m/s | -57°C | 6.9% | 0hPa | 2.6V | 08:30:00 | 01:15:29 | 00:00:00 | |
| DO3MHA-11 | 2026-08-31 23:49:12 | 45.56575 | 9.41212 | 81° | 93km/h | 14365m | 3.2m/s | -57.0°C | 6.9% | 0hPa | 2.7V | 00:00:00 | 01:15:30 | 00:00:00 | |
| NBG1-10 | 2026-08-31 23:49:11 | 45.56572 | 9.41180 | 82° | 99km/h | 14361m | 5.5m/s | 0°C | 0% | 0hPa | 2.7V | 00:00:00 | 01:15:29 | 00:00:00 | |
| IW2NTF | 2026-08-31 23:49:06 | 45.56542 | 9.40844 | 84° | 102km/h | 14316m | 4.6m/s | -57°C | 7.1% | 0hPa | 2.7V | 08:30:00 | 01:15:19 | 00:00:00 | |
| DO3MHA-11 | 2026-08-31 23:49:02 | 45.56544 | 9.40881 | 84° | 99km/h | 14320m | 3.8m/s | -56.9°C | 7.0% | 0hPa | 2.6V | 00:00:00 | 01:15:20 | 00:00:00 | |
| DB0UT-7 | 2026-08-31 23:48:57 | 45.56535 | 9.40701 | 88° | 106km/h | 14299m | 3.2m/s | -57.1°C | 7.2% | 0hPa | 2.6V | 00:00:00 | 01:15:15 | 00:00:00 | |
| IW2NTF | 2026-08-31 23:48:55 | 45.56510 | 9.40414 | 81° | 102km/h | 14264m | 3.8m/s | -57.1°C | 7.3% | 0hPa | 2.6V | 08:30:00 | 01:15:07 | 00:00:00 | |
| DO3MHA-11 | 2026-08-31 23:48:52 | 45.56521 | 9.40524 | 83° | 102km/h | 14278m | 3.4m/s | -57.1°C | 7.3% | 0hPa | 2.7V | 00:00:00 | 01:15:10 | 00:00:00 | |
| IW2NTF | 2026-08-31 23:48:44 | 45.56482 | 9.40042 | 83° | 110km/h | 14222m | 4.3m/s | -57°C | 7.3% | 0hPa | 2.7V | 08:30:00 | 01:14:57 | 00:00:00 | |
| DO3MHA-11 | 2026-08-31 23:48:42 | 45.56490 | 9.40157 | 84° | 108km/h | 14236m | 4.8m/s | -57.0°C | 7.2% | 0hPa | 2.6V | 00:00:00 | 01:15:00 | 00:00:00 | |
| NBG1-10 | 2026-08-31 23:48:38 | 45.56479 | 9.40003 | 85° | 111km/h | 14218m | 3.1m/s | 0°C | 0% | 0hPa | 2.6V | 00:00:00 | 01:14:56 | 00:00:00 | |
| IW2NTF | 2026-08-31 23:48:34 | 45.56456 | 9.39649 | 82° | 110km/h | 14182m | 3.5m/s | -57.5°C | 7.6% | 0hPa | 2.6V | 08:30:00 | 01:14:47 | 00:00:00 | |
| DO3MHA-11 | 2026-08-31 23:48:32 | 45.56466 | 9.39767 | 84° | 111km/h | 14195m | 3.2m/s | -57.4°C | 7.6% | 0hPa | 2.7V | 00:00:00 | 01:14:50 | 00:00:00 | |
| DB0UT-7 | 2026-08-31 23:48:27 | 45.56447 | 9.39570 | 82° | 111km/h | 14174m | 4.3m/s | -57.4°C | 7.6% | 0hPa | 2.7V | 00:00:00 | 00:00:00 | 00:00:00 | |
| IW2NTF | 2026-08-31 23:48:24 | 45.56416 | 9.39244 | 83° | 111km/h | 14141m | 3.9m/s | -57.8°C | 7.8% | 0hPa | 2.7V | 08:30:00 | 01:14:37 | 00:00:00 | |
| DO3MHA-11 | 2026-08-31 23:48:22 | 45.56426 | 9.39366 | 83° | 111km/h | 14153m | 2.2m/s | -57.5°C | 7.6% | 0hPa | 2.6V | 00:00:00 | 01:14:40 | 00:00:00 | |
| IW2NTF | 2026-08-31 23:48:15 | 45.56377 | 9.38852 | 79° | 110km/h | 14100m | 4.3m/s | -58.5°C | 8.5% | 0hPa | 2.6V | 08:30:00 | 01:14:27 | 00:00:00 | |
| DO3MHA-11 | 2026-08-31 23:48:12 | 45.56391 | 9.38968 | 81° | 110km/h | 14113m | 4.0m/s | -58.1°C | 8.0% | 0hPa | 2.8V | 00:00:00 | 01:14:30 | 00:00:00 | |
| NBG1-10 | 2026-08-31 23:48:05 | 45.56360 | 9.38696 | 84° | 111km/h | 14085m | 2.7m/s | 0°C | 0% | 0hPa | 2.8V | 00:00:00 | 01:14:23 | 00:00:00 | |
| IW2NTF | 2026-08-31 23:48:03 | 45.56328 | 9.38419 | 78° | 108km/h | 14058m | 4.7m/s | -59.3°C | 9.1% | 0hPa | 2.8V | 08:30:00 | 01:14:16 | 00:00:00 | |
| DO3MHA-11 | 2026-08-31 23:48:02 | 45.56348 | 9.38577 | 80° | 113km/h | 14074m | 3.7m/s | -58.9°C | 8.7% | 0hPa | 2.6V | 00:00:00 | 01:14:20 | 00:00:00 | |
| DB0UT-7 | 2026-08-31 23:47:57 | 45.56323 | 9.38380 | 78° | 120km/h | 14054m | 3.3m/s | -59.3°C | 9.3% | 0hPa | 2.6V | 00:00:00 | 01:14:15 | 00:00:00 | |
| IW2NTF | 2026-08-31 23:47:54 | 45.56288 | 9.38001 | 81° | 117km/h | 14019m | 4.5m/s | -59.1°C | 9.1% | 0hPa | 2.6V | 08:30:00 | 01:14:06 | 00:00:00 | |
| DO3MHA-11 | 2026-08-31 23:47:52 | 45.56301 | 9.38174 | 84° | 119km/h | 14035m | 4.1m/s | -59.1°C | 9.3% | 0hPa | 2.7V | 00:00:00 | 01:14:10 | 08:30:00 | |
| IW2NTF | 2026-08-31 23:47:44 | 45.56243 | 9.37581 | 84° | 117km/h | 13978m | 3.8m/s | -59°C | 9% | 0hPa | 2.7V | 08:30:00 | 01:13:56 | 00:00:00 | |
| DO3MHA-11 | 2026-08-31 23:47:42 | 45.56257 | 9.37754 | 83° | 119km/h | 13994m | 4.8m/s | -58.8°C | 9.0% | 0hPa | 2.6V | 00:00:00 | 01:14:00 | 00:00:00 | |
| IW2NTF | 2026-08-31 23:47:33 | 45.56188 | 9.37147 | 80° | 128km/h | 13934m | 4.9m/s | -58.8°C | 9.2% | 0hPa | 2.6V | 08:30:00 | 01:13:46 | 00:00:00 | |
| DO3MHA-11 | 2026-08-31 23:47:32 | 45.56212 | 9.37329 | 79° | 122km/h | 13950m | 3.2m/s | -58.9°C | 9.2% | 0hPa | 2.6V | 00:00:00 | 01:13:50 | 00:00:00 | |
| DB0UT-7 | 2026-08-31 23:47:27 | 45.56183 | 9.37103 | 80° | 120km/h | 13929m | 4.3m/s | -58.7°C | 9.1% | 0hPa | 2.6V | 00:00:00 | 00:00:00 | 00:00:00 | |
| IW2NTF | 2026-08-31 23:47:23 | 45.56133 | 9.36720 | 79° | 131km/h | 13889m | 5m/s | -58.6°C | 8.6% | 0hPa | 2.7V | 08:30:00 | 01:13:36 | 00:00:00 | |
| DO3MHA-11 | 2026-08-31 23:47:22 | 45.56151 | 9.36900 | 80° | 124km/h | 13908m | 5.6m/s | -58.5°C | 8.7% | 0hPa | 2.6V | 00:00:00 | 01:13:40 | 00:00:00 | |
| IW2NTF | 2026-08-31 23:47:14 | 45.56079 | 9.36293 | 82° | 117km/h | 13850m | 3m/s | -58.6°C | 8.6% | 0hPa | 2.8V | 08:30:00 | 01:13:26 | 00:00:00 | |
| DO3MHA-11 | 2026-08-31 23:47:12 | 45.56095 | 9.36463 | 81° | 120km/h | 13865m | 4.0m/s | -58.4°C | 8.6% | 0hPa | 2.6V | 00:00:00 | 01:13:30 | 00:00:00 | |
| IW2NTF | 2026-08-31 23:47:03 | 45.56039 | 9.35868 | 81° | 115km/h | 13810m | 3.4m/s | -59°C | 9% | 0hPa | 2.6V | 08:30:00 | 01:13:16 | 00:00:00 | |
| DO3MHA-11 | 2026-08-31 23:47:02 | 45.56055 | 9.36034 | 84° | 119km/h | 13826m | 3.3m/s | -58.6°C | 8.6% | 0hPa | 2.6V | 00:00:00 | 01:13:20 | 00:00:00 | |
| DB0UT-7 | 2026-08-31 23:46:57 | 45.56034 | 9.35827 | 81° | 124km/h | 13807m | 3.0m/s | -59.0°C | 9.0% | 0hPa | 2.6V | 00:00:00 | 01:13:15 | 00:00:00 | |
| IW2NTF | 2026-08-31 23:46:54 | 45.55982 | 9.35347 | 82° | 117km/h | 13764m | 3.3m/s | -59.7°C | 9.4% | 0hPa | 2.6V | 08:30:00 | 01:13:04 | 00:00:00 | |
| DO3MHA-11 | 2026-08-31 23:46:52 | 45.56005 | 9.35611 | 81° | 122km/h | 13788m | 3.2m/s | -59.4°C | 9.2% | 0hPa | 2.6V | 00:00:00 | 01:13:10 | 00:00:00 | |
| IW2NTF | 2026-08-31 23:46:42 | 45.55932 | 9.34896 | 82° | 124km/h | 13723m | 3.6m/s | -59.5°C | 9.9% | 0hPa | 2.7V | 08:30:00 | 01:12:54 | 00:00:00 | |
| IW2NTF | 2026-08-31 23:46:31 | 45.55895 | 9.34451 | 80° | 128km/h | 13682m | 4m/s | -59.5°C | 10.5% | 0hPa | 2.6V | 08:30:00 | 01:12:44 | 00:00:00 | |
| DB0UT-7 | 2026-08-31 23:46:27 | 45.55900 | 9.34496 | 82° | 128km/h | 13687m | 4.7m/s | -59.4°C | 10.2% | 0hPa | 2.6V | 00:00:00 | 00:00:00 | 00:00:00 | |
| IW2NTF | 2026-08-31 23:46:18 | 45.55862 | 9.34000 | 82° | 126km/h | 13639m | 4.3m/s | -59.6°C | 11.5% | 0hPa | 2.6V | 08:30:00 | 01:12:34 | 00:00:00 | |
| DO3MHA-11 | 2026-08-31 23:46:12 | 45.55848 | 9.33819 | 85° | 128km/h | 13622m | 4.3m/s | -59.7°C | 12.1% | 0hPa | 2.6V | 00:00:00 | 01:12:30 | 00:00:00 | |
| IW2NTF | 2026-08-31 23:46:11 | 45.55828 | 9.33543 | 83° | 130km/h | 13596m | 5.2m/s | -59.8°C | 12.8% | 0hPa | 2.6V | 08:30:00 | 01:12:24 | 00:00:00 | |
| DO3MHA-11 | 2026-08-31 23:46:02 | 45.55810 | 9.33362 | 83° | 131km/h | 13576m | 4.4m/s | -59.6°C | 13.2% | 0hPa | 2.7V | 00:00:00 | 01:12:20 | 00:00:00 | |
| IW2NTF | 2026-08-31 23:46:01 | 45.55783 | 9.33084 | 81° | 133km/h | 13548m | 3.8m/s | -59.8°C | 13.9% | 0hPa | 2.7V | 08:30:00 | 01:12:14 | 00:00:00 | |
| DB0UT-7 | 2026-08-31 23:45:57 | 45.55788 | 9.33131 | 83° | 137km/h | 13553m | 5.1m/s | -59.6°C | 13.7% | 0hPa | 2.7V | 00:00:00 | 01:12:15 | 08:30:00 | |
| DO3MHA-11 | 2026-08-31 23:45:52 | 45.55759 | 9.32893 | 80° | 137km/h | 13529m | 5.2m/s | -59.8°C | 14.1% | 0hPa | 2.7V | 00:00:00 | 01:12:10 | 00:00:00 | |
| IW2NTF | 2026-08-31 23:45:51 | 45.55724 | 9.32605 | 81° | 139km/h | 13500m | 4m/s | -59.7°C | 15.1% | 0hPa | 2.8V | 08:30:00 | 01:12:04 | 00:00:00 | |
| DO3MHA-11 | 2026-08-31 23:45:42 | 45.55699 | 9.32410 | 80° | 137km/h | 13483m | 5.2m/s | -59.6°C | 15.5% | 0hPa | 2.6V | 00:00:00 | 01:12:00 | 00:00:00 | |
| IW2NTF | 2026-08-31 23:45:41 | 45.55666 | 9.32120 | 80° | 141km/h | 13454m | 5m/s | -59.5°C | 16.3% | 0hPa | 2.6V | 08:30:00 | 01:11:54 | 00:00:00 | |
| DO3MHA-11 | 2026-08-31 23:45:32 | 45.55643 | 9.31919 | 81° | 141km/h | 13435m | 4.4m/s | -59.5°C | 16.8% | 0hPa | 2.6V | 00:00:00 | 01:11:50 | 00:00:00 | |
| IW2NTF | 2026-08-31 23:45:31 | 45.55614 | 9.31621 | 81° | 141km/h | 13405m | 5.6m/s | -59.4°C | 17.4% | 0hPa | 2.6V | 08:30:00 | 01:11:44 | 00:00:00 | |
| DB0UT-7 | 2026-08-31 23:45:27 | 45.55619 | 9.31671 | 82° | 141km/h | 13411m | 4.2m/s | -59.3°C | 17.3% | 0hPa | 2.8V | 00:00:00 | 00:00:00 | 00:00:00 | |
| IW2NTF | 2026-08-31 23:45:21 | 45.55542 | 9.31027 | 80° | 139km/h | 13346m | 5.5m/s | -59.4°C | 20% | 0hPa | 2.8V | 08:30:00 | 01:11:32 | 00:00:00 | |
| DO3MHA-11 | 2026-08-31 23:45:12 | 45.55528 | 9.30927 | 80° | 142km/h | 13337m | 4.2m/s | -59.4°C | 20.6% | 0hPa | 2.6V | 00:00:00 | 01:11:30 | 00:00:00 | |
| IW2NTF | 2026-08-31 23:45:11 | 45.55481 | 9.30572 | 80° | 146km/h | 13302m | 4.8m/s | -59.4°C | 22.9% | 0hPa | 2.6V | 08:30:00 | 01:11:23 | 00:00:00 | |
| IW2NTF | 2026-08-31 23:45:00 | 45.55424 | 9.30063 | 83° | 146km/h | 13254m | 5.6m/s | -59.2°C | 24.8% | 0hPa | 2.6V | 08:30:00 | 01:11:13 | 00:00:00 | |
| DB0UT-7 | 2026-08-31 23:44:57 | 45.55433 | 9.30168 | 83° | 148km/h | 13265m | 5.4m/s | -59.2°C | 24.6% | 0hPa | 2.6V | 00:00:00 | 01:11:15 | 00:00:00 | |
| DO3MHA-11 | 2026-08-31 23:44:52 | 45.55408 | 9.29907 | 80° | 146km/h | 13238m | 5.4m/s | -59.1°C | 25.1% | 0hPa | 2.6V | 00:00:00 | 01:11:10 | 08:30:00 | |
| IW2NTF | 2026-08-31 23:44:51 | 45.55362 | 9.29546 | 82° | 146km/h | 13202m | 5.2m/s | -59.1°C | 25.2% | 0hPa | 2.6V | 08:30:00 | 01:11:03 | 00:00:00 | |
| DO3MHA-11 | 2026-08-31 23:44:42 | 45.55344 | 9.29389 | 79° | 150km/h | 13187m | 4.7m/s | -58.9°C | 24.8% | 0hPa | 2.8V | 00:00:00 | 01:11:00 | 00:00:00 | |
| IW2NTF | 2026-08-31 23:44:40 | 45.55292 | 9.28967 | 82° | 151km/h | 13147m | 4.8m/s | -58.8°C | 25.6% | 0hPa | 2.8V | 08:30:00 | 01:10:52 | 00:00:00 | |
| DO3MHA-11 | 2026-08-31 23:44:32 | 45.55281 | 9.28858 | 81° | 150km/h | 13138m | 5.3m/s | -58.8°C | 25.8% | 0hPa | 2.8V | 00:00:00 | 01:10:50 | 00:00:00 | |
| IW2NTF | 2026-08-31 23:44:30 | 45.55224 | 9.28433 | 80° | 148km/h | 13099m | 5.1m/s | -59°C | 26.9% | 0hPa | 2.8V | 08:30:00 | 01:10:42 | 00:00:00 | |
| DB0UT-7 | 2026-08-31 23:44:27 | 45.55243 | 9.28594 | 80° | 151km/h | 13114m | 4.9m/s | -58.9°C | 26.4% | 0hPa | 2.7V | 00:00:00 | 00:00:00 | 00:00:00 | |
| DO3MHA-11 | 2026-08-31 23:44:22 | 45.55211 | 9.28327 | 80° | 150km/h | 13089m | 4.4m/s | -59.0°C | 27.5% | 0hPa | 2.6V | 00:00:00 | 01:10:40 | 00:00:00 | |
| IW2NTF | 2026-08-31 23:44:20 | 45.55157 | 9.27903 | 78° | 157km/h | 13051m | 5.2m/s | -58.9°C | 26.5% | 0hPa | 2.6V | 08:30:00 | 01:10:32 | 00:00:00 | |
| DO3MHA-11 | 2026-08-31 23:44:12 | 45.55142 | 9.27793 | 80° | 150km/h | 13041m | 4.8m/s | -58.8°C | 26.5% | 0hPa | 2.8V | 00:00:00 | 01:10:30 | 00:00:00 | |
| IW2NTF | 2026-08-31 23:44:09 | 45.55095 | 9.27368 | 79° | 153km/h | 13003m | 4.2m/s | -58.6°C | 26.8% | 0hPa | 2.8V | 08:30:00 | 01:10:22 | 00:00:00 | |
| DO3MHA-11 | 2026-08-31 23:44:02 | 45.55080 | 9.27259 | 79° | 150km/h | 12994m | 5.5m/s | -58.6°C | 26.7% | 0hPa | 2.6V | 00:00:00 | 01:10:20 | 00:00:00 | |
| IW2NTF | 2026-08-31 23:43:59 | 45.55028 | 9.26830 | 78° | 146km/h | 12953m | 5.5m/s | -58.8°C | 26.8% | 0hPa | 2.6V | 08:30:00 | 01:10:12 | 00:00:00 | |
| DB0UT-7 | 2026-08-31 23:43:57 | 45.55047 | 9.26987 | 81° | 150km/h | 12969m | 5.4m/s | -58.8°C | 27.0% | 0hPa | 2.7V | 00:00:00 | 01:10:15 | 00:00:00 | |
| DO3MHA-11 | 2026-08-31 23:43:52 | 45.55012 | 9.26727 | 78° | 151km/h | 12944m | 5.1m/s | -58.7°C | 26.4% | 0hPa | 2.7V | 00:00:00 | 01:10:10 | 00:00:00 | |
| IW2NTF | 2026-08-31 23:43:45 | 45.54954 | 9.26296 | 82° | 148km/h | 12906m | 3.8m/s | -58.4°C | 26.2% | 0hPa | 2.7V | 08:30:00 | 01:10:02 | 00:00:00 | |
| DO3MHA-11 | 2026-08-31 23:43:42 | 45.54944 | 9.26191 | 82° | 150km/h | 12896m | 5.1m/s | -58.3°C | 26.3% | 0hPa | 2.6V | 00:00:00 | 01:10:00 | 00:00:00 | |
| IW2NTF | 2026-08-31 23:43:35 | 45.54890 | 9.25765 | 80° | 153km/h | 12859m | 5.6m/s | -58.1°C | 26.2% | 0hPa | 2.6V | 08:30:00 | 01:09:52 | 00:00:00 | |
| DO3MHA-11 | 2026-08-31 23:43:32 | 45.54879 | 9.25658 | 82° | 151km/h | 12849m | 4.0m/s | -58.0°C | 26.3% | 0hPa | 2.8V | 00:00:00 | 01:09:50 | 00:00:00 | |
| DB0UT-7 | 2026-08-31 23:43:27 | 45.54848 | 9.25392 | 82° | 153km/h | 12827m | 4.8m/s | -57.9°C | 26.4% | 0hPa | 2.8V | 00:00:00 | 00:00:00 | 00:00:00 | |
| IW2NTF | 2026-08-31 23:43:24 | 45.54815 | 9.25118 | 80° | 153km/h | 12803m | 4.3m/s | -57.8°C | 26.1% | 0hPa | 2.8V | 08:30:00 | 01:09:40 | 00:00:00 | |
| DO3MHA-11 | 2026-08-31 23:43:22 | 45.54814 | 9.25118 | 81° | 153km/h | 12803m | 4.3m/s | -57.8°C | 26.1% | 0hPa | 2.7V | 00:00:00 | 01:09:40 | 08:30:00 | |
| IW2NTF | 2026-08-31 23:43:14 | 45.54742 | 9.24576 | 78° | 155km/h | 12756m | 4.7m/s | -57.4°C | 25.9% | 0hPa | 2.8V | 08:30:00 | 01:09:30 | 00:00:00 | |
| DO3MHA-11 | 2026-08-31 23:43:12 | 45.54742 | 9.24575 | 79° | 153km/h | 12756m | 4.7m/s | -57.3°C | 25.9% | 0hPa | 2.8V | 00:00:00 | 01:09:30 | 00:00:00 | |
| IW2NTF | 2026-08-31 23:43:04 | 45.54650 | 9.23926 | 78° | 155km/h | 12699m | 2.8m/s | -57.4°C | 25.9% | 0hPa | 2.8V | 08:30:00 | 01:09:18 | 00:00:00 | |
| DO3MHA-11 | 2026-08-31 23:43:02 | 45.54665 | 9.24035 | 80° | 153km/h | 12709m | 6.2m/s | -57.4°C | 26.4% | 0hPa | 2.7V | 00:00:00 | 01:09:20 | 00:00:00 | |
| DB0UT-7 | 2026-08-31 23:42:57 | 45.54625 | 9.23762 | 78° | 150km/h | 12681m | 6.9m/s | -57.2°C | 25.6% | 0hPa | 2.7V | 00:00:00 | 01:09:15 | 00:00:00 | |
| DO3MHA-11 | 2026-08-31 23:42:52 | 45.54596 | 9.23493 | 83° | 151km/h | 12658m | 3.5m/s | -57.0°C | 26.1% | 0hPa | 2.7V | 00:00:00 | 01:09:10 | 00:00:00 | |
| IW2NTF | 2026-08-31 23:42:51 | 45.54586 | 9.23385 | 82° | 148km/h | 12650m | 3.8m/s | -57°C | 26% | 0hPa | 2.7V | 08:30:00 | 01:09:08 | 00:00:00 | |
| IW2NTF | 2026-08-31 23:42:46 | 45.54526 | 9.22847 | 81° | 151km/h | 12611m | 4.2m/s | -56.6°C | 25.7% | 0hPa | 2.7V | 08:30:00 | 01:08:58 | 00:00:00 | |
| DO3MHA-11 | 2026-08-31 23:42:42 | 45.54538 | 9.22956 | 81° | 150km/h | 12619m | 4.5m/s | -56.7°C | 25.8% | 0hPa | 2.8V | 00:00:00 | 01:09:00 | 00:00:00 | |
| IW2NTF | 2026-08-31 23:42:36 | 45.54470 | 9.22320 | 81° | 150km/h | 12570m | 4.1m/s | -56.3°C | 26.2% | 0hPa | 2.8V | 08:30:00 | 01:08:48 | 00:00:00 | |
| DO3MHA-11 | 2026-08-31 23:42:32 | 45.54482 | 9.22426 | 81° | 150km/h | 12578m | 4.8m/s | -56.4°C | 26.1% | 0hPa | 2.7V | 00:00:00 | 01:08:50 | 00:00:00 | |
| DB0UT-7 | 2026-08-31 23:42:27 | 45.54454 | 9.22161 | 82° | 146km/h | 12559m | 4.9m/s | -56.2°C | 26.1% | 0hPa | 2.7V | 00:00:00 | 00:00:00 | 00:00:00 | |
| IW2NTF | 2026-08-31 23:42:26 | 45.54409 | 9.21792 | 79° | 148km/h | 12530m | 4m/s | -56.1°C | 26.5% | 0hPa | 2.7V | 08:30:00 | 01:08:38 | 00:00:00 | |
| DO3MHA-11 | 2026-08-31 23:42:22 | 45.54423 | 9.21896 | 80° | 150km/h | 12539m | 5.1m/s | -56.1°C | 26.2% | 0hPa | 2.7V | 00:00:00 | 01:08:40 | 00:00:00 | |
| IW2NTF | 2026-08-31 23:42:15 | 45.54352 | 9.21266 | 79° | 142km/h | 12490m | 3.5m/s | -56.3°C | 27.3% | 0hPa | 2.7V | 08:30:00 | 01:08:28 | 00:00:00 | |
| DO3MHA-11 | 2026-08-31 23:42:12 | 45.54364 | 9.21367 | 81° | 144km/h | 12498m | 4.7m/s | -56.2°C | 27.2% | 0hPa | 2.8V | 00:00:00 | 01:08:30 | 00:00:00 | |
| IW2NTF | 2026-08-31 23:42:06 | 45.54295 | 9.20757 | 82° | 141km/h | 12450m | 4.8m/s | -56.1°C | 28.3% | 0hPa | 2.8V | 08:30:00 | 01:08:18 | 00:00:00 | |
| DO3MHA-11 | 2026-08-31 23:42:02 | 45.54305 | 9.20856 | 82° | 146km/h | 12458m | 4.1m/s | -56.1°C | 28.4% | 0hPa | 2.7V | 00:00:00 | 01:08:20 | 00:00:00 | |
| DB0UT-7 | 2026-08-31 23:41:57 | 45.54279 | 9.20602 | 81° | 146km/h | 12439m | 3.3m/s | -56.1°C | 28.8% | 0hPa | 2.7V | 00:00:00 | 01:08:15 | 00:00:00 | |
| IW2NTF | 2026-08-31 23:41:56 | 45.54244 | 9.20233 | 82° | 144km/h | 12410m | 5.9m/s | -56.2°C | 29.2% | 0hPa | 2.7V | 08:30:00 | 01:08:08 | 00:00:00 | |
| DO3MHA-11 | 2026-08-31 23:41:52 | 45.54253 | 9.20337 | 83° | 144km/h | 12418m | 4.3m/s | -56.2°C | 29.2% | 0hPa | 2.7V | 00:00:00 | 01:08:10 | 08:30:00 | |
| IW2NTF | 2026-08-31 23:41:45 | 45.54203 | 9.19711 | 85° | 148km/h | 12369m | 4.5m/s | -56.2°C | 31.4% | 0hPa | 2.7V | 08:30:00 | 01:07:58 | 00:00:00 | |
| DO3MHA-11 | 2026-08-31 23:41:42 | 45.54210 | 9.19818 | 85° | 144km/h | 12376m | 3.2m/s | 0°C | 0% | 0hPa | 2.8V | 00:00:00 | 01:08:00 | 00:00:00 | |
| IW2NTF | 2026-08-31 23:41:35 | 45.54172 | 9.19197 | 86° | 144km/h | 12330m | 4.3m/s | -56°C | 33.7% | 0hPa | 2.8V | 08:30:00 | 01:07:48 | 00:00:00 | |
| DO3MHA-11 | 2026-08-31 23:41:32 | 45.54177 | 9.19301 | 86° | 144km/h | 12338m | 4.6m/s | 0°C | 0% | 0hPa | 2.7V | 00:00:00 | 01:07:50 | 00:00:00 | |
| DB0UT-7 | 2026-08-31 23:41:28 | 45.54164 | 9.19043 | 84° | 146km/h | 12319m | 4.6m/s | -56.0°C | 34.2% | 0hPa | 2.7V | 00:00:00 | 00:00:00 | 08:30:00 | |
| IW2NTF | 2026-08-31 23:41:26 | 45.54137 | 9.18675 | 86° | 150km/h | 12291m | 4.7m/s | -56.2°C | 36.5% | 0hPa | 2.7V | 08:30:00 | 01:07:38 | 00:00:00 | |
| DO3MHA-11 | 2026-08-31 23:41:22 | 45.54142 | 9.18784 | 86° | 146km/h | 12300m | 3.7m/s | 0°C | 0% | 0hPa | 2.8V | 00:00:00 | 01:07:40 | 00:00:00 | |
| IW2NTF | 2026-08-31 23:41:13 | 45.54102 | 9.17992 | 82° | 141km/h | 12240m | 4.4m/s | -56.6°C | 41.3% | 0hPa | 2.8V | 08:30:00 | 01:07:25 | 00:00:00 | |
| DO3MHA-11 | 2026-08-31 23:41:12 | 45.54116 | 9.18258 | 86° | 148km/h | 12260m | 4.8m/s | 0°C | 0% | 0hPa | 2.7V | 00:00:00 | 01:07:30 | 00:00:00 | |
| IW2NTF | 2026-08-31 23:41:02 | 45.54060 | 9.17467 | 84° | 144km/h | 12200m | 5m/s | -56.5°C | 42.4% | 0hPa | 2.7V | 08:30:00 | 01:07:15 | 00:00:00 | |
| DO3MHA-11 | 2026-08-31 23:41:02 | 45.54076 | 9.17731 | 83° | 146km/h | 12220m | 4.4m/s | 0°C | 0% | 0hPa | 2.7V | 00:00:00 | 01:07:20 | 00:00:00 | |
| DB0UT-7 | 2026-08-31 23:40:57 | 45.54060 | 9.17467 | 85° | 146km/h | 12200m | 4.9m/s | -56.5°C | 42.4% | 0hPa | 2.7V | 00:00:00 | 01:07:15 | 00:00:00 | |
| IW2NTF | 2026-08-31 23:40:52 | 45.54023 | 9.16947 | 83° | 148km/h | 12159m | 3.6m/s | -56.3°C | 44.2% | 0hPa | 2.7V | 08:30:00 | 01:07:05 | 00:00:00 | |
| DO3MHA-11 | 2026-08-31 23:40:52 | 45.54041 | 9.17211 | 86° | 146km/h | 12180m | 4.2m/s | 0°C | 0% | 0hPa | 2.8V | 00:00:00 | 01:07:10 | 00:00:00 | |
| DO3MHA-11 | 2026-08-31 23:40:42 | 45.54002 | 9.16687 | 86° | 146km/h | 12138m | 4.1m/s | 0°C | 0% | 0hPa | 2.8V | 00:00:00 | 01:07:00 | 00:00:00 | |
| IW2NTF | 2026-08-31 23:40:36 | 45.53966 | 9.16219 | 81° | 148km/h | 12102m | 3m/s | -56.2°C | 46% | 0hPa | 2.8V | 08:30:00 | 01:06:51 | 00:00:00 | |
| DO3MHA-11 | 2026-08-31 23:40:32 | 45.53960 | 9.16166 | 82° | 142km/h | 12098m | 4.6m/s | 0°C | 0% | 0hPa | 2.8V | 00:00:00 | 01:06:50 | 00:00:00 | |
| DB0UT-7 | 2026-08-31 23:40:27 | 45.53939 | 9.15908 | 84° | 142km/h | 12077m | 4.9m/s | -56.2°C | 48.8% | 0hPa | 2.8V | 00:00:00 | 00:00:00 | 00:00:00 | |
| IW2NTF | 2026-08-31 23:40:25 | 45.53923 | 9.15710 | 82° | 141km/h | 12059m | 3.3m/s | -56.2°C | 49.6% | 0hPa | 2.8V | 08:30:00 | 01:06:41 | 00:00:00 | |
| DO3MHA-11 | 2026-08-31 23:40:22 | 45.53919 | 9.15659 | 85° | 144km/h | 12056m | 4.5m/s | 0°C | 0% | 0hPa | 2.8V | 00:00:00 | 01:06:40 | 00:00:00 | |
| IW2NTF | 2026-08-31 23:40:15 | 45.53895 | 9.15192 | 83° | 139km/h | 12015m | 4.9m/s | -56.3°C | 49.9% | 0hPa | 2.8V | 08:30:00 | 01:06:31 | 00:00:00 | |
| IW2NTF | 2026-08-31 23:40:04 | 45.53849 | 9.14678 | 80° | 142km/h | 11970m | 3.5m/s | -56.1°C | 51.7% | 0hPa | 2.8V | 08:30:00 | 01:06:21 | 00:00:00 | |
| DB0UT-7 | 2026-08-31 23:39:57 | 45.53813 | 9.14371 | 81° | 139km/h | 11945m | 5.7m/s | -55.8°C | 49.2% | 0hPa | 2.7V | 00:00:00 | 01:06:15 | 00:00:00 | |
| IW2NTF | 2026-08-31 23:39:54 | 45.53792 | 9.14171 | 79° | 139km/h | 11925m | 4.6m/s | -55.7°C | 49.1% | 0hPa | 2.8V | 08:30:00 | 01:06:11 | 00:00:00 | |
| IW2NTF | 2026-08-31 23:39:45 | 45.53727 | 9.13676 | 79° | 135km/h | 11878m | 4.4m/s | -55.4°C | 48.5% | 0hPa | 2.8V | 08:30:00 | 01:06:01 | 00:00:00 | |
| IW2NTF | 2026-08-31 23:39:39 | 45.53659 | 9.13182 | 78° | 137km/h | 11835m | 4.6m/s | -55.2°C | 50% | 0hPa | 2.8V | 08:30:00 | 01:05:51 | 00:00:00 | |
| DB0UT-7 | 2026-08-31 23:39:27 | 45.53616 | 9.12891 | 78° | 137km/h | 11809m | 5.0m/s | -55.0°C | 51.8% | 0hPa | 2.8V | 00:00:00 | 00:00:00 | 00:00:00 | |
| IW2NTF | 2026-08-31 23:39:24 | 45.53584 | 9.12700 | 75° | 141km/h | 11792m | 3.8m/s | -55°C | 52% | 0hPa | 2.8V | 08:30:00 | 01:05:41 | 00:00:00 | |
| IW2NTF | 2026-08-31 23:39:13 | 45.53518 | 9.12209 | 80° | 130km/h | 11747m | 5.4m/s | -54.6°C | 50.6% | 0hPa | 2.7V | 08:30:00 | 01:05:31 | 00:00:00 | |
| IW2NTF | 2026-08-31 23:39:04 | 45.53451 | 9.11729 | 80° | 141km/h | 11701m | 3.6m/s | -54.5°C | 52.4% | 0hPa | 2.7V | 08:30:00 | 01:05:21 | 00:00:00 | |
| IW2NTF | 2026-08-31 23:38:53 | 45.53391 | 9.11250 | 80° | 135km/h | 11655m | 5m/s | -54.2°C | 51.5% | 0hPa | 2.8V | 08:30:00 | 01:05:11 | 00:00:00 | |
| IW2NTF | 2026-08-31 23:38:48 | 45.53336 | 9.10760 | 79° | 137km/h | 11611m | 4.1m/s | -54.1°C | 51.9% | 0hPa | 2.7V | 08:30:00 | 01:05:01 | 00:00:00 | |
| IW2NTF | 2026-08-31 23:38:39 | 45.53285 | 9.10279 | 81° | 141km/h | 11568m | 4.3m/s | -54°C | 50.7% | 0hPa | 2.8V | 08:30:00 | 01:04:51 | 00:00:00 | |
| DB0UT-7 | 2026-08-31 23:38:27 | 45.53256 | 9.09989 | 83° | 135km/h | 11543m | 4.7m/s | -53.8°C | 50.4% | 0hPa | 2.7V | 00:00:00 | 00:00:00 | 00:00:00 | |
| IW2NTF | 2026-08-31 23:38:25 | 45.53239 | 9.09798 | 82° | 137km/h | 11525m | 5.3m/s | -53.7°C | 50.8% | 0hPa | 2.7V | 08:30:00 | 01:04:41 | 00:00:00 | |
| IW2NTF | 2026-08-31 23:38:18 | 45.53192 | 9.09314 | 83° | 131km/h | 11481m | 3.6m/s | -53.3°C | 51.5% | 0hPa | 2.8V | 08:30:00 | 01:04:31 | 00:00:00 | |
| IW2NTF | 2026-08-31 23:38:05 | 45.53140 | 9.08835 | 79° | 126km/h | 11439m | 4.9m/s | -53.1°C | 50.5% | 0hPa | 2.8V | 08:30:00 | 01:04:21 | 00:00:00 | |
| IW2NTF | 2026-08-31 23:37:58 | 45.53106 | 9.08354 | 82° | 130km/h | 11394m | 3.6m/s | -52.7°C | 48.7% | 0hPa | 2.7V | 08:30:00 | 01:04:11 | 00:00:00 | |
| DB0UT-7 | 2026-08-31 23:37:57 | 45.53122 | 9.08546 | 85° | 135km/h | 11413m | 4.3m/s | -52.8°C | 49.6% | 0hPa | 2.8V | 00:00:00 | 01:04:15 | 00:00:00 | |
| IW2NTF | 2026-08-31 23:37:48 | 45.53070 | 9.07868 | 84° | 137km/h | 11346m | 5.2m/s | -52.5°C | 47.3% | 0hPa | 2.8V | 08:30:00 | 01:04:01 | 00:00:00 | |
| IW2NTF | 2026-08-31 23:37:39 | 45.53041 | 9.07383 | 84° | 139km/h | 11307m | 3.7m/s | -52.2°C | 46.7% | 0hPa | 2.7V | 08:30:00 | 01:03:51 | 00:00:00 | |
| DB0UT-7 | 2026-08-31 23:37:27 | 45.53024 | 9.07088 | 86° | 135km/h | 11284m | 4.5m/s | 0°C | 0% | 0hPa | 2.7V | 00:00:00 | 00:00:00 | 00:00:00 | |
| IW2NTF | 2026-08-31 23:37:21 | 45.53006 | 9.06807 | 85° | 135km/h | 11261m | 4.2m/s | -51.8°C | 46.6% | 0hPa | 2.7V | 08:30:00 | 01:03:39 | 00:00:00 | |
| IW2NTF | 2026-08-31 23:37:16 | 45.52978 | 9.06324 | 84° | 137km/h | 11222m | 3.1m/s | -51.5°C | 46.5% | 0hPa | 2.8V | 08:30:00 | 01:03:29 | 00:00:00 | |
| IW2NTF | 2026-08-31 23:37:06 | 45.52951 | 9.05835 | 85° | 135km/h | 11183m | 4.4m/s | -51.2°C | 47.3% | 0hPa | 2.8V | 08:30:00 | 01:03:19 | 00:00:00 | |
| DB0UT-7 | 2026-08-31 23:36:57 | 45.52938 | 9.05636 | 86° | 133km/h | 11169m | 3.3m/s | 0°C | 0% | 0hPa | 2.7V | 00:00:00 | 01:03:15 | 00:00:00 | |
| IW2NTF | 2026-08-31 23:36:51 | 45.52924 | 9.05349 | 87° | 135km/h | 11145m | 3m/s | -51.1°C | 50.3% | 0hPa | 2.7V | 08:30:00 | 01:03:09 | 00:00:00 | |
| IW2NTF | 2026-08-31 23:36:41 | 45.52885 | 9.04724 | 84° | 133km/h | 11098m | 4.8m/s | -50.8°C | 49.9% | 0hPa | 2.8V | 08:30:00 | 01:02:56 | 00:00:00 | |
| IW2NTF | 2026-08-31 23:36:34 | 45.52855 | 9.04248 | 86° | 130km/h | 11061m | 3.4m/s | -50.5°C | 51.5% | 0hPa | 2.7V | 08:30:00 | 01:02:46 | 00:00:00 | |
| IW2NTF | 2026-08-31 23:36:19 | 45.52836 | 9.03772 | 87° | 131km/h | 11023m | 3.6m/s | -50.3°C | 52.8% | 0hPa | 2.7V | 08:30:00 | 01:02:36 | 00:00:00 | |
| IW2NTF | 2026-08-31 23:36:14 | 45.52822 | 9.03294 | 89° | 135km/h | 10987m | 2.5m/s | -50.1°C | 54.5% | 0hPa | 2.7V | 08:30:00 | 01:02:26 | 00:00:00 | |
| IW2NTF | 2026-08-31 23:36:03 | 45.52813 | 9.02813 | 89° | 135km/h | 10952m | 3.4m/s | -49.8°C | 51.8% | 0hPa | 2.7V | 08:30:00 | 01:02:16 | 00:00:00 | |
| IW2NTF | 2026-08-31 23:35:53 | 45.52797 | 9.02336 | 87° | 139km/h | 10914m | 4.1m/s | -49.5°C | 45.5% | 0hPa | 2.7V | 08:30:00 | 01:02:06 | 00:00:00 | |
| IW2NTF | 2026-08-31 23:35:43 | 45.52780 | 9.01846 | 86° | 130km/h | 10875m | 4m/s | -49.3°C | 44.6% | 0hPa | 2.8V | 08:30:00 | 01:01:56 | 00:00:00 | |
| IW2NTF | 2026-08-31 23:35:30 | 45.52751 | 9.01384 | 87° | 128km/h | 10836m | 3.2m/s | -49.1°C | 40.1% | 0hPa | 2.8V | 08:30:00 | 01:01:46 | 00:00:00 | |
| IW2NTF | 2026-08-31 23:35:23 | 45.52732 | 9.00923 | 87° | 128km/h | 10796m | 2.6m/s | -48.8°C | 36.4% | 0hPa | 2.8V | 08:30:00 | 01:01:36 | 00:00:00 | |
| IW2NTF | 2026-08-31 23:35:11 | 45.52709 | 9.00475 | 84° | 119km/h | 10760m | 3.6m/s | -48.5°C | 32.1% | 0hPa | 2.8V | 08:30:00 | 01:01:26 | 00:00:00 | |
| IW2NTF | 2026-08-31 23:35:03 | 45.52692 | 9.00041 | 85° | 117km/h | 10721m | 3.9m/s | -48.2°C | 29% | 0hPa | 2.8V | 08:30:00 | 01:01:16 | 00:00:00 | |
| IW2NTF | 2026-08-31 23:34:52 | 45.52673 | 8.99607 | 85° | 111km/h | 10682m | 3.5m/s | -48°C | 26.3% | 0hPa | 2.7V | 08:30:00 | 01:01:06 | 00:00:00 | |
| IW2NTF | 2026-08-31 23:34:42 | 45.52658 | 8.99188 | 86° | 119km/h | 10636m | 5.6m/s | -47.8°C | 24.3% | 0hPa | 2.7V | 08:30:00 | 01:00:56 | 00:00:00 | |
| IW2NTF | 2026-08-31 23:34:34 | 45.52633 | 8.98771 | 87° | 113km/h | 10585m | 4.8m/s | -47.4°C | 22.1% | 0hPa | 2.7V | 08:30:00 | 01:00:46 | 00:00:00 | |
| IW2NTF | 2026-08-31 23:34:23 | 45.52599 | 8.98379 | 82° | 119km/h | 10534m | 2.7m/s | -47.1°C | 21.8% | 0hPa | 2.8V | 08:30:00 | 01:00:36 | 00:00:00 | |
| IW2NTF | 2026-08-31 23:34:13 | 45.52560 | 8.97995 | 79° | 113km/h | 10484m | 3.3m/s | -46.7°C | 22.3% | 0hPa | 2.8V | 08:30:00 | 01:00:26 | 00:00:00 | |
| IW2NTF | 2026-08-31 23:34:03 | 45.52521 | 8.97611 | 79° | 104km/h | 10440m | 4.6m/s | -46.5°C | 24.2% | 0hPa | 2.8V | 08:30:00 | 01:00:16 | 00:00:00 | |
| IW2NTF | 2026-08-31 23:33:53 | 45.52487 | 8.97236 | 81° | 106km/h | 10394m | 3.9m/s | -46.2°C | 25.1% | 0hPa | 2.8V | 08:30:00 | 01:00:06 | 00:00:00 | |
| IW2NTF | 2026-08-31 23:33:43 | 45.52460 | 8.96862 | 81° | 108km/h | 10350m | 6.1m/s | -45.9°C | 25.6% | 0hPa | 2.7V | 08:30:00 | 00:59:56 | 00:00:00 | |
| IW2NTF | 2026-08-31 23:33:34 | 45.52436 | 8.96488 | 79° | 104km/h | 10300m | 4.6m/s | -45.5°C | 27.7% | 0hPa | 2.8V | 08:30:00 | 00:59:46 | 00:00:00 | |
| IW2NTF | 2026-08-31 23:33:23 | 45.52412 | 8.96125 | 82° | 91km/h | 10249m | 5.8m/s | -45.2°C | 27.9% | 0hPa | 2.8V | 08:30:00 | 00:59:36 | 00:00:00 | |
| IW2NTF | 2026-08-31 23:33:13 | 45.52370 | 8.95775 | 82° | 95km/h | 10191m | 7m/s | -44.7°C | 25.3% | 0hPa | 2.8V | 08:30:00 | 00:59:26 | 00:00:00 | |
| IW2NTF | 2026-08-31 23:33:04 | 45.52348 | 8.95428 | 80° | 89km/h | 10137m | 5.8m/s | -44.2°C | 22.7% | 0hPa | 2.7V | 08:30:00 | 00:59:16 | 00:00:00 | |
| IW2NTF | 2026-08-31 23:32:52 | 45.52314 | 8.95058 | 81° | 95km/h | 10079m | 4m/s | -43.8°C | 20.4% | 0hPa | 2.7V | 08:30:00 | 00:59:05 | 00:00:00 | |
| IW2NTF | 2026-08-31 23:32:42 | 45.52287 | 8.94719 | 82° | 97km/h | 10027m | 3.9m/s | -43.3°C | 18.2% | 0hPa | 2.8V | 08:30:00 | 00:58:55 | 00:00:00 | |
| IW2NTF | 2026-08-31 23:32:33 | 45.52260 | 8.94381 | 82° | 91km/h | 9965m | 6.9m/s | -42.9°C | 16.2% | 0hPa | 2.9V | 08:30:00 | 00:58:45 | 00:00:00 | |
| IW2NTF | 2026-08-31 23:32:22 | 45.52246 | 8.94046 | 82° | 86km/h | 9911m | 4.9m/s | -42.4°C | 14.1% | 0hPa | 2.7V | 08:30:00 | 00:58:35 | 00:00:00 | |
| IW2NTF | 2026-08-31 23:32:12 | 45.52231 | 8.93711 | 87° | 88km/h | 9857m | 3.9m/s | -42°C | 13% | 0hPa | 2.9V | 08:30:00 | 00:58:25 | 00:00:00 | |
| IW2NTF | 2026-08-31 23:32:02 | 45.52204 | 8.93385 | 79° | 88km/h | 9806m | 2.8m/s | -41.5°C | 11.9% | 0hPa | 2.7V | 08:30:00 | 00:58:15 | 00:00:00 | |
| IW2NTF | 2026-08-31 23:31:52 | 45.52184 | 8.93061 | 77° | 86km/h | 9760m | 4.9m/s | -41.1°C | 11.1% | 0hPa | 2.8V | 08:30:00 | 00:58:05 | 00:00:00 | |
| IW2NTF | 2026-08-31 23:31:42 | 45.52164 | 8.92744 | 88° | 89km/h | 9710m | 4.4m/s | -40.7°C | 10.5% | 0hPa | 2.9V | 08:30:00 | 00:57:55 | 00:00:00 | |
| IW2NTF | 2026-08-31 23:31:32 | 45.52150 | 8.92441 | 86° | 93km/h | 9659m | 3.7m/s | -40.3°C | 10.4% | 0hPa | 2.7V | 08:30:00 | 00:57:45 | 00:00:00 | |
| IW2NTF | 2026-08-31 23:31:20 | 45.52121 | 8.92082 | 83° | 86km/h | 9595m | 6.3m/s | -39.9°C | 10.4% | 0hPa | 2.9V | 08:30:00 | 00:57:33 | 00:00:00 | |
| IW2NTF | 2026-08-31 23:31:10 | 45.52111 | 8.91778 | 87° | 80km/h | 9543m | 11.6m/s | -39.4°C | 10.2% | 0hPa | 2.9V | 08:30:00 | 00:57:23 | 00:00:00 | |
| IW2NTF | 2026-08-31 23:31:00 | 45.52089 | 8.91477 | 78° | 82km/h | 9491m | 4.2m/s | -39°C | 10.2% | 0hPa | 2.7V | 08:30:00 | 00:57:13 | 00:00:00 | |
| IW2NTF | 2026-08-31 23:30:49 | 45.52076 | 8.91156 | 84° | 73km/h | 9441m | 6.5m/s | -38.7°C | 10.4% | 0hPa | 2.9V | 08:30:00 | 00:57:02 | 00:00:00 | |
| IW2NTF | 2026-08-31 23:30:33 | 45.52048 | 8.90820 | 83° | 86km/h | 9372m | 3.7m/s | -38.2°C | 10.1% | 0hPa | 2.9V | 08:30:00 | 00:56:50 | 00:00:00 | |
| IW2NTF | 2026-08-31 23:30:23 | 45.52015 | 8.90518 | 83° | 86km/h | 9321m | 3.4m/s | -37.7°C | 9.8% | 0hPa | 2.7V | 08:30:00 | 00:56:39 | 00:00:00 | |
| IW2NTF | 2026-08-31 23:30:14 | 45.51984 | 8.90246 | 74° | 69km/h | 9272m | 4m/s | -37.4°C | 9.8% | 0hPa | 2.9V | 08:30:00 | 00:56:29 | 00:00:00 | |
| IW2NTF | 2026-08-31 23:30:03 | 45.51965 | 8.90004 | 86° | 64km/h | 9220m | 5.5m/s | -37°C | 9.8% | 0hPa | 2.9V | 08:30:00 | 00:56:19 | 00:00:00 | |
| IW2NTF | 2026-08-31 23:29:53 | 45.51930 | 8.89774 | 87° | 77km/h | 9168m | 6.9m/s | -36.6°C | 9.8% | 0hPa | 2.9V | 08:30:00 | 00:56:09 | 00:00:00 | |
| IW2NTF | 2026-08-31 23:29:43 | 45.51890 | 8.89537 | 73° | 69km/h | 9117m | 5.3m/s | -36.2°C | 9.8% | 0hPa | 2.9V | 08:30:00 | 00:55:59 | 00:00:00 | |
| IW2NTF | 2026-08-31 23:29:33 | 45.51859 | 8.89317 | 73° | 51km/h | 9069m | 5.5m/s | -35.9°C | 9.9% | 0hPa | 2.8V | 08:30:00 | 00:55:49 | 00:00:00 | |
| IW2NTF | 2026-08-31 23:29:24 | 45.51834 | 8.89115 | 73° | 66km/h | 9014m | 6.1m/s | -35.5°C | 9.6% | 0hPa | 2.9V | 08:30:00 | 00:55:39 | 00:00:00 | |
| IW2NTF | 2026-08-31 23:29:13 | 45.51805 | 8.88899 | 81° | 47km/h | 8962m | 5.5m/s | -35°C | 9.4% | 0hPa | 2.9V | 08:30:00 | 00:55:29 | 00:00:00 | |
| IW2NTF | 2026-08-31 23:29:03 | 45.51777 | 8.88679 | 87° | 58km/h | 8910m | 4.2m/s | -34.5°C | 9% | 0hPa | 2.9V | 08:30:00 | 00:55:19 | 00:00:00 | |
| IW2NTF | 2026-08-31 23:28:53 | 45.51764 | 8.88478 | 88° | 58km/h | 8861m | 5.3m/s | -34°C | 8.9% | 0hPa | 2.9V | 08:30:00 | 00:55:09 | 00:00:00 | |
| IW2NTF | 2026-08-31 23:28:43 | 45.51735 | 8.88255 | 75° | 64km/h | 8807m | 4.2m/s | -33.5°C | 8.5% | 0hPa | 2.9V | 08:30:00 | 00:54:59 | 00:00:00 | |
| IW2NTF | 2026-08-31 23:28:36 | 45.51707 | 8.88046 | 81° | 49km/h | 8757m | 3.4m/s | -33°C | 8.4% | 0hPa | 2.8V | 08:30:00 | 00:54:49 | 00:00:00 | |
| IW2NTF | 2026-08-31 23:28:23 | 45.51689 | 8.87799 | 89° | 71km/h | 8699m | 7.2m/s | -32.5°C | 8% | 0hPa | 2.9V | 08:30:00 | 00:54:38 | 00:00:00 | |
| IW2NTF | 2026-08-31 23:28:13 | 45.51675 | 8.87586 | 82° | 64km/h | 8640m | 7m/s | -32.1°C | 8.3% | 0hPa | 2.9V | 08:30:00 | 00:54:28 | 00:00:00 | |
| IW2NTF | 2026-08-31 23:28:01 | 45.51653 | 8.87372 | 79° | 57km/h | 8584m | 4.4m/s | -31.8°C | 9.1% | 0hPa | 2.9V | 08:30:00 | 00:54:18 | 00:00:00 | |
| IW2NTF | 2026-08-31 23:27:51 | 45.51636 | 8.87159 | 93° | 60km/h | 8529m | 4.6m/s | -31.3°C | 8.9% | 0hPa | 2.8V | 08:30:00 | 00:54:08 | 00:00:00 | |
| IW2NTF | 2026-08-31 23:27:41 | 45.51625 | 8.86958 | 84° | 58km/h | 8481m | 4.3m/s | -31°C | 9.6% | 0hPa | 2.9V | 08:30:00 | 00:53:58 | 00:00:00 | |
| IW2NTF | 2026-08-31 23:27:31 | 45.51620 | 8.86745 | 87° | 66km/h | 8427m | 9m/s | -30.5°C | 9.5% | 0hPa | 2.8V | 08:30:00 | 00:53:48 | 00:00:00 | |
| IW2NTF | 2026-08-31 23:27:21 | 45.51601 | 8.86534 | 85° | 55km/h | 8365m | 6.5m/s | -30.1°C | 10% | 0hPa | 2.8V | 08:30:00 | 00:53:38 | 00:00:00 | |
| IW2NTF | 2026-08-31 23:27:16 | 45.51601 | 8.86313 | 81° | 60km/h | 8306m | 8.7m/s | -29.6°C | 9.6% | 0hPa | 2.9V | 08:30:00 | 00:53:28 | 00:00:00 | |
| IW2NTF | 2026-08-31 23:27:05 | 45.51585 | 8.86075 | 81° | 68km/h | 8252m | 3.5m/s | -29.2°C | 9.6% | 0hPa | 2.9V | 08:30:00 | 00:53:18 | 00:00:00 | |
| IW2NTF | 2026-08-31 23:26:56 | 45.51583 | 8.85846 | 81° | 62km/h | 8202m | 5.1m/s | -28.7°C | 9.2% | 0hPa | 2.8V | 08:30:00 | 00:53:08 | 00:00:00 | |
| IW2NTF | 2026-08-31 23:26:44 | 45.51569 | 8.85582 | 78° | 66km/h | 8152m | 4.3m/s | -28.3°C | 9% | 0hPa | 2.9V | 08:30:00 | 00:52:57 | 00:00:00 | |
| IW2NTF | 2026-08-31 23:26:29 | 45.51554 | 8.85347 | 80° | 58km/h | 8107m | 4.6m/s | -27.9°C | 9% | 0hPa | 2.9V | 08:30:00 | 00:52:47 | 00:00:00 | |
| IW2NTF | 2026-08-31 23:26:24 | 45.51534 | 8.85108 | 84° | 68km/h | 8054m | 5.6m/s | -27.4°C | 9.2% | 0hPa | 2.9V | 08:30:00 | 00:52:37 | 00:00:00 | |
| IW2NTF | 2026-08-31 23:26:14 | 45.51529 | 8.84881 | 85° | 77km/h | 7998m | 4.8m/s | -26.9°C | 9.2% | 0hPa | 2.9V | 08:30:00 | 00:52:27 | 00:00:00 | |
| IW2NTF | 2026-08-31 23:25:57 | 45.51500 | 8.84604 | 89° | 60km/h | 7939m | 3.1m/s | -26.3°C | 9.2% | 0hPa | 2.8V | 08:30:00 | 00:52:15 | 00:00:00 | |
| IW2NTF | 2026-08-31 23:25:52 | 45.51476 | 8.84369 | 84° | 69km/h | 7896m | 5.2m/s | -25.9°C | 9% | 0hPa | 2.8V | 08:30:00 | 00:52:05 | 00:00:00 | |
| IW2NTF | 2026-08-31 23:25:42 | 45.51447 | 8.84140 | 82° | 75km/h | 7851m | 5m/s | -25.5°C | 8.8% | 0hPa | 2.8V | 08:30:00 | 00:51:55 | 00:00:00 | |
| IW2NTF | 2026-08-31 23:25:32 | 45.51421 | 8.83924 | 81° | 60km/h | 7800m | 5.4m/s | -25°C | 8.6% | 0hPa | 2.9V | 08:30:00 | 00:51:45 | 00:00:00 | |
| IW2NTF | 2026-08-31 23:25:22 | 45.51387 | 8.83692 | 71° | 64km/h | 7752m | 5.1m/s | -24.6°C | 8.6% | 0hPa | 2.9V | 08:30:00 | 00:51:35 | 00:00:00 | |
| IW2NTF | 2026-08-31 23:25:12 | 45.51371 | 8.83478 | 74° | 68km/h | 7694m | 4.8m/s | -24°C | 8.3% | 0hPa | 2.9V | 08:30:00 | 00:51:25 | 00:00:00 | |
| IW2NTF | 2026-08-31 23:24:56 | 45.51337 | 8.83213 | 79° | 71km/h | 7624m | 6.8m/s | -23.4°C | 8.1% | 0hPa | 2.9V | 08:30:00 | 00:51:13 | 00:00:00 | |
| IW2NTF | 2026-08-31 23:24:46 | 45.51331 | 8.82979 | 88° | 64km/h | 7568m | 6m/s | -22.9°C | 8% | 0hPa | 2.9V | 08:30:00 | 00:51:03 | 00:00:00 | |
| IW2NTF | 2026-08-31 23:24:36 | 45.51312 | 8.82755 | 78° | 66km/h | 7511m | 7.8m/s | -22.3°C | 7.6% | 0hPa | 2.9V | 08:30:00 | 00:50:53 | 00:00:00 | |
| IW2NTF | 2026-08-31 23:24:26 | 45.51294 | 8.82474 | 75° | 64km/h | 7448m | 5.3m/s | -21.7°C | 7.5% | 0hPa | 2.9V | 08:30:00 | 00:50:41 | 00:00:00 | |
| IW2NTF | 2026-08-31 23:24:16 | 45.51271 | 8.82246 | 92° | 57km/h | 7390m | 4.2m/s | -21.2°C | 7.5% | 0hPa | 2.8V | 08:30:00 | 00:50:31 | 00:00:00 | |
| IW2NTF | 2026-08-31 23:24:04 | 45.51261 | 8.82021 | 81° | 58km/h | 7334m | 8.1m/s | -20.8°C | 7.8% | 0hPa | 2.9V | 08:30:00 | 00:50:21 | 00:00:00 | |
| IW2NTF | 2026-08-31 23:23:54 | 45.51243 | 8.81822 | 80° | 58km/h | 7278m | 4m/s | -20.4°C | 7.9% | 0hPa | 2.9V | 08:30:00 | 00:50:11 | 00:00:00 | |
| IW2NTF | 2026-08-31 23:23:43 | 45.51238 | 8.81565 | 81° | 51km/h | 7222m | 4.6m/s | -19.9°C | 7.8% | 0hPa | 2.8V | 08:30:00 | 00:49:59 | 00:00:00 | |
| IW2NTF | 2026-08-31 23:23:32 | 45.51233 | 8.81349 | 93° | 58km/h | 7172m | 4.9m/s | -19.4°C | 7.8% | 0hPa | 2.9V | 08:30:00 | 00:49:49 | 00:00:00 | |
| IW2NTF | 2026-08-31 23:23:27 | 45.51231 | 8.81145 | 86° | 64km/h | 7124m | 3.8m/s | -19.1°C | 8.2% | 0hPa | 2.8V | 08:30:00 | 00:49:39 | 00:00:00 | |
| IW2NTF | 2026-08-31 23:23:16 | 45.51209 | 8.80927 | 86° | 66km/h | 7084m | 5.6m/s | -18.8°C | 8.5% | 0hPa | 2.9V | 08:30:00 | 00:49:29 | 00:00:00 | |
| IW2NTF | 2026-08-31 23:23:06 | 45.51218 | 8.80720 | 94° | 62km/h | 7027m | 6.8m/s | -18.3°C | 8.3% | 0hPa | 2.9V | 08:30:00 | 00:49:19 | 00:00:00 | |
| IW2NTF | 2026-08-31 23:22:56 | 45.51212 | 8.80517 | 80° | 64km/h | 6963m | 7.5m/s | -17.8°C | 8.2% | 0hPa | 2.9V | 08:30:00 | 00:49:09 | 00:00:00 | |
| IW2NTF | 2026-08-31 23:22:45 | 45.51205 | 8.80298 | 89° | 53km/h | 6899m | 6.7m/s | -17.3°C | 8.1% | 0hPa | 2.9V | 08:30:00 | 00:48:58 | 00:00:00 | |
| IW2NTF | 2026-08-31 23:22:34 | 45.51192 | 8.80100 | 82° | 62km/h | 6854m | 3.3m/s | -16.9°C | 8.4% | 0hPa | 2.9V | 08:30:00 | 00:48:48 | 00:00:00 | |
| IW2NTF | 2026-08-31 23:22:21 | 45.51184 | 8.79898 | 91° | 47km/h | 6815m | 5.8m/s | -16.7°C | 8.8% | 0hPa | 2.9V | 08:30:00 | 00:48:38 | 00:00:00 | |
| IW2NTF | 2026-08-31 23:22:13 | 45.51196 | 8.79656 | 88° | 58km/h | 6745m | 4.6m/s | -16.2°C | 10% | 0hPa | 2.9V | 08:30:00 | 00:48:26 | 00:00:00 | |
| IW2NTF | 2026-08-31 23:22:04 | 45.51194 | 8.79453 | 91° | 49km/h | 6700m | 4.7m/s | -15.9°C | 11% | 0hPa | 2.9V | 08:30:00 | 00:48:16 | 00:00:00 | |
| IW2NTF | 2026-08-31 23:21:49 | 45.51184 | 8.79257 | 91° | 64km/h | 6643m | 4.3m/s | -15.4°C | 11.2% | 0hPa | 2.9V | 08:30:00 | 00:48:06 | 00:00:00 | |
| IW2NTF | 2026-08-31 23:21:43 | 45.51178 | 8.79053 | 84° | 62km/h | 6582m | 6m/s | -14.9°C | 10.9% | 0hPa | 2.9V | 08:30:00 | 00:47:56 | 00:00:00 | |
| IW2NTF | 2026-08-31 23:21:33 | 45.51183 | 8.78830 | 90° | 68km/h | 6524m | 6.6m/s | -14.3°C | 11.1% | 0hPa | 2.9V | 08:30:00 | 00:47:46 | 00:00:00 | |
| IW2NTF | 2026-08-31 23:21:23 | 45.51179 | 8.78615 | 100° | 57km/h | 6472m | 7.3m/s | -13.9°C | 11.6% | 0hPa | 2.9V | 08:30:00 | 00:47:36 | 00:00:00 | |
| IW2NTF | 2026-08-31 23:21:13 | 45.51168 | 8.78412 | 94° | 55km/h | 6417m | 6.8m/s | -13.4°C | 11.1% | 0hPa | 2.9V | 08:30:00 | 00:47:26 | 00:00:00 | |
| IW2NTF | 2026-08-31 23:21:01 | 45.51165 | 8.78173 | 90° | 58km/h | 6345m | 3.6m/s | -12.7°C | 10.3% | 0hPa | 2.9V | 08:30:00 | 00:47:14 | 00:00:00 | |
| IW2NTF | 2026-08-31 23:20:51 | 45.51166 | 8.77973 | 82° | 49km/h | 6297m | 7.5m/s | -12.3°C | 9.6% | 0hPa | 2.9V | 08:30:00 | 00:47:04 | 00:00:00 | |
| IW2NTF | 2026-08-31 23:20:36 | 45.51165 | 8.77782 | 91° | 68km/h | 6240m | 4.8m/s | -11.9°C | 9.8% | 0hPa | 2.9V | 08:30:00 | 00:46:54 | 00:00:00 | |
| IW2NTF | 2026-08-31 23:20:26 | 45.51154 | 8.77589 | 87° | 64km/h | 6196m | 7.2m/s | -11.5°C | 9.7% | 0hPa | 2.9V | 08:30:00 | 00:46:44 | 00:00:00 | |
| IW2NTF | 2026-08-31 23:20:17 | 45.51144 | 8.77375 | 103° | 57km/h | 6142m | 4.8m/s | -11°C | 9.4% | 0hPa | 2.9V | 08:30:00 | 00:46:34 | 00:00:00 | |
| IW2NTF | 2026-08-31 23:20:11 | 45.51149 | 8.77152 | 84° | 64km/h | 6092m | 5.8m/s | -10.6°C | 9.1% | 0hPa | 2.8V | 08:30:00 | 00:46:24 | 00:00:00 | |
| IW2NTF | 2026-08-31 23:19:59 | 45.51154 | 8.76935 | 101° | 60km/h | 6036m | 5.3m/s | -10.2°C | 9.6% | 0hPa | 2.9V | 08:30:00 | 00:46:14 | 00:00:00 | |
| IW2NTF | 2026-08-31 23:19:49 | 45.51156 | 8.76653 | 92° | 69km/h | 5980m | 5.7m/s | -9.8°C | 9.9% | 0hPa | 2.8V | 08:30:00 | 00:46:02 | 00:00:00 | |
| IW2NTF | 2026-08-31 23:19:39 | 45.51164 | 8.76419 | 86° | 55km/h | 5930m | 4.3m/s | -9.5°C | 9.8% | 0hPa | 2.9V | 08:30:00 | 00:45:52 | 00:00:00 | |
| IW2NTF | 2026-08-31 23:19:29 | 45.51175 | 8.76211 | 100° | 60km/h | 5889m | 4.1m/s | -9.2°C | 10% | 0hPa | 2.9V | 08:30:00 | 00:45:42 | 00:00:00 | |
| IW2NTF | 2026-08-31 23:19:20 | 45.51180 | 8.76005 | 97° | 47km/h | 5849m | 3.5m/s | -8.9°C | 10.4% | 0hPa | 2.9V | 08:30:00 | 00:45:32 | 00:00:00 | |
| IW2NTF | 2026-08-31 23:19:09 | 45.51197 | 8.75799 | 103° | 44km/h | 5800m | 7.3m/s | -8.6°C | 10.7% | 0hPa | 2.9V | 08:30:00 | 00:45:22 | 00:00:00 | |
| IW2NTF | 2026-08-31 23:18:59 | 45.51212 | 8.75591 | 103° | 66km/h | 5742m | 5.1m/s | -8.2°C | 11.1% | 0hPa | 2.8V | 08:30:00 | 00:45:12 | 00:00:00 | |
| IW2NTF | 2026-08-31 23:18:49 | 45.51229 | 8.75391 | 100° | 55km/h | 5687m | 5.3m/s | -7.8°C | 11.3% | 0hPa | 2.9V | 08:30:00 | 00:45:02 | 00:00:00 | |
| IW2NTF | 2026-08-31 23:18:39 | 45.51273 | 8.75186 | 103° | 64km/h | 5633m | 5.9m/s | -7.4°C | 11.3% | 0hPa | 2.9V | 08:30:00 | 00:44:52 | 00:00:00 | |
| IW2NTF | 2026-08-31 23:18:28 | 45.51294 | 8.74963 | 97° | 60km/h | 5579m | 3.9m/s | -6.9°C | 9.7% | 0hPa | 2.9V | 08:30:00 | 00:44:41 | 00:00:00 | |
| IW2NTF | 2026-08-31 23:18:18 | 45.51328 | 8.74766 | 102° | 64km/h | 5531m | 5.2m/s | -6.4°C | 9.2% | 0hPa | 2.9V | 08:30:00 | 00:44:31 | 00:00:00 | |
| IW2NTF | 2026-08-31 23:18:08 | 45.51335 | 8.74562 | 109° | 60km/h | 5487m | 6.7m/s | -6°C | 9.2% | 0hPa | 2.9V | 08:30:00 | 00:44:21 | 00:00:00 | |
| IW2NTF | 2026-08-31 23:17:58 | 45.51355 | 8.74358 | 95° | 53km/h | 5441m | 5.3m/s | -5.5°C | 7.7% | 0hPa | 2.9V | 08:30:00 | 00:44:11 | 00:00:00 | |
| IW2NTF | 2026-08-31 23:17:48 | 45.51373 | 8.74140 | 99° | 57km/h | 5395m | 3.5m/s | -5.3°C | 6.2% | 0hPa | 2.9V | 08:30:00 | 00:44:01 | 00:00:00 | |
| IW2NTF | 2026-08-31 23:17:38 | 45.51401 | 8.73924 | 88° | 71km/h | 5334m | 5.5m/s | -5.1°C | 6.8% | 0hPa | 2.9V | 08:30:00 | 00:43:51 | 00:00:00 | |
| IW2NTF | 2026-08-31 23:17:28 | 45.51423 | 8.73687 | 97° | 51km/h | 5276m | 6.3m/s | -5.2°C | 8.2% | 0hPa | 2.8V | 08:30:00 | 00:43:41 | 00:00:00 | |
| IW2NTF | 2026-08-31 23:17:18 | 45.51455 | 8.73467 | 115° | 62km/h | 5225m | 5.8m/s | -5.1°C | 9.1% | 0hPa | 2.9V | 08:30:00 | 00:43:31 | 00:00:00 | |
| IW2NTF | 2026-08-31 23:17:08 | 45.51495 | 8.73271 | 102° | 60km/h | 5168m | 4.8m/s | -5.1°C | 10.5% | 0hPa | 2.9V | 08:30:00 | 00:43:21 | 00:00:00 | |
| IW2NTF | 2026-08-31 23:16:58 | 45.51538 | 8.73066 | 123° | 49km/h | 5111m | 7.1m/s | -4.8°C | 11% | 0hPa | 2.9V | 08:30:00 | 00:43:11 | 00:00:00 | |
| IW2NTF | 2026-08-31 23:16:48 | 45.51593 | 8.72890 | 124° | 58km/h | 5059m | 6m/s | -4.8°C | 11.6% | 0hPa | 2.8V | 08:30:00 | 00:43:01 | 00:00:00 | |
| IW2NTF | 2026-08-31 23:16:38 | 45.51663 | 8.72702 | 120° | 73km/h | 5019m | 4.2m/s | -4.5°C | 11.8% | 0hPa | 2.9V | 08:30:00 | 00:42:51 | 00:00:00 | |
| IW2NTF | 2026-08-31 23:16:28 | 45.51715 | 8.72509 | 115° | 58km/h | 4962m | 4.3m/s | -4.1°C | 11.6% | 0hPa | 2.9V | 08:30:00 | 00:42:41 | 00:00:00 | |
| IW2NTF | 2026-08-31 23:16:22 | 45.51762 | 8.72394 | 123° | 57km/h | 4937m | 3.7m/s | -3.9°C | 11.5% | 0hPa | 2.9V | 08:30:00 | 00:42:35 | 00:00:00 | |
| IW2NTF | 2026-08-31 23:16:16 | 45.51792 | 8.72286 | 106° | 58km/h | 4901m | 7.2m/s | -3.6°C | 11.3% | 0hPa | 2.9V | 08:30:00 | 00:42:29 | 00:00:00 | |
| IW2NTF | 2026-08-31 23:16:10 | 45.51822 | 8.72182 | 106° | 44km/h | 4872m | 4.1m/s | -3.5°C | 11.3% | 0hPa | 2.9V | 08:30:00 | 00:42:23 | 00:00:00 | |
| IW2NTF | 2026-08-31 23:16:02 | 45.51845 | 8.72049 | 109° | 60km/h | 4838m | 5.5m/s | -3.3°C | 11.2% | 0hPa | 2.9V | 08:30:00 | 00:42:15 | 00:00:00 | |
| IW2NTF | 2026-08-31 23:15:56 | 45.51892 | 8.71936 | 114° | 53km/h | 4809m | 5.2m/s | -3.3°C | 11.8% | 0hPa | 2.9V | 08:30:00 | 00:42:09 | 00:00:00 | |
| IW2NTF | 2026-08-31 23:15:50 | 45.51928 | 8.71836 | 123° | 58km/h | 4784m | 4.6m/s | -3.2°C | 12.1% | 0hPa | 2.9V | 08:30:00 | 00:42:03 | 00:00:00 | |
| IW2NTF | 2026-08-31 23:15:45 | 45.51982 | 8.71729 | 121° | 57km/h | 4761m | 5.5m/s | -3°C | 12.1% | 0hPa | 2.9V | 08:30:00 | 00:41:57 | 00:00:00 | |
| IW2NTF | 2026-08-31 23:15:38 | 45.52024 | 8.71617 | 114° | 53km/h | 4724m | 4m/s | -2.7°C | 11.8% | 0hPa | 2.9V | 08:30:00 | 00:41:51 | 00:00:00 | |
| IW2NTF | 2026-08-31 23:15:32 | 45.52054 | 8.71506 | 112° | 49km/h | 4693m | 3.9m/s | -2.5°C | 11.8% | 0hPa | 2.9V | 08:30:00 | 00:41:45 | 00:00:00 | |
| IW2NTF | 2026-08-31 23:15:26 | 45.52086 | 8.71410 | 113° | 57km/h | 4667m | 5.3m/s | -2.4°C | 11.7% | 0hPa | 2.9V | 08:30:00 | 00:41:39 | 00:00:00 | |
| IW2NTF | 2026-08-31 23:15:20 | 45.52117 | 8.71309 | 120° | 38km/h | 4643m | 3.5m/s | -2.1°C | 11.5% | 0hPa | 2.9V | 08:30:00 | 00:41:33 | 00:00:00 | |
| IW2NTF | 2026-08-31 23:15:15 | 45.52163 | 8.71224 | 124° | 62km/h | 4620m | 5.1m/s | -2°C | 11.4% | 0hPa | 2.9V | 08:30:00 | 00:41:27 | 00:00:00 | |
| IW2NTF | 2026-08-31 23:15:08 | 45.52193 | 8.71117 | 107° | 51km/h | 4585m | 4.7m/s | -1.9°C | 12.2% | 0hPa | 2.9V | 08:30:00 | 00:41:21 | 00:00:00 | |
| IW2NTF | 2026-08-31 23:15:02 | 45.52222 | 8.71000 | 113° | 58km/h | 4552m | 5.6m/s | -1.7°C | 12.5% | 0hPa | 2.9V | 08:30:00 | 00:41:15 | 00:00:00 | |
| IW2NTF | 2026-08-31 23:14:56 | 45.52265 | 8.70905 | 119° | 49km/h | 4524m | 4.3m/s | -1.6°C | 12.6% | 0hPa | 3V | 08:30:00 | 00:41:09 | 00:00:00 | |
| IW2NTF | 2026-08-31 23:14:50 | 45.52303 | 8.70800 | 119° | 51km/h | 4499m | 3.2m/s | -1.6°C | 13% | 0hPa | 2.9V | 08:30:00 | 00:41:03 | 00:00:00 | |
| IW2NTF | 2026-08-31 23:14:44 | 45.52333 | 8.70684 | 106° | 62km/h | 4478m | 2m/s | -1.5°C | 13.3% | 0hPa | 2.9V | 08:30:00 | 00:40:57 | 00:00:00 | |
| IW2NTF | 2026-08-31 23:14:38 | 45.52368 | 8.70579 | 129° | 42km/h | 4448m | 7.9m/s | -1.3°C | 14% | 0hPa | 2.9V | 08:30:00 | 00:40:51 | 00:00:00 | |
| IW2NTF | 2026-08-31 23:14:32 | 45.52407 | 8.70483 | 117° | 57km/h | 4414m | 4.3m/s | -1.2°C | 14.3% | 0hPa | 2.9V | 08:30:00 | 00:40:45 | 00:00:00 | |
| IW2NTF | 2026-08-31 23:14:26 | 45.52439 | 8.70388 | 112° | 47km/h | 4388m | 4m/s | -1.1°C | 14.8% | 0hPa | 2.9V | 08:30:00 | 00:40:39 | 00:00:00 | |
| IW2NTF | 2026-08-31 23:14:20 | 45.52472 | 8.70299 | 120° | 51km/h | 4364m | 4.2m/s | -1°C | 15.3% | 0hPa | 2.9V | 08:30:00 | 00:40:33 | 00:00:00 | |
| IW2NTF | 2026-08-31 23:14:14 | 45.52507 | 8.70205 | 113° | 49km/h | 4340m | 3.7m/s | -0.9°C | 15.3% | 0hPa | 2.9V | 08:30:00 | 00:40:27 | 00:00:00 | |
| IW2NTF | 2026-08-31 23:14:08 | 45.52531 | 8.70119 | 118° | 49km/h | 4314m | 3m/s | -0.8°C | 15.5% | 0hPa | 2.9V | 08:30:00 | 00:40:21 | 00:00:00 | |
| IW2NTF | 2026-08-31 23:14:03 | 45.52578 | 8.70023 | 126° | 55km/h | 4289m | 4.8m/s | -0.6°C | 15.5% | 0hPa | 2.9V | 08:30:00 | 00:40:15 | 00:00:00 | |
| IW2NTF | 2026-08-31 23:13:56 | 45.52606 | 8.69920 | 98° | 42km/h | 4257m | 5m/s | -0.3°C | 15.4% | 0hPa | 2.9V | 08:30:00 | 00:40:09 | 00:00:00 | |
| IW2NTF | 2026-08-31 23:13:50 | 45.52617 | 8.69834 | 109° | 31km/h | 4225m | 5m/s | -0.3°C | 16.3% | 0hPa | 2.9V | 08:30:00 | 00:40:03 | 00:00:00 | |
| IW2NTF | 2026-08-31 23:13:44 | 45.52642 | 8.69757 | 124° | 49km/h | 4196m | 4.5m/s | -0.2°C | 16.8% | 0hPa | 2.9V | 08:30:00 | 00:39:57 | 00:00:00 | |
| IW2NTF | 2026-08-31 23:13:38 | 45.52675 | 8.69679 | 104° | 37km/h | 4174m | 4m/s | -0.2°C | 17.5% | 0hPa | 2.9V | 08:30:00 | 00:39:51 | 00:00:00 | |
| IW2NTF | 2026-08-31 23:13:32 | 45.52700 | 8.69593 | 125° | 53km/h | 4152m | 6.4m/s | -0°C | 17.5% | 0hPa | 2.9V | 08:30:00 | 00:39:45 | 00:00:00 | |
| IW2NTF | 2026-08-31 23:13:27 | 45.52727 | 8.69497 | 94° | 33km/h | 4124m | 4.9m/s | 0.1°C | 17.8% | 0hPa | 2.9V | 08:30:00 | 00:39:39 | 00:00:00 | |
| IW2NTF | 2026-08-31 23:13:21 | 45.52754 | 8.69441 | 129° | 47km/h | 4094m | 5.4m/s | 0.3°C | 18.3% | 0hPa | 2.9V | 08:30:00 | 00:39:33 | 00:00:00 | |
| IW2NTF | 2026-08-31 23:13:14 | 45.52798 | 8.69370 | 136° | 37km/h | 4062m | 7.1m/s | 0.4°C | 19.1% | 0hPa | 3V | 08:30:00 | 00:39:27 | 00:00:00 | |
| IW2NTF | 2026-08-31 23:13:08 | 45.52825 | 8.69321 | 129° | 37km/h | 4027m | 4.6m/s | 0.7°C | 18.7% | 0hPa | 2.9V | 08:30:00 | 00:39:21 | 00:00:00 | |
| IW2NTF | 2026-08-31 23:13:02 | 45.52845 | 8.69257 | 100° | 26km/h | 4005m | 4.3m/s | 0.8°C | 18.4% | 0hPa | 2.9V | 08:30:00 | 00:39:15 | 00:00:00 | |
| IW2NTF | 2026-08-31 23:12:57 | 45.52862 | 8.69195 | 113° | 37km/h | 3981m | 4m/s | 1°C | 18.1% | 0hPa | 2.9V | 08:30:00 | 00:39:09 | 00:00:00 | |
| IW2NTF | 2026-08-31 23:12:50 | 45.52893 | 8.69120 | 112° | 44km/h | 3955m | 4.6m/s | 1.1°C | 18.5% | 0hPa | 2.9V | 08:30:00 | 00:39:03 | 00:00:00 | |
| IW2NTF | 2026-08-31 23:12:44 | 45.52915 | 8.69052 | 123° | 20km/h | 3922m | 6.7m/s | 1.2°C | 19% | 0hPa | 3V | 08:30:00 | 00:38:57 | 00:00:00 | |
| IW2NTF | 2026-08-31 23:12:36 | 45.52925 | 8.68999 | 112° | 29km/h | 3881m | 6.1m/s | 1.3°C | 20.1% | 0hPa | 3V | 08:30:00 | 00:38:49 | 00:00:00 | |
| IW2NTF | 2026-08-31 23:12:30 | 45.52945 | 8.68945 | 109° | 26km/h | 3855m | 4.8m/s | 1.4°C | 20.6% | 0hPa | 2.9V | 08:30:00 | 00:38:43 | 00:00:00 | |
| IW2NTF | 2026-08-31 23:12:24 | 45.52966 | 8.68913 | 137° | 18km/h | 3830m | 3.6m/s | 1.5°C | 21% | 0hPa | 3V | 08:30:00 | 00:38:37 | 00:00:00 | |
| IW2NTF | 2026-08-31 23:12:18 | 45.52971 | 8.68894 | 77° | 11km/h | 3805m | 4m/s | 1.7°C | 20.8% | 0hPa | 2.9V | 08:30:00 | 00:38:31 | 00:00:00 | |
| IW2NTF | 2026-08-31 23:12:13 | 45.52979 | 8.68833 | 105° | 35km/h | 3773m | 4.1m/s | 1.8°C | 21.2% | 0hPa | 3V | 08:30:00 | 00:38:25 | 00:00:00 | |
| IW2NTF | 2026-08-31 23:12:06 | 45.52991 | 8.68783 | 112° | 33km/h | 3748m | 4.1m/s | 1.8°C | 22.5% | 0hPa | 2.9V | 08:30:00 | 00:38:19 | 00:00:00 | |
| IW2NTF | 2026-08-31 23:12:00 | 45.52999 | 8.68711 | 74° | 33km/h | 3728m | 3.3m/s | 2°C | 22.7% | 0hPa | 3V | 08:30:00 | 00:38:13 | 00:00:00 | |
| IW2NTF | 2026-08-31 23:11:54 | 45.52985 | 8.68646 | 79° | 33km/h | 3708m | 5.6m/s | 2°C | 23.9% | 0hPa | 3V | 08:30:00 | 00:38:07 | 00:00:00 | |
| IW2NTF | 2026-08-31 23:11:48 | 45.52985 | 8.68585 | 98° | 18km/h | 3673m | 6m/s | 1.9°C | 26.4% | 0hPa | 2.9V | 08:30:00 | 00:38:01 | 00:00:00 | |
| IW2NTF | 2026-08-31 23:11:43 | 45.52971 | 8.68529 | 75° | 35km/h | 3647m | 3.2m/s | 2.1°C | 26.9% | 0hPa | 2.9V | 08:30:00 | 00:37:55 | 00:00:00 | |
| IW2NTF | 2026-08-31 23:11:36 | 45.52971 | 8.68450 | 75° | 42km/h | 3621m | 4.8m/s | 2.3°C | 27.1% | 0hPa | 3V | 08:30:00 | 00:37:49 | 00:00:00 | |
| IW2NTF | 2026-08-31 23:11:30 | 45.52957 | 8.68363 | 103° | 33km/h | 3590m | 6.5m/s | 2.5°C | 27% | 0hPa | 2.9V | 08:30:00 | 00:37:43 | 00:00:00 | |
| IW2NTF | 2026-08-31 23:11:24 | 45.52971 | 8.68309 | 91° | 11km/h | 3554m | 5.5m/s | 2.8°C | 26.8% | 0hPa | 2.9V | 08:30:00 | 00:37:37 | 00:00:00 | |
| IW2NTF | 2026-08-31 23:11:18 | 45.52959 | 8.68287 | 41° | 11km/h | 3527m | 5.2m/s | 3°C | 26.5% | 0hPa | 2.9V | 08:30:00 | 00:37:31 | 00:00:00 | |
| IW2NTF | 2026-08-31 23:11:12 | 45.52962 | 8.68249 | 83° | 35km/h | 3499m | 5.9m/s | 3.2°C | 26.3% | 0hPa | 2.9V | 08:30:00 | 00:37:25 | 00:00:00 | |
| IW2NTF | 2026-08-31 23:11:06 | 45.52936 | 8.68198 | 43° | 16km/h | 3466m | 5.7m/s | 3.4°C | 25.4% | 0hPa | 3V | 08:30:00 | 00:37:19 | 00:00:00 | |
| IW2NTF | 2026-08-31 23:11:00 | 45.52931 | 8.68154 | 80° | 31km/h | 3430m | 5.3m/s | 3.6°C | 23.9% | 0hPa | 3V | 08:30:00 | 00:37:13 | 00:00:00 | |
| IW2NTF | 2026-08-31 23:10:53 | 45.52915 | 8.68099 | 60° | 20km/h | 3404m | 5.3m/s | 3.9°C | 23.8% | 0hPa | 2.9V | 08:30:00 | 00:37:07 | 00:00:00 | |
| IW2NTF | 2026-08-31 23:10:48 | 45.52906 | 8.68053 | 79° | 16km/h | 3378m | 3.6m/s | 4.1°C | 24% | 0hPa | 3V | 08:30:00 | 00:37:01 | 00:00:00 | |
| IW2NTF | 2026-08-31 23:10:42 | 45.52906 | 8.68019 | 84° | 27km/h | 3358m | 4.8m/s | 4.3°C | 24.1% | 0hPa | 2.9V | 08:30:00 | 00:36:55 | 00:00:00 | |
| IW2NTF | 2026-08-31 23:10:36 | 45.52882 | 8.67970 | 54° | 22km/h | 3325m | 5m/s | 4.6°C | 23.6% | 0hPa | 2.9V | 08:30:00 | 00:36:49 | 00:00:00 | |
| IW2NTF | 2026-08-31 23:10:30 | 45.52860 | 8.67920 | 33° | 18km/h | 3290m | 5.6m/s | 4.8°C | 20.4% | 0hPa | 2.9V | 08:30:00 | 00:36:43 | 00:00:00 | |
| IW2NTF | 2026-08-31 23:10:24 | 45.52853 | 8.67880 | 68° | 35km/h | 3259m | 4.7m/s | 4.8°C | 22.2% | 0hPa | 2.9V | 08:30:00 | 00:36:37 | 00:00:00 | |
| IW2NTF | 2026-08-31 23:10:18 | 45.52842 | 8.67827 | 101° | 26km/h | 3228m | 6.4m/s | 5°C | 27.4% | 0hPa | 2.9V | 08:30:00 | 00:36:31 | 00:00:00 | |
| IW2NTF | 2026-08-31 23:10:12 | 45.52826 | 8.67770 | 32° | 22km/h | 3196m | 4.6m/s | 5.2°C | 29.3% | 0hPa | 3V | 08:30:00 | 00:36:25 | 00:00:00 | |
| IW2NTF | 2026-08-31 23:10:06 | 45.52800 | 8.67723 | 72° | 38km/h | 3164m | 4.9m/s | 5.4°C | 33.2% | 0hPa | 2.9V | 08:30:00 | 00:36:19 | 00:00:00 | |
| IW2NTF | 2026-08-31 23:10:00 | 45.52777 | 8.67666 | 60° | 16km/h | 3137m | 5.3m/s | 5.5°C | 34.9% | 0hPa | 3V | 08:30:00 | 00:36:13 | 00:00:00 | |
| IW2NTF | 2026-08-31 23:09:54 | 45.52766 | 8.67617 | 47° | 24km/h | 3100m | 6.5m/s | 5°C | 86.7% | 0hPa | 2.9V | 08:30:00 | 00:36:07 | 00:00:00 | |
| IW2NTF | 2026-08-31 23:09:46 | 45.52753 | 8.67565 | 45° | 24km/h | 3057m | 5.5m/s | 5.5°C | 80% | 0hPa | 2.9V | 08:30:00 | 00:35:59 | 00:00:00 | |
| IW2NTF | 2026-08-31 23:09:40 | 45.52736 | 8.67524 | 68° | 37km/h | 3022m | 7.2m/s | 5.9°C | 71.2% | 0hPa | 2.9V | 08:30:00 | 00:35:53 | 00:00:00 | |
| IW2NTF | 2026-08-31 23:09:34 | 45.52716 | 8.67489 | 48° | 4km/h | 2985m | 6.7m/s | 6.2°C | 78.3% | 0hPa | 2.9V | 08:30:00 | 00:35:47 | 00:00:00 | |
| IW2NTF | 2026-08-31 23:09:28 | 45.52692 | 8.67470 | 42° | 26km/h | 2953m | 6m/s | 6.5°C | 77.3% | 0hPa | 3V | 08:30:00 | 00:35:41 | 00:00:00 | |
| IW2NTF | 2026-08-31 23:09:22 | 45.52681 | 8.67431 | 58° | 26km/h | 2922m | 4.9m/s | 6.8°C | 76.8% | 0hPa | 2.9V | 08:30:00 | 00:35:35 | 00:00:00 | |
| IW2NTF | 2026-08-31 23:09:16 | 45.52667 | 8.67405 | 100° | 11km/h | 2889m | 4.9m/s | 7°C | 75.9% | 0hPa | 3V | 08:30:00 | 00:35:29 | 00:00:00 | |
| IW2NTF | 2026-08-31 23:09:10 | 45.52653 | 8.67392 | 31° | 27km/h | 2868m | 4.2m/s | 7.3°C | 75.1% | 0hPa | 3V | 08:30:00 | 00:35:23 | 00:00:00 | |
| IW2NTF | 2026-08-31 23:09:04 | 45.52616 | 8.67365 | 25° | 15km/h | 2844m | 4m/s | 7.6°C | 71.7% | 0hPa | 2.9V | 08:30:00 | 00:35:17 | 00:00:00 | |
| IW2NTF | 2026-08-31 23:08:58 | 45.52612 | 8.67349 | 51° | 9km/h | 2819m | 4.1m/s | 7.7°C | 79.3% | 0hPa | 3V | 08:30:00 | 00:35:11 | 00:00:00 | |
| IW2NTF | 2026-08-31 23:08:52 | 45.52583 | 8.67326 | 36° | 31km/h | 2787m | 4.7m/s | 8.1°C | 73.3% | 0hPa | 3V | 08:30:00 | 00:35:05 | 00:00:00 | |
| IW2NTF | 2026-08-31 23:08:46 | 45.52541 | 8.67288 | 23° | 26km/h | 2763m | 4.6m/s | 8.3°C | 73.3% | 0hPa | 3V | 08:30:00 | 00:34:59 | 00:00:00 | |
| IW2NTF | 2026-08-31 23:08:40 | 45.52528 | 8.67253 | 65° | 33km/h | 2731m | 6m/s | 8.7°C | 66.1% | 0hPa | 2.9V | 08:30:00 | 00:34:53 | 00:00:00 | |
| IW2NTF | 2026-08-31 23:08:34 | 45.52499 | 8.67213 | 61° | 18km/h | 2694m | 5m/s | 8.9°C | 72.3% | 0hPa | 3V | 08:30:00 | 00:34:47 | 00:00:00 | |
| IW2NTF | 2026-08-31 23:08:28 | 45.52475 | 8.67178 | 10° | 16km/h | 2659m | 7m/s | 9.2°C | 74% | 0hPa | 2.9V | 08:30:00 | 00:34:41 | 00:00:00 | |
| IW2NTF | 2026-08-31 23:08:22 | 45.52466 | 8.67151 | 68° | 31km/h | 2626m | 4.5m/s | 9.5°C | 73.8% | 0hPa | 2.9V | 08:30:00 | 00:34:35 | 00:00:00 | |
| IW2NTF | 2026-08-31 23:08:16 | 45.52448 | 8.67097 | 57° | 9km/h | 2596m | 6.2m/s | 9.8°C | 74.3% | 0hPa | 2.9V | 08:30:00 | 00:34:29 | 00:00:00 | |
| IW2NTF | 2026-08-31 23:08:10 | 45.52443 | 8.67061 | 63° | 33km/h | 2567m | 5.7m/s | 10.1°C | 74.2% | 0hPa | 2.9V | 08:30:00 | 00:34:23 | 00:00:00 | |
| IW2NTF | 2026-08-31 23:08:04 | 45.52407 | 8.67018 | 39° | 26km/h | 2537m | 6.4m/s | 10.4°C | 73.5% | 0hPa | 3V | 08:30:00 | 00:34:17 | 00:00:00 | |
| IW2NTF | 2026-08-31 23:07:58 | 45.52395 | 8.66968 | 81° | 26km/h | 2509m | 3.7m/s | 10.7°C | 67.1% | 0hPa | 3V | 08:30:00 | 00:34:11 | 00:00:00 | |
| IW2NTF | 2026-08-31 23:07:50 | 45.52378 | 8.66929 | 15° | 29km/h | 2471m | 6.5m/s | 11.1°C | 58.6% | 0hPa | 2.9V | 08:30:00 | 00:34:03 | 00:00:00 | |
| IW2NTF | 2026-08-31 23:07:44 | 45.52352 | 8.66885 | 85° | 15km/h | 2444m | 4.7m/s | 11.4°C | 57.9% | 0hPa | 3V | 08:30:00 | 00:33:57 | 00:00:00 | |
| IW2NTF | 2026-08-31 23:07:38 | 45.52340 | 8.66879 | 23° | 11km/h | 2410m | 6.9m/s | 11.6°C | 60.8% | 0hPa | 3V | 08:30:00 | 00:33:51 | 00:00:00 | |
| IW2NTF | 2026-08-31 23:07:32 | 45.52328 | 8.66842 | 58° | 9km/h | 2382m | 3.9m/s | 11.9°C | 58.1% | 0hPa | 2.9V | 08:30:00 | 00:33:45 | 00:00:00 | |
| IW2NTF | 2026-08-31 23:07:24 | 45.52320 | 8.66803 | 48° | 27km/h | 2345m | 4.6m/s | 12.2°C | 60.2% | 0hPa | 2.9V | 08:30:00 | 00:33:37 | 00:00:00 | |
| IW2NTF | 2026-08-31 23:07:19 | 45.52299 | 8.66790 | 88° | 11km/h | 2316m | 4.8m/s | 12.5°C | 56.8% | 0hPa | 2.9V | 08:30:00 | 00:33:31 | 00:00:00 | |
| IW2NTF | 2026-08-31 23:07:12 | 45.52280 | 8.66755 | 18° | 16km/h | 2283m | 5.5m/s | 12.8°C | 55% | 0hPa | 2.9V | 08:30:00 | 00:33:25 | 00:00:00 | |
| IW2NTF | 2026-08-31 23:07:06 | 45.52261 | 8.66733 | 23° | 22km/h | 2251m | 5.1m/s | 13.1°C | 54.9% | 0hPa | 3V | 08:30:00 | 00:33:19 | 00:00:00 | |
| IW2NTF | 2026-08-31 23:07:00 | 45.52237 | 8.66700 | 83° | 24km/h | 2224m | 5.2m/s | 13.4°C | 48.3% | 0hPa | 2.9V | 08:30:00 | 00:33:13 | 00:00:00 | |
| IW2NTF | 2026-08-31 23:06:54 | 45.52240 | 8.66667 | 69° | 16km/h | 2197m | 6.2m/s | 13.7°C | 43.5% | 0hPa | 3V | 08:30:00 | 00:33:07 | 00:00:00 | |
| IW2NTF | 2026-08-31 23:06:48 | 45.52214 | 8.66635 | 58° | 16km/h | 2172m | 5m/s | 13.8°C | 50.1% | 0hPa | 2.9V | 08:30:00 | 00:33:01 | 00:00:00 | |
| IW2NTF | 2026-08-31 23:06:43 | 45.52220 | 8.66600 | 85° | 20km/h | 2139m | 3.3m/s | 14.1°C | 50.4% | 0hPa | 3V | 08:30:00 | 00:32:55 | 00:00:00 | |
| IW2NTF | 2026-08-31 23:06:36 | 45.52201 | 8.66551 | 69° | 27km/h | 2113m | 4.5m/s | 14.4°C | 46% | 0hPa | 2.9V | 08:30:00 | 00:32:49 | 00:00:00 | |
| IW2NTF | 2026-08-31 23:06:30 | 45.52205 | 8.66512 | 33° | 13km/h | 2085m | 6.3m/s | 14.6°C | 49.4% | 0hPa | 2.9V | 08:30:00 | 00:32:43 | 00:00:00 | |
| IW2NTF | 2026-08-31 23:06:24 | 45.52180 | 8.66488 | 70° | 18km/h | 2061m | 5.3m/s | 14.8°C | 50.3% | 0hPa | 2.9V | 08:30:00 | 00:32:37 | 00:00:00 | |
| IW2NTF | 2026-08-31 23:06:18 | 45.52184 | 8.66475 | 342° | 9km/h | 2029m | 5.2m/s | 14.9°C | 52.3% | 0hPa | 3V | 08:30:00 | 00:32:31 | 00:00:00 | |
| IW2NTF | 2026-08-31 23:06:08 | 45.52172 | 8.66458 | 84° | 15km/h | 1998m | 5.7m/s | 15.1°C | 55.5% | 0hPa | 3V | 08:30:00 | 00:32:25 | 00:00:00 | |
| IW2NTF | 2026-08-31 23:06:08 | 45.52169 | 8.66450 | 47° | 13km/h | 1988m | 4.4m/s | 15.2°C | 56.2% | 0hPa | 3V | 08:30:00 | 00:32:23 | 00:00:00 | |
| IW2NTF | 2026-08-31 23:06:08 | 45.52164 | 8.66442 | 47° | 18km/h | 1978m | 4.8m/s | 15.3°C | 57.8% | 0hPa | 2.9V | 08:30:00 | 00:32:21 | 00:00:00 | |
| IW2NTF | 2026-08-31 23:06:02 | 45.52160 | 8.66433 | 78° | 9km/h | 1969m | 4.6m/s | 15.3°C | 57.5% | 0hPa | 2.9V | 08:30:00 | 00:32:19 | 00:00:00 | |
| IW2NTF | 2026-08-31 23:06:02 | 45.52161 | 8.66429 | 140° | 7km/h | 1961m | 5.1m/s | 15.4°C | 57.5% | 0hPa | 3V | 08:30:00 | 00:32:17 | 00:00:00 | |
| IW2NTF | 2026-08-31 23:06:02 | 45.52165 | 8.66424 | 122° | 11km/h | 1952m | 3.7m/s | 15.5°C | 57.5% | 0hPa | 3V | 08:30:00 | 00:32:15 | 00:00:00 | |
| IW2NTF | 2026-08-31 23:05:56 | 45.52164 | 8.66414 | 87° | 16km/h | 1945m | 4.7m/s | 15.6°C | 57.2% | 0hPa | 3V | 08:30:00 | 00:32:13 | 00:00:00 | |
| IW2NTF | 2026-08-31 23:05:56 | 45.52166 | 8.66400 | 109° | 22km/h | 1935m | 4.9m/s | 15.7°C | 56.9% | 0hPa | 2.9V | 08:30:00 | 00:32:11 | 00:00:00 | |
| IW2NTF | 2026-08-31 23:05:56 | 45.52170 | 8.66386 | 126° | 18km/h | 1927m | 3.3m/s | 15.7°C | 56.7% | 0hPa | 2.9V | 08:30:00 | 00:32:09 | 00:00:00 | |
| IW2NTF | 2026-08-31 23:05:50 | 45.52176 | 8.66379 | 150° | 11km/h | 1919m | 5.1m/s | 15.8°C | 56.6% | 0hPa | 3V | 08:30:00 | 00:32:07 | 00:00:00 | |
| IW2NTF | 2026-08-31 23:05:50 | 45.52179 | 8.66377 | 233° | 2km/h | 1908m | 5.9m/s | 15.9°C | 56.1% | 0hPa | 3V | 08:30:00 | 00:32:05 | 00:00:00 | |
| IW2NTF | 2026-08-31 23:05:50 | 45.52177 | 8.66380 | 327° | 5km/h | 1898m | 3.9m/s | 16°C | 55.3% | 0hPa | 3V | 08:30:00 | 00:32:03 | 00:00:00 | |
| IW2NTF | 2026-08-31 23:05:44 | 45.52176 | 8.66379 | 97° | 5km/h | 1890m | 4.2m/s | 16.1°C | 54.5% | 0hPa | 2.9V | 08:30:00 | 00:32:01 | 00:00:00 | |
| IW2NTF | 2026-08-31 23:05:44 | 45.52178 | 8.66373 | 106° | 13km/h | 1882m | 4.4m/s | 16.2°C | 54.6% | 0hPa | 3V | 08:30:00 | 00:31:59 | 00:00:00 | |
| IW2NTF | 2026-08-31 23:05:44 | 45.52178 | 8.66362 | 84° | 16km/h | 1874m | 3.4m/s | 16.2°C | 55.1% | 0hPa | 3V | 08:30:00 | 00:31:57 | 00:00:00 | |
| IW2NTF | 2026-08-31 23:05:38 | 45.52179 | 8.66344 | 147° | 11km/h | 1859m | 4.5m/s | 16.3°C | 56.2% | 0hPa | 2.9V | 08:30:00 | 00:31:53 | 00:00:00 | |
| IW2NTF | 2026-08-31 23:05:38 | 45.52186 | 8.66338 | 136° | 15km/h | 1850m | 4.2m/s | 16.3°C | 58.7% | 0hPa | 2.9V | 08:30:00 | 00:31:51 | 00:00:00 | |
| IW2NTF | 2026-08-31 23:05:32 | 45.52188 | 8.66327 | 86° | 16km/h | 1843m | 4m/s | 16.4°C | 58.7% | 0hPa | 2.9V | 08:30:00 | 00:31:49 | 00:00:00 | |
| IW2NTF | 2026-08-31 23:05:32 | 45.52185 | 8.66317 | 41° | 11km/h | 1835m | 5.3m/s | 16.4°C | 59.8% | 0hPa | 3V | 08:30:00 | 00:31:47 | 00:00:00 | |
| IW2NTF | 2026-08-31 23:05:32 | 45.52178 | 8.66313 | 18° | 18km/h | 1825m | 4.6m/s | 16.5°C | 59.6% | 0hPa | 2.9V | 08:30:00 | 00:31:45 | 00:00:00 | |
| IW2NTF | 2026-08-31 23:05:27 | 45.52171 | 8.66307 | 41° | 18km/h | 1818m | 3.6m/s | 16.6°C | 59.1% | 0hPa | 2.9V | 08:30:00 | 00:31:43 | 00:00:00 | |
| IW2NTF | 2026-08-31 23:05:27 | 45.52166 | 8.66297 | 87° | 16km/h | 1810m | 3.9m/s | 16.7°C | 59.2% | 0hPa | 2.9V | 08:30:00 | 00:31:41 | 00:00:00 | |
| IW2NTF | 2026-08-31 23:05:27 | 45.52169 | 8.66287 | 135° | 16km/h | 1800m | 5.2m/s | 16.8°C | 58.7% | 0hPa | 2.9V | 08:30:00 | 00:31:39 | 00:00:00 | |
| IW2NTF | 2026-08-31 23:05:20 | 45.52176 | 8.66284 | 184° | 13km/h | 1790m | 4.8m/s | 16.9°C | 58.2% | 0hPa | 3V | 08:30:00 | 00:31:37 | 00:00:00 | |
| IW2NTF | 2026-08-31 23:05:20 | 45.52180 | 8.66288 | 277° | 5km/h | 1781m | 5m/s | 16.9°C | 57.7% | 0hPa | 2.9V | 08:30:00 | 00:31:35 | 00:00:00 | |
| IW2NTF | 2026-08-31 23:05:20 | 45.52177 | 8.66290 | 4° | 11km/h | 1771m | 6.2m/s | 17°C | 56.8% | 0hPa | 2.9V | 08:30:00 | 00:31:33 | 00:00:00 | |
| IW2NTF | 2026-08-31 23:05:14 | 45.52170 | 8.66284 | 42° | 16km/h | 1759m | 5.2m/s | 17.1°C | 55.7% | 0hPa | 2.9V | 08:30:00 | 00:31:31 | 00:00:00 | |
| IW2NTF | 2026-08-31 23:05:14 | 45.52165 | 8.66278 | 26° | 9km/h | 1748m | 5.9m/s | 17.2°C | 55.5% | 0hPa | 3V | 08:30:00 | 00:31:29 | 00:00:00 | |
| IW2NTF | 2026-08-31 23:05:14 | 45.52163 | 8.66279 | 277° | 5km/h | 1739m | 5.3m/s | 17.2°C | 57% | 0hPa | 3V | 08:30:00 | 00:31:27 | 00:00:00 | |
| IW2NTF | 2026-08-31 23:05:08 | 45.52162 | 8.66281 | 4° | 7km/h | 1728m | 6m/s | 17.4°C | 56.1% | 0hPa | 2.9V | 08:30:00 | 00:31:25 | 00:00:00 | |
| IW2NTF | 2026-08-31 23:05:08 | 45.52157 | 8.66278 | 33° | 15km/h | 1718m | 4.3m/s | 17.5°C | 52.8% | 0hPa | 3V | 08:30:00 | 00:31:23 | 00:00:00 | |
| IW2NTF | 2026-08-31 23:05:08 | 45.52150 | 8.66273 | 20° | 13km/h | 1711m | 4.3m/s | 17.6°C | 50.4% | 0hPa | 3V | 08:30:00 | 00:31:21 | 00:00:00 | |
| IW2NTF | 2026-08-31 23:05:02 | 45.52147 | 8.66273 | 236° | 2km/h | 1702m | 4.6m/s | 17.7°C | 50.2% | 0hPa | 2.9V | 08:30:00 | 00:31:19 | 00:00:00 | |
| IW2NTF | 2026-08-31 23:05:02 | 45.52150 | 8.66270 | 142° | 13km/h | 1693m | 4.3m/s | 17.8°C | 49.7% | 0hPa | 2.9V | 08:30:00 | 00:31:17 | 00:00:00 | |
| IW2NTF | 2026-08-31 23:05:02 | 45.52153 | 8.66260 | 94° | 20km/h | 1682m | 5.5m/s | 17.8°C | 50.9% | 0hPa | 2.9V | 08:30:00 | 00:31:15 | 00:00:00 | |
| IW2NTF | 2026-08-31 23:04:56 | 45.52151 | 8.66249 | 46° | 11km/h | 1673m | 4.9m/s | 17.9°C | 51.4% | 0hPa | 2.9V | 08:30:00 | 00:31:13 | 00:00:00 | |
| IW2NTF | 2026-08-31 23:04:56 | 45.52148 | 8.66248 | 327° | 5km/h | 1664m | 5.8m/s | 17.9°C | 52% | 0hPa | 2.9V | 08:30:00 | 00:31:11 | 00:00:00 | |
| IW2NTF | 2026-08-31 23:04:56 | 45.52150 | 8.66251 | 196° | 9km/h | 1654m | 4.8m/s | 18°C | 53% | 0hPa | 2.9V | 08:30:00 | 00:31:09 | 00:00:00 | |
| IW2NTF | 2026-08-31 23:04:50 | 45.52157 | 8.66248 | 142° | 18km/h | 1644m | 3.6m/s | 18°C | 54.6% | 0hPa | 2.9V | 08:30:00 | 00:31:07 | 00:00:00 | |
| IW2NTF | 2026-08-31 23:04:50 | 45.52161 | 8.66238 | 86° | 16km/h | 1636m | 4.4m/s | 18.1°C | 55.8% | 0hPa | 3V | 08:30:00 | 00:31:05 | 00:00:00 | |
| IW2NTF | 2026-08-31 23:04:50 | 45.52158 | 8.66228 | 34° | 11km/h | 1626m | 4.7m/s | 18.1°C | 57.7% | 0hPa | 2.9V | 08:30:00 | 00:31:03 | 00:00:00 | |
| IW2NTF | 2026-08-31 23:04:44 | 45.52154 | 8.66227 | 282° | 2km/h | 1617m | 4.3m/s | 18.1°C | 57.6% | 0hPa | 2.9V | 08:30:00 | 00:31:01 | 00:00:00 | |
| IW2NTF | 2026-08-31 23:04:44 | 45.52158 | 8.66228 | 174° | 13km/h | 1606m | 5.4m/s | 18.2°C | 57.2% | 0hPa | 2.9V | 08:30:00 | 00:30:59 | 00:00:00 | |
| IW2NTF | 2026-08-31 23:04:44 | 45.52165 | 8.66221 | 128° | 24km/h | 1596m | 5m/s | 18.3°C | 57.6% | 0hPa | 3V | 08:30:00 | 00:30:57 | 00:00:00 | |
| IW2NTF | 2026-08-31 23:04:38 | 45.52169 | 8.66207 | 98° | 24km/h | 1587m | 4.6m/s | 18.3°C | 59.7% | 0hPa | 3V | 08:30:00 | 00:30:55 | 00:00:00 | |
| IW2NTF | 2026-08-31 23:04:38 | 45.52169 | 8.66191 | 78° | 22km/h | 1577m | 5.5m/s | 18.3°C | 59.7% | 0hPa | 2.9V | 08:30:00 | 00:30:53 | 00:00:00 | |
| IW2NTF | 2026-08-31 23:04:38 | 45.52168 | 8.66178 | 80° | 13km/h | 1567m | 4.6m/s | 18.4°C | 57.8% | 0hPa | 3V | 08:30:00 | 00:30:51 | 00:00:00 | |
| IW2NTF | 2026-08-31 23:04:32 | 45.52169 | 8.66174 | 164° | 11km/h | 1558m | 5.4m/s | 18.5°C | 57.7% | 0hPa | 2.9V | 08:30:00 | 00:30:49 | 00:00:00 | |
| IW2NTF | 2026-08-31 23:04:32 | 45.52178 | 8.66172 | 169° | 18km/h | 1548m | 4.5m/s | 18.5°C | 57.6% | 0hPa | 3V | 08:30:00 | 00:30:47 | 00:00:00 | |
| IW2NTF | 2026-08-31 23:04:32 | 45.52188 | 8.66166 | 149° | 24km/h | 1542m | 3.5m/s | 18.4°C | 59% | 0hPa | 2.9V | 08:30:00 | 00:30:45 | 00:00:00 | |
| IW2NTF | 2026-08-31 23:04:26 | 45.52197 | 8.66155 | 126° | 24km/h | 1533m | 4.4m/s | 18.5°C | 62% | 0hPa | 2.9V | 08:30:00 | 00:30:43 | 00:00:00 | |
| IW2NTF | 2026-08-31 23:04:26 | 45.52201 | 8.66144 | 95° | 15km/h | 1525m | 3.7m/s | 18.5°C | 62.6% | 0hPa | 3V | 08:30:00 | 00:30:41 | 00:00:00 | |
| IW2NTF | 2026-08-31 23:04:26 | 45.52200 | 8.66139 | 353° | 4km/h | 1515m | 5.6m/s | 18.6°C | 63% | 0hPa | 2.9V | 08:30:00 | 00:30:39 | 00:00:00 | |
| IW2NTF | 2026-08-31 23:04:20 | 45.52199 | 8.66142 | 273° | 5km/h | 1504m | 3.8m/s | 18.6°C | 66% | 0hPa | 3V | 08:30:00 | 00:30:37 | 00:00:00 | |
| IW2NTF | 2026-08-31 23:04:20 | 45.52198 | 8.66146 | 283° | 4km/h | 1496m | 3.9m/s | 18.6°C | 66.7% | 0hPa | 2.9V | 08:30:00 | 00:30:35 | 00:00:00 | |
| IW2NTF | 2026-08-31 23:04:20 | 45.52197 | 8.66145 | 89° | 5km/h | 1489m | 4.2m/s | 18.7°C | 66% | 0hPa | 2.9V | 08:30:00 | 00:30:33 | 00:00:00 | |
| IW2NTF | 2026-08-31 23:04:14 | 45.52196 | 8.66140 | 96° | 11km/h | 1481m | 5.6m/s | 18.8°C | 65.7% | 0hPa | 3V | 08:30:00 | 00:30:31 | 00:00:00 | |
| IW2NTF | 2026-08-31 23:04:14 | 45.52197 | 8.66132 | 100° | 11km/h | 1471m | 5m/s | 18.9°C | 66.1% | 0hPa | 3V | 08:30:00 | 00:30:29 | 00:00:00 | |
| IW2NTF | 2026-08-31 23:04:14 | 45.52199 | 8.66125 | 121° | 9km/h | 1462m | 3.5m/s | 18.9°C | 65.9% | 0hPa | 2.9V | 08:30:00 | 00:30:27 | 00:00:00 | |
| IW2NTF | 2026-08-31 23:04:08 | 45.52203 | 8.66117 | 129° | 16km/h | 1455m | 3.4m/s | 19°C | 65.4% | 0hPa | 2.9V | 08:30:00 | 00:30:25 | 00:00:00 | |
| IW2NTF | 2026-08-31 23:04:08 | 45.52208 | 8.66107 | 111° | 16km/h | 1449m | 3m/s | 19.1°C | 65.2% | 0hPa | 2.9V | 08:30:00 | 00:30:23 | 00:00:00 | |
| IW2NTF | 2026-08-31 23:04:08 | 45.52211 | 8.66102 | 189° | 5km/h | 1443m | 4.5m/s | 19.1°C | 65% | 0hPa | 3V | 08:30:00 | 00:30:21 | 00:00:00 | |
| IW2NTF | 2026-08-31 23:04:02 | 45.52217 | 8.66106 | 203° | 16km/h | 1431m | 6.3m/s | 19.3°C | 64.3% | 0hPa | 3V | 08:30:00 | 00:30:19 | 00:00:00 | |
| IW2NTF | 2026-08-31 23:04:02 | 45.52227 | 8.66111 | 197° | 26km/h | 1418m | 5.9m/s | 19.4°C | 65.1% | 0hPa | 2.9V | 08:30:00 | 00:30:17 | 00:00:00 | |
| IW2NTF | 2026-08-31 23:04:02 | 45.52240 | 8.66114 | 183° | 24km/h | 1407m | 4.8m/s | 19.5°C | 64.5% | 0hPa | 3V | 08:30:00 | 00:30:15 | 00:00:00 | |
| IW2NTF | 2026-08-31 23:03:56 | 45.52252 | 8.66114 | 175° | 24km/h | 1398m | 4m/s | 19.6°C | 63.8% | 0hPa | 2.9V | 08:30:00 | 00:30:13 | 00:00:00 | |
| IW2NTF | 2026-08-31 23:03:56 | 45.52266 | 8.66112 | 162° | 27km/h | 1389m | 5.7m/s | 19.7°C | 63.1% | 0hPa | 3V | 08:30:00 | 00:30:11 | 00:00:00 | |
| IW2NTF | 2026-08-31 23:03:56 | 45.52277 | 8.66105 | 143° | 22km/h | 1380m | 4.4m/s | 19.7°C | 63.4% | 0hPa | 2.9V | 08:30:00 | 00:30:09 | 00:00:00 | |
| IW2NTF | 2026-08-31 23:03:49 | 45.52282 | 8.66098 | 120° | 7km/h | 1372m | 3.5m/s | 19.8°C | 63.8% | 0hPa | 2.9V | 08:30:00 | 00:30:07 | 00:00:00 | |
| IW2NTF | 2026-08-31 23:03:49 | 45.52282 | 8.66093 | 65° | 7km/h | 1365m | 4.1m/s | 19.9°C | 62% | 0hPa | 2.9V | 08:30:00 | 00:30:05 | 00:00:00 | |
| IW2NTF | 2026-08-31 23:03:49 | 45.52292 | 8.66080 | 167° | 26km/h | 1345m | 6.8m/s | 19.9°C | 0% | 0hPa | 3V | 08:30:00 | 00:30:01 | 00:00:00 | |
| IW2NTF | 2026-08-31 23:03:44 | 45.52306 | 8.66083 | 199° | 27km/h | 1333m | 5.6m/s | 19.7°C | 0% | 0hPa | 3V | 08:30:00 | 00:29:59 | 00:00:00 | |
| IW2NTF | 2026-08-31 23:03:44 | 45.52316 | 8.66090 | 210° | 18km/h | 1321m | 5.8m/s | 19.7°C | 0% | 0hPa | 2.9V | 08:30:00 | 00:29:57 | 00:00:00 | |
| IW2NTF | 2026-08-31 23:03:44 | 45.52321 | 8.66094 | 188° | 4km/h | 1310m | 4.8m/s | 19.9°C | 0% | 0hPa | 2.9V | 08:30:00 | 00:29:55 | 00:00:00 | |
| IW2NTF | 2026-08-31 23:03:36 | 45.52322 | 8.66091 | 139° | 5km/h | 1299m | 5m/s | 19.9°C | 0% | 0hPa | 2.9V | 08:30:00 | 00:29:53 | 00:00:00 | |
| IW2NTF | 2026-08-31 23:03:36 | 45.52324 | 8.66087 | 138° | 9km/h | 1292m | 3.3m/s | 20°C | 0% | 0hPa | 3V | 08:30:00 | 00:29:51 | 00:00:00 | |
| IW2NTF | 2026-08-31 23:03:36 | 45.52327 | 8.66082 | 106° | 5km/h | 1286m | 3.6m/s | 0°C | 0% | 0hPa | 2.9V | 08:30:00 | 00:29:49 | 00:00:00 | |
| IW2NTF | 2026-08-31 23:03:30 | 45.52327 | 8.66079 | 102° | 5km/h | 1280m | 3.6m/s | 0°C | 0% | 0hPa | 2.9V | 08:30:00 | 00:29:47 | 00:00:00 | |
| IW2NTF | 2026-08-31 23:03:30 | 45.52326 | 8.66076 | 351° | 4km/h | 1273m | 4.3m/s | 0°C | 0% | 0hPa | 2.9V | 08:30:00 | 00:29:45 | 00:00:00 | |
| IW2NTF | 2026-08-31 23:03:30 | 45.52325 | 8.66079 | 257° | 9km/h | 1264m | 4.9m/s | 0°C | 0% | 0hPa | 2.9V | 00:00:00 | 00:29:43 | 00:00:00 | |
| IW2NTF | 2026-08-31 23:03:24 | 45.52328 | 8.66089 | 231° | 20km/h | 1255m | 5.2m/s | 0°C | 0% | 0hPa | 3V | 00:00:00 | 00:29:41 | 00:00:00 | |
| IW2NTF | 2026-08-31 23:03:24 | 45.52336 | 8.66101 | 223° | 27km/h | 1244m | 4.2m/s | 0°C | 0% | 0hPa | 2.9V | 00:00:00 | 00:29:39 | 00:00:00 | |
| IW2NTF | 2026-08-31 23:03:24 | 45.52344 | 8.66112 | 220° | 18km/h | 1237m | 5.5m/s | 0°C | 0% | 0hPa | 2.9V | 00:00:00 | 00:29:37 | 00:00:00 | |
| IW2NTF | 2026-08-31 23:03:18 | 45.52349 | 8.66117 | 194° | 4km/h | 1226m | 4.9m/s | 0°C | 0% | 0hPa | 2.9V | 00:00:00 | 00:29:35 | 00:00:00 | |
| IW2NTF | 2026-08-31 23:03:18 | 45.52352 | 8.66113 | 124° | 11km/h | 1215m | 5.8m/s | 0°C | 0% | 0hPa | 2.9V | 00:00:00 | 00:29:33 | 00:00:00 | |
| IW2NTF | 2026-08-31 23:03:18 | 45.52354 | 8.66110 | 174° | 5km/h | 1204m | 5.9m/s | 0°C | 0% | 0hPa | 2.9V | 00:00:00 | 00:29:31 | 00:00:00 | |
| IW2NTF | 2026-08-31 23:03:13 | 45.52356 | 8.66113 | 265° | 7km/h | 1191m | 6m/s | 0°C | 0% | 0hPa | 2.9V | 00:00:00 | 00:29:29 | 00:00:00 | |
| IW2NTF | 2026-08-31 23:03:13 | 45.52356 | 8.66115 | 152° | 4km/h | 1181m | 4.4m/s | 0°C | 0% | 0hPa | 2.9V | 00:00:00 | 00:29:27 | 00:00:00 | |
| IW2NTF | 2026-08-31 23:03:13 | 45.52360 | 8.66110 | 147° | 16km/h | 1173m | 3.8m/s | 0°C | 0% | 0hPa | 2.9V | 00:00:00 | 00:29:25 | 00:00:00 | |
| IW2NTF | 2026-08-31 23:03:06 | 45.52368 | 8.66102 | 150° | 24km/h | 1164m | 4.7m/s | 0°C | 0% | 0hPa | 3V | 00:00:00 | 00:29:23 | 00:00:00 | |
| IW2NTF | 2026-08-31 23:03:06 | 45.52377 | 8.66095 | 165° | 15km/h | 1155m | 4.5m/s | 0°C | 0% | 0hPa | 2.9V | 00:00:00 | 00:29:21 | 00:00:00 | |
| IW2NTF | 2026-08-31 23:03:06 | 45.52382 | 8.66097 | 227° | 11km/h | 1144m | 6.4m/s | 0°C | 0% | 0hPa | 2.9V | 00:00:00 | 00:29:19 | 00:00:00 | |
| IW2NTF | 2026-08-31 23:03:01 | 45.52385 | 8.66107 | 240° | 16km/h | 1129m | 6.6m/s | 0°C | 0% | 0hPa | 3V | 00:00:00 | 00:29:17 | 00:00:00 | |
| IW2NTF | 2026-08-31 23:03:01 | 45.52390 | 8.66118 | 236° | 18km/h | 1119m | 4.4m/s | 0°C | 0% | 0hPa | 3V | 00:00:00 | 00:29:15 | 00:00:00 | |
| IW2NTF | 2026-08-31 23:03:01 | 45.52394 | 8.66128 | 255° | 15km/h | 1110m | 3.8m/s | 0°C | 0% | 0hPa | 2.9V | 00:00:00 | 00:29:13 | 00:00:00 | |
| IW2NTF | 2026-08-31 23:02:54 | 45.52393 | 8.66132 | 354° | 4km/h | 1102m | 4.4m/s | 0°C | 0% | 0hPa | 2.9V | 00:00:00 | 00:29:11 | 00:00:00 | |
| IW2NTF | 2026-08-31 23:02:54 | 45.52393 | 8.66128 | 130° | 11km/h | 1094m | 3.5m/s | 0°C | 0% | 0hPa | 2.9V | 00:00:00 | 00:29:09 | 00:00:00 | |
| IW2NTF | 2026-08-31 23:02:54 | 45.52401 | 8.66121 | 160° | 24km/h | 1084m | 5.1m/s | 0°C | 0% | 0hPa | 2.9V | 00:00:00 | 00:29:07 | 00:00:00 | |
| IW2NTF | 2026-08-31 23:02:49 | 45.52414 | 8.66121 | 187° | 29km/h | 1074m | 4.9m/s | 0°C | 0% | 0hPa | 2.9V | 00:00:00 | 00:29:05 | 00:00:00 | |
| IW2NTF | 2026-08-31 23:02:49 | 45.52426 | 8.66129 | 220° | 24km/h | 1065m | 4.1m/s | 0°C | 0% | 0hPa | 2.9V | 00:00:00 | 00:29:03 | 00:00:00 | |
| IW2NTF | 2026-08-31 23:02:49 | 45.52433 | 8.66139 | 236° | 16km/h | 1058m | 5.2m/s | 0°C | 0% | 0hPa | 2.9V | 00:00:00 | 00:29:01 | 00:00:00 | |
| IW2NTF | 2026-08-31 23:02:43 | 45.52436 | 8.66148 | 235° | 9km/h | 1045m | 7.7m/s | 0°C | 0% | 0hPa | 2.9V | 00:00:00 | 00:28:59 | 00:00:00 | |
| IW2NTF | 2026-08-31 23:02:43 | 45.52439 | 8.66149 | 158° | 11km/h | 1031m | 7.3m/s | 0°C | 0% | 0hPa | 2.9V | 00:00:00 | 00:28:57 | 00:00:00 | |
| IW2NTF | 2026-08-31 23:02:43 | 45.52449 | 8.66145 | 173° | 31km/h | 1016m | 7.9m/s | 0°C | 0% | 0hPa | 2.9V | 00:00:00 | 00:28:55 | 00:00:00 | |
| IW2NTF | 2026-08-31 23:02:37 | 45.52467 | 8.66151 | 198° | 37km/h | 1002m | 5.6m/s | 0°C | 0% | 0hPa | 3V | 00:00:00 | 00:28:53 | 00:00:00 | |
| IW2NTF | 2026-08-31 23:02:37 | 45.52482 | 8.66162 | 216° | 29km/h | 992m | 4.2m/s | 0°C | 0% | 0hPa | 2.9V | 00:00:00 | 00:28:51 | 00:00:00 | |
| IW2NTF | 2026-08-31 23:02:37 | 45.52491 | 8.66173 | 229° | 16km/h | 985m | 3.6m/s | 0°C | 0% | 0hPa | 2.9V | 00:00:00 | 00:28:49 | 00:00:00 | |
| IW2NTF | 2026-08-31 23:02:30 | 45.52496 | 8.66180 | 210° | 7km/h | 976m | 5.8m/s | 0°C | 0% | 0hPa | 2.9V | 00:00:00 | 00:28:47 | 00:00:00 | |
| IW2NTF | 2026-08-31 23:02:30 | 45.52502 | 8.66181 | 169° | 13km/h | 966m | 5.1m/s | 0°C | 0% | 0hPa | 2.9V | 00:00:00 | 00:28:45 | 00:00:00 | |
| IW2NTF | 2026-08-31 23:02:30 | 45.52510 | 8.66177 | 155° | 22km/h | 956m | 4.6m/s | 0°C | 0% | 0hPa | 2.9V | 00:00:00 | 00:28:43 | 00:00:00 | |
| IW2NTF | 2026-08-31 23:02:24 | 45.52524 | 8.66172 | 174° | 33km/h | 947m | 4.7m/s | 0°C | 0% | 0hPa | 2.9V | 00:00:00 | 00:28:41 | 00:00:00 | |
| IW2NTF | 2026-08-31 23:02:24 | 45.52542 | 8.66174 | 193° | 40km/h | 937m | 4.5m/s | 0°C | 0% | 0hPa | 2.9V | 00:00:00 | 00:28:39 | 00:00:00 | |
| IW2NTF | 2026-08-31 23:02:24 | 45.52563 | 8.66185 | 200° | 44km/h | 928m | 4.8m/s | 0°C | 0% | 0hPa | 2.9V | 00:00:00 | 00:28:37 | 00:00:00 | |
| IW2NTF | 2026-08-31 23:02:18 | 45.52583 | 8.66190 | 179° | 37km/h | 916m | 6.2m/s | 0°C | 0% | 0hPa | 2.9V | 00:00:00 | 00:28:35 | 00:00:00 | |
| IW2NTF | 2026-08-31 23:02:18 | 45.52599 | 8.66186 | 163° | 27km/h | 903m | 7.2m/s | 0°C | 0% | 0hPa | 2.9V | 00:00:00 | 00:28:33 | 00:00:00 | |
| IW2NTF | 2026-08-31 23:02:18 | 45.52610 | 8.66187 | 205° | 18km/h | 891m | 7.1m/s | 0°C | 0% | 0hPa | 3V | 00:00:00 | 00:28:31 | 00:00:00 | |
| IW2NTF | 2026-08-31 23:02:12 | 45.52618 | 8.66196 | 225° | 22km/h | 878m | 5.3m/s | 0°C | 0% | 0hPa | 2.9V | 00:00:00 | 00:28:29 | 00:00:00 | |
| IW2NTF | 2026-08-31 23:02:12 | 45.52629 | 8.66212 | 217° | 40km/h | 867m | 5m/s | 0°C | 0% | 0hPa | 3V | 00:00:00 | 00:28:27 | 00:00:00 | |
| IW2NTF | 2026-08-31 23:02:12 | 45.52649 | 8.66226 | 192° | 44km/h | 858m | 4.9m/s | 0°C | 0% | 0hPa | 2.9V | 00:00:00 | 00:28:25 | 00:00:00 |